<?xml version="1.0" encoding="UTF-8" standalone="no" ?>
<gpx xmlns="http://www.topografix.com/GPX/1/1" xmlns:xsi="http://www.w3.org/2001/XMLSchema-instance" xsi:schemaLocation="http://www.topografix.com/GPX/1/1 http://www.topografix.com/GPX/1/1/gpx.xsd" version="1.1" creator="VisuGPX - https://www.visugpx.com">
  <metadata>
    <name>CCFM 029</name>
    <desc><![CDATA[✒️CS.Ivoz, Esneux, Remouchamps, [b]LOUVEGNÉE[/b], Les Forges, Mery, Tilff, Boncelles, Rotheux, 36 Tournants.]]></desc>
  </metadata>
  <wpt lat="50.53024" lon="5.71654">
    <ele>256.5</ele>
    <name><![CDATA[Café Le Pérréon]]></name>
    <desc><![CDATA[Louvegnée]]></desc>
  </wpt>
  <trk>
    <name><![CDATA[CCFM 029]]></name>
    <extensions>
      <line xmlns="http://www.topografix.com/GPX/gpx_style/0/2">
        <color>0000FF</color>
        <opacity>1</opacity>
        <width>4</width>
          <extensions>
            <sens>1</sens>
          </extensions>
      </line>
    </extensions>
    <trkseg>
      <trkpt lat="50.62329" lon="5.44819">
        <ele>187.9</ele>
      </trkpt>
      <trkpt lat="50.62323" lon="5.44855">
        <ele>188</ele>
        <time>2016-06-21T17:02:53Z</time>
      </trkpt>
      <trkpt lat="50.62321" lon="5.44898">
        <ele>188</ele>
        <time>2016-06-21T17:04:53Z</time>
      </trkpt>
      <trkpt lat="50.62319" lon="5.44992">
        <ele>187</ele>
        <time>2016-06-21T17:06:53Z</time>
      </trkpt>
      <trkpt lat="50.62319" lon="5.4504">
        <ele>187</ele>
        <time>2016-06-21T17:08:53Z</time>
      </trkpt>
      <trkpt lat="50.62321" lon="5.45136">
        <ele>186</ele>
        <time>2016-06-21T17:10:53Z</time>
      </trkpt>
      <trkpt lat="50.62326" lon="5.45201">
        <ele>186</ele>
        <time>2016-06-21T17:12:53Z</time>
      </trkpt>
      <trkpt lat="50.62328" lon="5.45311">
        <ele>187</ele>
        <time>2016-06-21T17:14:53Z</time>
      </trkpt>
      <trkpt lat="50.62329" lon="5.45396">
        <ele>187</ele>
        <time>2016-06-21T17:16:53Z</time>
      </trkpt>
      <trkpt lat="50.62331" lon="5.45461">
        <ele>186</ele>
        <time>2016-06-21T17:18:53Z</time>
      </trkpt>
      <trkpt lat="50.62332" lon="5.45472">
        <ele>186</ele>
        <time>2016-06-21T17:20:53Z</time>
      </trkpt>
      <trkpt lat="50.62335" lon="5.45565">
        <ele>185</ele>
        <time>2016-06-21T17:22:53Z</time>
      </trkpt>
      <trkpt lat="50.62333" lon="5.45602">
        <ele>185</ele>
        <time>2016-06-21T17:24:53Z</time>
      </trkpt>
      <trkpt lat="50.62319" lon="5.45641">
        <ele>183</ele>
        <time>2016-06-21T17:26:53Z</time>
      </trkpt>
      <trkpt lat="50.62311" lon="5.45681">
        <ele>183</ele>
        <time>2016-06-21T17:28:53Z</time>
      </trkpt>
      <trkpt lat="50.62305" lon="5.457">
        <ele>182</ele>
        <time>2016-06-21T17:30:53Z</time>
      </trkpt>
      <trkpt lat="50.62302" lon="5.45715">
        <ele>182</ele>
        <time>2016-06-21T17:32:53Z</time>
      </trkpt>
      <trkpt lat="50.6224" lon="5.45969">
        <ele>181.2</ele>
      </trkpt>
      <trkpt lat="50.6224" lon="5.4597">
        <ele>182</ele>
        <time>2016-06-16T22:32:53Z</time>
      </trkpt>
      <trkpt lat="50.62233" lon="5.4599">
        <ele>181</ele>
      </trkpt>
      <trkpt lat="50.62229" lon="5.45988">
        <ele>182</ele>
        <time>2016-06-16T22:34:53Z</time>
      </trkpt>
      <trkpt lat="50.62208" lon="5.45994">
        <ele>181</ele>
        <time>2016-06-16T22:36:53Z</time>
      </trkpt>
      <trkpt lat="50.6218" lon="5.46">
        <ele>181</ele>
        <time>2016-06-16T22:38:53Z</time>
      </trkpt>
      <trkpt lat="50.62157" lon="5.46003">
        <ele>181</ele>
        <time>2016-06-16T22:40:53Z</time>
      </trkpt>
      <trkpt lat="50.6213" lon="5.46015">
        <ele>181</ele>
        <time>2016-06-16T22:42:53Z</time>
      </trkpt>
      <trkpt lat="50.62105" lon="5.46035">
        <ele>181</ele>
        <time>2016-06-16T22:44:53Z</time>
      </trkpt>
      <trkpt lat="50.62084" lon="5.46048">
        <ele>181</ele>
        <time>2016-06-16T22:46:53Z</time>
      </trkpt>
      <trkpt lat="50.61965" lon="5.46108">
        <ele>176</ele>
        <time>2016-06-16T22:48:53Z</time>
      </trkpt>
      <trkpt lat="50.61953" lon="5.46115">
        <ele>175</ele>
        <time>2016-06-16T22:50:53Z</time>
      </trkpt>
      <trkpt lat="50.61934" lon="5.46125">
        <ele>174</ele>
        <time>2016-06-16T22:52:53Z</time>
      </trkpt>
      <trkpt lat="50.61908" lon="5.46138">
        <ele>173</ele>
        <time>2016-06-16T22:54:53Z</time>
      </trkpt>
      <trkpt lat="50.61901" lon="5.46141">
        <ele>173</ele>
        <time>2016-06-16T22:56:53Z</time>
      </trkpt>
      <trkpt lat="50.61881" lon="5.46145">
        <ele>172</ele>
        <time>2016-06-16T22:58:53Z</time>
      </trkpt>
      <trkpt lat="50.61875" lon="5.46145">
        <ele>171</ele>
        <time>2016-06-16T23:00:53Z</time>
      </trkpt>
      <trkpt lat="50.61863" lon="5.46142">
        <ele>170</ele>
        <time>2016-06-16T23:02:53Z</time>
      </trkpt>
      <trkpt lat="50.61846" lon="5.46144">
        <ele>169</ele>
        <time>2016-06-16T23:04:53Z</time>
      </trkpt>
      <trkpt lat="50.61834" lon="5.46153">
        <ele>169</ele>
        <time>2016-06-16T23:06:53Z</time>
      </trkpt>
      <trkpt lat="50.61829" lon="5.46159">
        <ele>169</ele>
        <time>2016-06-16T23:08:53Z</time>
      </trkpt>
      <trkpt lat="50.61769" lon="5.46224">
        <ele>164</ele>
        <time>2016-06-16T23:10:53Z</time>
      </trkpt>
      <trkpt lat="50.61755" lon="5.46237">
        <ele>164</ele>
        <time>2016-06-16T23:12:53Z</time>
      </trkpt>
      <trkpt lat="50.61748" lon="5.46242">
        <ele>163</ele>
        <time>2016-06-16T23:14:53Z</time>
      </trkpt>
      <trkpt lat="50.61739" lon="5.46244">
        <ele>162</ele>
        <time>2016-06-16T23:16:53Z</time>
      </trkpt>
      <trkpt lat="50.61722" lon="5.46243">
        <ele>161</ele>
        <time>2016-06-16T23:18:53Z</time>
      </trkpt>
      <trkpt lat="50.61671" lon="5.46229">
        <ele>157</ele>
        <time>2016-06-16T23:20:53Z</time>
      </trkpt>
      <trkpt lat="50.61663" lon="5.46229">
        <ele>156</ele>
        <time>2016-06-16T23:22:53Z</time>
      </trkpt>
      <trkpt lat="50.61654" lon="5.4623">
        <ele>156</ele>
        <time>2016-06-16T23:24:53Z</time>
      </trkpt>
      <trkpt lat="50.61639" lon="5.46237">
        <ele>154</ele>
        <time>2016-06-16T23:26:53Z</time>
      </trkpt>
      <trkpt lat="50.61626" lon="5.46253">
        <ele>153</ele>
        <time>2016-06-16T23:28:53Z</time>
      </trkpt>
      <trkpt lat="50.61621" lon="5.46263">
        <ele>152</ele>
        <time>2016-06-16T23:30:53Z</time>
      </trkpt>
      <trkpt lat="50.61616" lon="5.46273">
        <ele>152</ele>
        <time>2016-06-16T23:32:53Z</time>
      </trkpt>
      <trkpt lat="50.61589" lon="5.46339">
        <ele>149</ele>
        <time>2016-06-16T23:34:53Z</time>
      </trkpt>
      <trkpt lat="50.61576" lon="5.46368">
        <ele>148</ele>
        <time>2016-06-16T23:36:53Z</time>
      </trkpt>
      <trkpt lat="50.61571" lon="5.46377">
        <ele>148</ele>
        <time>2016-06-16T23:38:53Z</time>
      </trkpt>
      <trkpt lat="50.61551" lon="5.46397">
        <ele>147</ele>
        <time>2016-06-16T23:40:53Z</time>
      </trkpt>
      <trkpt lat="50.61544" lon="5.46403">
        <ele>146</ele>
        <time>2016-06-16T23:42:53Z</time>
      </trkpt>
      <trkpt lat="50.61523" lon="5.4642">
        <ele>145</ele>
        <time>2016-06-16T23:44:53Z</time>
      </trkpt>
      <trkpt lat="50.61518" lon="5.46423">
        <ele>145</ele>
        <time>2016-06-16T23:46:53Z</time>
      </trkpt>
      <trkpt lat="50.61509" lon="5.46419">
        <ele>144</ele>
        <time>2016-06-16T23:48:53Z</time>
      </trkpt>
      <trkpt lat="50.61503" lon="5.46405">
        <ele>144</ele>
        <time>2016-06-16T23:50:53Z</time>
      </trkpt>
      <trkpt lat="50.61483" lon="5.46351">
        <ele>144</ele>
        <time>2016-06-16T23:52:53Z</time>
      </trkpt>
      <trkpt lat="50.6147" lon="5.46319">
        <ele>143</ele>
        <time>2016-06-16T23:54:53Z</time>
      </trkpt>
      <trkpt lat="50.61456" lon="5.46283">
        <ele>142</ele>
        <time>2016-06-16T23:56:53Z</time>
      </trkpt>
      <trkpt lat="50.61447" lon="5.46257">
        <ele>140</ele>
        <time>2016-06-16T23:58:53Z</time>
      </trkpt>
      <trkpt lat="50.61427" lon="5.46203">
        <ele>137</ele>
        <time>2016-06-17T00:00:53Z</time>
      </trkpt>
      <trkpt lat="50.61416" lon="5.46176">
        <ele>135</ele>
        <time>2016-06-17T00:02:53Z</time>
      </trkpt>
      <trkpt lat="50.61405" lon="5.46149">
        <ele>134</ele>
        <time>2016-06-17T00:04:53Z</time>
      </trkpt>
      <trkpt lat="50.61398" lon="5.46137">
        <ele>133</ele>
        <time>2016-06-17T00:06:53Z</time>
      </trkpt>
      <trkpt lat="50.61391" lon="5.46126">
        <ele>133</ele>
        <time>2016-06-17T00:08:53Z</time>
      </trkpt>
      <trkpt lat="50.61374" lon="5.46106">
        <ele>131</ele>
        <time>2016-06-17T00:10:53Z</time>
      </trkpt>
      <trkpt lat="50.61356" lon="5.46089">
        <ele>130</ele>
        <time>2016-06-17T00:12:53Z</time>
      </trkpt>
      <trkpt lat="50.6134" lon="5.46069">
        <ele>128</ele>
        <time>2016-06-17T00:14:53Z</time>
      </trkpt>
      <trkpt lat="50.61332" lon="5.46057">
        <ele>127</ele>
        <time>2016-06-17T00:16:53Z</time>
      </trkpt>
      <trkpt lat="50.61326" lon="5.46045">
        <ele>126</ele>
        <time>2016-06-17T00:18:53Z</time>
      </trkpt>
      <trkpt lat="50.6131" lon="5.46007">
        <ele>123</ele>
        <time>2016-06-17T00:20:53Z</time>
      </trkpt>
      <trkpt lat="50.61304" lon="5.45995">
        <ele>122</ele>
        <time>2016-06-17T00:22:53Z</time>
      </trkpt>
      <trkpt lat="50.61287" lon="5.45976">
        <ele>123</ele>
        <time>2016-06-17T00:24:53Z</time>
      </trkpt>
      <trkpt lat="50.61266" lon="5.45967">
        <ele>123</ele>
        <time>2016-06-17T00:26:53Z</time>
      </trkpt>
      <trkpt lat="50.61255" lon="5.45966">
        <ele>123</ele>
        <time>2016-06-17T00:28:53Z</time>
      </trkpt>
      <trkpt lat="50.61224" lon="5.45965">
        <ele>123</ele>
        <time>2016-06-17T00:30:53Z</time>
      </trkpt>
      <trkpt lat="50.61205" lon="5.45962">
        <ele>122</ele>
        <time>2016-06-17T00:32:53Z</time>
      </trkpt>
      <trkpt lat="50.61188" lon="5.4595">
        <ele>122</ele>
        <time>2016-06-17T00:34:53Z</time>
      </trkpt>
      <trkpt lat="50.61181" lon="5.45943">
        <ele>121</ele>
        <time>2016-06-17T00:36:53Z</time>
      </trkpt>
      <trkpt lat="50.61174" lon="5.45933">
        <ele>121</ele>
        <time>2016-06-17T00:38:53Z</time>
      </trkpt>
      <trkpt lat="50.61163" lon="5.4591">
        <ele>120</ele>
        <time>2016-06-17T00:40:53Z</time>
      </trkpt>
      <trkpt lat="50.61159" lon="5.45898">
        <ele>119</ele>
        <time>2016-06-17T00:42:53Z</time>
      </trkpt>
      <trkpt lat="50.61154" lon="5.45886">
        <ele>119</ele>
        <time>2016-06-17T00:44:53Z</time>
      </trkpt>
      <trkpt lat="50.61149" lon="5.45877">
        <ele>118</ele>
        <time>2016-06-17T00:46:53Z</time>
      </trkpt>
      <trkpt lat="50.61142" lon="5.45869">
        <ele>117</ele>
        <time>2016-06-17T00:48:53Z</time>
      </trkpt>
      <trkpt lat="50.61135" lon="5.45864">
        <ele>117</ele>
        <time>2016-06-17T00:50:53Z</time>
      </trkpt>
      <trkpt lat="50.61121" lon="5.45855">
        <ele>116</ele>
        <time>2016-06-17T00:52:53Z</time>
      </trkpt>
      <trkpt lat="50.61114" lon="5.4585">
        <ele>115</ele>
        <time>2016-06-17T00:54:53Z</time>
      </trkpt>
      <trkpt lat="50.611" lon="5.45839">
        <ele>113</ele>
        <time>2016-06-17T00:56:53Z</time>
      </trkpt>
      <trkpt lat="50.61074" lon="5.45814">
        <ele>113</ele>
        <time>2016-06-17T00:58:53Z</time>
      </trkpt>
      <trkpt lat="50.61057" lon="5.45793">
        <ele>114</ele>
        <time>2016-06-17T01:00:53Z</time>
      </trkpt>
      <trkpt lat="50.61029" lon="5.45763">
        <ele>113</ele>
        <time>2016-06-17T01:02:53Z</time>
      </trkpt>
      <trkpt lat="50.60982" lon="5.45712">
        <ele>111</ele>
        <time>2016-06-17T01:04:53Z</time>
      </trkpt>
      <trkpt lat="50.60977" lon="5.45707">
        <ele>110</ele>
        <time>2016-06-17T01:06:53Z</time>
      </trkpt>
      <trkpt lat="50.6096" lon="5.45696">
        <ele>110</ele>
        <time>2016-06-17T01:08:53Z</time>
      </trkpt>
      <trkpt lat="50.60949" lon="5.45686">
        <ele>109</ele>
        <time>2016-06-17T01:10:53Z</time>
      </trkpt>
      <trkpt lat="50.60927" lon="5.45654">
        <ele>108</ele>
        <time>2016-06-17T01:12:53Z</time>
      </trkpt>
      <trkpt lat="50.60915" lon="5.45634">
        <ele>108</ele>
        <time>2016-06-17T01:14:53Z</time>
      </trkpt>
      <trkpt lat="50.60902" lon="5.45618">
        <ele>109</ele>
        <time>2016-06-17T01:16:53Z</time>
      </trkpt>
      <trkpt lat="50.60877" lon="5.45595">
        <ele>110</ele>
        <time>2016-06-17T01:18:53Z</time>
      </trkpt>
      <trkpt lat="50.6085" lon="5.45568">
        <ele>111</ele>
        <time>2016-06-17T01:20:53Z</time>
      </trkpt>
      <trkpt lat="50.60838" lon="5.45551">
        <ele>112</ele>
        <time>2016-06-17T01:22:53Z</time>
      </trkpt>
      <trkpt lat="50.60832" lon="5.45542">
        <ele>112</ele>
        <time>2016-06-17T01:24:53Z</time>
      </trkpt>
      <trkpt lat="50.60825" lon="5.45536">
        <ele>113</ele>
        <time>2016-06-17T01:26:53Z</time>
      </trkpt>
      <trkpt lat="50.60813" lon="5.45527">
        <ele>114</ele>
        <time>2016-06-17T01:28:53Z</time>
      </trkpt>
      <trkpt lat="50.60795" lon="5.45525">
        <ele>114</ele>
        <time>2016-06-17T01:30:53Z</time>
      </trkpt>
      <trkpt lat="50.60759" lon="5.45525">
        <ele>116</ele>
        <time>2016-06-17T01:32:53Z</time>
      </trkpt>
      <trkpt lat="50.60718" lon="5.45534">
        <ele>117</ele>
        <time>2016-06-17T01:34:53Z</time>
      </trkpt>
      <trkpt lat="50.60689" lon="5.45549">
        <ele>117</ele>
        <time>2016-06-17T01:36:53Z</time>
      </trkpt>
      <trkpt lat="50.60683" lon="5.45552">
        <ele>117</ele>
        <time>2016-06-17T01:38:53Z</time>
      </trkpt>
      <trkpt lat="50.60653" lon="5.45569">
        <ele>117</ele>
        <time>2016-06-17T01:40:53Z</time>
      </trkpt>
      <trkpt lat="50.60647" lon="5.4557">
        <ele>117</ele>
        <time>2016-06-17T01:42:53Z</time>
      </trkpt>
      <trkpt lat="50.60617" lon="5.45575">
        <ele>117</ele>
        <time>2016-06-17T01:44:53Z</time>
      </trkpt>
      <trkpt lat="50.60568" lon="5.45578">
        <ele>115</ele>
        <time>2016-06-17T01:46:53Z</time>
      </trkpt>
      <trkpt lat="50.60527" lon="5.4558">
        <ele>112</ele>
        <time>2016-06-17T01:48:53Z</time>
      </trkpt>
      <trkpt lat="50.60521" lon="5.45579">
        <ele>112</ele>
        <time>2016-06-17T01:50:53Z</time>
      </trkpt>
      <trkpt lat="50.60477" lon="5.45581">
        <ele>110</ele>
        <time>2016-06-17T01:52:53Z</time>
      </trkpt>
      <trkpt lat="50.6047" lon="5.45583">
        <ele>110</ele>
        <time>2016-06-17T01:54:53Z</time>
      </trkpt>
      <trkpt lat="50.60449" lon="5.45593">
        <ele>109</ele>
        <time>2016-06-17T01:56:53Z</time>
      </trkpt>
      <trkpt lat="50.60395" lon="5.45616">
        <ele>106</ele>
        <time>2016-06-17T01:58:53Z</time>
      </trkpt>
      <trkpt lat="50.6037" lon="5.45625">
        <ele>105</ele>
        <time>2016-06-17T02:00:53Z</time>
      </trkpt>
      <trkpt lat="50.60346" lon="5.45634">
        <ele>103</ele>
        <time>2016-06-17T02:02:53Z</time>
      </trkpt>
      <trkpt lat="50.60329" lon="5.45641">
        <ele>101</ele>
        <time>2016-06-17T02:04:53Z</time>
      </trkpt>
      <trkpt lat="50.60295" lon="5.45658">
        <ele>100</ele>
        <time>2016-06-17T02:06:53Z</time>
      </trkpt>
      <trkpt lat="50.60278" lon="5.45667">
        <ele>100</ele>
        <time>2016-06-17T02:08:53Z</time>
      </trkpt>
      <trkpt lat="50.60269" lon="5.45671">
        <ele>100</ele>
        <time>2016-06-17T02:10:53Z</time>
      </trkpt>
      <trkpt lat="50.60261" lon="5.45673">
        <ele>100</ele>
        <time>2016-06-17T02:12:53Z</time>
      </trkpt>
      <trkpt lat="50.60243" lon="5.45676">
        <ele>101</ele>
        <time>2016-06-17T02:14:53Z</time>
      </trkpt>
      <trkpt lat="50.60218" lon="5.45682">
        <ele>101</ele>
        <time>2016-06-17T02:16:53Z</time>
      </trkpt>
      <trkpt lat="50.60201" lon="5.45688">
        <ele>101</ele>
        <time>2016-06-17T02:18:53Z</time>
      </trkpt>
      <trkpt lat="50.60193" lon="5.45692">
        <ele>101</ele>
        <time>2016-06-17T02:20:53Z</time>
      </trkpt>
      <trkpt lat="50.60185" lon="5.45698">
        <ele>101</ele>
        <time>2016-06-17T02:22:53Z</time>
      </trkpt>
      <trkpt lat="50.6017" lon="5.45709">
        <ele>101</ele>
        <time>2016-06-17T02:24:53Z</time>
      </trkpt>
      <trkpt lat="50.6015" lon="5.45729">
        <ele>101</ele>
        <time>2016-06-17T02:26:53Z</time>
      </trkpt>
      <trkpt lat="50.60137" lon="5.45746">
        <ele>101</ele>
        <time>2016-06-17T02:28:53Z</time>
      </trkpt>
      <trkpt lat="50.60111" lon="5.45789">
        <ele>98</ele>
        <time>2016-06-17T02:30:53Z</time>
      </trkpt>
      <trkpt lat="50.60092" lon="5.45836">
        <ele>92</ele>
        <time>2016-06-17T02:32:53Z</time>
      </trkpt>
      <trkpt lat="50.60076" lon="5.45887">
        <ele>92</ele>
        <time>2016-06-17T02:34:53Z</time>
      </trkpt>
      <trkpt lat="50.60068" lon="5.45918">
        <ele>92</ele>
        <time>2016-06-17T02:36:53Z</time>
      </trkpt>
      <trkpt lat="50.60066" lon="5.45929">
        <ele>92</ele>
        <time>2016-06-17T02:38:53Z</time>
      </trkpt>
      <trkpt lat="50.60061" lon="5.45961">
        <ele>91</ele>
        <time>2016-06-17T02:40:53Z</time>
      </trkpt>
      <trkpt lat="50.60059" lon="5.4599">
        <ele>89</ele>
        <time>2016-06-17T02:42:53Z</time>
      </trkpt>
      <trkpt lat="50.60058" lon="5.46049">
        <ele>89</ele>
        <time>2016-06-17T02:44:53Z</time>
      </trkpt>
      <trkpt lat="50.60058" lon="5.4606">
        <ele>89</ele>
        <time>2016-06-17T02:46:53Z</time>
      </trkpt>
      <trkpt lat="50.60061" lon="5.46115">
        <ele>89</ele>
        <time>2016-06-17T02:48:53Z</time>
      </trkpt>
      <trkpt lat="50.60062" lon="5.46148">
        <ele>89</ele>
        <time>2016-06-17T02:50:53Z</time>
      </trkpt>
      <trkpt lat="50.60067" lon="5.46235">
        <ele>88</ele>
        <time>2016-06-17T02:52:53Z</time>
      </trkpt>
      <trkpt lat="50.60069" lon="5.46245">
        <ele>87</ele>
        <time>2016-06-17T02:54:53Z</time>
      </trkpt>
      <trkpt lat="50.60086" lon="5.46303">
        <ele>87</ele>
        <time>2016-06-17T02:56:53Z</time>
      </trkpt>
      <trkpt lat="50.60095" lon="5.46354">
        <ele>89</ele>
        <time>2016-06-17T02:58:53Z</time>
      </trkpt>
      <trkpt lat="50.60103" lon="5.46411">
        <ele>90</ele>
        <time>2016-06-17T03:00:53Z</time>
      </trkpt>
      <trkpt lat="50.60106" lon="5.46444">
        <ele>90</ele>
        <time>2016-06-17T03:02:53Z</time>
      </trkpt>
      <trkpt lat="50.60107" lon="5.46462">
        <ele>90</ele>
        <time>2016-06-17T03:04:53Z</time>
      </trkpt>
      <trkpt lat="50.60104" lon="5.46495">
        <ele>88</ele>
        <time>2016-06-17T03:06:53Z</time>
      </trkpt>
      <trkpt lat="50.60097" lon="5.46518">
        <ele>85</ele>
        <time>2016-06-17T03:08:53Z</time>
      </trkpt>
      <trkpt lat="50.60092" lon="5.46529">
        <ele>83</ele>
        <time>2016-06-17T03:10:53Z</time>
      </trkpt>
      <trkpt lat="50.60086" lon="5.46539">
        <ele>81</ele>
        <time>2016-06-17T03:12:53Z</time>
      </trkpt>
      <trkpt lat="50.60073" lon="5.46556">
        <ele>79</ele>
        <time>2016-06-17T03:14:53Z</time>
      </trkpt>
      <trkpt lat="50.60066" lon="5.46562">
        <ele>78</ele>
        <time>2016-06-17T03:16:53Z</time>
      </trkpt>
      <trkpt lat="50.60059" lon="5.46569">
        <ele>77</ele>
        <time>2016-06-17T03:18:53Z</time>
      </trkpt>
      <trkpt lat="50.60044" lon="5.4658">
        <ele>76</ele>
        <time>2016-06-17T03:20:53Z</time>
      </trkpt>
      <trkpt lat="50.60021" lon="5.46599">
        <ele>74</ele>
        <time>2016-06-17T03:22:53Z</time>
      </trkpt>
      <trkpt lat="50.60012" lon="5.46603">
        <ele>74</ele>
        <time>2016-06-17T03:24:53Z</time>
      </trkpt>
      <trkpt lat="50.60008" lon="5.46602">
        <ele>73</ele>
        <time>2016-06-17T03:26:53Z</time>
      </trkpt>
      <trkpt lat="50.59999" lon="5.46583">
        <ele>73</ele>
        <time>2016-06-17T03:28:53Z</time>
      </trkpt>
      <trkpt lat="50.59995" lon="5.46567">
        <ele>73</ele>
        <time>2016-06-17T03:30:53Z</time>
      </trkpt>
      <trkpt lat="50.5998" lon="5.4652">
        <ele>72</ele>
        <time>2016-06-17T03:32:53Z</time>
      </trkpt>
      <trkpt lat="50.59975" lon="5.46503">
        <ele>72</ele>
        <time>2016-06-17T03:34:53Z</time>
      </trkpt>
      <trkpt lat="50.59958" lon="5.46441">
        <ele>73</ele>
        <time>2016-06-17T03:36:53Z</time>
      </trkpt>
      <trkpt lat="50.5994" lon="5.46361">
        <ele>74</ele>
        <time>2016-06-17T03:38:53Z</time>
      </trkpt>
      <trkpt lat="50.5993" lon="5.46341">
        <ele>74</ele>
        <time>2016-06-17T03:40:53Z</time>
      </trkpt>
      <trkpt lat="50.59912" lon="5.46339">
        <ele>73</ele>
        <time>2016-06-17T03:42:53Z</time>
      </trkpt>
      <trkpt lat="50.59906" lon="5.46343">
        <ele>72</ele>
        <time>2016-06-17T03:44:53Z</time>
      </trkpt>
      <trkpt lat="50.59889" lon="5.46359">
        <ele>71</ele>
        <time>2016-06-17T03:46:53Z</time>
      </trkpt>
      <trkpt lat="50.5985" lon="5.46397">
        <ele>68</ele>
        <time>2016-06-17T03:48:53Z</time>
      </trkpt>
      <trkpt lat="50.59807" lon="5.46435">
        <ele>67</ele>
        <time>2016-06-17T03:50:53Z</time>
      </trkpt>
      <trkpt lat="50.59785" lon="5.4644">
        <ele>67</ele>
        <time>2016-06-17T03:52:53Z</time>
      </trkpt>
      <trkpt lat="50.59752" lon="5.46449">
        <ele>67</ele>
        <time>2016-06-17T03:54:53Z</time>
      </trkpt>
      <trkpt lat="50.59748" lon="5.46451">
        <ele>67</ele>
        <time>2016-06-17T03:56:53Z</time>
      </trkpt>
      <trkpt lat="50.59722" lon="5.46458">
        <ele>67</ele>
        <time>2016-06-17T03:58:53Z</time>
      </trkpt>
      <trkpt lat="50.5971" lon="5.46452">
        <ele>67</ele>
        <time>2016-06-17T04:00:53Z</time>
      </trkpt>
      <trkpt lat="50.59698" lon="5.46426">
        <ele>66</ele>
        <time>2016-06-17T04:02:53Z</time>
      </trkpt>
      <trkpt lat="50.59674" lon="5.46361">
        <ele>65</ele>
        <time>2016-06-17T04:04:53Z</time>
      </trkpt>
      <trkpt lat="50.59643" lon="5.46284">
        <ele>66</ele>
        <time>2016-06-17T04:06:53Z</time>
      </trkpt>
      <trkpt lat="50.59628" lon="5.46245">
        <ele>67</ele>
        <time>2016-06-17T04:08:53Z</time>
      </trkpt>
      <trkpt lat="50.59613" lon="5.46206">
        <ele>67</ele>
        <time>2016-06-17T04:10:53Z</time>
      </trkpt>
      <trkpt lat="50.59598" lon="5.46167">
        <ele>68</ele>
        <time>2016-06-17T04:12:53Z</time>
      </trkpt>
      <trkpt lat="50.59586" lon="5.46138">
        <ele>68</ele>
        <time>2016-06-17T04:14:53Z</time>
      </trkpt>
      <trkpt lat="50.59568" lon="5.46095">
        <ele>69</ele>
        <time>2016-06-17T04:16:53Z</time>
      </trkpt>
      <trkpt lat="50.59559" lon="5.46071">
        <ele>69</ele>
        <time>2016-06-17T04:18:53Z</time>
      </trkpt>
      <trkpt lat="50.5955" lon="5.46049">
        <ele>69</ele>
        <time>2016-06-17T04:20:53Z</time>
      </trkpt>
      <trkpt lat="50.5954" lon="5.46032">
        <ele>69</ele>
        <time>2016-06-17T04:22:53Z</time>
      </trkpt>
      <trkpt lat="50.59537" lon="5.46032">
        <ele>69</ele>
        <time>2016-06-17T04:24:53Z</time>
      </trkpt>
      <trkpt lat="50.59529" lon="5.46036">
        <ele>69</ele>
        <time>2016-06-17T04:26:53Z</time>
      </trkpt>
      <trkpt lat="50.59521" lon="5.46043">
        <ele>69</ele>
        <time>2016-06-17T04:28:53Z</time>
      </trkpt>
      <trkpt lat="50.59495" lon="5.46059">
        <ele>70</ele>
        <time>2016-06-17T04:30:53Z</time>
      </trkpt>
      <trkpt lat="50.59469" lon="5.46066">
        <ele>69</ele>
        <time>2016-06-17T04:32:53Z</time>
      </trkpt>
      <trkpt lat="50.59411" lon="5.46074">
        <ele>67</ele>
        <time>2016-06-17T04:34:53Z</time>
      </trkpt>
      <trkpt lat="50.59398" lon="5.4607">
        <ele>67</ele>
        <time>2016-06-17T04:36:53Z</time>
      </trkpt>
      <trkpt lat="50.59395" lon="5.46068">
        <ele>67</ele>
        <time>2016-06-17T04:38:53Z</time>
      </trkpt>
      <trkpt lat="50.59386" lon="5.46065">
        <ele>66</ele>
        <time>2016-06-17T04:40:53Z</time>
      </trkpt>
      <trkpt lat="50.59381" lon="5.46066">
        <ele>66</ele>
        <time>2016-06-17T04:42:53Z</time>
      </trkpt>
      <trkpt lat="50.59376" lon="5.46069">
        <ele>66</ele>
        <time>2016-06-17T04:44:53Z</time>
      </trkpt>
      <trkpt lat="50.59355" lon="5.46085">
        <ele>66</ele>
        <time>2016-06-17T04:46:53Z</time>
      </trkpt>
      <trkpt lat="50.59349" lon="5.46087">
        <ele>65</ele>
        <time>2016-06-17T04:48:53Z</time>
      </trkpt>
      <trkpt lat="50.59334" lon="5.46091">
        <ele>65</ele>
        <time>2016-06-17T04:50:53Z</time>
      </trkpt>
      <trkpt lat="50.59325" lon="5.46093">
        <ele>65</ele>
        <time>2016-06-17T04:52:53Z</time>
      </trkpt>
      <trkpt lat="50.5928" lon="5.46104">
        <ele>63</ele>
        <time>2016-06-17T04:54:53Z</time>
      </trkpt>
      <trkpt lat="50.59242" lon="5.46117">
        <ele>63</ele>
        <time>2016-06-17T04:56:53Z</time>
      </trkpt>
      <trkpt lat="50.59208" lon="5.46128">
        <ele>63</ele>
        <time>2016-06-17T04:58:53Z</time>
      </trkpt>
      <trkpt lat="50.59166" lon="5.46137">
        <ele>63</ele>
        <time>2016-06-17T05:00:53Z</time>
      </trkpt>
      <trkpt lat="50.59053" lon="5.46166">
        <ele>66</ele>
        <time>2016-06-17T05:02:53Z</time>
      </trkpt>
      <trkpt lat="50.5901" lon="5.46185">
        <ele>68</ele>
        <time>2016-06-17T05:04:53Z</time>
      </trkpt>
      <trkpt lat="50.59004" lon="5.4619">
        <ele>68</ele>
        <time>2016-06-17T05:06:53Z</time>
      </trkpt>
      <trkpt lat="50.58977" lon="5.46218">
        <ele>68</ele>
        <time>2016-06-17T05:08:53Z</time>
      </trkpt>
      <trkpt lat="50.58894" lon="5.46322">
        <ele>69</ele>
        <time>2016-06-17T05:10:53Z</time>
      </trkpt>
      <trkpt lat="50.5885" lon="5.46375">
        <ele>70</ele>
        <time>2016-06-17T05:12:53Z</time>
      </trkpt>
      <trkpt lat="50.58841" lon="5.46385">
        <ele>70</ele>
        <time>2016-06-17T05:14:53Z</time>
      </trkpt>
      <trkpt lat="50.58838" lon="5.46391">
        <ele>70</ele>
        <time>2016-06-17T05:16:53Z</time>
      </trkpt>
      <trkpt lat="50.58836" lon="5.46398">
        <ele>71</ele>
        <time>2016-06-17T05:18:53Z</time>
      </trkpt>
      <trkpt lat="50.58842" lon="5.46421">
        <ele>71</ele>
        <time>2016-06-17T05:20:53Z</time>
      </trkpt>
      <trkpt lat="50.5885" lon="5.46433">
        <ele>71</ele>
        <time>2016-06-17T05:22:53Z</time>
      </trkpt>
      <trkpt lat="50.58862" lon="5.46451">
        <ele>71</ele>
        <time>2016-06-17T05:24:53Z</time>
      </trkpt>
      <trkpt lat="50.5887" lon="5.46464">
        <ele>71</ele>
        <time>2016-06-17T05:26:53Z</time>
      </trkpt>
      <trkpt lat="50.58881" lon="5.46485">
        <ele>70</ele>
        <time>2016-06-17T05:28:53Z</time>
      </trkpt>
      <trkpt lat="50.58894" lon="5.46514">
        <ele>70</ele>
        <time>2016-06-17T05:30:53Z</time>
      </trkpt>
      <trkpt lat="50.58907" lon="5.46553">
        <ele>70</ele>
        <time>2016-06-17T05:32:53Z</time>
      </trkpt>
      <trkpt lat="50.58919" lon="5.46586">
        <ele>69</ele>
        <time>2016-06-17T05:34:53Z</time>
      </trkpt>
      <trkpt lat="50.5893" lon="5.4662">
        <ele>69</ele>
        <time>2016-06-17T05:36:53Z</time>
      </trkpt>
      <trkpt lat="50.58933" lon="5.46638">
        <ele>69</ele>
        <time>2016-06-17T05:38:53Z</time>
      </trkpt>
      <trkpt lat="50.58934" lon="5.46648">
        <ele>69</ele>
        <time>2016-06-17T05:40:53Z</time>
      </trkpt>
      <trkpt lat="50.58935" lon="5.46668">
        <ele>69</ele>
        <time>2016-06-17T05:42:53Z</time>
      </trkpt>
      <trkpt lat="50.58934" lon="5.46707">
        <ele>71</ele>
        <time>2016-06-17T05:44:53Z</time>
      </trkpt>
      <trkpt lat="50.58936" lon="5.46768">
        <ele>73</ele>
        <time>2016-06-17T05:46:53Z</time>
      </trkpt>
      <trkpt lat="50.58937" lon="5.46775">
        <ele>74</ele>
        <time>2016-06-17T05:48:53Z</time>
      </trkpt>
      <trkpt lat="50.58942" lon="5.46805">
        <ele>75</ele>
        <time>2016-06-17T05:50:53Z</time>
      </trkpt>
      <trkpt lat="50.58945" lon="5.46819">
        <ele>75</ele>
        <time>2016-06-17T05:52:53Z</time>
      </trkpt>
      <trkpt lat="50.58959" lon="5.46875">
        <ele>77</ele>
        <time>2016-06-17T05:54:53Z</time>
      </trkpt>
      <trkpt lat="50.5896" lon="5.46883">
        <ele>78</ele>
        <time>2016-06-17T05:56:53Z</time>
      </trkpt>
      <trkpt lat="50.58965" lon="5.46898">
        <ele>78</ele>
        <time>2016-06-17T05:58:53Z</time>
      </trkpt>
      <trkpt lat="50.58965" lon="5.46903">
        <ele>78</ele>
        <time>2016-06-17T06:00:53Z</time>
      </trkpt>
      <trkpt lat="50.58961" lon="5.46903">
        <ele>79</ele>
        <time>2016-06-17T06:02:53Z</time>
      </trkpt>
      <trkpt lat="50.58955" lon="5.46882">
        <ele>78</ele>
        <time>2016-06-17T06:04:53Z</time>
      </trkpt>
      <trkpt lat="50.58946" lon="5.46852">
        <ele>77</ele>
        <time>2016-06-17T06:06:53Z</time>
      </trkpt>
      <trkpt lat="50.58935" lon="5.46825">
        <ele>77</ele>
        <time>2016-06-17T06:08:53Z</time>
      </trkpt>
      <trkpt lat="50.58929" lon="5.46812">
        <ele>76</ele>
        <time>2016-06-17T06:10:53Z</time>
      </trkpt>
      <trkpt lat="50.5892" lon="5.46794">
        <ele>76</ele>
        <time>2016-06-17T06:12:53Z</time>
      </trkpt>
      <trkpt lat="50.58908" lon="5.46771">
        <ele>77</ele>
        <time>2016-06-17T06:14:53Z</time>
      </trkpt>
      <trkpt lat="50.58905" lon="5.46767">
        <ele>78</ele>
        <time>2016-06-17T06:16:53Z</time>
      </trkpt>
      <trkpt lat="50.58883" lon="5.46727">
        <ele>80</ele>
        <time>2016-06-17T06:18:53Z</time>
      </trkpt>
      <trkpt lat="50.58869" lon="5.46702">
        <ele>81</ele>
        <time>2016-06-17T06:20:53Z</time>
      </trkpt>
      <trkpt lat="50.5886" lon="5.46688">
        <ele>82</ele>
        <time>2016-06-17T06:22:53Z</time>
      </trkpt>
      <trkpt lat="50.58842" lon="5.46663">
        <ele>83</ele>
        <time>2016-06-17T06:24:53Z</time>
      </trkpt>
      <trkpt lat="50.58833" lon="5.46648">
        <ele>84</ele>
        <time>2016-06-17T06:26:53Z</time>
      </trkpt>
      <trkpt lat="50.58824" lon="5.46635">
        <ele>84</ele>
        <time>2016-06-17T06:28:53Z</time>
      </trkpt>
      <trkpt lat="50.58811" lon="5.46618">
        <ele>85</ele>
        <time>2016-06-17T06:30:53Z</time>
      </trkpt>
      <trkpt lat="50.58805" lon="5.46612">
        <ele>86</ele>
        <time>2016-06-17T06:32:53Z</time>
      </trkpt>
      <trkpt lat="50.58791" lon="5.46595">
        <ele>87</ele>
        <time>2016-06-17T06:34:53Z</time>
      </trkpt>
      <trkpt lat="50.58759" lon="5.46559">
        <ele>88</ele>
        <time>2016-06-17T06:36:53Z</time>
      </trkpt>
      <trkpt lat="50.5875" lon="5.46551">
        <ele>89</ele>
        <time>2016-06-17T06:38:53Z</time>
      </trkpt>
      <trkpt lat="50.58747" lon="5.46548">
        <ele>89</ele>
        <time>2016-06-17T06:40:53Z</time>
      </trkpt>
      <trkpt lat="50.58722" lon="5.46523">
        <ele>91</ele>
        <time>2016-06-17T06:42:53Z</time>
      </trkpt>
      <trkpt lat="50.58719" lon="5.46519">
        <ele>91</ele>
        <time>2016-06-17T06:44:53Z</time>
      </trkpt>
      <trkpt lat="50.58699" lon="5.46498">
        <ele>93</ele>
        <time>2016-06-17T06:46:53Z</time>
      </trkpt>
      <trkpt lat="50.58678" lon="5.46477">
        <ele>95</ele>
        <time>2016-06-17T06:48:53Z</time>
      </trkpt>
      <trkpt lat="50.58665" lon="5.46467">
        <ele>96</ele>
        <time>2016-06-17T06:50:53Z</time>
      </trkpt>
      <trkpt lat="50.58643" lon="5.46459">
        <ele>97</ele>
        <time>2016-06-17T06:52:53Z</time>
      </trkpt>
      <trkpt lat="50.58639" lon="5.46458">
        <ele>97</ele>
        <time>2016-06-17T06:54:53Z</time>
      </trkpt>
      <trkpt lat="50.58616" lon="5.46454">
        <ele>98</ele>
        <time>2016-06-17T06:56:53Z</time>
      </trkpt>
      <trkpt lat="50.58591" lon="5.46455">
        <ele>101</ele>
        <time>2016-06-17T06:58:53Z</time>
      </trkpt>
      <trkpt lat="50.58579" lon="5.46457">
        <ele>102</ele>
        <time>2016-06-17T07:00:53Z</time>
      </trkpt>
      <trkpt lat="50.58568" lon="5.46457">
        <ele>103</ele>
        <time>2016-06-17T07:02:53Z</time>
      </trkpt>
      <trkpt lat="50.58557" lon="5.46456">
        <ele>104</ele>
        <time>2016-06-17T07:04:53Z</time>
      </trkpt>
      <trkpt lat="50.5854" lon="5.46451">
        <ele>105</ele>
        <time>2016-06-17T07:06:53Z</time>
      </trkpt>
      <trkpt lat="50.5853" lon="5.46447">
        <ele>105</ele>
        <time>2016-06-17T07:08:53Z</time>
      </trkpt>
      <trkpt lat="50.58517" lon="5.46441">
        <ele>106</ele>
        <time>2016-06-17T07:10:53Z</time>
      </trkpt>
      <trkpt lat="50.58491" lon="5.46425">
        <ele>106</ele>
        <time>2016-06-17T07:12:53Z</time>
      </trkpt>
      <trkpt lat="50.58485" lon="5.46421">
        <ele>106</ele>
        <time>2016-06-17T07:14:53Z</time>
      </trkpt>
      <trkpt lat="50.58454" lon="5.46402">
        <ele>107</ele>
        <time>2016-06-17T07:16:53Z</time>
      </trkpt>
      <trkpt lat="50.58437" lon="5.46392">
        <ele>108</ele>
        <time>2016-06-17T07:18:53Z</time>
      </trkpt>
      <trkpt lat="50.58424" lon="5.46382">
        <ele>108</ele>
        <time>2016-06-17T07:20:53Z</time>
      </trkpt>
      <trkpt lat="50.58408" lon="5.46373">
        <ele>109</ele>
        <time>2016-06-17T07:22:53Z</time>
      </trkpt>
      <trkpt lat="50.58393" lon="5.46362">
        <ele>110</ele>
        <time>2016-06-17T07:24:53Z</time>
      </trkpt>
      <trkpt lat="50.58365" lon="5.46344">
        <ele>113</ele>
        <time>2016-06-17T07:26:53Z</time>
      </trkpt>
      <trkpt lat="50.58343" lon="5.46329">
        <ele>116</ele>
        <time>2016-06-17T07:28:53Z</time>
      </trkpt>
      <trkpt lat="50.58321" lon="5.46314">
        <ele>118</ele>
        <time>2016-06-17T07:30:53Z</time>
      </trkpt>
      <trkpt lat="50.58285" lon="5.46297">
        <ele>121</ele>
        <time>2016-06-17T07:32:53Z</time>
      </trkpt>
      <trkpt lat="50.58267" lon="5.46288">
        <ele>123</ele>
        <time>2016-06-17T07:34:53Z</time>
      </trkpt>
      <trkpt lat="50.58248" lon="5.46279">
        <ele>125</ele>
        <time>2016-06-17T07:36:53Z</time>
      </trkpt>
      <trkpt lat="50.58212" lon="5.46258">
        <ele>126</ele>
        <time>2016-06-17T07:38:53Z</time>
      </trkpt>
      <trkpt lat="50.58201" lon="5.46253">
        <ele>127</ele>
        <time>2016-06-17T07:40:53Z</time>
      </trkpt>
      <trkpt lat="50.58172" lon="5.46237">
        <ele>128</ele>
        <time>2016-06-17T07:42:53Z</time>
      </trkpt>
      <trkpt lat="50.58152" lon="5.46224">
        <ele>130</ele>
        <time>2016-06-17T07:44:53Z</time>
      </trkpt>
      <trkpt lat="50.58138" lon="5.46216">
        <ele>132</ele>
        <time>2016-06-17T07:46:53Z</time>
      </trkpt>
      <trkpt lat="50.58105" lon="5.46195">
        <ele>135</ele>
        <time>2016-06-17T07:48:53Z</time>
      </trkpt>
      <trkpt lat="50.58085" lon="5.46179">
        <ele>137</ele>
        <time>2016-06-17T07:50:53Z</time>
      </trkpt>
      <trkpt lat="50.58079" lon="5.46172">
        <ele>137</ele>
        <time>2016-06-17T07:52:53Z</time>
      </trkpt>
      <trkpt lat="50.58067" lon="5.46156">
        <ele>139</ele>
        <time>2016-06-17T07:54:53Z</time>
      </trkpt>
      <trkpt lat="50.58056" lon="5.46141">
        <ele>141</ele>
        <time>2016-06-17T07:56:53Z</time>
      </trkpt>
      <trkpt lat="50.58042" lon="5.4612">
        <ele>142</ele>
        <time>2016-06-17T07:58:53Z</time>
      </trkpt>
      <trkpt lat="50.58028" lon="5.46098">
        <ele>143</ele>
        <time>2016-06-17T08:00:53Z</time>
      </trkpt>
      <trkpt lat="50.58025" lon="5.46094">
        <ele>144</ele>
        <time>2016-06-17T08:02:53Z</time>
      </trkpt>
      <trkpt lat="50.5801" lon="5.46071">
        <ele>144</ele>
        <time>2016-06-17T08:04:53Z</time>
      </trkpt>
      <trkpt lat="50.57993" lon="5.46047">
        <ele>145</ele>
        <time>2016-06-17T08:06:53Z</time>
      </trkpt>
      <trkpt lat="50.5798" lon="5.46028">
        <ele>146</ele>
        <time>2016-06-17T08:08:53Z</time>
      </trkpt>
      <trkpt lat="50.57957" lon="5.45991">
        <ele>148</ele>
        <time>2016-06-17T08:10:53Z</time>
      </trkpt>
      <trkpt lat="50.57946" lon="5.4597">
        <ele>149</ele>
        <time>2016-06-17T08:12:53Z</time>
      </trkpt>
      <trkpt lat="50.57932" lon="5.45949">
        <ele>149</ele>
        <time>2016-06-17T08:14:53Z</time>
      </trkpt>
      <trkpt lat="50.57922" lon="5.45931">
        <ele>149</ele>
        <time>2016-06-17T08:16:53Z</time>
      </trkpt>
      <trkpt lat="50.57914" lon="5.45922">
        <ele>149</ele>
        <time>2016-06-17T08:18:53Z</time>
      </trkpt>
      <trkpt lat="50.57907" lon="5.45914">
        <ele>148</ele>
        <time>2016-06-17T08:20:53Z</time>
      </trkpt>
      <trkpt lat="50.57898" lon="5.45908">
        <ele>148</ele>
        <time>2016-06-17T08:22:53Z</time>
      </trkpt>
      <trkpt lat="50.57882" lon="5.459">
        <ele>149</ele>
        <time>2016-06-17T08:24:53Z</time>
      </trkpt>
      <trkpt lat="50.57878" lon="5.45899">
        <ele>149</ele>
        <time>2016-06-17T08:26:53Z</time>
      </trkpt>
      <trkpt lat="50.57861" lon="5.45898">
        <ele>150</ele>
        <time>2016-06-17T08:28:53Z</time>
      </trkpt>
      <trkpt lat="50.57855" lon="5.459">
        <ele>151</ele>
        <time>2016-06-17T08:30:53Z</time>
      </trkpt>
      <trkpt lat="50.57843" lon="5.45905">
        <ele>153</ele>
        <time>2016-06-17T08:32:53Z</time>
      </trkpt>
      <trkpt lat="50.57824" lon="5.45914">
        <ele>156</ele>
        <time>2016-06-17T08:34:53Z</time>
      </trkpt>
      <trkpt lat="50.57798" lon="5.45927">
        <ele>159</ele>
        <time>2016-06-17T08:36:53Z</time>
      </trkpt>
      <trkpt lat="50.57767" lon="5.45945">
        <ele>162</ele>
        <time>2016-06-17T08:38:53Z</time>
      </trkpt>
      <trkpt lat="50.57747" lon="5.45959">
        <ele>163</ele>
        <time>2016-06-17T08:40:53Z</time>
      </trkpt>
      <trkpt lat="50.57745" lon="5.45962">
        <ele>164</ele>
        <time>2016-06-17T08:42:53Z</time>
      </trkpt>
      <trkpt lat="50.57737" lon="5.45978">
        <ele>165</ele>
        <time>2016-06-17T08:44:53Z</time>
      </trkpt>
      <trkpt lat="50.57735" lon="5.45989">
        <ele>166</ele>
        <time>2016-06-17T08:46:53Z</time>
      </trkpt>
      <trkpt lat="50.57733" lon="5.4601">
        <ele>168</ele>
        <time>2016-06-17T08:48:53Z</time>
      </trkpt>
      <trkpt lat="50.57728" lon="5.46041">
        <ele>171</ele>
        <time>2016-06-17T08:50:53Z</time>
      </trkpt>
      <trkpt lat="50.57723" lon="5.46049">
        <ele>172</ele>
        <time>2016-06-17T08:52:53Z</time>
      </trkpt>
      <trkpt lat="50.57714" lon="5.46057">
        <ele>173</ele>
        <time>2016-06-17T08:54:53Z</time>
      </trkpt>
      <trkpt lat="50.57705" lon="5.46059">
        <ele>173</ele>
        <time>2016-06-17T08:56:53Z</time>
      </trkpt>
      <trkpt lat="50.57697" lon="5.46059">
        <ele>174</ele>
        <time>2016-06-17T08:58:53Z</time>
      </trkpt>
      <trkpt lat="50.57681" lon="5.4605">
        <ele>174</ele>
        <time>2016-06-17T09:00:53Z</time>
      </trkpt>
      <trkpt lat="50.57659" lon="5.46023">
        <ele>175</ele>
        <time>2016-06-17T09:02:53Z</time>
      </trkpt>
      <trkpt lat="50.57647" lon="5.46006">
        <ele>176</ele>
        <time>2016-06-17T09:04:53Z</time>
      </trkpt>
      <trkpt lat="50.57631" lon="5.45987">
        <ele>177</ele>
        <time>2016-06-17T09:06:53Z</time>
      </trkpt>
      <trkpt lat="50.57611" lon="5.45961">
        <ele>178</ele>
        <time>2016-06-17T09:08:53Z</time>
      </trkpt>
      <trkpt lat="50.57604" lon="5.45952">
        <ele>178</ele>
        <time>2016-06-17T09:10:53Z</time>
      </trkpt>
      <trkpt lat="50.57597" lon="5.45943">
        <ele>178</ele>
        <time>2016-06-17T09:12:53Z</time>
      </trkpt>
      <trkpt lat="50.57587" lon="5.45932">
        <ele>178</ele>
        <time>2016-06-17T09:14:53Z</time>
      </trkpt>
      <trkpt lat="50.57576" lon="5.45924">
        <ele>178</ele>
        <time>2016-06-17T09:16:53Z</time>
      </trkpt>
      <trkpt lat="50.57568" lon="5.4592">
        <ele>179</ele>
        <time>2016-06-17T09:18:53Z</time>
      </trkpt>
      <trkpt lat="50.57558" lon="5.45917">
        <ele>179</ele>
        <time>2016-06-17T09:20:53Z</time>
      </trkpt>
      <trkpt lat="50.57554" lon="5.45917">
        <ele>180</ele>
        <time>2016-06-17T09:22:53Z</time>
      </trkpt>
      <trkpt lat="50.57537" lon="5.45915">
        <ele>181</ele>
        <time>2016-06-17T09:24:53Z</time>
      </trkpt>
      <trkpt lat="50.57528" lon="5.45916">
        <ele>182</ele>
        <time>2016-06-17T09:26:53Z</time>
      </trkpt>
      <trkpt lat="50.57516" lon="5.4592">
        <ele>184</ele>
        <time>2016-06-17T09:28:53Z</time>
      </trkpt>
      <trkpt lat="50.57507" lon="5.45921">
        <ele>185</ele>
        <time>2016-06-17T09:30:53Z</time>
      </trkpt>
      <trkpt lat="50.57494" lon="5.45923">
        <ele>186</ele>
        <time>2016-06-17T09:32:53Z</time>
      </trkpt>
      <trkpt lat="50.57455" lon="5.45929">
        <ele>189</ele>
        <time>2016-06-17T09:34:53Z</time>
      </trkpt>
      <trkpt lat="50.57432" lon="5.45936">
        <ele>191</ele>
        <time>2016-06-17T09:36:53Z</time>
      </trkpt>
      <trkpt lat="50.57416" lon="5.45941">
        <ele>193</ele>
        <time>2016-06-17T09:38:53Z</time>
      </trkpt>
      <trkpt lat="50.57406" lon="5.45943">
        <ele>193</ele>
        <time>2016-06-17T09:40:53Z</time>
      </trkpt>
      <trkpt lat="50.57392" lon="5.45943">
        <ele>194</ele>
        <time>2016-06-17T09:42:53Z</time>
      </trkpt>
      <trkpt lat="50.57365" lon="5.45947">
        <ele>195</ele>
        <time>2016-06-17T09:44:53Z</time>
      </trkpt>
      <trkpt lat="50.5734" lon="5.45948">
        <ele>196</ele>
        <time>2016-06-17T09:46:53Z</time>
      </trkpt>
      <trkpt lat="50.57324" lon="5.45947">
        <ele>197</ele>
        <time>2016-06-17T09:48:53Z</time>
      </trkpt>
      <trkpt lat="50.57312" lon="5.45946">
        <ele>198</ele>
        <time>2016-06-17T09:50:53Z</time>
      </trkpt>
      <trkpt lat="50.57294" lon="5.45943">
        <ele>199</ele>
        <time>2016-06-17T09:52:53Z</time>
      </trkpt>
      <trkpt lat="50.57284" lon="5.45942">
        <ele>199</ele>
        <time>2016-06-17T09:54:53Z</time>
      </trkpt>
      <trkpt lat="50.57274" lon="5.45941">
        <ele>200</ele>
        <time>2016-06-17T09:56:53Z</time>
      </trkpt>
      <trkpt lat="50.57266" lon="5.45939">
        <ele>200</ele>
        <time>2016-06-17T09:58:53Z</time>
      </trkpt>
      <trkpt lat="50.57241" lon="5.45929">
        <ele>202</ele>
        <time>2016-06-17T10:00:53Z</time>
      </trkpt>
      <trkpt lat="50.57207" lon="5.45911">
        <ele>204</ele>
        <time>2016-06-17T10:02:53Z</time>
      </trkpt>
      <trkpt lat="50.57201" lon="5.45907">
        <ele>204</ele>
        <time>2016-06-17T10:04:53Z</time>
      </trkpt>
      <trkpt lat="50.57187" lon="5.459">
        <ele>205</ele>
        <time>2016-06-17T10:06:53Z</time>
      </trkpt>
      <trkpt lat="50.57177" lon="5.45895">
        <ele>206</ele>
        <time>2016-06-17T10:08:53Z</time>
      </trkpt>
      <trkpt lat="50.57157" lon="5.4588">
        <ele>207</ele>
        <time>2016-06-17T10:10:53Z</time>
      </trkpt>
      <trkpt lat="50.57145" lon="5.45871">
        <ele>207</ele>
        <time>2016-06-17T10:12:53Z</time>
      </trkpt>
      <trkpt lat="50.57114" lon="5.45846">
        <ele>208</ele>
        <time>2016-06-17T10:14:53Z</time>
      </trkpt>
      <trkpt lat="50.57085" lon="5.4582">
        <ele>210</ele>
        <time>2016-06-17T10:16:53Z</time>
      </trkpt>
      <trkpt lat="50.57082" lon="5.45817">
        <ele>210</ele>
        <time>2016-06-17T10:18:53Z</time>
      </trkpt>
      <trkpt lat="50.57039" lon="5.45779">
        <ele>210</ele>
        <time>2016-06-17T10:20:53Z</time>
      </trkpt>
      <trkpt lat="50.57027" lon="5.45771">
        <ele>211</ele>
        <time>2016-06-17T10:22:53Z</time>
      </trkpt>
      <trkpt lat="50.57008" lon="5.45762">
        <ele>211</ele>
        <time>2016-06-17T10:24:53Z</time>
      </trkpt>
      <trkpt lat="50.56994" lon="5.45758">
        <ele>211</ele>
        <time>2016-06-17T10:26:53Z</time>
      </trkpt>
      <trkpt lat="50.56968" lon="5.45756">
        <ele>212</ele>
        <time>2016-06-17T10:28:53Z</time>
      </trkpt>
      <trkpt lat="50.56954" lon="5.45757">
        <ele>213</ele>
        <time>2016-06-17T10:30:53Z</time>
      </trkpt>
      <trkpt lat="50.56923" lon="5.4576">
        <ele>214</ele>
        <time>2016-06-17T10:32:53Z</time>
      </trkpt>
      <trkpt lat="50.56897" lon="5.45767">
        <ele>215</ele>
        <time>2016-06-17T10:34:53Z</time>
      </trkpt>
      <trkpt lat="50.56866" lon="5.45776">
        <ele>216</ele>
        <time>2016-06-17T10:36:53Z</time>
      </trkpt>
      <trkpt lat="50.56834" lon="5.45785">
        <ele>217</ele>
        <time>2016-06-17T10:38:53Z</time>
      </trkpt>
      <trkpt lat="50.56786" lon="5.45799">
        <ele>218</ele>
        <time>2016-06-17T10:40:53Z</time>
      </trkpt>
      <trkpt lat="50.56762" lon="5.45806">
        <ele>219</ele>
        <time>2016-06-17T10:42:53Z</time>
      </trkpt>
      <trkpt lat="50.56709" lon="5.45822">
        <ele>222</ele>
        <time>2016-06-17T10:44:53Z</time>
      </trkpt>
      <trkpt lat="50.56673" lon="5.45832">
        <ele>225</ele>
        <time>2016-06-17T10:46:53Z</time>
      </trkpt>
      <trkpt lat="50.5666" lon="5.45834">
        <ele>225</ele>
        <time>2016-06-17T10:48:53Z</time>
      </trkpt>
      <trkpt lat="50.56638" lon="5.45836">
        <ele>225</ele>
        <time>2016-06-17T10:50:53Z</time>
      </trkpt>
      <trkpt lat="50.56615" lon="5.45834">
        <ele>226</ele>
        <time>2016-06-17T10:52:53Z</time>
      </trkpt>
      <trkpt lat="50.56601" lon="5.45831">
        <ele>226</ele>
        <time>2016-06-17T10:54:53Z</time>
      </trkpt>
      <trkpt lat="50.56597" lon="5.4583">
        <ele>226</ele>
        <time>2016-06-17T10:56:53Z</time>
      </trkpt>
      <trkpt lat="50.56565" lon="5.45812">
        <ele>226</ele>
        <time>2016-06-17T10:58:53Z</time>
      </trkpt>
      <trkpt lat="50.56479" lon="5.45749">
        <ele>228</ele>
        <time>2016-06-17T11:00:53Z</time>
      </trkpt>
      <trkpt lat="50.56443" lon="5.45728">
        <ele>227</ele>
        <time>2016-06-17T11:02:53Z</time>
      </trkpt>
      <trkpt lat="50.5642" lon="5.45713">
        <ele>227</ele>
        <time>2016-06-17T11:04:53Z</time>
      </trkpt>
      <trkpt lat="50.56413" lon="5.45709">
        <ele>228</ele>
        <time>2016-06-17T11:06:53Z</time>
      </trkpt>
      <trkpt lat="50.56389" lon="5.45692">
        <ele>228</ele>
        <time>2016-06-17T11:08:53Z</time>
      </trkpt>
      <trkpt lat="50.56357" lon="5.45672">
        <ele>229</ele>
        <time>2016-06-17T11:10:53Z</time>
      </trkpt>
      <trkpt lat="50.56322" lon="5.45649">
        <ele>229</ele>
        <time>2016-06-17T11:12:53Z</time>
      </trkpt>
      <trkpt lat="50.56269" lon="5.45614">
        <ele>230</ele>
        <time>2016-06-17T11:14:53Z</time>
      </trkpt>
      <trkpt lat="50.56212" lon="5.45578">
        <ele>231</ele>
        <time>2016-06-17T11:16:53Z</time>
      </trkpt>
      <trkpt lat="50.56168" lon="5.45551">
        <ele>231</ele>
        <time>2016-06-17T11:18:53Z</time>
      </trkpt>
      <trkpt lat="50.56112" lon="5.45515">
        <ele>232</ele>
        <time>2016-06-17T11:20:53Z</time>
      </trkpt>
      <trkpt lat="50.56084" lon="5.45497">
        <ele>232</ele>
        <time>2016-06-17T11:22:53Z</time>
      </trkpt>
      <trkpt lat="50.5595" lon="5.45412">
        <ele>233</ele>
        <time>2016-06-17T11:24:53Z</time>
      </trkpt>
      <trkpt lat="50.55825" lon="5.45332">
        <ele>236</ele>
        <time>2016-06-17T11:26:53Z</time>
      </trkpt>
      <trkpt lat="50.55775" lon="5.45303">
        <ele>235</ele>
        <time>2016-06-17T11:28:53Z</time>
      </trkpt>
      <trkpt lat="50.55749" lon="5.45292">
        <ele>235</ele>
        <time>2016-06-17T11:30:53Z</time>
      </trkpt>
      <trkpt lat="50.55729" lon="5.45284">
        <ele>235</ele>
        <time>2016-06-17T11:32:53Z</time>
      </trkpt>
      <trkpt lat="50.55606" lon="5.45233">
        <ele>235</ele>
        <time>2016-06-17T11:34:53Z</time>
      </trkpt>
      <trkpt lat="50.55563" lon="5.45217">
        <ele>235</ele>
        <time>2016-06-17T11:36:53Z</time>
      </trkpt>
      <trkpt lat="50.55547" lon="5.45211">
        <ele>235</ele>
        <time>2016-06-17T11:38:53Z</time>
      </trkpt>
      <trkpt lat="50.55502" lon="5.45192">
        <ele>234</ele>
        <time>2016-06-17T11:40:53Z</time>
      </trkpt>
      <trkpt lat="50.55497" lon="5.45189">
        <ele>234</ele>
        <time>2016-06-17T11:42:53Z</time>
      </trkpt>
      <trkpt lat="50.55458" lon="5.45172">
        <ele>235</ele>
        <time>2016-06-17T11:44:53Z</time>
      </trkpt>
      <trkpt lat="50.55405" lon="5.45152">
        <ele>235</ele>
        <time>2016-06-17T11:46:53Z</time>
      </trkpt>
      <trkpt lat="50.55376" lon="5.45141">
        <ele>234</ele>
        <time>2016-06-17T11:48:53Z</time>
      </trkpt>
      <trkpt lat="50.55365" lon="5.45137">
        <ele>234</ele>
        <time>2016-06-17T11:50:53Z</time>
      </trkpt>
      <trkpt lat="50.55333" lon="5.45132">
        <ele>233</ele>
        <time>2016-06-17T11:52:53Z</time>
      </trkpt>
      <trkpt lat="50.55293" lon="5.45127">
        <ele>231</ele>
        <time>2016-06-17T11:54:53Z</time>
      </trkpt>
      <trkpt lat="50.55275" lon="5.45126">
        <ele>229</ele>
        <time>2016-06-17T11:56:53Z</time>
      </trkpt>
      <trkpt lat="50.55254" lon="5.45124">
        <ele>228</ele>
        <time>2016-06-17T11:58:53Z</time>
      </trkpt>
      <trkpt lat="50.5525" lon="5.45126">
        <ele>228</ele>
        <time>2016-06-17T12:00:53Z</time>
      </trkpt>
      <trkpt lat="50.55247" lon="5.45129">
        <ele>228</ele>
        <time>2016-06-17T12:02:53Z</time>
      </trkpt>
      <trkpt lat="50.55245" lon="5.45134">
        <ele>228</ele>
        <time>2016-06-17T12:04:53Z</time>
      </trkpt>
      <trkpt lat="50.55241" lon="5.45153">
        <ele>227</ele>
        <time>2016-06-17T12:06:53Z</time>
      </trkpt>
      <trkpt lat="50.5524" lon="5.4516">
        <ele>227</ele>
        <time>2016-06-17T12:08:53Z</time>
      </trkpt>
      <trkpt lat="50.55237" lon="5.45168">
        <ele>227</ele>
        <time>2016-06-17T12:10:53Z</time>
      </trkpt>
      <trkpt lat="50.55233" lon="5.45174">
        <ele>227</ele>
        <time>2016-06-17T12:12:53Z</time>
      </trkpt>
      <trkpt lat="50.55229" lon="5.45181">
        <ele>226</ele>
        <time>2016-06-17T12:14:53Z</time>
      </trkpt>
      <trkpt lat="50.55214" lon="5.45192">
        <ele>226</ele>
        <time>2016-06-17T12:16:53Z</time>
      </trkpt>
      <trkpt lat="50.55208" lon="5.45196">
        <ele>226</ele>
        <time>2016-06-17T12:18:53Z</time>
      </trkpt>
      <trkpt lat="50.55177" lon="5.45212">
        <ele>225</ele>
        <time>2016-06-17T12:20:53Z</time>
      </trkpt>
      <trkpt lat="50.55155" lon="5.45225">
        <ele>223</ele>
        <time>2016-06-17T12:22:53Z</time>
      </trkpt>
      <trkpt lat="50.5513" lon="5.45233">
        <ele>221</ele>
        <time>2016-06-17T12:24:53Z</time>
      </trkpt>
      <trkpt lat="50.55114" lon="5.45234">
        <ele>220</ele>
        <time>2016-06-17T12:26:53Z</time>
      </trkpt>
      <trkpt lat="50.55096" lon="5.45232">
        <ele>219</ele>
        <time>2016-06-17T12:28:53Z</time>
      </trkpt>
      <trkpt lat="50.55086" lon="5.45229">
        <ele>218</ele>
        <time>2016-06-17T12:30:53Z</time>
      </trkpt>
      <trkpt lat="50.55068" lon="5.45228">
        <ele>217</ele>
        <time>2016-06-17T12:32:53Z</time>
      </trkpt>
      <trkpt lat="50.55059" lon="5.45231">
        <ele>216</ele>
        <time>2016-06-17T12:34:53Z</time>
      </trkpt>
      <trkpt lat="50.55051" lon="5.45237">
        <ele>216</ele>
        <time>2016-06-17T12:36:53Z</time>
      </trkpt>
      <trkpt lat="50.55011" lon="5.45272">
        <ele>213</ele>
        <time>2016-06-17T12:38:53Z</time>
      </trkpt>
      <trkpt lat="50.54944" lon="5.45331">
        <ele>212</ele>
        <time>2016-06-17T12:40:53Z</time>
      </trkpt>
      <trkpt lat="50.54913" lon="5.45359">
        <ele>213</ele>
        <time>2016-06-17T12:42:53Z</time>
      </trkpt>
      <trkpt lat="50.54869" lon="5.45398">
        <ele>214</ele>
        <time>2016-06-17T12:44:53Z</time>
      </trkpt>
      <trkpt lat="50.54853" lon="5.45412">
        <ele>215</ele>
        <time>2016-06-17T12:46:53Z</time>
      </trkpt>
      <trkpt lat="50.54849" lon="5.45414">
        <ele>215</ele>
        <time>2016-06-17T12:48:53Z</time>
      </trkpt>
      <trkpt lat="50.54835" lon="5.45428">
        <ele>215</ele>
        <time>2016-06-17T12:50:53Z</time>
      </trkpt>
      <trkpt lat="50.54824" lon="5.45438">
        <ele>216</ele>
        <time>2016-06-17T12:52:53Z</time>
      </trkpt>
      <trkpt lat="50.54806" lon="5.45455">
        <ele>218</ele>
        <time>2016-06-17T12:54:53Z</time>
      </trkpt>
      <trkpt lat="50.54794" lon="5.45464">
        <ele>219</ele>
        <time>2016-06-17T12:56:53Z</time>
      </trkpt>
      <trkpt lat="50.54785" lon="5.45474">
        <ele>220</ele>
        <time>2016-06-17T12:58:53Z</time>
      </trkpt>
      <trkpt lat="50.54764" lon="5.45493">
        <ele>221</ele>
        <time>2016-06-17T13:00:53Z</time>
      </trkpt>
      <trkpt lat="50.5475" lon="5.45505">
        <ele>222</ele>
        <time>2016-06-17T13:02:53Z</time>
      </trkpt>
      <trkpt lat="50.5474" lon="5.45515">
        <ele>223</ele>
        <time>2016-06-17T13:04:53Z</time>
      </trkpt>
      <trkpt lat="50.54733" lon="5.45521">
        <ele>223</ele>
        <time>2016-06-17T13:06:53Z</time>
      </trkpt>
      <trkpt lat="50.54722" lon="5.4553">
        <ele>224</ele>
        <time>2016-06-17T13:08:53Z</time>
      </trkpt>
      <trkpt lat="50.54719" lon="5.45533">
        <ele>224</ele>
        <time>2016-06-17T13:10:53Z</time>
      </trkpt>
      <trkpt lat="50.54666" lon="5.45583">
        <ele>228</ele>
        <time>2016-06-17T13:12:53Z</time>
      </trkpt>
      <trkpt lat="50.54649" lon="5.45599">
        <ele>229</ele>
        <time>2016-06-17T13:14:53Z</time>
      </trkpt>
      <trkpt lat="50.54629" lon="5.45616">
        <ele>231</ele>
        <time>2016-06-17T13:16:53Z</time>
      </trkpt>
      <trkpt lat="50.54611" lon="5.45635">
        <ele>232</ele>
        <time>2016-06-17T13:18:53Z</time>
      </trkpt>
      <trkpt lat="50.54598" lon="5.45646">
        <ele>233</ele>
        <time>2016-06-17T13:20:53Z</time>
      </trkpt>
      <trkpt lat="50.54557" lon="5.4568">
        <ele>237</ele>
        <time>2016-06-17T13:22:53Z</time>
      </trkpt>
      <trkpt lat="50.54538" lon="5.45699">
        <ele>238</ele>
        <time>2016-06-17T13:24:53Z</time>
      </trkpt>
      <trkpt lat="50.54534" lon="5.45702">
        <ele>238</ele>
        <time>2016-06-17T13:26:53Z</time>
      </trkpt>
      <trkpt lat="50.54517" lon="5.45717">
        <ele>239</ele>
        <time>2016-06-17T13:28:53Z</time>
      </trkpt>
      <trkpt lat="50.54497" lon="5.45734">
        <ele>240</ele>
        <time>2016-06-17T13:30:53Z</time>
      </trkpt>
      <trkpt lat="50.54458" lon="5.45766">
        <ele>242</ele>
        <time>2016-06-17T13:32:53Z</time>
      </trkpt>
      <trkpt lat="50.54431" lon="5.45791">
        <ele>243</ele>
        <time>2016-06-17T13:34:53Z</time>
      </trkpt>
      <trkpt lat="50.54402" lon="5.45818">
        <ele>245</ele>
        <time>2016-06-17T13:36:53Z</time>
      </trkpt>
      <trkpt lat="50.54376" lon="5.45841">
        <ele>246</ele>
        <time>2016-06-17T13:38:53Z</time>
      </trkpt>
      <trkpt lat="50.54364" lon="5.4585">
        <ele>247</ele>
        <time>2016-06-17T13:40:53Z</time>
      </trkpt>
      <trkpt lat="50.54331" lon="5.4588">
        <ele>249</ele>
        <time>2016-06-17T13:42:53Z</time>
      </trkpt>
      <trkpt lat="50.54302" lon="5.45906">
        <ele>251</ele>
        <time>2016-06-17T13:44:53Z</time>
      </trkpt>
      <trkpt lat="50.54295" lon="5.45914">
        <ele>251</ele>
        <time>2016-06-17T13:46:53Z</time>
      </trkpt>
      <trkpt lat="50.54283" lon="5.45924">
        <ele>251</ele>
        <time>2016-06-17T13:48:53Z</time>
      </trkpt>
      <trkpt lat="50.5428" lon="5.45928">
        <ele>251</ele>
        <time>2016-06-17T13:50:53Z</time>
      </trkpt>
      <trkpt lat="50.54276" lon="5.45931">
        <ele>251</ele>
        <time>2016-06-17T13:52:53Z</time>
      </trkpt>
      <trkpt lat="50.54249" lon="5.45958">
        <ele>252</ele>
        <time>2016-06-17T13:54:53Z</time>
      </trkpt>
      <trkpt lat="50.5422" lon="5.45981">
        <ele>252</ele>
        <time>2016-06-17T13:56:53Z</time>
      </trkpt>
      <trkpt lat="50.54177" lon="5.46014">
        <ele>253</ele>
        <time>2016-06-17T13:58:53Z</time>
      </trkpt>
      <trkpt lat="50.54152" lon="5.46043">
        <ele>254</ele>
        <time>2016-06-17T14:00:53Z</time>
      </trkpt>
      <trkpt lat="50.54146" lon="5.46053">
        <ele>254</ele>
        <time>2016-06-17T14:02:53Z</time>
      </trkpt>
      <trkpt lat="50.54136" lon="5.46077">
        <ele>254</ele>
        <time>2016-06-17T14:04:53Z</time>
      </trkpt>
      <trkpt lat="50.54121" lon="5.46117">
        <ele>254</ele>
        <time>2016-06-17T14:06:53Z</time>
      </trkpt>
      <trkpt lat="50.54109" lon="5.46139">
        <ele>255</ele>
        <time>2016-06-17T14:08:53Z</time>
      </trkpt>
      <trkpt lat="50.54107" lon="5.46142">
        <ele>255</ele>
        <time>2016-06-17T14:10:53Z</time>
      </trkpt>
      <trkpt lat="50.541" lon="5.46155">
        <ele>255</ele>
        <time>2016-06-17T14:12:53Z</time>
      </trkpt>
      <trkpt lat="50.54095" lon="5.46162">
        <ele>255</ele>
        <time>2016-06-17T14:14:53Z</time>
      </trkpt>
      <trkpt lat="50.54094" lon="5.46165">
        <ele>255</ele>
        <time>2016-06-17T14:16:53Z</time>
      </trkpt>
      <trkpt lat="50.54082" lon="5.4618">
        <ele>255</ele>
        <time>2016-06-17T14:18:53Z</time>
      </trkpt>
      <trkpt lat="50.54076" lon="5.46188">
        <ele>255</ele>
        <time>2016-06-17T14:20:53Z</time>
      </trkpt>
      <trkpt lat="50.54065" lon="5.46205">
        <ele>255</ele>
        <time>2016-06-17T14:22:53Z</time>
      </trkpt>
      <trkpt lat="50.54063" lon="5.46212">
        <ele>255</ele>
        <time>2016-06-17T14:24:53Z</time>
      </trkpt>
      <trkpt lat="50.54055" lon="5.46254">
        <ele>255</ele>
        <time>2016-06-17T14:26:53Z</time>
      </trkpt>
      <trkpt lat="50.54053" lon="5.4631">
        <ele>255</ele>
        <time>2016-06-17T14:28:53Z</time>
      </trkpt>
      <trkpt lat="50.54043" lon="5.46378">
        <ele>255</ele>
        <time>2016-06-17T14:30:53Z</time>
      </trkpt>
      <trkpt lat="50.54025" lon="5.46447">
        <ele>255</ele>
        <time>2016-06-17T14:32:53Z</time>
      </trkpt>
      <trkpt lat="50.54018" lon="5.46468">
        <ele>255</ele>
        <time>2016-06-17T14:34:53Z</time>
      </trkpt>
      <trkpt lat="50.54005" lon="5.4652">
        <ele>256</ele>
        <time>2016-06-17T14:36:53Z</time>
      </trkpt>
      <trkpt lat="50.53999" lon="5.46541">
        <ele>257</ele>
        <time>2016-06-17T14:38:53Z</time>
      </trkpt>
      <trkpt lat="50.53991" lon="5.46577">
        <ele>258</ele>
        <time>2016-06-17T14:40:53Z</time>
      </trkpt>
      <trkpt lat="50.5398" lon="5.4664">
        <ele>260</ele>
        <time>2016-06-17T14:42:53Z</time>
      </trkpt>
      <trkpt lat="50.53979" lon="5.46648">
        <ele>260</ele>
        <time>2016-06-17T14:44:53Z</time>
      </trkpt>
      <trkpt lat="50.53975" lon="5.46671">
        <ele>261</ele>
        <time>2016-06-17T14:46:53Z</time>
      </trkpt>
      <trkpt lat="50.53969" lon="5.46711">
        <ele>262</ele>
        <time>2016-06-17T14:48:53Z</time>
      </trkpt>
      <trkpt lat="50.53946" lon="5.4684">
        <ele>265</ele>
        <time>2016-06-17T14:50:53Z</time>
      </trkpt>
      <trkpt lat="50.5394" lon="5.4688">
        <ele>266</ele>
        <time>2016-06-17T14:52:53Z</time>
      </trkpt>
      <trkpt lat="50.53928" lon="5.46952">
        <ele>268</ele>
        <time>2016-06-17T14:54:53Z</time>
      </trkpt>
      <trkpt lat="50.53921" lon="5.47004">
        <ele>270</ele>
        <time>2016-06-17T14:56:53Z</time>
      </trkpt>
      <trkpt lat="50.53908" lon="5.47082">
        <ele>270</ele>
        <time>2016-06-17T14:58:53Z</time>
      </trkpt>
      <trkpt lat="50.53903" lon="5.47106">
        <ele>270</ele>
        <time>2016-06-17T15:00:53Z</time>
      </trkpt>
      <trkpt lat="50.53892" lon="5.47173">
        <ele>270</ele>
        <time>2016-06-17T15:02:53Z</time>
      </trkpt>
      <trkpt lat="50.53881" lon="5.47239">
        <ele>270</ele>
        <time>2016-06-17T15:04:53Z</time>
      </trkpt>
      <trkpt lat="50.53873" lon="5.47262">
        <ele>269</ele>
        <time>2016-06-17T15:06:53Z</time>
      </trkpt>
      <trkpt lat="50.53864" lon="5.47286">
        <ele>269</ele>
        <time>2016-06-17T15:08:53Z</time>
      </trkpt>
      <trkpt lat="50.53856" lon="5.4731">
        <ele>269</ele>
        <time>2016-06-17T15:10:53Z</time>
      </trkpt>
      <trkpt lat="50.53851" lon="5.47338">
        <ele>269</ele>
        <time>2016-06-17T15:12:53Z</time>
      </trkpt>
      <trkpt lat="50.53838" lon="5.47417">
        <ele>266</ele>
        <time>2016-06-17T15:14:53Z</time>
      </trkpt>
      <trkpt lat="50.53829" lon="5.47468">
        <ele>265</ele>
        <time>2016-06-17T15:16:53Z</time>
      </trkpt>
      <trkpt lat="50.53817" lon="5.47542">
        <ele>264</ele>
        <time>2016-06-17T15:18:53Z</time>
      </trkpt>
      <trkpt lat="50.53807" lon="5.47598">
        <ele>263</ele>
        <time>2016-06-17T15:20:53Z</time>
      </trkpt>
      <trkpt lat="50.53804" lon="5.4762">
        <ele>263</ele>
        <time>2016-06-17T15:22:53Z</time>
      </trkpt>
      <trkpt lat="50.538" lon="5.47664">
        <ele>263</ele>
        <time>2016-06-17T15:24:53Z</time>
      </trkpt>
      <trkpt lat="50.538" lon="5.47687">
        <ele>262</ele>
        <time>2016-06-17T15:26:53Z</time>
      </trkpt>
      <trkpt lat="50.53801" lon="5.47732">
        <ele>262</ele>
        <time>2016-06-17T15:28:53Z</time>
      </trkpt>
      <trkpt lat="50.53802" lon="5.47754">
        <ele>262</ele>
        <time>2016-06-17T15:30:53Z</time>
      </trkpt>
      <trkpt lat="50.53804" lon="5.47786">
        <ele>261</ele>
        <time>2016-06-17T15:32:53Z</time>
      </trkpt>
      <trkpt lat="50.53811" lon="5.47842">
        <ele>260</ele>
        <time>2016-06-17T15:34:53Z</time>
      </trkpt>
      <trkpt lat="50.53824" lon="5.47914">
        <ele>261</ele>
        <time>2016-06-17T15:36:53Z</time>
      </trkpt>
      <trkpt lat="50.53834" lon="5.47968">
        <ele>261</ele>
        <time>2016-06-17T15:38:53Z</time>
      </trkpt>
      <trkpt lat="50.53838" lon="5.48033">
        <ele>261</ele>
        <time>2016-06-17T15:40:53Z</time>
      </trkpt>
      <trkpt lat="50.53839" lon="5.48119">
        <ele>261</ele>
        <time>2016-06-17T15:42:53Z</time>
      </trkpt>
      <trkpt lat="50.53842" lon="5.48206">
        <ele>260</ele>
        <time>2016-06-17T15:44:53Z</time>
      </trkpt>
      <trkpt lat="50.53843" lon="5.48286">
        <ele>259</ele>
        <time>2016-06-17T15:46:53Z</time>
      </trkpt>
      <trkpt lat="50.53843" lon="5.48367">
        <ele>259</ele>
        <time>2016-06-17T15:48:53Z</time>
      </trkpt>
      <trkpt lat="50.53845" lon="5.48456">
        <ele>261</ele>
        <time>2016-06-17T15:50:53Z</time>
      </trkpt>
      <trkpt lat="50.53847" lon="5.48577">
        <ele>263</ele>
        <time>2016-06-17T15:52:53Z</time>
      </trkpt>
      <trkpt lat="50.53849" lon="5.48695">
        <ele>265</ele>
        <time>2016-06-17T15:54:53Z</time>
      </trkpt>
      <trkpt lat="50.53848" lon="5.48731">
        <ele>265</ele>
        <time>2016-06-17T15:56:53Z</time>
      </trkpt>
      <trkpt lat="50.53847" lon="5.48764">
        <ele>265</ele>
        <time>2016-06-17T15:58:53Z</time>
      </trkpt>
      <trkpt lat="50.53845" lon="5.48796">
        <ele>265</ele>
        <time>2016-06-17T16:00:53Z</time>
      </trkpt>
      <trkpt lat="50.53838" lon="5.48821">
        <ele>264</ele>
        <time>2016-06-17T16:02:53Z</time>
      </trkpt>
      <trkpt lat="50.53834" lon="5.48829">
        <ele>264</ele>
        <time>2016-06-17T16:04:53Z</time>
      </trkpt>
      <trkpt lat="50.53811" lon="5.48872">
        <ele>263</ele>
        <time>2016-06-17T16:06:53Z</time>
      </trkpt>
      <trkpt lat="50.53801" lon="5.48892">
        <ele>262</ele>
        <time>2016-06-17T16:08:53Z</time>
      </trkpt>
      <trkpt lat="50.53769" lon="5.48953">
        <ele>260</ele>
        <time>2016-06-17T16:10:53Z</time>
      </trkpt>
      <trkpt lat="50.53749" lon="5.48993">
        <ele>258</ele>
        <time>2016-06-17T16:12:53Z</time>
      </trkpt>
      <trkpt lat="50.53728" lon="5.49032">
        <ele>257</ele>
        <time>2016-06-17T16:14:53Z</time>
      </trkpt>
      <trkpt lat="50.53719" lon="5.49053">
        <ele>256</ele>
        <time>2016-06-17T16:16:53Z</time>
      </trkpt>
      <trkpt lat="50.53712" lon="5.49077">
        <ele>256</ele>
        <time>2016-06-17T16:18:53Z</time>
      </trkpt>
      <trkpt lat="50.53692" lon="5.49166">
        <ele>254</ele>
        <time>2016-06-17T16:20:53Z</time>
      </trkpt>
      <trkpt lat="50.5367" lon="5.49245">
        <ele>252</ele>
        <time>2016-06-17T16:22:53Z</time>
      </trkpt>
      <trkpt lat="50.53664" lon="5.49256">
        <ele>252</ele>
        <time>2016-06-17T16:24:53Z</time>
      </trkpt>
      <trkpt lat="50.5362" lon="5.49331">
        <ele>250</ele>
        <time>2016-06-17T16:26:53Z</time>
      </trkpt>
      <trkpt lat="50.53602" lon="5.49362">
        <ele>249</ele>
        <time>2016-06-17T16:28:53Z</time>
      </trkpt>
      <trkpt lat="50.53593" lon="5.49386">
        <ele>248</ele>
        <time>2016-06-17T16:30:53Z</time>
      </trkpt>
      <trkpt lat="50.53578" lon="5.49452">
        <ele>244</ele>
        <time>2016-06-17T16:32:53Z</time>
      </trkpt>
      <trkpt lat="50.53571" lon="5.49475">
        <ele>244</ele>
        <time>2016-06-17T16:34:53Z</time>
      </trkpt>
      <trkpt lat="50.53566" lon="5.49486">
        <ele>243</ele>
        <time>2016-06-17T16:36:53Z</time>
      </trkpt>
      <trkpt lat="50.5356" lon="5.49495">
        <ele>243</ele>
        <time>2016-06-17T16:38:53Z</time>
      </trkpt>
      <trkpt lat="50.53545" lon="5.49508">
        <ele>243</ele>
        <time>2016-06-17T16:40:53Z</time>
      </trkpt>
      <trkpt lat="50.53536" lon="5.49512">
        <ele>243</ele>
        <time>2016-06-17T16:42:53Z</time>
      </trkpt>
      <trkpt lat="50.53482" lon="5.49531">
        <ele>242</ele>
        <time>2016-06-17T16:44:53Z</time>
      </trkpt>
      <trkpt lat="50.53404" lon="5.49556">
        <ele>238</ele>
        <time>2016-06-17T16:46:53Z</time>
      </trkpt>
      <trkpt lat="50.53369" lon="5.49563">
        <ele>235</ele>
        <time>2016-06-17T16:48:53Z</time>
      </trkpt>
      <trkpt lat="50.53351" lon="5.4957">
        <ele>233</ele>
        <time>2016-06-17T16:50:53Z</time>
      </trkpt>
      <trkpt lat="50.53334" lon="5.49579">
        <ele>232</ele>
        <time>2016-06-17T16:52:53Z</time>
      </trkpt>
      <trkpt lat="50.5331" lon="5.496">
        <ele>231</ele>
        <time>2016-06-17T16:54:53Z</time>
      </trkpt>
      <trkpt lat="50.53289" lon="5.49626">
        <ele>231</ele>
        <time>2016-06-17T16:56:53Z</time>
      </trkpt>
      <trkpt lat="50.53276" lon="5.49644">
        <ele>231</ele>
        <time>2016-06-17T16:58:53Z</time>
      </trkpt>
      <trkpt lat="50.53241" lon="5.49701">
        <ele>232</ele>
        <time>2016-06-17T17:00:53Z</time>
      </trkpt>
      <trkpt lat="50.53227" lon="5.49726">
        <ele>233</ele>
        <time>2016-06-17T17:02:53Z</time>
      </trkpt>
      <trkpt lat="50.5322" lon="5.49745">
        <ele>233</ele>
        <time>2016-06-17T17:04:53Z</time>
      </trkpt>
      <trkpt lat="50.53215" lon="5.49765">
        <ele>233</ele>
        <time>2016-06-17T17:06:53Z</time>
      </trkpt>
      <trkpt lat="50.53207" lon="5.49805">
        <ele>233</ele>
        <time>2016-06-17T17:08:53Z</time>
      </trkpt>
      <trkpt lat="50.53196" lon="5.49883">
        <ele>234</ele>
        <time>2016-06-17T17:10:53Z</time>
      </trkpt>
      <trkpt lat="50.53195" lon="5.49893">
        <ele>234</ele>
        <time>2016-06-17T17:12:53Z</time>
      </trkpt>
      <trkpt lat="50.53191" lon="5.49963">
        <ele>235</ele>
        <time>2016-06-17T17:14:53Z</time>
      </trkpt>
      <trkpt lat="50.53192" lon="5.50042">
        <ele>236</ele>
        <time>2016-06-17T17:16:53Z</time>
      </trkpt>
      <trkpt lat="50.53195" lon="5.50134">
        <ele>237</ele>
        <time>2016-06-17T17:18:53Z</time>
      </trkpt>
      <trkpt lat="50.53195" lon="5.50163">
        <ele>238</ele>
        <time>2016-06-17T17:20:53Z</time>
      </trkpt>
      <trkpt lat="50.53196" lon="5.50255">
        <ele>238</ele>
        <time>2016-06-17T17:22:53Z</time>
      </trkpt>
      <trkpt lat="50.53198" lon="5.50347">
        <ele>238</ele>
        <time>2016-06-17T17:24:53Z</time>
      </trkpt>
      <trkpt lat="50.53199" lon="5.50367">
        <ele>238</ele>
        <time>2016-06-17T17:26:53Z</time>
      </trkpt>
      <trkpt lat="50.53202" lon="5.50405">
        <ele>238</ele>
        <time>2016-06-17T17:28:53Z</time>
      </trkpt>
      <trkpt lat="50.53205" lon="5.50431">
        <ele>238</ele>
        <time>2016-06-17T17:30:53Z</time>
      </trkpt>
      <trkpt lat="50.53206" lon="5.5044">
        <ele>238</ele>
        <time>2016-06-17T17:32:53Z</time>
      </trkpt>
      <trkpt lat="50.53206" lon="5.5047">
        <ele>238</ele>
        <time>2016-06-17T17:34:53Z</time>
      </trkpt>
      <trkpt lat="50.53206" lon="5.50592">
        <ele>240</ele>
        <time>2016-06-17T17:36:53Z</time>
      </trkpt>
      <trkpt lat="50.53209" lon="5.50676">
        <ele>240</ele>
        <time>2016-06-17T17:38:53Z</time>
      </trkpt>
      <trkpt lat="50.53209" lon="5.50707">
        <ele>240</ele>
        <time>2016-06-17T17:40:53Z</time>
      </trkpt>
      <trkpt lat="50.5321" lon="5.50748">
        <ele>240</ele>
        <time>2016-06-17T17:42:53Z</time>
      </trkpt>
      <trkpt lat="50.53213" lon="5.50785">
        <ele>239</ele>
        <time>2016-06-17T17:44:53Z</time>
      </trkpt>
      <trkpt lat="50.53214" lon="5.50794">
        <ele>239</ele>
        <time>2016-06-17T17:46:53Z</time>
      </trkpt>
      <trkpt lat="50.53228" lon="5.50853">
        <ele>238</ele>
        <time>2016-06-17T17:48:53Z</time>
      </trkpt>
      <trkpt lat="50.53247" lon="5.50929">
        <ele>236</ele>
        <time>2016-06-17T17:50:53Z</time>
      </trkpt>
      <trkpt lat="50.53265" lon="5.50984">
        <ele>234</ele>
        <time>2016-06-17T17:52:53Z</time>
      </trkpt>
      <trkpt lat="50.53268" lon="5.50996">
        <ele>233</ele>
        <time>2016-06-17T17:54:53Z</time>
      </trkpt>
      <trkpt lat="50.53271" lon="5.51009">
        <ele>233</ele>
        <time>2016-06-17T17:56:53Z</time>
      </trkpt>
      <trkpt lat="50.53273" lon="5.51035">
        <ele>232</ele>
        <time>2016-06-17T17:58:53Z</time>
      </trkpt>
      <trkpt lat="50.53273" lon="5.51049">
        <ele>231</ele>
        <time>2016-06-17T18:00:53Z</time>
      </trkpt>
      <trkpt lat="50.53272" lon="5.51143">
        <ele>227</ele>
        <time>2016-06-17T18:02:53Z</time>
      </trkpt>
      <trkpt lat="50.53272" lon="5.5117">
        <ele>226</ele>
        <time>2016-06-17T18:04:53Z</time>
      </trkpt>
      <trkpt lat="50.5327" lon="5.51196">
        <ele>226</ele>
        <time>2016-06-17T18:06:53Z</time>
      </trkpt>
      <trkpt lat="50.53266" lon="5.51246">
        <ele>226</ele>
        <time>2016-06-17T18:08:53Z</time>
      </trkpt>
      <trkpt lat="50.53257" lon="5.51331">
        <ele>224</ele>
        <time>2016-06-17T18:10:53Z</time>
      </trkpt>
      <trkpt lat="50.5325" lon="5.51417">
        <ele>225</ele>
        <time>2016-06-17T18:12:53Z</time>
      </trkpt>
      <trkpt lat="50.53248" lon="5.51453">
        <ele>225</ele>
        <time>2016-06-17T18:14:53Z</time>
      </trkpt>
      <trkpt lat="50.53241" lon="5.5151">
        <ele>224</ele>
        <time>2016-06-17T18:16:53Z</time>
      </trkpt>
      <trkpt lat="50.53238" lon="5.5152">
        <ele>224</ele>
        <time>2016-06-17T18:18:53Z</time>
      </trkpt>
      <trkpt lat="50.53227" lon="5.5155">
        <ele>223</ele>
        <time>2016-06-17T18:20:53Z</time>
      </trkpt>
      <trkpt lat="50.53218" lon="5.51567">
        <ele>222</ele>
        <time>2016-06-17T18:22:53Z</time>
      </trkpt>
      <trkpt lat="50.53201" lon="5.51592">
        <ele>222</ele>
        <time>2016-06-17T18:24:53Z</time>
      </trkpt>
      <trkpt lat="50.53172" lon="5.51633">
        <ele>220</ele>
        <time>2016-06-17T18:26:53Z</time>
      </trkpt>
      <trkpt lat="50.53158" lon="5.51659">
        <ele>218</ele>
        <time>2016-06-17T18:28:53Z</time>
      </trkpt>
      <trkpt lat="50.53154" lon="5.51682">
        <ele>216</ele>
        <time>2016-06-17T18:30:53Z</time>
      </trkpt>
      <trkpt lat="50.53154" lon="5.51695">
        <ele>216</ele>
        <time>2016-06-17T18:32:53Z</time>
      </trkpt>
      <trkpt lat="50.53154" lon="5.51709">
        <ele>215</ele>
        <time>2016-06-17T18:34:53Z</time>
      </trkpt>
      <trkpt lat="50.53158" lon="5.5175">
        <ele>213</ele>
        <time>2016-06-17T18:36:53Z</time>
      </trkpt>
      <trkpt lat="50.53161" lon="5.51764">
        <ele>213</ele>
        <time>2016-06-17T18:38:53Z</time>
      </trkpt>
      <trkpt lat="50.53165" lon="5.51776">
        <ele>213</ele>
        <time>2016-06-17T18:40:53Z</time>
      </trkpt>
      <trkpt lat="50.53179" lon="5.51798">
        <ele>212</ele>
        <time>2016-06-17T18:42:53Z</time>
      </trkpt>
      <trkpt lat="50.53197" lon="5.51814">
        <ele>211</ele>
        <time>2016-06-17T18:44:53Z</time>
      </trkpt>
      <trkpt lat="50.53207" lon="5.51821">
        <ele>211</ele>
        <time>2016-06-17T18:46:53Z</time>
      </trkpt>
      <trkpt lat="50.53261" lon="5.51853">
        <ele>208</ele>
        <time>2016-06-17T18:48:53Z</time>
      </trkpt>
      <trkpt lat="50.53272" lon="5.5186">
        <ele>208</ele>
        <time>2016-06-17T18:50:53Z</time>
      </trkpt>
      <trkpt lat="50.53303" lon="5.5188">
        <ele>206</ele>
        <time>2016-06-17T18:52:53Z</time>
      </trkpt>
      <trkpt lat="50.53322" lon="5.51893">
        <ele>205</ele>
        <time>2016-06-17T18:54:53Z</time>
      </trkpt>
      <trkpt lat="50.53338" lon="5.51905">
        <ele>202</ele>
        <time>2016-06-17T18:56:53Z</time>
      </trkpt>
      <trkpt lat="50.53351" lon="5.51913">
        <ele>198</ele>
        <time>2016-06-17T18:58:53Z</time>
      </trkpt>
      <trkpt lat="50.53366" lon="5.51913">
        <ele>195</ele>
        <time>2016-06-17T19:00:53Z</time>
      </trkpt>
      <trkpt lat="50.53374" lon="5.5191">
        <ele>193</ele>
        <time>2016-06-17T19:02:53Z</time>
      </trkpt>
      <trkpt lat="50.53379" lon="5.51905">
        <ele>192</ele>
        <time>2016-06-17T19:04:53Z</time>
      </trkpt>
      <trkpt lat="50.53383" lon="5.51895">
        <ele>192</ele>
        <time>2016-06-17T19:06:53Z</time>
      </trkpt>
      <trkpt lat="50.53385" lon="5.51883">
        <ele>192</ele>
        <time>2016-06-17T19:08:53Z</time>
      </trkpt>
      <trkpt lat="50.53386" lon="5.5187">
        <ele>193</ele>
        <time>2016-06-17T19:10:53Z</time>
      </trkpt>
      <trkpt lat="50.53387" lon="5.51856">
        <ele>194</ele>
        <time>2016-06-17T19:12:53Z</time>
      </trkpt>
      <trkpt lat="50.53386" lon="5.51841">
        <ele>195</ele>
        <time>2016-06-17T19:14:53Z</time>
      </trkpt>
      <trkpt lat="50.53385" lon="5.5181">
        <ele>196</ele>
        <time>2016-06-17T19:16:53Z</time>
      </trkpt>
      <trkpt lat="50.53385" lon="5.51794">
        <ele>196</ele>
        <time>2016-06-17T19:18:53Z</time>
      </trkpt>
      <trkpt lat="50.53384" lon="5.51759">
        <ele>196</ele>
        <time>2016-06-17T19:20:53Z</time>
      </trkpt>
      <trkpt lat="50.53384" lon="5.51742">
        <ele>196</ele>
        <time>2016-06-17T19:22:53Z</time>
      </trkpt>
      <trkpt lat="50.53386" lon="5.51724">
        <ele>196</ele>
        <time>2016-06-17T19:24:53Z</time>
      </trkpt>
      <trkpt lat="50.53389" lon="5.51707">
        <ele>195</ele>
        <time>2016-06-17T19:26:53Z</time>
      </trkpt>
      <trkpt lat="50.53393" lon="5.51689">
        <ele>194</ele>
        <time>2016-06-17T19:28:53Z</time>
      </trkpt>
      <trkpt lat="50.534" lon="5.51673">
        <ele>192</ele>
        <time>2016-06-17T19:30:53Z</time>
      </trkpt>
      <trkpt lat="50.53416" lon="5.51646">
        <ele>189</ele>
        <time>2016-06-17T19:32:53Z</time>
      </trkpt>
      <trkpt lat="50.5343" lon="5.51622">
        <ele>189</ele>
        <time>2016-06-17T19:34:53Z</time>
      </trkpt>
      <trkpt lat="50.53438" lon="5.51612">
        <ele>190</ele>
        <time>2016-06-17T19:36:53Z</time>
      </trkpt>
      <trkpt lat="50.53446" lon="5.516">
        <ele>191</ele>
        <time>2016-06-17T19:38:53Z</time>
      </trkpt>
      <trkpt lat="50.53467" lon="5.51591">
        <ele>191</ele>
        <time>2016-06-17T19:40:53Z</time>
      </trkpt>
      <trkpt lat="50.53488" lon="5.51593">
        <ele>190</ele>
        <time>2016-06-17T19:42:53Z</time>
      </trkpt>
      <trkpt lat="50.53498" lon="5.51596">
        <ele>189</ele>
        <time>2016-06-17T19:44:53Z</time>
      </trkpt>
      <trkpt lat="50.53528" lon="5.51607">
        <ele>187</ele>
        <time>2016-06-17T19:46:53Z</time>
      </trkpt>
      <trkpt lat="50.53537" lon="5.5161">
        <ele>186</ele>
        <time>2016-06-17T19:48:53Z</time>
      </trkpt>
      <trkpt lat="50.53546" lon="5.51612">
        <ele>186</ele>
        <time>2016-06-17T19:50:53Z</time>
      </trkpt>
      <trkpt lat="50.53564" lon="5.51614">
        <ele>185</ele>
        <time>2016-06-17T19:52:53Z</time>
      </trkpt>
      <trkpt lat="50.53582" lon="5.51609">
        <ele>185</ele>
        <time>2016-06-17T19:54:53Z</time>
      </trkpt>
      <trkpt lat="50.53615" lon="5.51586">
        <ele>186</ele>
        <time>2016-06-17T19:56:53Z</time>
      </trkpt>
      <trkpt lat="50.53629" lon="5.51578">
        <ele>186</ele>
        <time>2016-06-17T19:58:53Z</time>
      </trkpt>
      <trkpt lat="50.53634" lon="5.51574">
        <ele>186</ele>
        <time>2016-06-17T20:00:53Z</time>
      </trkpt>
      <trkpt lat="50.53639" lon="5.51571">
        <ele>185</ele>
        <time>2016-06-17T20:02:53Z</time>
      </trkpt>
      <trkpt lat="50.53646" lon="5.51573">
        <ele>184</ele>
        <time>2016-06-17T20:04:53Z</time>
      </trkpt>
      <trkpt lat="50.53647" lon="5.51577">
        <ele>184</ele>
        <time>2016-06-17T20:06:53Z</time>
      </trkpt>
      <trkpt lat="50.53646" lon="5.5158">
        <ele>184</ele>
        <time>2016-06-17T20:08:53Z</time>
      </trkpt>
      <trkpt lat="50.53641" lon="5.51581">
        <ele>184</ele>
        <time>2016-06-17T20:10:53Z</time>
      </trkpt>
      <trkpt lat="50.53635" lon="5.51583">
        <ele>184</ele>
        <time>2016-06-17T20:12:53Z</time>
      </trkpt>
      <trkpt lat="50.53621" lon="5.51588">
        <ele>185</ele>
        <time>2016-06-17T20:14:53Z</time>
      </trkpt>
      <trkpt lat="50.53613" lon="5.51592">
        <ele>186</ele>
        <time>2016-06-17T20:16:53Z</time>
      </trkpt>
      <trkpt lat="50.53605" lon="5.51597">
        <ele>186</ele>
        <time>2016-06-17T20:18:53Z</time>
      </trkpt>
      <trkpt lat="50.53591" lon="5.51614">
        <ele>184</ele>
        <time>2016-06-17T20:20:53Z</time>
      </trkpt>
      <trkpt lat="50.53579" lon="5.51636">
        <ele>181</ele>
        <time>2016-06-17T20:22:53Z</time>
      </trkpt>
      <trkpt lat="50.53574" lon="5.5165">
        <ele>178</ele>
        <time>2016-06-17T20:24:53Z</time>
      </trkpt>
      <trkpt lat="50.53574" lon="5.51686">
        <ele>175</ele>
        <time>2016-06-17T20:26:53Z</time>
      </trkpt>
      <trkpt lat="50.53576" lon="5.51704">
        <ele>174</ele>
        <time>2016-06-17T20:28:53Z</time>
      </trkpt>
      <trkpt lat="50.53582" lon="5.51781">
        <ele>172</ele>
        <time>2016-06-17T20:30:53Z</time>
      </trkpt>
      <trkpt lat="50.53583" lon="5.51794">
        <ele>171</ele>
        <time>2016-06-17T20:32:53Z</time>
      </trkpt>
      <trkpt lat="50.53591" lon="5.51833">
        <ele>173</ele>
        <time>2016-06-17T20:34:53Z</time>
      </trkpt>
      <trkpt lat="50.53596" lon="5.51856">
        <ele>175</ele>
        <time>2016-06-17T20:36:53Z</time>
      </trkpt>
      <trkpt lat="50.53596" lon="5.51864">
        <ele>175</ele>
        <time>2016-06-17T20:38:53Z</time>
      </trkpt>
      <trkpt lat="50.53589" lon="5.51904">
        <ele>172</ele>
        <time>2016-06-17T20:40:53Z</time>
      </trkpt>
      <trkpt lat="50.53586" lon="5.51914">
        <ele>171</ele>
        <time>2016-06-17T20:42:53Z</time>
      </trkpt>
      <trkpt lat="50.53571" lon="5.51956">
        <ele>169</ele>
        <time>2016-06-17T20:44:53Z</time>
      </trkpt>
      <trkpt lat="50.53554" lon="5.52012">
        <ele>167</ele>
        <time>2016-06-17T20:46:53Z</time>
      </trkpt>
      <trkpt lat="50.53545" lon="5.52035">
        <ele>167</ele>
        <time>2016-06-17T20:48:53Z</time>
      </trkpt>
      <trkpt lat="50.53529" lon="5.5207">
        <ele>167</ele>
        <time>2016-06-17T20:50:53Z</time>
      </trkpt>
      <trkpt lat="50.53522" lon="5.5208">
        <ele>167</ele>
        <time>2016-06-17T20:52:53Z</time>
      </trkpt>
      <trkpt lat="50.53506" lon="5.52094">
        <ele>166</ele>
        <time>2016-06-17T20:54:53Z</time>
      </trkpt>
      <trkpt lat="50.53497" lon="5.521">
        <ele>166</ele>
        <time>2016-06-17T20:56:53Z</time>
      </trkpt>
      <trkpt lat="50.53441" lon="5.52139">
        <ele>168</ele>
        <time>2016-06-17T20:58:53Z</time>
      </trkpt>
      <trkpt lat="50.53403" lon="5.52169">
        <ele>164</ele>
        <time>2016-06-17T21:00:53Z</time>
      </trkpt>
      <trkpt lat="50.53394" lon="5.52178">
        <ele>164</ele>
        <time>2016-06-17T21:02:53Z</time>
      </trkpt>
      <trkpt lat="50.53386" lon="5.5219">
        <ele>164</ele>
        <time>2016-06-17T21:04:53Z</time>
      </trkpt>
      <trkpt lat="50.5338" lon="5.52203">
        <ele>163</ele>
        <time>2016-06-17T21:06:53Z</time>
      </trkpt>
      <trkpt lat="50.53374" lon="5.52216">
        <ele>162</ele>
        <time>2016-06-17T21:08:53Z</time>
      </trkpt>
      <trkpt lat="50.53365" lon="5.52246">
        <ele>161</ele>
        <time>2016-06-17T21:10:53Z</time>
      </trkpt>
      <trkpt lat="50.53362" lon="5.52262">
        <ele>159</ele>
        <time>2016-06-17T21:12:53Z</time>
      </trkpt>
      <trkpt lat="50.53359" lon="5.52279">
        <ele>158</ele>
        <time>2016-06-17T21:14:53Z</time>
      </trkpt>
      <trkpt lat="50.53358" lon="5.52295">
        <ele>157</ele>
        <time>2016-06-17T21:16:53Z</time>
      </trkpt>
      <trkpt lat="50.53357" lon="5.52329">
        <ele>156</ele>
        <time>2016-06-17T21:18:53Z</time>
      </trkpt>
      <trkpt lat="50.53356" lon="5.52345">
        <ele>155</ele>
        <time>2016-06-17T21:20:53Z</time>
      </trkpt>
      <trkpt lat="50.53356" lon="5.52362">
        <ele>155</ele>
        <time>2016-06-17T21:22:53Z</time>
      </trkpt>
      <trkpt lat="50.53356" lon="5.52394">
        <ele>155</ele>
        <time>2016-06-17T21:24:53Z</time>
      </trkpt>
      <trkpt lat="50.53353" lon="5.52425">
        <ele>154</ele>
        <time>2016-06-17T21:26:53Z</time>
      </trkpt>
      <trkpt lat="50.53351" lon="5.5244">
        <ele>154</ele>
        <time>2016-06-17T21:28:53Z</time>
      </trkpt>
      <trkpt lat="50.5334" lon="5.52463">
        <ele>151</ele>
        <time>2016-06-17T21:30:53Z</time>
      </trkpt>
      <trkpt lat="50.53315" lon="5.52483">
        <ele>148</ele>
        <time>2016-06-17T21:32:53Z</time>
      </trkpt>
      <trkpt lat="50.53286" lon="5.52495">
        <ele>146</ele>
        <time>2016-06-17T21:34:53Z</time>
      </trkpt>
      <trkpt lat="50.53247" lon="5.52507">
        <ele>144</ele>
        <time>2016-06-17T21:36:53Z</time>
      </trkpt>
      <trkpt lat="50.53207" lon="5.52517">
        <ele>144</ele>
        <time>2016-06-17T21:38:53Z</time>
      </trkpt>
      <trkpt lat="50.53169" lon="5.52534">
        <ele>143</ele>
        <time>2016-06-17T21:40:53Z</time>
      </trkpt>
      <trkpt lat="50.5316" lon="5.52542">
        <ele>144</ele>
        <time>2016-06-17T21:42:53Z</time>
      </trkpt>
      <trkpt lat="50.53145" lon="5.52563">
        <ele>146</ele>
        <time>2016-06-17T21:44:53Z</time>
      </trkpt>
      <trkpt lat="50.53139" lon="5.52574">
        <ele>146</ele>
        <time>2016-06-17T21:46:53Z</time>
      </trkpt>
      <trkpt lat="50.53123" lon="5.5261">
        <ele>145</ele>
        <time>2016-06-17T21:48:53Z</time>
      </trkpt>
      <trkpt lat="50.53111" lon="5.52648">
        <ele>143</ele>
        <time>2016-06-17T21:50:53Z</time>
      </trkpt>
      <trkpt lat="50.53095" lon="5.52696">
        <ele>142</ele>
        <time>2016-06-17T21:52:53Z</time>
      </trkpt>
      <trkpt lat="50.53072" lon="5.52747">
        <ele>145</ele>
        <time>2016-06-17T21:54:53Z</time>
      </trkpt>
      <trkpt lat="50.53066" lon="5.52757">
        <ele>146</ele>
        <time>2016-06-17T21:56:53Z</time>
      </trkpt>
      <trkpt lat="50.5305" lon="5.52787">
        <ele>147</ele>
        <time>2016-06-17T21:58:53Z</time>
      </trkpt>
      <trkpt lat="50.53024" lon="5.52822">
        <ele>144</ele>
        <time>2016-06-17T22:00:53Z</time>
      </trkpt>
      <trkpt lat="50.52995" lon="5.52852">
        <ele>142</ele>
        <time>2016-06-17T22:02:53Z</time>
      </trkpt>
      <trkpt lat="50.52972" lon="5.52874">
        <ele>145</ele>
        <time>2016-06-17T22:04:53Z</time>
      </trkpt>
      <trkpt lat="50.52948" lon="5.52892">
        <ele>145</ele>
        <time>2016-06-17T22:06:53Z</time>
      </trkpt>
      <trkpt lat="50.52931" lon="5.52902">
        <ele>145</ele>
        <time>2016-06-17T22:08:53Z</time>
      </trkpt>
      <trkpt lat="50.52913" lon="5.52912">
        <ele>143</ele>
        <time>2016-06-17T22:10:53Z</time>
      </trkpt>
      <trkpt lat="50.52872" lon="5.52938">
        <ele>140</ele>
        <time>2016-06-17T22:12:53Z</time>
      </trkpt>
      <trkpt lat="50.52856" lon="5.5295">
        <ele>137</ele>
        <time>2016-06-17T22:14:53Z</time>
      </trkpt>
      <trkpt lat="50.52833" lon="5.52973">
        <ele>132</ele>
        <time>2016-06-17T22:16:53Z</time>
      </trkpt>
      <trkpt lat="50.52813" lon="5.52994">
        <ele>128</ele>
        <time>2016-06-17T22:18:53Z</time>
      </trkpt>
      <trkpt lat="50.52793" lon="5.53019">
        <ele>127</ele>
        <time>2016-06-17T22:20:53Z</time>
      </trkpt>
      <trkpt lat="50.52789" lon="5.53038">
        <ele>127</ele>
        <time>2016-06-17T22:22:53Z</time>
      </trkpt>
      <trkpt lat="50.52793" lon="5.53081">
        <ele>129</ele>
        <time>2016-06-17T22:24:53Z</time>
      </trkpt>
      <trkpt lat="50.52795" lon="5.53146">
        <ele>131</ele>
        <time>2016-06-17T22:26:53Z</time>
      </trkpt>
      <trkpt lat="50.52797" lon="5.53177">
        <ele>131</ele>
        <time>2016-06-17T22:28:53Z</time>
      </trkpt>
      <trkpt lat="50.52797" lon="5.53225">
        <ele>131</ele>
        <time>2016-06-17T22:30:53Z</time>
      </trkpt>
      <trkpt lat="50.52798" lon="5.53242">
        <ele>131</ele>
        <time>2016-06-17T22:32:53Z</time>
      </trkpt>
      <trkpt lat="50.528" lon="5.53266">
        <ele>130</ele>
        <time>2016-06-17T22:34:53Z</time>
      </trkpt>
      <trkpt lat="50.52805" lon="5.53299">
        <ele>130</ele>
        <time>2016-06-17T22:36:53Z</time>
      </trkpt>
      <trkpt lat="50.52813" lon="5.53352">
        <ele>130</ele>
        <time>2016-06-17T22:38:53Z</time>
      </trkpt>
      <trkpt lat="50.52818" lon="5.53386">
        <ele>129</ele>
        <time>2016-06-17T22:40:53Z</time>
      </trkpt>
      <trkpt lat="50.5282" lon="5.53403">
        <ele>129</ele>
        <time>2016-06-17T22:42:53Z</time>
      </trkpt>
      <trkpt lat="50.52823" lon="5.53422">
        <ele>128</ele>
        <time>2016-06-17T22:44:53Z</time>
      </trkpt>
      <trkpt lat="50.52836" lon="5.53505">
        <ele>125</ele>
        <time>2016-06-17T22:46:53Z</time>
      </trkpt>
      <trkpt lat="50.52858" lon="5.53585">
        <ele>129</ele>
        <time>2016-06-17T22:48:53Z</time>
      </trkpt>
      <trkpt lat="50.52878" lon="5.53627">
        <ele>129</ele>
        <time>2016-06-17T22:50:53Z</time>
      </trkpt>
      <trkpt lat="50.52883" lon="5.53634">
        <ele>129</ele>
        <time>2016-06-17T22:52:53Z</time>
      </trkpt>
      <trkpt lat="50.52896" lon="5.5365">
        <ele>129</ele>
        <time>2016-06-17T22:54:53Z</time>
      </trkpt>
      <trkpt lat="50.52925" lon="5.53673">
        <ele>129</ele>
        <time>2016-06-17T22:56:53Z</time>
      </trkpt>
      <trkpt lat="50.52932" lon="5.53677">
        <ele>131</ele>
        <time>2016-06-17T22:58:53Z</time>
      </trkpt>
      <trkpt lat="50.52958" lon="5.53694">
        <ele>134</ele>
        <time>2016-06-17T23:00:53Z</time>
      </trkpt>
      <trkpt lat="50.53008" lon="5.53727">
        <ele>137</ele>
        <time>2016-06-17T23:02:53Z</time>
      </trkpt>
      <trkpt lat="50.53024" lon="5.53735">
        <ele>138</ele>
        <time>2016-06-17T23:04:53Z</time>
      </trkpt>
      <trkpt lat="50.53061" lon="5.53758">
        <ele>136</ele>
        <time>2016-06-17T23:06:53Z</time>
      </trkpt>
      <trkpt lat="50.53093" lon="5.53779">
        <ele>135</ele>
        <time>2016-06-17T23:08:53Z</time>
      </trkpt>
      <trkpt lat="50.531" lon="5.53786">
        <ele>135</ele>
        <time>2016-06-17T23:10:53Z</time>
      </trkpt>
      <trkpt lat="50.53119" lon="5.53811">
        <ele>135</ele>
        <time>2016-06-17T23:12:53Z</time>
      </trkpt>
      <trkpt lat="50.53124" lon="5.53821">
        <ele>134</ele>
        <time>2016-06-17T23:14:53Z</time>
      </trkpt>
      <trkpt lat="50.53129" lon="5.53831">
        <ele>133</ele>
        <time>2016-06-17T23:16:53Z</time>
      </trkpt>
      <trkpt lat="50.53137" lon="5.53853">
        <ele>133</ele>
        <time>2016-06-17T23:18:53Z</time>
      </trkpt>
      <trkpt lat="50.5315" lon="5.53914">
        <ele>129</ele>
        <time>2016-06-17T23:20:53Z</time>
      </trkpt>
      <trkpt lat="50.53152" lon="5.53927">
        <ele>128</ele>
        <time>2016-06-17T23:22:53Z</time>
      </trkpt>
      <trkpt lat="50.53171" lon="5.54013">
        <ele>121</ele>
        <time>2016-06-17T23:24:53Z</time>
      </trkpt>
      <trkpt lat="50.53189" lon="5.54098">
        <ele>121</ele>
        <time>2016-06-17T23:26:53Z</time>
      </trkpt>
      <trkpt lat="50.53194" lon="5.54121">
        <ele>121</ele>
        <time>2016-06-17T23:28:53Z</time>
      </trkpt>
      <trkpt lat="50.53206" lon="5.54178">
        <ele>123</ele>
        <time>2016-06-17T23:30:53Z</time>
      </trkpt>
      <trkpt lat="50.53207" lon="5.5419">
        <ele>125</ele>
        <time>2016-06-17T23:32:53Z</time>
      </trkpt>
      <trkpt lat="50.53204" lon="5.54227">
        <ele>128</ele>
        <time>2016-06-17T23:34:53Z</time>
      </trkpt>
      <trkpt lat="50.53186" lon="5.54271">
        <ele>127</ele>
        <time>2016-06-17T23:36:53Z</time>
      </trkpt>
      <trkpt lat="50.53163" lon="5.54288">
        <ele>123</ele>
        <time>2016-06-17T23:38:53Z</time>
      </trkpt>
      <trkpt lat="50.53146" lon="5.5429">
        <ele>121</ele>
        <time>2016-06-17T23:40:53Z</time>
      </trkpt>
      <trkpt lat="50.53137" lon="5.54291">
        <ele>120</ele>
        <time>2016-06-17T23:42:53Z</time>
      </trkpt>
      <trkpt lat="50.53128" lon="5.5429">
        <ele>118</ele>
        <time>2016-06-17T23:44:53Z</time>
      </trkpt>
      <trkpt lat="50.53095" lon="5.54293">
        <ele>114</ele>
        <time>2016-06-17T23:46:53Z</time>
      </trkpt>
      <trkpt lat="50.53087" lon="5.54296">
        <ele>112</ele>
        <time>2016-06-17T23:48:53Z</time>
      </trkpt>
      <trkpt lat="50.53073" lon="5.54311">
        <ele>114</ele>
        <time>2016-06-17T23:50:53Z</time>
      </trkpt>
      <trkpt lat="50.53069" lon="5.54322">
        <ele>114</ele>
        <time>2016-06-17T23:52:53Z</time>
      </trkpt>
      <trkpt lat="50.53066" lon="5.54348">
        <ele>114</ele>
        <time>2016-06-17T23:54:53Z</time>
      </trkpt>
      <trkpt lat="50.53067" lon="5.5436">
        <ele>114</ele>
        <time>2016-06-17T23:56:53Z</time>
      </trkpt>
      <trkpt lat="50.53073" lon="5.54384">
        <ele>113</ele>
        <time>2016-06-17T23:58:53Z</time>
      </trkpt>
      <trkpt lat="50.53088" lon="5.54445">
        <ele>113</ele>
        <time>2016-06-18T00:00:53Z</time>
      </trkpt>
      <trkpt lat="50.53101" lon="5.54492">
        <ele>118</ele>
        <time>2016-06-18T00:02:53Z</time>
      </trkpt>
      <trkpt lat="50.53144" lon="5.54659">
        <ele>118</ele>
        <time>2016-06-18T00:04:53Z</time>
      </trkpt>
      <trkpt lat="50.53158" lon="5.54721">
        <ele>115</ele>
        <time>2016-06-18T00:06:53Z</time>
      </trkpt>
      <trkpt lat="50.53185" lon="5.54834">
        <ele>112</ele>
        <time>2016-06-18T00:08:53Z</time>
      </trkpt>
      <trkpt lat="50.53189" lon="5.54846">
        <ele>113</ele>
        <time>2016-06-18T00:10:53Z</time>
      </trkpt>
      <trkpt lat="50.53213" lon="5.54915">
        <ele>115</ele>
        <time>2016-06-18T00:12:53Z</time>
      </trkpt>
      <trkpt lat="50.53248" lon="5.55004">
        <ele>105</ele>
        <time>2016-06-18T00:14:53Z</time>
      </trkpt>
      <trkpt lat="50.53257" lon="5.55026">
        <ele>106</ele>
        <time>2016-06-18T00:16:53Z</time>
      </trkpt>
      <trkpt lat="50.53282" lon="5.55091">
        <ele>108</ele>
        <time>2016-06-18T00:18:53Z</time>
      </trkpt>
      <trkpt lat="50.53309" lon="5.55168">
        <ele>106</ele>
        <time>2016-06-18T00:20:53Z</time>
      </trkpt>
      <trkpt lat="50.53312" lon="5.5522">
        <ele>102</ele>
        <time>2016-06-18T00:22:53Z</time>
      </trkpt>
      <trkpt lat="50.53308" lon="5.55259">
        <ele>99</ele>
        <time>2016-06-18T00:24:53Z</time>
      </trkpt>
      <trkpt lat="50.53302" lon="5.55296">
        <ele>97</ele>
        <time>2016-06-18T00:26:53Z</time>
      </trkpt>
      <trkpt lat="50.53293" lon="5.55363">
        <ele>95</ele>
        <time>2016-06-18T00:28:53Z</time>
      </trkpt>
      <trkpt lat="50.53288" lon="5.55394">
        <ele>94</ele>
        <time>2016-06-18T00:30:53Z</time>
      </trkpt>
      <trkpt lat="50.53283" lon="5.55414">
        <ele>94</ele>
        <time>2016-06-18T00:32:53Z</time>
      </trkpt>
      <trkpt lat="50.53277" lon="5.55433">
        <ele>94</ele>
        <time>2016-06-18T00:34:53Z</time>
      </trkpt>
      <trkpt lat="50.53261" lon="5.55468">
        <ele>95</ele>
        <time>2016-06-18T00:36:53Z</time>
      </trkpt>
      <trkpt lat="50.53252" lon="5.55484">
        <ele>95</ele>
        <time>2016-06-18T00:38:53Z</time>
      </trkpt>
      <trkpt lat="50.53229" lon="5.55524">
        <ele>101</ele>
        <time>2016-06-18T00:40:53Z</time>
      </trkpt>
      <trkpt lat="50.53225" lon="5.55532">
        <ele>102</ele>
        <time>2016-06-18T00:42:53Z</time>
      </trkpt>
      <trkpt lat="50.53206" lon="5.55576">
        <ele>107</ele>
        <time>2016-06-18T00:44:53Z</time>
      </trkpt>
      <trkpt lat="50.53201" lon="5.55596">
        <ele>108</ele>
        <time>2016-06-18T00:46:53Z</time>
      </trkpt>
      <trkpt lat="50.53196" lon="5.55617">
        <ele>109</ele>
        <time>2016-06-18T00:48:53Z</time>
      </trkpt>
      <trkpt lat="50.53192" lon="5.55649">
        <ele>108</ele>
        <time>2016-06-18T00:50:53Z</time>
      </trkpt>
      <trkpt lat="50.53183" lon="5.55735">
        <ele>108</ele>
        <time>2016-06-18T00:52:53Z</time>
      </trkpt>
      <trkpt lat="50.53182" lon="5.55746">
        <ele>108</ele>
        <time>2016-06-18T00:54:53Z</time>
      </trkpt>
      <trkpt lat="50.53176" lon="5.55809">
        <ele>107</ele>
        <time>2016-06-18T00:56:53Z</time>
      </trkpt>
      <trkpt lat="50.53169" lon="5.55874">
        <ele>106</ele>
        <time>2016-06-18T00:58:53Z</time>
      </trkpt>
      <trkpt lat="50.53167" lon="5.55885">
        <ele>105</ele>
        <time>2016-06-18T01:00:53Z</time>
      </trkpt>
      <trkpt lat="50.53161" lon="5.55952">
        <ele>103</ele>
        <time>2016-06-18T01:02:53Z</time>
      </trkpt>
      <trkpt lat="50.53153" lon="5.56052">
        <ele>99</ele>
        <time>2016-06-18T01:04:53Z</time>
      </trkpt>
      <trkpt lat="50.53149" lon="5.56136">
        <ele>93</ele>
        <time>2016-06-18T01:06:53Z</time>
      </trkpt>
      <trkpt lat="50.53148" lon="5.56166">
        <ele>91</ele>
        <time>2016-06-18T01:08:53Z</time>
      </trkpt>
      <trkpt lat="50.53151" lon="5.56208">
        <ele>91</ele>
        <time>2016-06-18T01:10:53Z</time>
      </trkpt>
      <trkpt lat="50.53155" lon="5.56251">
        <ele>90</ele>
        <time>2016-06-18T01:12:53Z</time>
      </trkpt>
      <trkpt lat="50.5316" lon="5.56307">
        <ele>89</ele>
        <time>2016-06-18T01:14:53Z</time>
      </trkpt>
      <trkpt lat="50.53175" lon="5.56517">
        <ele>88</ele>
        <time>2016-06-18T01:16:53Z</time>
      </trkpt>
      <trkpt lat="50.53178" lon="5.56551">
        <ele>88</ele>
        <time>2016-06-18T01:18:53Z</time>
      </trkpt>
      <trkpt lat="50.5318" lon="5.56595">
        <ele>88</ele>
        <time>2016-06-18T01:20:53Z</time>
      </trkpt>
      <trkpt lat="50.5318" lon="5.56606">
        <ele>88</ele>
        <time>2016-06-18T01:22:53Z</time>
      </trkpt>
      <trkpt lat="50.53179" lon="5.56636">
        <ele>88</ele>
        <time>2016-06-18T01:24:53Z</time>
      </trkpt>
      <trkpt lat="50.53177" lon="5.56652">
        <ele>88</ele>
        <time>2016-06-18T01:26:53Z</time>
      </trkpt>
      <trkpt lat="50.53175" lon="5.56675">
        <ele>89</ele>
        <time>2016-06-18T01:28:53Z</time>
      </trkpt>
      <trkpt lat="50.53174" lon="5.56679">
        <ele>89</ele>
        <time>2016-06-18T01:30:53Z</time>
      </trkpt>
      <trkpt lat="50.53166" lon="5.56686">
        <ele>89</ele>
        <time>2016-06-18T01:32:53Z</time>
      </trkpt>
      <trkpt lat="50.53153" lon="5.56687">
        <ele>89</ele>
        <time>2016-06-18T01:34:53Z</time>
      </trkpt>
      <trkpt lat="50.53135" lon="5.56683">
        <ele>89</ele>
        <time>2016-06-18T01:36:53Z</time>
      </trkpt>
      <trkpt lat="50.53113" lon="5.56677">
        <ele>89</ele>
        <time>2016-06-18T01:38:53Z</time>
      </trkpt>
      <trkpt lat="50.53088" lon="5.5667">
        <ele>89</ele>
        <time>2016-06-18T01:40:53Z</time>
      </trkpt>
      <trkpt lat="50.53065" lon="5.56661">
        <ele>89</ele>
        <time>2016-06-18T01:42:53Z</time>
      </trkpt>
      <trkpt lat="50.53027" lon="5.56644">
        <ele>89</ele>
        <time>2016-06-18T01:44:53Z</time>
      </trkpt>
      <trkpt lat="50.5301" lon="5.56637">
        <ele>90</ele>
        <time>2016-06-18T01:46:53Z</time>
      </trkpt>
      <trkpt lat="50.53004" lon="5.56636">
        <ele>90</ele>
        <time>2016-06-18T01:48:53Z</time>
      </trkpt>
      <trkpt lat="50.52998" lon="5.56635">
        <ele>90</ele>
        <time>2016-06-18T01:50:53Z</time>
      </trkpt>
      <trkpt lat="50.52982" lon="5.56627">
        <ele>91</ele>
        <time>2016-06-18T01:52:53Z</time>
      </trkpt>
      <trkpt lat="50.52976" lon="5.56627">
        <ele>91</ele>
        <time>2016-06-18T01:54:53Z</time>
      </trkpt>
      <trkpt lat="50.5297" lon="5.56629">
        <ele>91</ele>
        <time>2016-06-18T01:56:53Z</time>
      </trkpt>
      <trkpt lat="50.52965" lon="5.56632">
        <ele>91</ele>
        <time>2016-06-18T01:58:53Z</time>
      </trkpt>
      <trkpt lat="50.5295" lon="5.56652">
        <ele>90</ele>
        <time>2016-06-18T02:00:53Z</time>
      </trkpt>
      <trkpt lat="50.52945" lon="5.56659">
        <ele>90</ele>
        <time>2016-06-18T02:02:53Z</time>
      </trkpt>
      <trkpt lat="50.52909" lon="5.56705">
        <ele>91</ele>
        <time>2016-06-18T02:04:53Z</time>
      </trkpt>
      <trkpt lat="50.52862" lon="5.56753">
        <ele>95</ele>
        <time>2016-06-18T02:06:53Z</time>
      </trkpt>
      <trkpt lat="50.52833" lon="5.56785">
        <ele>94</ele>
        <time>2016-06-18T02:08:53Z</time>
      </trkpt>
      <trkpt lat="50.52809" lon="5.5681">
        <ele>95</ele>
        <time>2016-06-18T02:10:53Z</time>
      </trkpt>
      <trkpt lat="50.52761" lon="5.56859">
        <ele>95</ele>
        <time>2016-06-18T02:12:53Z</time>
      </trkpt>
      <trkpt lat="50.52743" lon="5.56878">
        <ele>96</ele>
        <time>2016-06-18T02:14:53Z</time>
      </trkpt>
      <trkpt lat="50.52724" lon="5.56896">
        <ele>96</ele>
        <time>2016-06-18T02:16:53Z</time>
      </trkpt>
      <trkpt lat="50.52705" lon="5.56911">
        <ele>97</ele>
        <time>2016-06-18T02:18:53Z</time>
      </trkpt>
      <trkpt lat="50.5269" lon="5.56917">
        <ele>98</ele>
        <time>2016-06-18T02:20:53Z</time>
      </trkpt>
      <trkpt lat="50.52683" lon="5.56919">
        <ele>98</ele>
        <time>2016-06-18T02:22:53Z</time>
      </trkpt>
      <trkpt lat="50.52676" lon="5.56919">
        <ele>99</ele>
        <time>2016-06-18T02:24:53Z</time>
      </trkpt>
      <trkpt lat="50.52655" lon="5.56915">
        <ele>100</ele>
        <time>2016-06-18T02:26:53Z</time>
      </trkpt>
      <trkpt lat="50.52614" lon="5.56894">
        <ele>104</ele>
        <time>2016-06-18T02:28:53Z</time>
      </trkpt>
      <trkpt lat="50.52567" lon="5.56861">
        <ele>107</ele>
        <time>2016-06-18T02:30:53Z</time>
      </trkpt>
      <trkpt lat="50.5252" lon="5.56831">
        <ele>106</ele>
        <time>2016-06-18T02:32:53Z</time>
      </trkpt>
      <trkpt lat="50.52467" lon="5.56794">
        <ele>107</ele>
        <time>2016-06-18T02:34:53Z</time>
      </trkpt>
      <trkpt lat="50.5242" lon="5.56765">
        <ele>105</ele>
        <time>2016-06-18T02:36:53Z</time>
      </trkpt>
      <trkpt lat="50.52385" lon="5.56742">
        <ele>104</ele>
        <time>2016-06-18T02:38:53Z</time>
      </trkpt>
      <trkpt lat="50.52356" lon="5.56725">
        <ele>103</ele>
        <time>2016-06-18T02:40:53Z</time>
      </trkpt>
      <trkpt lat="50.52302" lon="5.56689">
        <ele>100</ele>
        <time>2016-06-18T02:42:53Z</time>
      </trkpt>
      <trkpt lat="50.52289" lon="5.56679">
        <ele>99</ele>
        <time>2016-06-18T02:44:53Z</time>
      </trkpt>
      <trkpt lat="50.52264" lon="5.56654">
        <ele>99</ele>
        <time>2016-06-18T02:46:53Z</time>
      </trkpt>
      <trkpt lat="50.52224" lon="5.56605">
        <ele>103</ele>
        <time>2016-06-18T02:48:53Z</time>
      </trkpt>
      <trkpt lat="50.52185" lon="5.56558">
        <ele>104</ele>
        <time>2016-06-18T02:50:53Z</time>
      </trkpt>
      <trkpt lat="50.52162" lon="5.5653">
        <ele>102</ele>
        <time>2016-06-18T02:52:53Z</time>
      </trkpt>
      <trkpt lat="50.5215" lon="5.56517">
        <ele>102</ele>
        <time>2016-06-18T02:54:53Z</time>
      </trkpt>
      <trkpt lat="50.52052" lon="5.56395">
        <ele>107</ele>
        <time>2016-06-18T02:56:53Z</time>
      </trkpt>
      <trkpt lat="50.52013" lon="5.56359">
        <ele>108</ele>
        <time>2016-06-18T02:58:53Z</time>
      </trkpt>
      <trkpt lat="50.51999" lon="5.56349">
        <ele>108</ele>
        <time>2016-06-18T03:00:53Z</time>
      </trkpt>
      <trkpt lat="50.51956" lon="5.56323">
        <ele>107</ele>
        <time>2016-06-18T03:02:53Z</time>
      </trkpt>
      <trkpt lat="50.51941" lon="5.56314">
        <ele>108</ele>
        <time>2016-06-18T03:04:53Z</time>
      </trkpt>
      <trkpt lat="50.51896" lon="5.56287">
        <ele>112</ele>
        <time>2016-06-18T03:06:53Z</time>
      </trkpt>
      <trkpt lat="50.51843" lon="5.5626">
        <ele>114</ele>
        <time>2016-06-18T03:08:53Z</time>
      </trkpt>
      <trkpt lat="50.51805" lon="5.56253">
        <ele>112</ele>
        <time>2016-06-18T03:10:53Z</time>
      </trkpt>
      <trkpt lat="50.51768" lon="5.56248">
        <ele>109</ele>
        <time>2016-06-18T03:12:53Z</time>
      </trkpt>
      <trkpt lat="50.51746" lon="5.56244">
        <ele>108</ele>
        <time>2016-06-18T03:14:53Z</time>
      </trkpt>
      <trkpt lat="50.5171" lon="5.56225">
        <ele>107</ele>
        <time>2016-06-18T03:16:53Z</time>
      </trkpt>
      <trkpt lat="50.51695" lon="5.56215">
        <ele>107</ele>
        <time>2016-06-18T03:18:53Z</time>
      </trkpt>
      <trkpt lat="50.51661" lon="5.56187">
        <ele>106</ele>
        <time>2016-06-18T03:20:53Z</time>
      </trkpt>
      <trkpt lat="50.51613" lon="5.56147">
        <ele>106</ele>
        <time>2016-06-18T03:22:53Z</time>
      </trkpt>
      <trkpt lat="50.516" lon="5.56134">
        <ele>108</ele>
        <time>2016-06-18T03:24:53Z</time>
      </trkpt>
      <trkpt lat="50.51548" lon="5.56087">
        <ele>113</ele>
        <time>2016-06-18T03:26:53Z</time>
      </trkpt>
      <trkpt lat="50.51491" lon="5.56035">
        <ele>111</ele>
        <time>2016-06-18T03:28:53Z</time>
      </trkpt>
      <trkpt lat="50.51429" lon="5.5598">
        <ele>110</ele>
        <time>2016-06-18T03:30:53Z</time>
      </trkpt>
      <trkpt lat="50.5138" lon="5.5594">
        <ele>117</ele>
        <time>2016-06-18T03:32:53Z</time>
      </trkpt>
      <trkpt lat="50.51373" lon="5.55935">
        <ele>118</ele>
        <time>2016-06-18T03:34:53Z</time>
      </trkpt>
      <trkpt lat="50.51326" lon="5.55921">
        <ele>122</ele>
        <time>2016-06-18T03:36:53Z</time>
      </trkpt>
      <trkpt lat="50.51271" lon="5.55917">
        <ele>120</ele>
        <time>2016-06-18T03:38:53Z</time>
      </trkpt>
      <trkpt lat="50.51216" lon="5.55915">
        <ele>119</ele>
        <time>2016-06-18T03:40:53Z</time>
      </trkpt>
      <trkpt lat="50.51184" lon="5.55913">
        <ele>119</ele>
        <time>2016-06-18T03:42:53Z</time>
      </trkpt>
      <trkpt lat="50.51128" lon="5.5592">
        <ele>115</ele>
        <time>2016-06-18T03:44:53Z</time>
      </trkpt>
      <trkpt lat="50.51083" lon="5.55941">
        <ele>107</ele>
        <time>2016-06-18T03:46:53Z</time>
      </trkpt>
      <trkpt lat="50.51039" lon="5.55972">
        <ele>106</ele>
        <time>2016-06-18T03:48:53Z</time>
      </trkpt>
      <trkpt lat="50.50994" lon="5.56016">
        <ele>111</ele>
        <time>2016-06-18T03:50:53Z</time>
      </trkpt>
      <trkpt lat="50.50961" lon="5.56058">
        <ele>116</ele>
        <time>2016-06-18T03:52:53Z</time>
      </trkpt>
      <trkpt lat="50.50918" lon="5.56126">
        <ele>112</ele>
        <time>2016-06-18T03:54:53Z</time>
      </trkpt>
      <trkpt lat="50.509" lon="5.56158">
        <ele>110</ele>
        <time>2016-06-18T03:56:53Z</time>
      </trkpt>
      <trkpt lat="50.50872" lon="5.56203">
        <ele>113</ele>
        <time>2016-06-18T03:58:53Z</time>
      </trkpt>
      <trkpt lat="50.50844" lon="5.56249">
        <ele>113</ele>
        <time>2016-06-18T04:00:53Z</time>
      </trkpt>
      <trkpt lat="50.50799" lon="5.56329">
        <ele>113</ele>
        <time>2016-06-18T04:02:53Z</time>
      </trkpt>
      <trkpt lat="50.50763" lon="5.56398">
        <ele>117</ele>
        <time>2016-06-18T04:04:53Z</time>
      </trkpt>
      <trkpt lat="50.50732" lon="5.56465">
        <ele>114</ele>
        <time>2016-06-18T04:06:53Z</time>
      </trkpt>
      <trkpt lat="50.50703" lon="5.56525">
        <ele>114</ele>
        <time>2016-06-18T04:08:53Z</time>
      </trkpt>
      <trkpt lat="50.50666" lon="5.56576">
        <ele>116</ele>
        <time>2016-06-18T04:10:53Z</time>
      </trkpt>
      <trkpt lat="50.50644" lon="5.56618">
        <ele>115</ele>
        <time>2016-06-18T04:12:53Z</time>
      </trkpt>
      <trkpt lat="50.50594" lon="5.56753">
        <ele>116</ele>
        <time>2016-06-18T04:14:53Z</time>
      </trkpt>
      <trkpt lat="50.50591" lon="5.56765">
        <ele>115</ele>
        <time>2016-06-18T04:16:53Z</time>
      </trkpt>
      <trkpt lat="50.50586" lon="5.56817">
        <ele>109</ele>
        <time>2016-06-18T04:18:53Z</time>
      </trkpt>
      <trkpt lat="50.50583" lon="5.56934">
        <ele>105</ele>
        <time>2016-06-18T04:20:53Z</time>
      </trkpt>
      <trkpt lat="50.50583" lon="5.56986">
        <ele>103</ele>
        <time>2016-06-18T04:22:53Z</time>
      </trkpt>
      <trkpt lat="50.50585" lon="5.57038">
        <ele>106</ele>
        <time>2016-06-18T04:24:53Z</time>
      </trkpt>
      <trkpt lat="50.50587" lon="5.5705">
        <ele>107</ele>
        <time>2016-06-18T04:26:53Z</time>
      </trkpt>
      <trkpt lat="50.50597" lon="5.57086">
        <ele>108</ele>
        <time>2016-06-18T04:28:53Z</time>
      </trkpt>
      <trkpt lat="50.50653" lon="5.57255">
        <ele>108</ele>
        <time>2016-06-18T04:30:53Z</time>
      </trkpt>
      <trkpt lat="50.50678" lon="5.57331">
        <ele>109</ele>
        <time>2016-06-18T04:32:53Z</time>
      </trkpt>
      <trkpt lat="50.50686" lon="5.57352">
        <ele>110</ele>
        <time>2016-06-18T04:34:53Z</time>
      </trkpt>
      <trkpt lat="50.5074" lon="5.57521">
        <ele>106</ele>
        <time>2016-06-18T04:36:53Z</time>
      </trkpt>
      <trkpt lat="50.50757" lon="5.57574">
        <ele>107</ele>
        <time>2016-06-18T04:38:53Z</time>
      </trkpt>
      <trkpt lat="50.50782" lon="5.57652">
        <ele>110</ele>
        <time>2016-06-18T04:40:53Z</time>
      </trkpt>
      <trkpt lat="50.50785" lon="5.57663">
        <ele>110</ele>
        <time>2016-06-18T04:42:53Z</time>
      </trkpt>
      <trkpt lat="50.50823" lon="5.57777">
        <ele>101</ele>
        <time>2016-06-18T04:44:53Z</time>
      </trkpt>
      <trkpt lat="50.5083" lon="5.57808">
        <ele>100</ele>
        <time>2016-06-18T04:46:53Z</time>
      </trkpt>
      <trkpt lat="50.50834" lon="5.5783">
        <ele>100</ele>
        <time>2016-06-18T04:48:53Z</time>
      </trkpt>
      <trkpt lat="50.50846" lon="5.57887">
        <ele>100</ele>
        <time>2016-06-18T04:50:53Z</time>
      </trkpt>
      <trkpt lat="50.50853" lon="5.57909">
        <ele>99</ele>
        <time>2016-06-18T04:52:53Z</time>
      </trkpt>
      <trkpt lat="50.50865" lon="5.5794">
        <ele>99</ele>
        <time>2016-06-18T04:54:53Z</time>
      </trkpt>
      <trkpt lat="50.50878" lon="5.57972">
        <ele>98</ele>
        <time>2016-06-18T04:56:53Z</time>
      </trkpt>
      <trkpt lat="50.509" lon="5.58028">
        <ele>97</ele>
        <time>2016-06-18T04:58:53Z</time>
      </trkpt>
      <trkpt lat="50.50924" lon="5.58111">
        <ele>95</ele>
        <time>2016-06-18T05:00:53Z</time>
      </trkpt>
      <trkpt lat="50.50927" lon="5.58123">
        <ele>95</ele>
        <time>2016-06-18T05:02:53Z</time>
      </trkpt>
      <trkpt lat="50.50941" lon="5.58206">
        <ele>96</ele>
        <time>2016-06-18T05:04:53Z</time>
      </trkpt>
      <trkpt lat="50.50954" lon="5.58283">
        <ele>97</ele>
        <time>2016-06-18T05:06:53Z</time>
      </trkpt>
      <trkpt lat="50.50965" lon="5.58362">
        <ele>98</ele>
        <time>2016-06-18T05:08:53Z</time>
      </trkpt>
      <trkpt lat="50.50971" lon="5.58408">
        <ele>99</ele>
        <time>2016-06-18T05:10:53Z</time>
      </trkpt>
      <trkpt lat="50.50971" lon="5.58418">
        <ele>99</ele>
        <time>2016-06-18T05:12:53Z</time>
      </trkpt>
      <trkpt lat="50.50972" lon="5.58448">
        <ele>100</ele>
        <time>2016-06-18T05:14:53Z</time>
      </trkpt>
      <trkpt lat="50.5097" lon="5.58478">
        <ele>101</ele>
        <time>2016-06-18T05:16:53Z</time>
      </trkpt>
      <trkpt lat="50.50964" lon="5.58516">
        <ele>103</ele>
        <time>2016-06-18T05:18:53Z</time>
      </trkpt>
      <trkpt lat="50.50961" lon="5.58534">
        <ele>103</ele>
        <time>2016-06-18T05:20:53Z</time>
      </trkpt>
      <trkpt lat="50.50955" lon="5.58561">
        <ele>103</ele>
        <time>2016-06-18T05:22:53Z</time>
      </trkpt>
      <trkpt lat="50.50952" lon="5.58569">
        <ele>103</ele>
        <time>2016-06-18T05:24:53Z</time>
      </trkpt>
      <trkpt lat="50.5094" lon="5.58605">
        <ele>104</ele>
        <time>2016-06-18T05:26:53Z</time>
      </trkpt>
      <trkpt lat="50.50924" lon="5.58661">
        <ele>105</ele>
        <time>2016-06-18T05:28:53Z</time>
      </trkpt>
      <trkpt lat="50.50908" lon="5.58707">
        <ele>106</ele>
        <time>2016-06-18T05:30:53Z</time>
      </trkpt>
      <trkpt lat="50.50876" lon="5.58807">
        <ele>108</ele>
        <time>2016-06-18T05:32:53Z</time>
      </trkpt>
      <trkpt lat="50.50856" lon="5.58883">
        <ele>108</ele>
        <time>2016-06-18T05:34:53Z</time>
      </trkpt>
      <trkpt lat="50.5085" lon="5.58938">
        <ele>107</ele>
        <time>2016-06-18T05:36:53Z</time>
      </trkpt>
      <trkpt lat="50.50848" lon="5.58962">
        <ele>107</ele>
        <time>2016-06-18T05:38:53Z</time>
      </trkpt>
      <trkpt lat="50.50842" lon="5.59049">
        <ele>105</ele>
        <time>2016-06-18T05:40:53Z</time>
      </trkpt>
      <trkpt lat="50.5084" lon="5.59062">
        <ele>104</ele>
        <time>2016-06-18T05:42:53Z</time>
      </trkpt>
      <trkpt lat="50.50836" lon="5.59086">
        <ele>104</ele>
        <time>2016-06-18T05:44:53Z</time>
      </trkpt>
      <trkpt lat="50.50826" lon="5.59122">
        <ele>104</ele>
        <time>2016-06-18T05:46:53Z</time>
      </trkpt>
      <trkpt lat="50.50813" lon="5.59156">
        <ele>106</ele>
        <time>2016-06-18T05:48:53Z</time>
      </trkpt>
      <trkpt lat="50.508" lon="5.59192">
        <ele>107</ele>
        <time>2016-06-18T05:50:53Z</time>
      </trkpt>
      <trkpt lat="50.50796" lon="5.59204">
        <ele>107</ele>
        <time>2016-06-18T05:52:53Z</time>
      </trkpt>
      <trkpt lat="50.50781" lon="5.59239">
        <ele>107</ele>
        <time>2016-06-18T05:54:53Z</time>
      </trkpt>
      <trkpt lat="50.50772" lon="5.59247">
        <ele>107</ele>
        <time>2016-06-18T05:56:53Z</time>
      </trkpt>
      <trkpt lat="50.50737" lon="5.59272">
        <ele>108</ele>
        <time>2016-06-18T05:58:53Z</time>
      </trkpt>
      <trkpt lat="50.50709" lon="5.59288">
        <ele>109</ele>
        <time>2016-06-18T06:00:53Z</time>
      </trkpt>
      <trkpt lat="50.50699" lon="5.59291">
        <ele>110</ele>
        <time>2016-06-18T06:02:53Z</time>
      </trkpt>
      <trkpt lat="50.50689" lon="5.59293">
        <ele>111</ele>
        <time>2016-06-18T06:04:53Z</time>
      </trkpt>
      <trkpt lat="50.50659" lon="5.59294">
        <ele>113</ele>
        <time>2016-06-18T06:06:53Z</time>
      </trkpt>
      <trkpt lat="50.50631" lon="5.59293">
        <ele>115</ele>
        <time>2016-06-18T06:08:53Z</time>
      </trkpt>
      <trkpt lat="50.50605" lon="5.59294">
        <ele>116</ele>
        <time>2016-06-18T06:10:53Z</time>
      </trkpt>
      <trkpt lat="50.50583" lon="5.59297">
        <ele>116</ele>
        <time>2016-06-18T06:12:53Z</time>
      </trkpt>
      <trkpt lat="50.50562" lon="5.59302">
        <ele>116</ele>
        <time>2016-06-18T06:14:53Z</time>
      </trkpt>
      <trkpt lat="50.50506" lon="5.59315">
        <ele>116</ele>
        <time>2016-06-18T06:16:53Z</time>
      </trkpt>
      <trkpt lat="50.50461" lon="5.5933">
        <ele>115</ele>
        <time>2016-06-18T06:18:53Z</time>
      </trkpt>
      <trkpt lat="50.50393" lon="5.59356">
        <ele>114</ele>
        <time>2016-06-18T06:20:53Z</time>
      </trkpt>
      <trkpt lat="50.50375" lon="5.59361">
        <ele>114</ele>
        <time>2016-06-18T06:22:53Z</time>
      </trkpt>
      <trkpt lat="50.5037" lon="5.59361">
        <ele>114</ele>
        <time>2016-06-18T06:24:53Z</time>
      </trkpt>
      <trkpt lat="50.50358" lon="5.59362">
        <ele>114</ele>
        <time>2016-06-18T06:26:53Z</time>
      </trkpt>
      <trkpt lat="50.50342" lon="5.59366">
        <ele>113</ele>
        <time>2016-06-18T06:28:53Z</time>
      </trkpt>
      <trkpt lat="50.50338" lon="5.59372">
        <ele>112</ele>
        <time>2016-06-18T06:30:53Z</time>
      </trkpt>
      <trkpt lat="50.50336" lon="5.59379">
        <ele>112</ele>
        <time>2016-06-18T06:32:53Z</time>
      </trkpt>
      <trkpt lat="50.50336" lon="5.59395">
        <ele>110</ele>
        <time>2016-06-18T06:34:53Z</time>
      </trkpt>
      <trkpt lat="50.50336" lon="5.59403">
        <ele>109</ele>
        <time>2016-06-18T06:36:53Z</time>
      </trkpt>
      <trkpt lat="50.50335" lon="5.59442">
        <ele>104</ele>
        <time>2016-06-18T06:38:53Z</time>
      </trkpt>
      <trkpt lat="50.50331" lon="5.59522">
        <ele>97</ele>
        <time>2016-06-18T06:40:53Z</time>
      </trkpt>
      <trkpt lat="50.50329" lon="5.59594">
        <ele>96</ele>
        <time>2016-06-18T06:42:53Z</time>
      </trkpt>
      <trkpt lat="50.50327" lon="5.5965">
        <ele>95</ele>
        <time>2016-06-18T06:44:53Z</time>
      </trkpt>
      <trkpt lat="50.50324" lon="5.59687">
        <ele>96</ele>
        <time>2016-06-18T06:46:53Z</time>
      </trkpt>
      <trkpt lat="50.50316" lon="5.59701">
        <ele>97</ele>
        <time>2016-06-18T06:48:53Z</time>
      </trkpt>
      <trkpt lat="50.50299" lon="5.59715">
        <ele>97</ele>
        <time>2016-06-18T06:50:53Z</time>
      </trkpt>
      <trkpt lat="50.50286" lon="5.59727">
        <ele>97</ele>
        <time>2016-06-18T06:52:53Z</time>
      </trkpt>
      <trkpt lat="50.50265" lon="5.59747">
        <ele>97</ele>
        <time>2016-06-18T06:54:53Z</time>
      </trkpt>
      <trkpt lat="50.50252" lon="5.5976">
        <ele>96</ele>
        <time>2016-06-18T06:56:53Z</time>
      </trkpt>
      <trkpt lat="50.50237" lon="5.59764">
        <ele>96</ele>
        <time>2016-06-18T06:58:53Z</time>
      </trkpt>
      <trkpt lat="50.5023" lon="5.5976">
        <ele>96</ele>
        <time>2016-06-18T07:00:53Z</time>
      </trkpt>
      <trkpt lat="50.50224" lon="5.59753">
        <ele>96</ele>
        <time>2016-06-18T07:02:53Z</time>
      </trkpt>
      <trkpt lat="50.50212" lon="5.59738">
        <ele>96</ele>
        <time>2016-06-18T07:04:53Z</time>
      </trkpt>
      <trkpt lat="50.50193" lon="5.59716">
        <ele>95</ele>
        <time>2016-06-18T07:06:53Z</time>
      </trkpt>
      <trkpt lat="50.5017" lon="5.59683">
        <ele>94</ele>
        <time>2016-06-18T07:08:53Z</time>
      </trkpt>
      <trkpt lat="50.50166" lon="5.59673">
        <ele>94</ele>
        <time>2016-06-18T07:10:53Z</time>
      </trkpt>
      <trkpt lat="50.50144" lon="5.59638">
        <ele>94</ele>
        <time>2016-06-18T07:12:53Z</time>
      </trkpt>
      <trkpt lat="50.50138" lon="5.59632">
        <ele>94</ele>
        <time>2016-06-18T07:14:53Z</time>
      </trkpt>
      <trkpt lat="50.50107" lon="5.59616">
        <ele>94</ele>
        <time>2016-06-18T07:16:53Z</time>
      </trkpt>
      <trkpt lat="50.50077" lon="5.5961">
        <ele>93</ele>
        <time>2016-06-18T07:18:53Z</time>
      </trkpt>
      <trkpt lat="50.50069" lon="5.59608">
        <ele>94</ele>
        <time>2016-06-18T07:20:53Z</time>
      </trkpt>
      <trkpt lat="50.50024" lon="5.59592">
        <ele>94</ele>
        <time>2016-06-18T07:22:53Z</time>
      </trkpt>
      <trkpt lat="50.50003" lon="5.59584">
        <ele>95</ele>
        <time>2016-06-18T07:24:53Z</time>
      </trkpt>
      <trkpt lat="50.49997" lon="5.5958">
        <ele>95</ele>
        <time>2016-06-18T07:26:53Z</time>
      </trkpt>
      <trkpt lat="50.49943" lon="5.59538">
        <ele>95</ele>
        <time>2016-06-18T07:28:53Z</time>
      </trkpt>
      <trkpt lat="50.49926" lon="5.59526">
        <ele>94</ele>
        <time>2016-06-18T07:30:53Z</time>
      </trkpt>
      <trkpt lat="50.49886" lon="5.59494">
        <ele>95</ele>
        <time>2016-06-18T07:32:53Z</time>
      </trkpt>
      <trkpt lat="50.49846" lon="5.59457">
        <ele>97</ele>
        <time>2016-06-18T07:34:53Z</time>
      </trkpt>
      <trkpt lat="50.49796" lon="5.5941">
        <ele>97</ele>
        <time>2016-06-18T07:36:53Z</time>
      </trkpt>
      <trkpt lat="50.4976" lon="5.59368">
        <ele>96</ele>
        <time>2016-06-18T07:38:53Z</time>
      </trkpt>
      <trkpt lat="50.49751" lon="5.59358">
        <ele>96</ele>
        <time>2016-06-18T07:40:53Z</time>
      </trkpt>
      <trkpt lat="50.49717" lon="5.59308">
        <ele>100</ele>
        <time>2016-06-18T07:42:53Z</time>
      </trkpt>
      <trkpt lat="50.49708" lon="5.59295">
        <ele>101</ele>
        <time>2016-06-18T07:44:53Z</time>
      </trkpt>
      <trkpt lat="50.49693" lon="5.59278">
        <ele>102</ele>
        <time>2016-06-18T07:46:53Z</time>
      </trkpt>
      <trkpt lat="50.49673" lon="5.59255">
        <ele>101</ele>
        <time>2016-06-18T07:48:53Z</time>
      </trkpt>
      <trkpt lat="50.49658" lon="5.59238">
        <ele>100</ele>
        <time>2016-06-18T07:50:53Z</time>
      </trkpt>
      <trkpt lat="50.49648" lon="5.59229">
        <ele>100</ele>
        <time>2016-06-18T07:52:53Z</time>
      </trkpt>
      <trkpt lat="50.49633" lon="5.59219">
        <ele>100</ele>
        <time>2016-06-18T07:54:53Z</time>
      </trkpt>
      <trkpt lat="50.49628" lon="5.59217">
        <ele>100</ele>
        <time>2016-06-18T07:56:53Z</time>
      </trkpt>
      <trkpt lat="50.49623" lon="5.59215">
        <ele>100</ele>
        <time>2016-06-18T07:58:53Z</time>
      </trkpt>
      <trkpt lat="50.49615" lon="5.59209">
        <ele>100</ele>
        <time>2016-06-18T08:00:53Z</time>
      </trkpt>
      <trkpt lat="50.49599" lon="5.59184">
        <ele>99</ele>
        <time>2016-06-18T08:02:53Z</time>
      </trkpt>
      <trkpt lat="50.49575" lon="5.59162">
        <ele>98</ele>
        <time>2016-06-18T08:04:53Z</time>
      </trkpt>
      <trkpt lat="50.4954" lon="5.59144">
        <ele>101</ele>
        <time>2016-06-18T08:06:53Z</time>
      </trkpt>
      <trkpt lat="50.49504" lon="5.59118">
        <ele>102</ele>
        <time>2016-06-18T08:08:53Z</time>
      </trkpt>
      <trkpt lat="50.49473" lon="5.59089">
        <ele>102</ele>
        <time>2016-06-18T08:10:53Z</time>
      </trkpt>
      <trkpt lat="50.49448" lon="5.59063">
        <ele>101</ele>
        <time>2016-06-18T08:12:53Z</time>
      </trkpt>
      <trkpt lat="50.49433" lon="5.59047">
        <ele>101</ele>
        <time>2016-06-18T08:14:53Z</time>
      </trkpt>
      <trkpt lat="50.49412" lon="5.59019">
        <ele>99</ele>
        <time>2016-06-18T08:16:53Z</time>
      </trkpt>
      <trkpt lat="50.49382" lon="5.58975">
        <ele>99</ele>
        <time>2016-06-18T08:18:53Z</time>
      </trkpt>
      <trkpt lat="50.49374" lon="5.58963">
        <ele>99</ele>
        <time>2016-06-18T08:20:53Z</time>
      </trkpt>
      <trkpt lat="50.49336" lon="5.58905">
        <ele>98</ele>
        <time>2016-06-18T08:22:53Z</time>
      </trkpt>
      <trkpt lat="50.49329" lon="5.58893">
        <ele>98</ele>
        <time>2016-06-18T08:24:53Z</time>
      </trkpt>
      <trkpt lat="50.49325" lon="5.58887">
        <ele>98</ele>
        <time>2016-06-18T08:26:53Z</time>
      </trkpt>
      <trkpt lat="50.49308" lon="5.58863">
        <ele>97</ele>
        <time>2016-06-18T08:28:53Z</time>
      </trkpt>
      <trkpt lat="50.49285" lon="5.58828">
        <ele>96</ele>
        <time>2016-06-18T08:30:53Z</time>
      </trkpt>
      <trkpt lat="50.49264" lon="5.58801">
        <ele>98</ele>
        <time>2016-06-18T08:32:53Z</time>
      </trkpt>
      <trkpt lat="50.49248" lon="5.58782">
        <ele>98</ele>
        <time>2016-06-18T08:34:53Z</time>
      </trkpt>
      <trkpt lat="50.49227" lon="5.5876">
        <ele>99</ele>
        <time>2016-06-18T08:36:53Z</time>
      </trkpt>
      <trkpt lat="50.49225" lon="5.58758">
        <ele>99</ele>
        <time>2016-06-18T08:38:53Z</time>
      </trkpt>
      <trkpt lat="50.49222" lon="5.58755">
        <ele>99</ele>
        <time>2016-06-18T08:40:53Z</time>
      </trkpt>
      <trkpt lat="50.49211" lon="5.58745">
        <ele>99</ele>
        <time>2016-06-18T08:42:53Z</time>
      </trkpt>
      <trkpt lat="50.492" lon="5.5873">
        <ele>99</ele>
        <time>2016-06-18T08:44:53Z</time>
      </trkpt>
      <trkpt lat="50.49191" lon="5.58715">
        <ele>99</ele>
        <time>2016-06-18T08:46:53Z</time>
      </trkpt>
      <trkpt lat="50.49181" lon="5.58707">
        <ele>98</ele>
        <time>2016-06-18T08:48:53Z</time>
      </trkpt>
      <trkpt lat="50.49179" lon="5.58706">
        <ele>98</ele>
        <time>2016-06-18T08:50:53Z</time>
      </trkpt>
      <trkpt lat="50.49156" lon="5.58685">
        <ele>98</ele>
        <time>2016-06-18T08:52:53Z</time>
      </trkpt>
      <trkpt lat="50.49149" lon="5.5868">
        <ele>98</ele>
        <time>2016-06-18T08:54:53Z</time>
      </trkpt>
      <trkpt lat="50.49139" lon="5.58669">
        <ele>97</ele>
        <time>2016-06-18T08:56:53Z</time>
      </trkpt>
      <trkpt lat="50.49131" lon="5.58663">
        <ele>98</ele>
        <time>2016-06-18T08:58:53Z</time>
      </trkpt>
      <trkpt lat="50.49127" lon="5.58658">
        <ele>99</ele>
        <time>2016-06-18T09:00:53Z</time>
      </trkpt>
      <trkpt lat="50.49116" lon="5.58649">
        <ele>100</ele>
        <time>2016-06-18T09:02:53Z</time>
      </trkpt>
      <trkpt lat="50.49114" lon="5.58647">
        <ele>100</ele>
        <time>2016-06-18T09:04:53Z</time>
      </trkpt>
      <trkpt lat="50.49098" lon="5.58634">
        <ele>101</ele>
        <time>2016-06-18T09:06:53Z</time>
      </trkpt>
      <trkpt lat="50.4908" lon="5.58615">
        <ele>102</ele>
        <time>2016-06-18T09:08:53Z</time>
      </trkpt>
      <trkpt lat="50.49033" lon="5.5857">
        <ele>104</ele>
        <time>2016-06-18T09:10:53Z</time>
      </trkpt>
      <trkpt lat="50.49003" lon="5.58546">
        <ele>102</ele>
        <time>2016-06-18T09:12:53Z</time>
      </trkpt>
      <trkpt lat="50.48968" lon="5.58521">
        <ele>102</ele>
        <time>2016-06-18T09:14:53Z</time>
      </trkpt>
      <trkpt lat="50.48936" lon="5.58502">
        <ele>100</ele>
        <time>2016-06-18T09:16:53Z</time>
      </trkpt>
      <trkpt lat="50.48894" lon="5.58484">
        <ele>103</ele>
        <time>2016-06-18T09:18:53Z</time>
      </trkpt>
      <trkpt lat="50.4885" lon="5.58474">
        <ele>104</ele>
        <time>2016-06-18T09:20:53Z</time>
      </trkpt>
      <trkpt lat="50.4882" lon="5.58469">
        <ele>104</ele>
        <time>2016-06-18T09:22:53Z</time>
      </trkpt>
      <trkpt lat="50.48774" lon="5.58467">
        <ele>104</ele>
        <time>2016-06-18T09:24:53Z</time>
      </trkpt>
      <trkpt lat="50.48727" lon="5.58469">
        <ele>104</ele>
        <time>2016-06-18T09:26:53Z</time>
      </trkpt>
      <trkpt lat="50.48685" lon="5.58481">
        <ele>104</ele>
        <time>2016-06-18T09:28:53Z</time>
      </trkpt>
      <trkpt lat="50.48642" lon="5.58497">
        <ele>104</ele>
        <time>2016-06-18T09:30:53Z</time>
      </trkpt>
      <trkpt lat="50.48603" lon="5.58511">
        <ele>106</ele>
        <time>2016-06-18T09:32:53Z</time>
      </trkpt>
      <trkpt lat="50.48592" lon="5.58515">
        <ele>107</ele>
        <time>2016-06-18T09:34:53Z</time>
      </trkpt>
      <trkpt lat="50.48561" lon="5.58534">
        <ele>110</ele>
        <time>2016-06-18T09:36:53Z</time>
      </trkpt>
      <trkpt lat="50.48555" lon="5.58538">
        <ele>111</ele>
        <time>2016-06-18T09:38:53Z</time>
      </trkpt>
      <trkpt lat="50.48525" lon="5.58558">
        <ele>113</ele>
        <time>2016-06-18T09:40:53Z</time>
      </trkpt>
      <trkpt lat="50.48514" lon="5.58566">
        <ele>113</ele>
        <time>2016-06-18T09:42:53Z</time>
      </trkpt>
      <trkpt lat="50.48479" lon="5.58594">
        <ele>114</ele>
        <time>2016-06-18T09:44:53Z</time>
      </trkpt>
      <trkpt lat="50.48429" lon="5.58633">
        <ele>110</ele>
        <time>2016-06-18T09:46:53Z</time>
      </trkpt>
      <trkpt lat="50.48402" lon="5.58655">
        <ele>108</ele>
        <time>2016-06-18T09:48:53Z</time>
      </trkpt>
      <trkpt lat="50.48391" lon="5.58663">
        <ele>107</ele>
        <time>2016-06-18T09:50:53Z</time>
      </trkpt>
      <trkpt lat="50.48381" lon="5.58674">
        <ele>107</ele>
        <time>2016-06-18T09:52:53Z</time>
      </trkpt>
      <trkpt lat="50.48373" lon="5.5869">
        <ele>109</ele>
        <time>2016-06-18T09:54:53Z</time>
      </trkpt>
      <trkpt lat="50.48373" lon="5.58697">
        <ele>110</ele>
        <time>2016-06-18T09:56:53Z</time>
      </trkpt>
      <trkpt lat="50.48377" lon="5.58719">
        <ele>114</ele>
        <time>2016-06-18T09:58:53Z</time>
      </trkpt>
      <trkpt lat="50.48378" lon="5.58726">
        <ele>115</ele>
        <time>2016-06-18T10:00:53Z</time>
      </trkpt>
      <trkpt lat="50.48377" lon="5.58733">
        <ele>116</ele>
        <time>2016-06-18T10:02:53Z</time>
      </trkpt>
      <trkpt lat="50.48368" lon="5.58747">
        <ele>117</ele>
        <time>2016-06-18T10:04:53Z</time>
      </trkpt>
      <trkpt lat="50.48351" lon="5.58773">
        <ele>119</ele>
        <time>2016-06-18T10:06:53Z</time>
      </trkpt>
      <trkpt lat="50.48349" lon="5.58778">
        <ele>119</ele>
        <time>2016-06-18T10:08:53Z</time>
      </trkpt>
      <trkpt lat="50.4834" lon="5.58794">
        <ele>120</ele>
        <time>2016-06-18T10:10:53Z</time>
      </trkpt>
      <trkpt lat="50.48337" lon="5.58796">
        <ele>119</ele>
        <time>2016-06-18T10:12:53Z</time>
      </trkpt>
      <trkpt lat="50.48334" lon="5.58797">
        <ele>119</ele>
        <time>2016-06-18T10:14:53Z</time>
      </trkpt>
      <trkpt lat="50.48324" lon="5.58801">
        <ele>117</ele>
        <time>2016-06-18T10:16:53Z</time>
      </trkpt>
      <trkpt lat="50.48308" lon="5.5881">
        <ele>115</ele>
        <time>2016-06-18T10:18:53Z</time>
      </trkpt>
      <trkpt lat="50.483" lon="5.5882">
        <ele>114</ele>
        <time>2016-06-18T10:20:53Z</time>
      </trkpt>
      <trkpt lat="50.48294" lon="5.58834">
        <ele>114</ele>
        <time>2016-06-18T10:22:53Z</time>
      </trkpt>
      <trkpt lat="50.48283" lon="5.58859">
        <ele>112</ele>
        <time>2016-06-18T10:24:53Z</time>
      </trkpt>
      <trkpt lat="50.48263" lon="5.58912">
        <ele>109</ele>
        <time>2016-06-18T10:26:53Z</time>
      </trkpt>
      <trkpt lat="50.48256" lon="5.58936">
        <ele>107</ele>
        <time>2016-06-18T10:28:53Z</time>
      </trkpt>
      <trkpt lat="50.48254" lon="5.5895">
        <ele>107</ele>
        <time>2016-06-18T10:30:53Z</time>
      </trkpt>
      <trkpt lat="50.4825" lon="5.58978">
        <ele>107</ele>
        <time>2016-06-18T10:32:53Z</time>
      </trkpt>
      <trkpt lat="50.48245" lon="5.59052">
        <ele>107</ele>
        <time>2016-06-18T10:34:53Z</time>
      </trkpt>
      <trkpt lat="50.48243" lon="5.59078">
        <ele>107</ele>
        <time>2016-06-18T10:36:53Z</time>
      </trkpt>
      <trkpt lat="50.48241" lon="5.5909">
        <ele>107</ele>
        <time>2016-06-18T10:38:53Z</time>
      </trkpt>
      <trkpt lat="50.48238" lon="5.59101">
        <ele>107</ele>
        <time>2016-06-18T10:40:53Z</time>
      </trkpt>
      <trkpt lat="50.48235" lon="5.59112">
        <ele>107</ele>
        <time>2016-06-18T10:42:53Z</time>
      </trkpt>
      <trkpt lat="50.48229" lon="5.59119">
        <ele>106</ele>
        <time>2016-06-18T10:44:53Z</time>
      </trkpt>
      <trkpt lat="50.48214" lon="5.59119">
        <ele>104</ele>
        <time>2016-06-18T10:46:53Z</time>
      </trkpt>
      <trkpt lat="50.48208" lon="5.59116">
        <ele>103</ele>
        <time>2016-06-18T10:48:53Z</time>
      </trkpt>
      <trkpt lat="50.48201" lon="5.59114">
        <ele>102</ele>
        <time>2016-06-18T10:50:53Z</time>
      </trkpt>
      <trkpt lat="50.4819" lon="5.59112">
        <ele>101</ele>
        <time>2016-06-18T10:52:53Z</time>
      </trkpt>
      <trkpt lat="50.4814" lon="5.59099">
        <ele>99</ele>
        <time>2016-06-18T10:54:53Z</time>
      </trkpt>
      <trkpt lat="50.48109" lon="5.59094">
        <ele>99</ele>
        <time>2016-06-18T10:56:53Z</time>
      </trkpt>
      <trkpt lat="50.48086" lon="5.59088">
        <ele>99</ele>
        <time>2016-06-18T10:58:53Z</time>
      </trkpt>
      <trkpt lat="50.4806" lon="5.59085">
        <ele>100</ele>
        <time>2016-06-18T11:00:53Z</time>
      </trkpt>
      <trkpt lat="50.48028" lon="5.59075">
        <ele>100</ele>
        <time>2016-06-18T11:02:53Z</time>
      </trkpt>
      <trkpt lat="50.47996" lon="5.59067">
        <ele>101</ele>
        <time>2016-06-18T11:04:53Z</time>
      </trkpt>
      <trkpt lat="50.47987" lon="5.59067">
        <ele>103</ele>
        <time>2016-06-18T11:06:53Z</time>
      </trkpt>
      <trkpt lat="50.47983" lon="5.59078">
        <ele>104</ele>
        <time>2016-06-18T11:08:53Z</time>
      </trkpt>
      <trkpt lat="50.47985" lon="5.59098">
        <ele>105</ele>
        <time>2016-06-18T11:10:53Z</time>
      </trkpt>
      <trkpt lat="50.4799" lon="5.59135">
        <ele>105</ele>
        <time>2016-06-18T11:12:53Z</time>
      </trkpt>
      <trkpt lat="50.47993" lon="5.59157">
        <ele>104</ele>
        <time>2016-06-18T11:14:53Z</time>
      </trkpt>
      <trkpt lat="50.47997" lon="5.59186">
        <ele>105</ele>
        <time>2016-06-18T11:16:53Z</time>
      </trkpt>
      <trkpt lat="50.47999" lon="5.59207">
        <ele>105</ele>
        <time>2016-06-18T11:18:53Z</time>
      </trkpt>
      <trkpt lat="50.48007" lon="5.59271">
        <ele>109</ele>
        <time>2016-06-18T11:20:53Z</time>
      </trkpt>
      <trkpt lat="50.48013" lon="5.59318">
        <ele>111</ele>
        <time>2016-06-18T11:22:53Z</time>
      </trkpt>
      <trkpt lat="50.48015" lon="5.59337">
        <ele>112</ele>
        <time>2016-06-18T11:24:53Z</time>
      </trkpt>
      <trkpt lat="50.48036" lon="5.59503">
        <ele>117</ele>
        <time>2016-06-18T11:26:53Z</time>
      </trkpt>
      <trkpt lat="50.48046" lon="5.5958">
        <ele>115</ele>
        <time>2016-06-18T11:28:53Z</time>
      </trkpt>
      <trkpt lat="50.48067" lon="5.59744">
        <ele>112</ele>
        <time>2016-06-18T11:30:53Z</time>
      </trkpt>
      <trkpt lat="50.48078" lon="5.59825">
        <ele>114</ele>
        <time>2016-06-18T11:32:53Z</time>
      </trkpt>
      <trkpt lat="50.4809" lon="5.5992">
        <ele>116</ele>
        <time>2016-06-18T11:34:53Z</time>
      </trkpt>
      <trkpt lat="50.48094" lon="5.59957">
        <ele>117</ele>
        <time>2016-06-18T11:36:53Z</time>
      </trkpt>
      <trkpt lat="50.48101" lon="5.60002">
        <ele>117</ele>
        <time>2016-06-18T11:38:53Z</time>
      </trkpt>
      <trkpt lat="50.48102" lon="5.60011">
        <ele>118</ele>
        <time>2016-06-18T11:40:53Z</time>
      </trkpt>
      <trkpt lat="50.48112" lon="5.60085">
        <ele>120</ele>
        <time>2016-06-18T11:42:53Z</time>
      </trkpt>
      <trkpt lat="50.48118" lon="5.60143">
        <ele>122</ele>
        <time>2016-06-18T11:44:53Z</time>
      </trkpt>
      <trkpt lat="50.48121" lon="5.6019">
        <ele>123</ele>
        <time>2016-06-18T11:46:53Z</time>
      </trkpt>
      <trkpt lat="50.48124" lon="5.60227">
        <ele>121</ele>
        <time>2016-06-18T11:48:53Z</time>
      </trkpt>
      <trkpt lat="50.4813" lon="5.6024">
        <ele>119</ele>
        <time>2016-06-18T11:50:53Z</time>
      </trkpt>
      <trkpt lat="50.48131" lon="5.60244">
        <ele>119</ele>
        <time>2016-06-18T11:52:53Z</time>
      </trkpt>
      <trkpt lat="50.48131" lon="5.60248">
        <ele>119</ele>
        <time>2016-06-18T11:54:53Z</time>
      </trkpt>
      <trkpt lat="50.48139" lon="5.60298">
        <ele>116</ele>
        <time>2016-06-18T11:56:53Z</time>
      </trkpt>
      <trkpt lat="50.48142" lon="5.60326">
        <ele>115</ele>
        <time>2016-06-18T11:58:53Z</time>
      </trkpt>
      <trkpt lat="50.48149" lon="5.6038">
        <ele>113</ele>
        <time>2016-06-18T12:00:53Z</time>
      </trkpt>
      <trkpt lat="50.48153" lon="5.60425">
        <ele>113</ele>
        <time>2016-06-18T12:02:53Z</time>
      </trkpt>
      <trkpt lat="50.48155" lon="5.6046">
        <ele>112</ele>
        <time>2016-06-18T12:04:53Z</time>
      </trkpt>
      <trkpt lat="50.48152" lon="5.60523">
        <ele>113</ele>
        <time>2016-06-18T12:06:53Z</time>
      </trkpt>
      <trkpt lat="50.48146" lon="5.60561">
        <ele>114</ele>
        <time>2016-06-18T12:08:53Z</time>
      </trkpt>
      <trkpt lat="50.48141" lon="5.60597">
        <ele>115</ele>
        <time>2016-06-18T12:10:53Z</time>
      </trkpt>
      <trkpt lat="50.48123" lon="5.60663">
        <ele>120</ele>
        <time>2016-06-18T12:12:53Z</time>
      </trkpt>
      <trkpt lat="50.48108" lon="5.60707">
        <ele>120</ele>
        <time>2016-06-18T12:14:53Z</time>
      </trkpt>
      <trkpt lat="50.48104" lon="5.60717">
        <ele>120</ele>
        <time>2016-06-18T12:16:53Z</time>
      </trkpt>
      <trkpt lat="50.48099" lon="5.60727">
        <ele>120</ele>
        <time>2016-06-18T12:18:53Z</time>
      </trkpt>
      <trkpt lat="50.48075" lon="5.60765">
        <ele>119</ele>
        <time>2016-06-18T12:20:53Z</time>
      </trkpt>
      <trkpt lat="50.48049" lon="5.60802">
        <ele>117</ele>
        <time>2016-06-18T12:22:53Z</time>
      </trkpt>
      <trkpt lat="50.48027" lon="5.60825">
        <ele>117</ele>
        <time>2016-06-18T12:24:53Z</time>
      </trkpt>
      <trkpt lat="50.47991" lon="5.60858">
        <ele>121</ele>
        <time>2016-06-18T12:26:53Z</time>
      </trkpt>
      <trkpt lat="50.47976" lon="5.60871">
        <ele>121</ele>
        <time>2016-06-18T12:28:53Z</time>
      </trkpt>
      <trkpt lat="50.47926" lon="5.60915">
        <ele>121</ele>
        <time>2016-06-18T12:30:53Z</time>
      </trkpt>
      <trkpt lat="50.47818" lon="5.61013">
        <ele>134</ele>
        <time>2016-06-18T12:32:53Z</time>
      </trkpt>
      <trkpt lat="50.47793" lon="5.61039">
        <ele>137</ele>
        <time>2016-06-18T12:34:53Z</time>
      </trkpt>
      <trkpt lat="50.47787" lon="5.61044">
        <ele>137</ele>
        <time>2016-06-18T12:36:53Z</time>
      </trkpt>
      <trkpt lat="50.47762" lon="5.61067">
        <ele>138</ele>
        <time>2016-06-18T12:38:53Z</time>
      </trkpt>
      <trkpt lat="50.47751" lon="5.61081">
        <ele>137</ele>
        <time>2016-06-18T12:40:53Z</time>
      </trkpt>
      <trkpt lat="50.47745" lon="5.6109">
        <ele>136</ele>
        <time>2016-06-18T12:42:53Z</time>
      </trkpt>
      <trkpt lat="50.47731" lon="5.61117">
        <ele>134</ele>
        <time>2016-06-18T12:44:53Z</time>
      </trkpt>
      <trkpt lat="50.47711" lon="5.61156">
        <ele>132</ele>
        <time>2016-06-18T12:46:53Z</time>
      </trkpt>
      <trkpt lat="50.4768" lon="5.61226">
        <ele>133</ele>
        <time>2016-06-18T12:48:53Z</time>
      </trkpt>
      <trkpt lat="50.47667" lon="5.61264">
        <ele>130</ele>
        <time>2016-06-18T12:50:53Z</time>
      </trkpt>
      <trkpt lat="50.47665" lon="5.61272">
        <ele>129</ele>
        <time>2016-06-18T12:52:53Z</time>
      </trkpt>
      <trkpt lat="50.47662" lon="5.61281">
        <ele>129</ele>
        <time>2016-06-18T12:54:53Z</time>
      </trkpt>
      <trkpt lat="50.47655" lon="5.61315">
        <ele>125</ele>
        <time>2016-06-18T12:56:53Z</time>
      </trkpt>
      <trkpt lat="50.47652" lon="5.61333">
        <ele>123</ele>
        <time>2016-06-18T12:58:53Z</time>
      </trkpt>
      <trkpt lat="50.47649" lon="5.6137">
        <ele>125</ele>
        <time>2016-06-18T13:00:53Z</time>
      </trkpt>
      <trkpt lat="50.47648" lon="5.614">
        <ele>127</ele>
        <time>2016-06-18T13:02:53Z</time>
      </trkpt>
      <trkpt lat="50.47649" lon="5.6143">
        <ele>127</ele>
        <time>2016-06-18T13:04:53Z</time>
      </trkpt>
      <trkpt lat="50.47651" lon="5.61472">
        <ele>126</ele>
        <time>2016-06-18T13:06:53Z</time>
      </trkpt>
      <trkpt lat="50.4766" lon="5.61553">
        <ele>123</ele>
        <time>2016-06-18T13:08:53Z</time>
      </trkpt>
      <trkpt lat="50.47667" lon="5.61635">
        <ele>122</ele>
        <time>2016-06-18T13:10:53Z</time>
      </trkpt>
      <trkpt lat="50.47674" lon="5.61722">
        <ele>134</ele>
        <time>2016-06-18T13:12:53Z</time>
      </trkpt>
      <trkpt lat="50.47677" lon="5.61743">
        <ele>137</ele>
        <time>2016-06-18T13:14:53Z</time>
      </trkpt>
      <trkpt lat="50.47685" lon="5.61784">
        <ele>141</ele>
        <time>2016-06-18T13:16:53Z</time>
      </trkpt>
      <trkpt lat="50.47692" lon="5.61813">
        <ele>142</ele>
        <time>2016-06-18T13:18:53Z</time>
      </trkpt>
      <trkpt lat="50.47695" lon="5.61822">
        <ele>142</ele>
        <time>2016-06-18T13:20:53Z</time>
      </trkpt>
      <trkpt lat="50.47708" lon="5.61858">
        <ele>141</ele>
        <time>2016-06-18T13:22:53Z</time>
      </trkpt>
      <trkpt lat="50.47734" lon="5.61906">
        <ele>135</ele>
        <time>2016-06-18T13:24:53Z</time>
      </trkpt>
      <trkpt lat="50.4776" lon="5.61935">
        <ele>129</ele>
        <time>2016-06-18T13:26:53Z</time>
      </trkpt>
      <trkpt lat="50.47773" lon="5.61953">
        <ele>130</ele>
        <time>2016-06-18T13:28:53Z</time>
      </trkpt>
      <trkpt lat="50.47787" lon="5.61971">
        <ele>129</ele>
        <time>2016-06-18T13:30:53Z</time>
      </trkpt>
      <trkpt lat="50.47803" lon="5.61989">
        <ele>127</ele>
        <time>2016-06-18T13:32:53Z</time>
      </trkpt>
      <trkpt lat="50.47822" lon="5.62009">
        <ele>124</ele>
        <time>2016-06-18T13:34:53Z</time>
      </trkpt>
      <trkpt lat="50.4784" lon="5.62026">
        <ele>125</ele>
        <time>2016-06-18T13:36:53Z</time>
      </trkpt>
      <trkpt lat="50.47883" lon="5.6206">
        <ele>127</ele>
        <time>2016-06-18T13:38:53Z</time>
      </trkpt>
      <trkpt lat="50.47913" lon="5.62082">
        <ele>126</ele>
        <time>2016-06-18T13:40:53Z</time>
      </trkpt>
      <trkpt lat="50.47925" lon="5.62091">
        <ele>126</ele>
        <time>2016-06-18T13:42:53Z</time>
      </trkpt>
      <trkpt lat="50.47946" lon="5.621">
        <ele>126</ele>
        <time>2016-06-18T13:44:53Z</time>
      </trkpt>
      <trkpt lat="50.47972" lon="5.62111">
        <ele>126</ele>
        <time>2016-06-18T13:46:53Z</time>
      </trkpt>
      <trkpt lat="50.47996" lon="5.62118">
        <ele>125</ele>
        <time>2016-06-18T13:48:53Z</time>
      </trkpt>
      <trkpt lat="50.48004" lon="5.6212">
        <ele>125</ele>
        <time>2016-06-18T13:50:53Z</time>
      </trkpt>
      <trkpt lat="50.48029" lon="5.62123">
        <ele>125</ele>
        <time>2016-06-18T13:52:53Z</time>
      </trkpt>
      <trkpt lat="50.48051" lon="5.62124">
        <ele>124</ele>
        <time>2016-06-18T13:54:53Z</time>
      </trkpt>
      <trkpt lat="50.48104" lon="5.6212">
        <ele>122</ele>
        <time>2016-06-18T13:56:53Z</time>
      </trkpt>
      <trkpt lat="50.48149" lon="5.6212">
        <ele>119</ele>
        <time>2016-06-18T13:58:53Z</time>
      </trkpt>
      <trkpt lat="50.48172" lon="5.62122">
        <ele>118</ele>
        <time>2016-06-18T14:00:53Z</time>
      </trkpt>
      <trkpt lat="50.4823" lon="5.6212">
        <ele>116</ele>
        <time>2016-06-18T14:02:53Z</time>
      </trkpt>
      <trkpt lat="50.48252" lon="5.62118">
        <ele>115</ele>
        <time>2016-06-18T14:04:53Z</time>
      </trkpt>
      <trkpt lat="50.48296" lon="5.62115">
        <ele>115</ele>
        <time>2016-06-18T14:06:53Z</time>
      </trkpt>
      <trkpt lat="50.48347" lon="5.6212">
        <ele>116</ele>
        <time>2016-06-18T14:08:53Z</time>
      </trkpt>
      <trkpt lat="50.48355" lon="5.62122">
        <ele>116</ele>
        <time>2016-06-18T14:10:53Z</time>
      </trkpt>
      <trkpt lat="50.48404" lon="5.62137">
        <ele>115</ele>
        <time>2016-06-18T14:12:53Z</time>
      </trkpt>
      <trkpt lat="50.48457" lon="5.62166">
        <ele>113</ele>
        <time>2016-06-18T14:14:53Z</time>
      </trkpt>
      <trkpt lat="50.4851" lon="5.622">
        <ele>118</ele>
        <time>2016-06-18T14:16:53Z</time>
      </trkpt>
      <trkpt lat="50.48548" lon="5.62226">
        <ele>119</ele>
        <time>2016-06-18T14:18:53Z</time>
      </trkpt>
      <trkpt lat="50.4856" lon="5.62235">
        <ele>120</ele>
        <time>2016-06-18T14:20:53Z</time>
      </trkpt>
      <trkpt lat="50.48607" lon="5.62267">
        <ele>119</ele>
        <time>2016-06-18T14:22:53Z</time>
      </trkpt>
      <trkpt lat="50.48634" lon="5.62284">
        <ele>118</ele>
        <time>2016-06-18T14:24:53Z</time>
      </trkpt>
      <trkpt lat="50.48661" lon="5.623">
        <ele>115</ele>
        <time>2016-06-18T14:26:53Z</time>
      </trkpt>
      <trkpt lat="50.487" lon="5.62327">
        <ele>114</ele>
        <time>2016-06-18T14:28:53Z</time>
      </trkpt>
      <trkpt lat="50.48707" lon="5.62333">
        <ele>113</ele>
        <time>2016-06-18T14:30:53Z</time>
      </trkpt>
      <trkpt lat="50.48739" lon="5.62373">
        <ele>114</ele>
        <time>2016-06-18T14:32:53Z</time>
      </trkpt>
      <trkpt lat="50.48757" lon="5.62404">
        <ele>115</ele>
        <time>2016-06-18T14:34:53Z</time>
      </trkpt>
      <trkpt lat="50.48765" lon="5.62422">
        <ele>116</ele>
        <time>2016-06-18T14:36:53Z</time>
      </trkpt>
      <trkpt lat="50.48784" lon="5.6248">
        <ele>116</ele>
        <time>2016-06-18T14:38:53Z</time>
      </trkpt>
      <trkpt lat="50.48802" lon="5.62566">
        <ele>117</ele>
        <time>2016-06-18T14:40:53Z</time>
      </trkpt>
      <trkpt lat="50.48816" lon="5.62632">
        <ele>116</ele>
        <time>2016-06-18T14:42:53Z</time>
      </trkpt>
      <trkpt lat="50.48818" lon="5.62643">
        <ele>116</ele>
        <time>2016-06-18T14:44:53Z</time>
      </trkpt>
      <trkpt lat="50.48822" lon="5.62712">
        <ele>116</ele>
        <time>2016-06-18T14:46:53Z</time>
      </trkpt>
      <trkpt lat="50.48819" lon="5.62747">
        <ele>117</ele>
        <time>2016-06-18T14:48:53Z</time>
      </trkpt>
      <trkpt lat="50.48813" lon="5.62782">
        <ele>119</ele>
        <time>2016-06-18T14:50:53Z</time>
      </trkpt>
      <trkpt lat="50.48811" lon="5.62793">
        <ele>120</ele>
        <time>2016-06-18T14:52:53Z</time>
      </trkpt>
      <trkpt lat="50.488" lon="5.62836">
        <ele>124</ele>
        <time>2016-06-18T14:54:53Z</time>
      </trkpt>
      <trkpt lat="50.48796" lon="5.62846">
        <ele>124</ele>
        <time>2016-06-18T14:56:53Z</time>
      </trkpt>
      <trkpt lat="50.48776" lon="5.62893">
        <ele>125</ele>
        <time>2016-06-18T14:58:53Z</time>
      </trkpt>
      <trkpt lat="50.48759" lon="5.62929">
        <ele>124</ele>
        <time>2016-06-18T15:00:53Z</time>
      </trkpt>
      <trkpt lat="50.48746" lon="5.62957">
        <ele>121</ele>
        <time>2016-06-18T15:02:53Z</time>
      </trkpt>
      <trkpt lat="50.48732" lon="5.62983">
        <ele>121</ele>
        <time>2016-06-18T15:04:53Z</time>
      </trkpt>
      <trkpt lat="50.48721" lon="5.62999">
        <ele>122</ele>
        <time>2016-06-18T15:06:53Z</time>
      </trkpt>
      <trkpt lat="50.48704" lon="5.63022">
        <ele>125</ele>
        <time>2016-06-18T15:08:53Z</time>
      </trkpt>
      <trkpt lat="50.48687" lon="5.63043">
        <ele>127</ele>
        <time>2016-06-18T15:10:53Z</time>
      </trkpt>
      <trkpt lat="50.48669" lon="5.63062">
        <ele>128</ele>
        <time>2016-06-18T15:12:53Z</time>
      </trkpt>
      <trkpt lat="50.48637" lon="5.63094">
        <ele>126</ele>
        <time>2016-06-18T15:14:53Z</time>
      </trkpt>
      <trkpt lat="50.48607" lon="5.63124">
        <ele>123</ele>
        <time>2016-06-18T15:16:53Z</time>
      </trkpt>
      <trkpt lat="50.486" lon="5.6313">
        <ele>123</ele>
        <time>2016-06-18T15:18:53Z</time>
      </trkpt>
      <trkpt lat="50.48551" lon="5.63159">
        <ele>122</ele>
        <time>2016-06-18T15:20:53Z</time>
      </trkpt>
      <trkpt lat="50.48509" lon="5.63177">
        <ele>126</ele>
        <time>2016-06-18T15:22:53Z</time>
      </trkpt>
      <trkpt lat="50.48488" lon="5.63185">
        <ele>128</ele>
        <time>2016-06-18T15:24:53Z</time>
      </trkpt>
      <trkpt lat="50.48467" lon="5.63193">
        <ele>130</ele>
        <time>2016-06-18T15:26:53Z</time>
      </trkpt>
      <trkpt lat="50.48409" lon="5.63213">
        <ele>133</ele>
        <time>2016-06-18T15:28:53Z</time>
      </trkpt>
      <trkpt lat="50.48373" lon="5.63229">
        <ele>134</ele>
        <time>2016-06-18T15:30:53Z</time>
      </trkpt>
      <trkpt lat="50.48338" lon="5.63244">
        <ele>133</ele>
        <time>2016-06-18T15:32:53Z</time>
      </trkpt>
      <trkpt lat="50.48331" lon="5.63247">
        <ele>133</ele>
        <time>2016-06-18T15:34:53Z</time>
      </trkpt>
      <trkpt lat="50.48316" lon="5.63253">
        <ele>134</ele>
        <time>2016-06-18T15:36:53Z</time>
      </trkpt>
      <trkpt lat="50.48295" lon="5.63265">
        <ele>134</ele>
        <time>2016-06-18T15:38:53Z</time>
      </trkpt>
      <trkpt lat="50.48281" lon="5.63273">
        <ele>134</ele>
        <time>2016-06-18T15:40:53Z</time>
      </trkpt>
      <trkpt lat="50.48235" lon="5.63309">
        <ele>132</ele>
        <time>2016-06-18T15:42:53Z</time>
      </trkpt>
      <trkpt lat="50.48192" lon="5.63353">
        <ele>133</ele>
        <time>2016-06-18T15:44:53Z</time>
      </trkpt>
      <trkpt lat="50.48166" lon="5.63378">
        <ele>135</ele>
        <time>2016-06-18T15:46:53Z</time>
      </trkpt>
      <trkpt lat="50.4814" lon="5.63402">
        <ele>136</ele>
        <time>2016-06-18T15:48:53Z</time>
      </trkpt>
      <trkpt lat="50.48097" lon="5.63444">
        <ele>133</ele>
        <time>2016-06-18T15:50:53Z</time>
      </trkpt>
      <trkpt lat="50.48027" lon="5.63513">
        <ele>126</ele>
        <time>2016-06-18T15:52:53Z</time>
      </trkpt>
      <trkpt lat="50.48021" lon="5.6352">
        <ele>127</ele>
        <time>2016-06-18T15:54:53Z</time>
      </trkpt>
      <trkpt lat="50.47974" lon="5.63576">
        <ele>131</ele>
        <time>2016-06-18T15:56:53Z</time>
      </trkpt>
      <trkpt lat="50.47958" lon="5.636">
        <ele>132</ele>
        <time>2016-06-18T15:58:53Z</time>
      </trkpt>
      <trkpt lat="50.47933" lon="5.63637">
        <ele>131</ele>
        <time>2016-06-18T16:00:53Z</time>
      </trkpt>
      <trkpt lat="50.47909" lon="5.63671">
        <ele>129</ele>
        <time>2016-06-18T16:02:53Z</time>
      </trkpt>
      <trkpt lat="50.47874" lon="5.63712">
        <ele>130</ele>
        <time>2016-06-18T16:04:53Z</time>
      </trkpt>
      <trkpt lat="50.4785" lon="5.63741">
        <ele>130</ele>
        <time>2016-06-18T16:06:53Z</time>
      </trkpt>
      <trkpt lat="50.47813" lon="5.63785">
        <ele>132</ele>
        <time>2016-06-18T16:08:53Z</time>
      </trkpt>
      <trkpt lat="50.47785" lon="5.63826">
        <ele>137</ele>
        <time>2016-06-18T16:10:53Z</time>
      </trkpt>
      <trkpt lat="50.47766" lon="5.63864">
        <ele>139</ele>
        <time>2016-06-18T16:12:53Z</time>
      </trkpt>
      <trkpt lat="50.47753" lon="5.63893">
        <ele>138</ele>
        <time>2016-06-18T16:14:53Z</time>
      </trkpt>
      <trkpt lat="50.4774" lon="5.6392">
        <ele>139</ele>
        <time>2016-06-18T16:16:53Z</time>
      </trkpt>
      <trkpt lat="50.47735" lon="5.63928">
        <ele>140</ele>
        <time>2016-06-18T16:18:53Z</time>
      </trkpt>
      <trkpt lat="50.47726" lon="5.63947">
        <ele>140</ele>
        <time>2016-06-18T16:20:53Z</time>
      </trkpt>
      <trkpt lat="50.47722" lon="5.63956">
        <ele>141</ele>
        <time>2016-06-18T16:22:53Z</time>
      </trkpt>
      <trkpt lat="50.4771" lon="5.63986">
        <ele>141</ele>
        <time>2016-06-18T16:24:53Z</time>
      </trkpt>
      <trkpt lat="50.47697" lon="5.64025">
        <ele>143</ele>
        <time>2016-06-18T16:26:53Z</time>
      </trkpt>
      <trkpt lat="50.47689" lon="5.64055">
        <ele>143</ele>
        <time>2016-06-18T16:28:53Z</time>
      </trkpt>
      <trkpt lat="50.47682" lon="5.64087">
        <ele>142</ele>
        <time>2016-06-18T16:30:53Z</time>
      </trkpt>
      <trkpt lat="50.47677" lon="5.64119">
        <ele>139</ele>
        <time>2016-06-18T16:32:53Z</time>
      </trkpt>
      <trkpt lat="50.47676" lon="5.6413">
        <ele>138</ele>
        <time>2016-06-18T16:34:53Z</time>
      </trkpt>
      <trkpt lat="50.47675" lon="5.64173">
        <ele>134</ele>
        <time>2016-06-18T16:36:53Z</time>
      </trkpt>
      <trkpt lat="50.47676" lon="5.64194">
        <ele>134</ele>
        <time>2016-06-18T16:38:53Z</time>
      </trkpt>
      <trkpt lat="50.47679" lon="5.64238">
        <ele>134</ele>
        <time>2016-06-18T16:40:53Z</time>
      </trkpt>
      <trkpt lat="50.47682" lon="5.64259">
        <ele>134</ele>
        <time>2016-06-18T16:42:53Z</time>
      </trkpt>
      <trkpt lat="50.47684" lon="5.64269">
        <ele>134</ele>
        <time>2016-06-18T16:44:53Z</time>
      </trkpt>
      <trkpt lat="50.47688" lon="5.6429">
        <ele>133</ele>
        <time>2016-06-18T16:46:53Z</time>
      </trkpt>
      <trkpt lat="50.47698" lon="5.64331">
        <ele>131</ele>
        <time>2016-06-18T16:48:53Z</time>
      </trkpt>
      <trkpt lat="50.47704" lon="5.64351">
        <ele>130</ele>
        <time>2016-06-18T16:50:53Z</time>
      </trkpt>
      <trkpt lat="50.47711" lon="5.64369">
        <ele>129</ele>
        <time>2016-06-18T16:52:53Z</time>
      </trkpt>
      <trkpt lat="50.47727" lon="5.64404">
        <ele>126</ele>
        <time>2016-06-18T16:54:53Z</time>
      </trkpt>
      <trkpt lat="50.47743" lon="5.64439">
        <ele>124</ele>
        <time>2016-06-18T16:56:53Z</time>
      </trkpt>
      <trkpt lat="50.47771" lon="5.64497">
        <ele>122</ele>
        <time>2016-06-18T16:58:53Z</time>
      </trkpt>
      <trkpt lat="50.47783" lon="5.64523">
        <ele>122</ele>
        <time>2016-06-18T17:00:53Z</time>
      </trkpt>
      <trkpt lat="50.47814" lon="5.6458">
        <ele>121</ele>
        <time>2016-06-18T17:02:53Z</time>
      </trkpt>
      <trkpt lat="50.47847" lon="5.64644">
        <ele>121</ele>
        <time>2016-06-18T17:04:53Z</time>
      </trkpt>
      <trkpt lat="50.47881" lon="5.64698">
        <ele>120</ele>
        <time>2016-06-18T17:06:53Z</time>
      </trkpt>
      <trkpt lat="50.47896" lon="5.64725">
        <ele>119</ele>
        <time>2016-06-18T17:08:53Z</time>
      </trkpt>
      <trkpt lat="50.479" lon="5.64735">
        <ele>119</ele>
        <time>2016-06-18T17:10:53Z</time>
      </trkpt>
      <trkpt lat="50.47902" lon="5.64746">
        <ele>119</ele>
        <time>2016-06-18T17:12:53Z</time>
      </trkpt>
      <trkpt lat="50.47903" lon="5.64809">
        <ele>122</ele>
        <time>2016-06-18T17:14:53Z</time>
      </trkpt>
      <trkpt lat="50.47905" lon="5.64836">
        <ele>123</ele>
        <time>2016-06-18T17:16:53Z</time>
      </trkpt>
      <trkpt lat="50.47906" lon="5.64845">
        <ele>123</ele>
        <time>2016-06-18T17:18:53Z</time>
      </trkpt>
      <trkpt lat="50.47911" lon="5.64872">
        <ele>123</ele>
        <time>2016-06-18T17:20:53Z</time>
      </trkpt>
      <trkpt lat="50.47915" lon="5.64914">
        <ele>124</ele>
        <time>2016-06-18T17:22:53Z</time>
      </trkpt>
      <trkpt lat="50.47916" lon="5.64932">
        <ele>125</ele>
        <time>2016-06-18T17:24:53Z</time>
      </trkpt>
      <trkpt lat="50.47915" lon="5.6496">
        <ele>126</ele>
        <time>2016-06-18T17:26:53Z</time>
      </trkpt>
      <trkpt lat="50.47912" lon="5.64979">
        <ele>127</ele>
        <time>2016-06-18T17:28:53Z</time>
      </trkpt>
      <trkpt lat="50.47907" lon="5.64998">
        <ele>128</ele>
        <time>2016-06-18T17:30:53Z</time>
      </trkpt>
      <trkpt lat="50.47904" lon="5.65007">
        <ele>129</ele>
        <time>2016-06-18T17:32:53Z</time>
      </trkpt>
      <trkpt lat="50.47898" lon="5.65025">
        <ele>129</ele>
        <time>2016-06-18T17:34:53Z</time>
      </trkpt>
      <trkpt lat="50.47862" lon="5.651">
        <ele>131</ele>
        <time>2016-06-18T17:36:53Z</time>
      </trkpt>
      <trkpt lat="50.47823" lon="5.65187">
        <ele>135</ele>
        <time>2016-06-18T17:38:53Z</time>
      </trkpt>
      <trkpt lat="50.47797" lon="5.65252">
        <ele>138</ele>
        <time>2016-06-18T17:40:53Z</time>
      </trkpt>
      <trkpt lat="50.47768" lon="5.65321">
        <ele>138</ele>
        <time>2016-06-18T17:42:53Z</time>
      </trkpt>
      <trkpt lat="50.47735" lon="5.65401">
        <ele>138</ele>
        <time>2016-06-18T17:44:53Z</time>
      </trkpt>
      <trkpt lat="50.47701" lon="5.65481">
        <ele>138</ele>
        <time>2016-06-18T17:46:53Z</time>
      </trkpt>
      <trkpt lat="50.47667" lon="5.65562">
        <ele>135</ele>
        <time>2016-06-18T17:48:53Z</time>
      </trkpt>
      <trkpt lat="50.47655" lon="5.65593">
        <ele>135</ele>
        <time>2016-06-18T17:50:53Z</time>
      </trkpt>
      <trkpt lat="50.4763" lon="5.65653">
        <ele>136</ele>
        <time>2016-06-18T17:52:53Z</time>
      </trkpt>
      <trkpt lat="50.4759" lon="5.65744">
        <ele>136</ele>
        <time>2016-06-18T17:54:53Z</time>
      </trkpt>
      <trkpt lat="50.47582" lon="5.65764">
        <ele>134</ele>
        <time>2016-06-18T17:56:53Z</time>
      </trkpt>
      <trkpt lat="50.47558" lon="5.65825">
        <ele>131</ele>
        <time>2016-06-18T17:58:53Z</time>
      </trkpt>
      <trkpt lat="50.47516" lon="5.65924">
        <ele>133</ele>
        <time>2016-06-18T18:00:53Z</time>
      </trkpt>
      <trkpt lat="50.47464" lon="5.66051">
        <ele>126</ele>
        <time>2016-06-18T18:02:53Z</time>
      </trkpt>
      <trkpt lat="50.47428" lon="5.66139">
        <ele>122</ele>
        <time>2016-06-18T18:04:53Z</time>
      </trkpt>
      <trkpt lat="50.47405" lon="5.6619">
        <ele>119</ele>
        <time>2016-06-18T18:06:53Z</time>
      </trkpt>
      <trkpt lat="50.47383" lon="5.66241">
        <ele>120</ele>
        <time>2016-06-18T18:08:53Z</time>
      </trkpt>
      <trkpt lat="50.47361" lon="5.66302">
        <ele>121</ele>
        <time>2016-06-18T18:10:53Z</time>
      </trkpt>
      <trkpt lat="50.47358" lon="5.66312">
        <ele>121</ele>
        <time>2016-06-18T18:12:53Z</time>
      </trkpt>
      <trkpt lat="50.47342" lon="5.66374">
        <ele>122</ele>
        <time>2016-06-18T18:14:53Z</time>
      </trkpt>
      <trkpt lat="50.47332" lon="5.66442">
        <ele>123</ele>
        <time>2016-06-18T18:16:53Z</time>
      </trkpt>
      <trkpt lat="50.4733" lon="5.66522">
        <ele>122</ele>
        <time>2016-06-18T18:18:53Z</time>
      </trkpt>
      <trkpt lat="50.47331" lon="5.66544">
        <ele>122</ele>
        <time>2016-06-18T18:20:53Z</time>
      </trkpt>
      <trkpt lat="50.47337" lon="5.66599">
        <ele>122</ele>
        <time>2016-06-18T18:22:53Z</time>
      </trkpt>
      <trkpt lat="50.47348" lon="5.6667">
        <ele>120</ele>
        <time>2016-06-18T18:24:53Z</time>
      </trkpt>
      <trkpt lat="50.47359" lon="5.66735">
        <ele>121</ele>
        <time>2016-06-18T18:26:53Z</time>
      </trkpt>
      <trkpt lat="50.47362" lon="5.66761">
        <ele>121</ele>
        <time>2016-06-18T18:28:53Z</time>
      </trkpt>
      <trkpt lat="50.47367" lon="5.66787">
        <ele>121</ele>
        <time>2016-06-18T18:30:53Z</time>
      </trkpt>
      <trkpt lat="50.47387" lon="5.66917">
        <ele>122</ele>
        <time>2016-06-18T18:32:53Z</time>
      </trkpt>
      <trkpt lat="50.47401" lon="5.66998">
        <ele>123</ele>
        <time>2016-06-18T18:34:53Z</time>
      </trkpt>
      <trkpt lat="50.47402" lon="5.6701">
        <ele>123</ele>
        <time>2016-06-18T18:36:53Z</time>
      </trkpt>
      <trkpt lat="50.47418" lon="5.67097">
        <ele>123</ele>
        <time>2016-06-18T18:38:53Z</time>
      </trkpt>
      <trkpt lat="50.47431" lon="5.67181">
        <ele>122</ele>
        <time>2016-06-18T18:40:53Z</time>
      </trkpt>
      <trkpt lat="50.47441" lon="5.67243">
        <ele>123</ele>
        <time>2016-06-18T18:42:53Z</time>
      </trkpt>
      <trkpt lat="50.47452" lon="5.67296">
        <ele>123</ele>
        <time>2016-06-18T18:44:53Z</time>
      </trkpt>
      <trkpt lat="50.47457" lon="5.67327">
        <ele>123</ele>
        <time>2016-06-18T18:46:53Z</time>
      </trkpt>
      <trkpt lat="50.47459" lon="5.67348">
        <ele>123</ele>
        <time>2016-06-18T18:48:53Z</time>
      </trkpt>
      <trkpt lat="50.47462" lon="5.67376">
        <ele>123</ele>
        <time>2016-06-18T18:50:53Z</time>
      </trkpt>
      <trkpt lat="50.47464" lon="5.67398">
        <ele>123</ele>
        <time>2016-06-18T18:52:53Z</time>
      </trkpt>
      <trkpt lat="50.47465" lon="5.67413">
        <ele>123</ele>
        <time>2016-06-18T18:54:53Z</time>
      </trkpt>
      <trkpt lat="50.47465" lon="5.67443">
        <ele>123</ele>
        <time>2016-06-18T18:56:53Z</time>
      </trkpt>
      <trkpt lat="50.47464" lon="5.67462">
        <ele>123</ele>
        <time>2016-06-18T18:58:53Z</time>
      </trkpt>
      <trkpt lat="50.47463" lon="5.67469">
        <ele>123</ele>
        <time>2016-06-18T19:00:53Z</time>
      </trkpt>
      <trkpt lat="50.47462" lon="5.67474">
        <ele>123</ele>
        <time>2016-06-18T19:02:53Z</time>
      </trkpt>
      <trkpt lat="50.4746" lon="5.67484">
        <ele>123</ele>
        <time>2016-06-18T19:04:53Z</time>
      </trkpt>
      <trkpt lat="50.47458" lon="5.67504">
        <ele>124</ele>
        <time>2016-06-18T19:06:53Z</time>
      </trkpt>
      <trkpt lat="50.47456" lon="5.67514">
        <ele>124</ele>
        <time>2016-06-18T19:08:53Z</time>
      </trkpt>
      <trkpt lat="50.47453" lon="5.67517">
        <ele>124</ele>
        <time>2016-06-18T19:10:53Z</time>
      </trkpt>
      <trkpt lat="50.47448" lon="5.6752">
        <ele>124</ele>
        <time>2016-06-18T19:12:53Z</time>
      </trkpt>
      <trkpt lat="50.47442" lon="5.67521">
        <ele>124</ele>
        <time>2016-06-18T19:14:53Z</time>
      </trkpt>
      <trkpt lat="50.47425" lon="5.67521">
        <ele>125</ele>
        <time>2016-06-18T19:16:53Z</time>
      </trkpt>
      <trkpt lat="50.47415" lon="5.67522">
        <ele>125</ele>
        <time>2016-06-18T19:18:53Z</time>
      </trkpt>
      <trkpt lat="50.47404" lon="5.67522">
        <ele>126</ele>
        <time>2016-06-18T19:20:53Z</time>
      </trkpt>
      <trkpt lat="50.47401" lon="5.67521">
        <ele>126</ele>
        <time>2016-06-18T19:22:53Z</time>
      </trkpt>
      <trkpt lat="50.47385" lon="5.67521">
        <ele>127</ele>
        <time>2016-06-18T19:24:53Z</time>
      </trkpt>
      <trkpt lat="50.47373" lon="5.67522">
        <ele>127</ele>
        <time>2016-06-18T19:26:53Z</time>
      </trkpt>
      <trkpt lat="50.47363" lon="5.67526">
        <ele>128</ele>
        <time>2016-06-18T19:28:53Z</time>
      </trkpt>
      <trkpt lat="50.47359" lon="5.6753">
        <ele>128</ele>
        <time>2016-06-18T19:30:53Z</time>
      </trkpt>
      <trkpt lat="50.47355" lon="5.67541">
        <ele>128</ele>
        <time>2016-06-18T19:32:53Z</time>
      </trkpt>
      <trkpt lat="50.47357" lon="5.67561">
        <ele>128</ele>
        <time>2016-06-18T19:34:53Z</time>
      </trkpt>
      <trkpt lat="50.47357" lon="5.67566">
        <ele>128</ele>
        <time>2016-06-18T19:36:53Z</time>
      </trkpt>
      <trkpt lat="50.47358" lon="5.67576">
        <ele>128</ele>
        <time>2016-06-18T19:38:53Z</time>
      </trkpt>
      <trkpt lat="50.47358" lon="5.67592">
        <ele>129</ele>
        <time>2016-06-18T19:40:53Z</time>
      </trkpt>
      <trkpt lat="50.47359" lon="5.67611">
        <ele>129</ele>
        <time>2016-06-18T19:42:53Z</time>
      </trkpt>
      <trkpt lat="50.4736" lon="5.67624">
        <ele>129</ele>
        <time>2016-06-18T19:44:53Z</time>
      </trkpt>
      <trkpt lat="50.4736" lon="5.67631">
        <ele>129</ele>
        <time>2016-06-18T19:46:53Z</time>
      </trkpt>
      <trkpt lat="50.47362" lon="5.67653">
        <ele>129</ele>
        <time>2016-06-18T19:48:53Z</time>
      </trkpt>
      <trkpt lat="50.47363" lon="5.67666">
        <ele>129</ele>
        <time>2016-06-18T19:50:53Z</time>
      </trkpt>
      <trkpt lat="50.47365" lon="5.6768">
        <ele>129</ele>
        <time>2016-06-18T19:52:53Z</time>
      </trkpt>
      <trkpt lat="50.47372" lon="5.67729">
        <ele>131</ele>
        <time>2016-06-18T19:54:53Z</time>
      </trkpt>
      <trkpt lat="50.47382" lon="5.67792">
        <ele>133</ele>
        <time>2016-06-18T19:56:53Z</time>
      </trkpt>
      <trkpt lat="50.47385" lon="5.67816">
        <ele>134</ele>
        <time>2016-06-18T19:58:53Z</time>
      </trkpt>
      <trkpt lat="50.4739" lon="5.6785">
        <ele>134</ele>
        <time>2016-06-18T20:00:53Z</time>
      </trkpt>
      <trkpt lat="50.47397" lon="5.67906">
        <ele>136</ele>
        <time>2016-06-18T20:02:53Z</time>
      </trkpt>
      <trkpt lat="50.47402" lon="5.67945">
        <ele>136</ele>
        <time>2016-06-18T20:04:53Z</time>
      </trkpt>
      <trkpt lat="50.47413" lon="5.68027">
        <ele>138</ele>
        <time>2016-06-18T20:06:53Z</time>
      </trkpt>
      <trkpt lat="50.47417" lon="5.68057">
        <ele>139</ele>
        <time>2016-06-18T20:08:53Z</time>
      </trkpt>
      <trkpt lat="50.47421" lon="5.68088">
        <ele>142</ele>
        <time>2016-06-18T20:10:53Z</time>
      </trkpt>
      <trkpt lat="50.47429" lon="5.68146">
        <ele>146</ele>
        <time>2016-06-18T20:12:53Z</time>
      </trkpt>
      <trkpt lat="50.47435" lon="5.68184">
        <ele>147</ele>
        <time>2016-06-18T20:14:53Z</time>
      </trkpt>
      <trkpt lat="50.4744" lon="5.68221">
        <ele>148</ele>
        <time>2016-06-18T20:16:53Z</time>
      </trkpt>
      <trkpt lat="50.47447" lon="5.68259">
        <ele>147</ele>
        <time>2016-06-18T20:18:53Z</time>
      </trkpt>
      <trkpt lat="50.47457" lon="5.68328">
        <ele>147</ele>
        <time>2016-06-18T20:20:53Z</time>
      </trkpt>
      <trkpt lat="50.47471" lon="5.68421">
        <ele>141</ele>
        <time>2016-06-18T20:22:53Z</time>
      </trkpt>
      <trkpt lat="50.47486" lon="5.68515">
        <ele>137</ele>
        <time>2016-06-18T20:24:53Z</time>
      </trkpt>
      <trkpt lat="50.47498" lon="5.68598">
        <ele>136</ele>
        <time>2016-06-18T20:26:53Z</time>
      </trkpt>
      <trkpt lat="50.47502" lon="5.6862">
        <ele>135</ele>
        <time>2016-06-18T20:28:53Z</time>
      </trkpt>
      <trkpt lat="50.47513" lon="5.68706">
        <ele>138</ele>
        <time>2016-06-18T20:30:53Z</time>
      </trkpt>
      <trkpt lat="50.47522" lon="5.68779">
        <ele>143</ele>
        <time>2016-06-18T20:32:53Z</time>
      </trkpt>
      <trkpt lat="50.47537" lon="5.68863">
        <ele>146</ele>
        <time>2016-06-18T20:34:53Z</time>
      </trkpt>
      <trkpt lat="50.4754" lon="5.68873">
        <ele>146</ele>
        <time>2016-06-18T20:36:53Z</time>
      </trkpt>
      <trkpt lat="50.47553" lon="5.68915">
        <ele>143</ele>
        <time>2016-06-18T20:38:53Z</time>
      </trkpt>
      <trkpt lat="50.47592" lon="5.69008">
        <ele>133</ele>
        <time>2016-06-18T20:40:53Z</time>
      </trkpt>
      <trkpt lat="50.47625" lon="5.6908">
        <ele>132</ele>
        <time>2016-06-18T20:42:53Z</time>
      </trkpt>
      <trkpt lat="50.47652" lon="5.69145">
        <ele>130</ele>
        <time>2016-06-18T20:44:53Z</time>
      </trkpt>
      <trkpt lat="50.47679" lon="5.6921">
        <ele>129</ele>
        <time>2016-06-18T20:46:53Z</time>
      </trkpt>
      <trkpt lat="50.4772" lon="5.693">
        <ele>130</ele>
        <time>2016-06-18T20:48:53Z</time>
      </trkpt>
      <trkpt lat="50.4775" lon="5.69366">
        <ele>129</ele>
        <time>2016-06-18T20:50:53Z</time>
      </trkpt>
      <trkpt lat="50.47765" lon="5.69405">
        <ele>130</ele>
        <time>2016-06-18T20:52:53Z</time>
      </trkpt>
      <trkpt lat="50.47796" lon="5.69479">
        <ele>130</ele>
        <time>2016-06-18T20:54:53Z</time>
      </trkpt>
      <trkpt lat="50.47803" lon="5.69496">
        <ele>129</ele>
        <time>2016-06-18T20:56:53Z</time>
      </trkpt>
      <trkpt lat="50.47833" lon="5.69561">
        <ele>129</ele>
        <time>2016-06-18T20:58:53Z</time>
      </trkpt>
      <trkpt lat="50.47863" lon="5.69638">
        <ele>129</ele>
        <time>2016-06-18T21:00:53Z</time>
      </trkpt>
      <trkpt lat="50.47884" lon="5.69714">
        <ele>131</ele>
        <time>2016-06-18T21:02:53Z</time>
      </trkpt>
      <trkpt lat="50.47902" lon="5.69801">
        <ele>133</ele>
        <time>2016-06-18T21:04:53Z</time>
      </trkpt>
      <trkpt lat="50.47921" lon="5.69884">
        <ele>134</ele>
        <time>2016-06-18T21:06:53Z</time>
      </trkpt>
      <trkpt lat="50.47938" lon="5.69957">
        <ele>136</ele>
        <time>2016-06-18T21:08:53Z</time>
      </trkpt>
      <trkpt lat="50.47949" lon="5.70012">
        <ele>137</ele>
        <time>2016-06-18T21:10:53Z</time>
      </trkpt>
      <trkpt lat="50.47959" lon="5.70054">
        <ele>137</ele>
        <time>2016-06-18T21:12:53Z</time>
      </trkpt>
      <trkpt lat="50.47973" lon="5.7014">
        <ele>137</ele>
        <time>2016-06-18T21:14:53Z</time>
      </trkpt>
      <trkpt lat="50.4799" lon="5.70339">
        <ele>134</ele>
        <time>2016-06-18T21:16:53Z</time>
      </trkpt>
      <trkpt lat="50.48" lon="5.70451">
        <ele>130</ele>
        <time>2016-06-18T21:18:53Z</time>
      </trkpt>
      <trkpt lat="50.48002" lon="5.70474">
        <ele>131</ele>
        <time>2016-06-18T21:20:53Z</time>
      </trkpt>
      <trkpt lat="50.48006" lon="5.7055">
        <ele>130</ele>
        <time>2016-06-18T21:22:53Z</time>
      </trkpt>
      <trkpt lat="50.48009" lon="5.7062">
        <ele>129</ele>
        <time>2016-06-18T21:24:53Z</time>
      </trkpt>
      <trkpt lat="50.48004" lon="5.70647">
        <ele>129</ele>
        <time>2016-06-18T21:26:53Z</time>
      </trkpt>
      <trkpt lat="50.48004" lon="5.70657">
        <ele>129</ele>
        <time>2016-06-18T21:28:53Z</time>
      </trkpt>
      <trkpt lat="50.48003" lon="5.70677">
        <ele>129</ele>
        <time>2016-06-18T21:30:53Z</time>
      </trkpt>
      <trkpt lat="50.47987" lon="5.70773">
        <ele>129</ele>
        <time>2016-06-18T21:32:53Z</time>
      </trkpt>
      <trkpt lat="50.47984" lon="5.70794">
        <ele>129</ele>
        <time>2016-06-18T21:34:53Z</time>
      </trkpt>
      <trkpt lat="50.47973" lon="5.70863">
        <ele>129</ele>
        <time>2016-06-18T21:36:53Z</time>
      </trkpt>
      <trkpt lat="50.47966" lon="5.70912">
        <ele>129</ele>
        <time>2016-06-18T21:38:53Z</time>
      </trkpt>
      <trkpt lat="50.47963" lon="5.70951">
        <ele>130</ele>
        <time>2016-06-18T21:40:53Z</time>
      </trkpt>
      <trkpt lat="50.47965" lon="5.71004">
        <ele>129</ele>
        <time>2016-06-18T21:42:53Z</time>
      </trkpt>
      <trkpt lat="50.47973" lon="5.71085">
        <ele>131</ele>
        <time>2016-06-18T21:44:53Z</time>
      </trkpt>
      <trkpt lat="50.4798" lon="5.71144">
        <ele>133</ele>
        <time>2016-06-18T21:46:53Z</time>
      </trkpt>
      <trkpt lat="50.47991" lon="5.71222">
        <ele>140</ele>
        <time>2016-06-18T21:48:53Z</time>
      </trkpt>
      <trkpt lat="50.48" lon="5.71267">
        <ele>143</ele>
        <time>2016-06-18T21:50:53Z</time>
      </trkpt>
      <trkpt lat="50.48017" lon="5.71312">
        <ele>149</ele>
        <time>2016-06-18T21:52:53Z</time>
      </trkpt>
      <trkpt lat="50.48021" lon="5.71319">
        <ele>150</ele>
        <time>2016-06-18T21:54:53Z</time>
      </trkpt>
      <trkpt lat="50.48037" lon="5.71349">
        <ele>155</ele>
        <time>2016-06-18T21:56:53Z</time>
      </trkpt>
      <trkpt lat="50.48041" lon="5.71355">
        <ele>157</ele>
        <time>2016-06-18T21:58:53Z</time>
      </trkpt>
      <trkpt lat="50.48072" lon="5.71393">
        <ele>161</ele>
        <time>2016-06-18T22:00:53Z</time>
      </trkpt>
      <trkpt lat="50.48107" lon="5.71421">
        <ele>166</ele>
        <time>2016-06-18T22:02:53Z</time>
      </trkpt>
      <trkpt lat="50.48145" lon="5.71439">
        <ele>170</ele>
        <time>2016-06-18T22:04:53Z</time>
      </trkpt>
      <trkpt lat="50.4815" lon="5.71441">
        <ele>170</ele>
        <time>2016-06-18T22:06:53Z</time>
      </trkpt>
      <trkpt lat="50.48189" lon="5.7146">
        <ele>171</ele>
        <time>2016-06-18T22:08:53Z</time>
      </trkpt>
      <trkpt lat="50.48221" lon="5.71484">
        <ele>171</ele>
        <time>2016-06-18T22:10:53Z</time>
      </trkpt>
      <trkpt lat="50.48225" lon="5.71489">
        <ele>170</ele>
        <time>2016-06-18T22:12:53Z</time>
      </trkpt>
      <trkpt lat="50.48236" lon="5.71506">
        <ele>170</ele>
        <time>2016-06-18T22:14:53Z</time>
      </trkpt>
      <trkpt lat="50.48243" lon="5.71518">
        <ele>172</ele>
        <time>2016-06-18T22:16:53Z</time>
      </trkpt>
      <trkpt lat="50.48252" lon="5.71537">
        <ele>175</ele>
        <time>2016-06-18T22:18:53Z</time>
      </trkpt>
      <trkpt lat="50.48267" lon="5.71575">
        <ele>179</ele>
        <time>2016-06-18T22:20:53Z</time>
      </trkpt>
      <trkpt lat="50.48292" lon="5.71632">
        <ele>178</ele>
        <time>2016-06-18T22:22:53Z</time>
      </trkpt>
      <trkpt lat="50.4832" lon="5.71675">
        <ele>169</ele>
        <time>2016-06-18T22:24:53Z</time>
      </trkpt>
      <trkpt lat="50.48328" lon="5.71684">
        <ele>168</ele>
        <time>2016-06-18T22:26:53Z</time>
      </trkpt>
      <trkpt lat="50.48358" lon="5.71716">
        <ele>171</ele>
        <time>2016-06-18T22:28:53Z</time>
      </trkpt>
      <trkpt lat="50.48371" lon="5.7173">
        <ele>171</ele>
        <time>2016-06-18T22:30:53Z</time>
      </trkpt>
      <trkpt lat="50.48393" lon="5.71756">
        <ele>170</ele>
        <time>2016-06-18T22:32:53Z</time>
      </trkpt>
      <trkpt lat="50.48414" lon="5.7178">
        <ele>166</ele>
        <time>2016-06-18T22:34:53Z</time>
      </trkpt>
      <trkpt lat="50.48453" lon="5.71826">
        <ele>162</ele>
        <time>2016-06-18T22:36:53Z</time>
      </trkpt>
      <trkpt lat="50.48471" lon="5.7185">
        <ele>164</ele>
        <time>2016-06-18T22:38:53Z</time>
      </trkpt>
      <trkpt lat="50.48482" lon="5.71866">
        <ele>167</ele>
        <time>2016-06-18T22:40:53Z</time>
      </trkpt>
      <trkpt lat="50.48525" lon="5.71922">
        <ele>174</ele>
        <time>2016-06-18T22:42:53Z</time>
      </trkpt>
      <trkpt lat="50.48529" lon="5.71927">
        <ele>174</ele>
        <time>2016-06-18T22:44:53Z</time>
      </trkpt>
      <trkpt lat="50.48546" lon="5.71945">
        <ele>174</ele>
        <time>2016-06-18T22:46:53Z</time>
      </trkpt>
      <trkpt lat="50.48569" lon="5.71967">
        <ele>171</ele>
        <time>2016-06-18T22:48:53Z</time>
      </trkpt>
      <trkpt lat="50.48575" lon="5.71971">
        <ele>170</ele>
        <time>2016-06-18T22:50:53Z</time>
      </trkpt>
      <trkpt lat="50.48586" lon="5.71976">
        <ele>169</ele>
        <time>2016-06-18T22:52:53Z</time>
      </trkpt>
      <trkpt lat="50.48597" lon="5.71978">
        <ele>169</ele>
        <time>2016-06-18T22:54:53Z</time>
      </trkpt>
      <trkpt lat="50.48618" lon="5.7198">
        <ele>171</ele>
        <time>2016-06-18T22:56:53Z</time>
      </trkpt>
      <trkpt lat="50.48644" lon="5.71975">
        <ele>173</ele>
        <time>2016-06-18T22:58:53Z</time>
      </trkpt>
      <trkpt lat="50.48665" lon="5.71971">
        <ele>176</ele>
        <time>2016-06-18T23:00:53Z</time>
      </trkpt>
      <trkpt lat="50.48685" lon="5.71966">
        <ele>178</ele>
        <time>2016-06-18T23:02:53Z</time>
      </trkpt>
      <trkpt lat="50.48705" lon="5.71962">
        <ele>180</ele>
        <time>2016-06-18T23:04:53Z</time>
      </trkpt>
      <trkpt lat="50.48746" lon="5.71951">
        <ele>183</ele>
        <time>2016-06-18T23:06:53Z</time>
      </trkpt>
      <trkpt lat="50.48763" lon="5.71945">
        <ele>184</ele>
        <time>2016-06-18T23:08:53Z</time>
      </trkpt>
      <trkpt lat="50.48789" lon="5.71938">
        <ele>184</ele>
        <time>2016-06-18T23:10:53Z</time>
      </trkpt>
      <trkpt lat="50.48824" lon="5.7193">
        <ele>185</ele>
        <time>2016-06-18T23:12:53Z</time>
      </trkpt>
      <trkpt lat="50.48835" lon="5.71927">
        <ele>185</ele>
        <time>2016-06-18T23:14:53Z</time>
      </trkpt>
      <trkpt lat="50.48862" lon="5.71921">
        <ele>185</ele>
        <time>2016-06-18T23:16:53Z</time>
      </trkpt>
      <trkpt lat="50.48872" lon="5.71919">
        <ele>185</ele>
        <time>2016-06-18T23:18:53Z</time>
      </trkpt>
      <trkpt lat="50.48899" lon="5.71919">
        <ele>185</ele>
        <time>2016-06-18T23:20:53Z</time>
      </trkpt>
      <trkpt lat="50.48909" lon="5.7192">
        <ele>185</ele>
        <time>2016-06-18T23:22:53Z</time>
      </trkpt>
      <trkpt lat="50.4893" lon="5.71926">
        <ele>184</ele>
        <time>2016-06-18T23:24:53Z</time>
      </trkpt>
      <trkpt lat="50.48945" lon="5.71931">
        <ele>184</ele>
        <time>2016-06-18T23:26:53Z</time>
      </trkpt>
      <trkpt lat="50.48968" lon="5.71939">
        <ele>183</ele>
        <time>2016-06-18T23:28:53Z</time>
      </trkpt>
      <trkpt lat="50.48977" lon="5.71945">
        <ele>182</ele>
        <time>2016-06-18T23:30:53Z</time>
      </trkpt>
      <trkpt lat="50.49045" lon="5.71981">
        <ele>177</ele>
        <time>2016-06-18T23:32:53Z</time>
      </trkpt>
      <trkpt lat="50.49087" lon="5.72">
        <ele>174</ele>
        <time>2016-06-18T23:34:53Z</time>
      </trkpt>
      <trkpt lat="50.49118" lon="5.72011">
        <ele>176</ele>
        <time>2016-06-18T23:36:53Z</time>
      </trkpt>
      <trkpt lat="50.49134" lon="5.72014">
        <ele>176</ele>
        <time>2016-06-18T23:38:53Z</time>
      </trkpt>
      <trkpt lat="50.49183" lon="5.72019">
        <ele>177</ele>
        <time>2016-06-18T23:40:53Z</time>
      </trkpt>
      <trkpt lat="50.4922" lon="5.72022">
        <ele>178</ele>
        <time>2016-06-18T23:42:53Z</time>
      </trkpt>
      <trkpt lat="50.4927" lon="5.72026">
        <ele>179</ele>
        <time>2016-06-18T23:44:53Z</time>
      </trkpt>
      <trkpt lat="50.49324" lon="5.72031">
        <ele>181</ele>
        <time>2016-06-18T23:46:53Z</time>
      </trkpt>
      <trkpt lat="50.49378" lon="5.72035">
        <ele>182</ele>
        <time>2016-06-18T23:48:53Z</time>
      </trkpt>
      <trkpt lat="50.49405" lon="5.72038">
        <ele>182</ele>
        <time>2016-06-18T23:50:53Z</time>
      </trkpt>
      <trkpt lat="50.49421" lon="5.72039">
        <ele>182</ele>
        <time>2016-06-18T23:52:53Z</time>
      </trkpt>
      <trkpt lat="50.49524" lon="5.72047">
        <ele>181</ele>
        <time>2016-06-18T23:54:53Z</time>
      </trkpt>
      <trkpt lat="50.49535" lon="5.72047">
        <ele>181</ele>
        <time>2016-06-18T23:56:53Z</time>
      </trkpt>
      <trkpt lat="50.49604" lon="5.72053">
        <ele>181</ele>
        <time>2016-06-18T23:58:53Z</time>
      </trkpt>
      <trkpt lat="50.49696" lon="5.72059">
        <ele>183</ele>
        <time>2016-06-19T00:00:53Z</time>
      </trkpt>
      <trkpt lat="50.49744" lon="5.72063">
        <ele>185</ele>
        <time>2016-06-19T00:02:53Z</time>
      </trkpt>
      <trkpt lat="50.49755" lon="5.72065">
        <ele>185</ele>
        <time>2016-06-19T00:04:53Z</time>
      </trkpt>
      <trkpt lat="50.49782" lon="5.72075">
        <ele>188</ele>
        <time>2016-06-19T00:06:53Z</time>
      </trkpt>
      <trkpt lat="50.49811" lon="5.72101">
        <ele>191</ele>
        <time>2016-06-19T00:08:53Z</time>
      </trkpt>
      <trkpt lat="50.49832" lon="5.72141">
        <ele>193</ele>
        <time>2016-06-19T00:10:53Z</time>
      </trkpt>
      <trkpt lat="50.49842" lon="5.72162">
        <ele>194</ele>
        <time>2016-06-19T00:12:53Z</time>
      </trkpt>
      <trkpt lat="50.49853" lon="5.7219">
        <ele>197</ele>
        <time>2016-06-19T00:14:53Z</time>
      </trkpt>
      <trkpt lat="50.49878" lon="5.7225">
        <ele>202</ele>
        <time>2016-06-19T00:16:53Z</time>
      </trkpt>
      <trkpt lat="50.49887" lon="5.72278">
        <ele>203</ele>
        <time>2016-06-19T00:18:53Z</time>
      </trkpt>
      <trkpt lat="50.49906" lon="5.72326">
        <ele>205</ele>
        <time>2016-06-19T00:20:53Z</time>
      </trkpt>
      <trkpt lat="50.49914" lon="5.72352">
        <ele>205</ele>
        <time>2016-06-19T00:22:53Z</time>
      </trkpt>
      <trkpt lat="50.49926" lon="5.72389">
        <ele>207</ele>
        <time>2016-06-19T00:24:53Z</time>
      </trkpt>
      <trkpt lat="50.49934" lon="5.72409">
        <ele>207</ele>
        <time>2016-06-19T00:26:53Z</time>
      </trkpt>
      <trkpt lat="50.4994" lon="5.72422">
        <ele>208</ele>
        <time>2016-06-19T00:28:53Z</time>
      </trkpt>
      <trkpt lat="50.49952" lon="5.72441">
        <ele>209</ele>
        <time>2016-06-19T00:30:53Z</time>
      </trkpt>
      <trkpt lat="50.49956" lon="5.72447">
        <ele>209</ele>
        <time>2016-06-19T00:32:53Z</time>
      </trkpt>
      <trkpt lat="50.49975" lon="5.72493">
        <ele>208</ele>
        <time>2016-06-19T00:34:53Z</time>
      </trkpt>
      <trkpt lat="50.49977" lon="5.72499">
        <ele>208</ele>
        <time>2016-06-19T00:36:53Z</time>
      </trkpt>
      <trkpt lat="50.49985" lon="5.72514">
        <ele>208</ele>
        <time>2016-06-19T00:38:53Z</time>
      </trkpt>
      <trkpt lat="50.4999" lon="5.72525">
        <ele>208</ele>
        <time>2016-06-19T00:40:53Z</time>
      </trkpt>
      <trkpt lat="50.50004" lon="5.72551">
        <ele>209</ele>
        <time>2016-06-19T00:42:53Z</time>
      </trkpt>
      <trkpt lat="50.50008" lon="5.72556">
        <ele>209</ele>
        <time>2016-06-19T00:44:53Z</time>
      </trkpt>
      <trkpt lat="50.50027" lon="5.72579">
        <ele>210</ele>
        <time>2016-06-19T00:46:53Z</time>
      </trkpt>
      <trkpt lat="50.50034" lon="5.72583">
        <ele>210</ele>
        <time>2016-06-19T00:48:53Z</time>
      </trkpt>
      <trkpt lat="50.5005" lon="5.72596">
        <ele>211</ele>
        <time>2016-06-19T00:50:53Z</time>
      </trkpt>
      <trkpt lat="50.50078" lon="5.72624">
        <ele>212</ele>
        <time>2016-06-19T00:52:53Z</time>
      </trkpt>
      <trkpt lat="50.5009" lon="5.72637">
        <ele>212</ele>
        <time>2016-06-19T00:54:53Z</time>
      </trkpt>
      <trkpt lat="50.50099" lon="5.72642">
        <ele>212</ele>
        <time>2016-06-19T00:56:53Z</time>
      </trkpt>
      <trkpt lat="50.50104" lon="5.72644">
        <ele>212</ele>
        <time>2016-06-19T00:58:53Z</time>
      </trkpt>
      <trkpt lat="50.50114" lon="5.72645">
        <ele>212</ele>
        <time>2016-06-19T01:00:53Z</time>
      </trkpt>
      <trkpt lat="50.50125" lon="5.72644">
        <ele>211</ele>
        <time>2016-06-19T01:02:53Z</time>
      </trkpt>
      <trkpt lat="50.50138" lon="5.72641">
        <ele>211</ele>
        <time>2016-06-19T01:04:53Z</time>
      </trkpt>
      <trkpt lat="50.50154" lon="5.72635">
        <ele>210</ele>
        <time>2016-06-19T01:06:53Z</time>
      </trkpt>
      <trkpt lat="50.50169" lon="5.72628">
        <ele>210</ele>
        <time>2016-06-19T01:08:53Z</time>
      </trkpt>
      <trkpt lat="50.50189" lon="5.72618">
        <ele>210</ele>
        <time>2016-06-19T01:10:53Z</time>
      </trkpt>
      <trkpt lat="50.50209" lon="5.7261">
        <ele>211</ele>
        <time>2016-06-19T01:12:53Z</time>
      </trkpt>
      <trkpt lat="50.50214" lon="5.72608">
        <ele>211</ele>
        <time>2016-06-19T01:14:53Z</time>
      </trkpt>
      <trkpt lat="50.50228" lon="5.72604">
        <ele>211</ele>
        <time>2016-06-19T01:16:53Z</time>
      </trkpt>
      <trkpt lat="50.50239" lon="5.72605">
        <ele>211</ele>
        <time>2016-06-19T01:18:53Z</time>
      </trkpt>
      <trkpt lat="50.50244" lon="5.72606">
        <ele>211</ele>
        <time>2016-06-19T01:20:53Z</time>
      </trkpt>
      <trkpt lat="50.50265" lon="5.72612">
        <ele>211</ele>
        <time>2016-06-19T01:22:53Z</time>
      </trkpt>
      <trkpt lat="50.5028" lon="5.72618">
        <ele>211</ele>
        <time>2016-06-19T01:24:53Z</time>
      </trkpt>
      <trkpt lat="50.50296" lon="5.72625">
        <ele>211</ele>
        <time>2016-06-19T01:26:53Z</time>
      </trkpt>
      <trkpt lat="50.50305" lon="5.72632">
        <ele>211</ele>
        <time>2016-06-19T01:28:53Z</time>
      </trkpt>
      <trkpt lat="50.50337" lon="5.72664">
        <ele>209</ele>
        <time>2016-06-19T01:30:53Z</time>
      </trkpt>
      <trkpt lat="50.5035" lon="5.72678">
        <ele>210</ele>
        <time>2016-06-19T01:32:53Z</time>
      </trkpt>
      <trkpt lat="50.50382" lon="5.72716">
        <ele>211</ele>
        <time>2016-06-19T01:34:53Z</time>
      </trkpt>
      <trkpt lat="50.50402" lon="5.7274">
        <ele>212</ele>
        <time>2016-06-19T01:36:53Z</time>
      </trkpt>
      <trkpt lat="50.50416" lon="5.72752">
        <ele>212</ele>
        <time>2016-06-19T01:38:53Z</time>
      </trkpt>
      <trkpt lat="50.50429" lon="5.72762">
        <ele>212</ele>
        <time>2016-06-19T01:40:53Z</time>
      </trkpt>
      <trkpt lat="50.50438" lon="5.72768">
        <ele>212</ele>
        <time>2016-06-19T01:42:53Z</time>
      </trkpt>
      <trkpt lat="50.50442" lon="5.7277">
        <ele>212</ele>
        <time>2016-06-19T01:44:53Z</time>
      </trkpt>
      <trkpt lat="50.50457" lon="5.72775">
        <ele>213</ele>
        <time>2016-06-19T01:46:53Z</time>
      </trkpt>
      <trkpt lat="50.50472" lon="5.72777">
        <ele>212</ele>
        <time>2016-06-19T01:48:53Z</time>
      </trkpt>
      <trkpt lat="50.50507" lon="5.72781">
        <ele>212</ele>
        <time>2016-06-19T01:50:53Z</time>
      </trkpt>
      <trkpt lat="50.50522" lon="5.72784">
        <ele>213</ele>
        <time>2016-06-19T01:52:53Z</time>
      </trkpt>
      <trkpt lat="50.50542" lon="5.72787">
        <ele>213</ele>
        <time>2016-06-19T01:54:53Z</time>
      </trkpt>
      <trkpt lat="50.50625" lon="5.72793">
        <ele>214</ele>
        <time>2016-06-19T01:56:53Z</time>
      </trkpt>
      <trkpt lat="50.50676" lon="5.72799">
        <ele>215</ele>
        <time>2016-06-19T01:58:53Z</time>
      </trkpt>
      <trkpt lat="50.50692" lon="5.72801">
        <ele>215</ele>
        <time>2016-06-19T02:00:53Z</time>
      </trkpt>
      <trkpt lat="50.50772" lon="5.72807">
        <ele>218</ele>
        <time>2016-06-19T02:02:53Z</time>
      </trkpt>
      <trkpt lat="50.50788" lon="5.72809">
        <ele>218</ele>
        <time>2016-06-19T02:04:53Z</time>
      </trkpt>
      <trkpt lat="50.50825" lon="5.72813">
        <ele>219</ele>
        <time>2016-06-19T02:06:53Z</time>
      </trkpt>
      <trkpt lat="50.5087" lon="5.72817">
        <ele>221</ele>
        <time>2016-06-19T02:08:53Z</time>
      </trkpt>
      <trkpt lat="50.5089" lon="5.7282">
        <ele>221</ele>
        <time>2016-06-19T02:10:53Z</time>
      </trkpt>
      <trkpt lat="50.50918" lon="5.72822">
        <ele>222</ele>
        <time>2016-06-19T02:12:53Z</time>
      </trkpt>
      <trkpt lat="50.50923" lon="5.72822">
        <ele>223</ele>
        <time>2016-06-19T02:14:53Z</time>
      </trkpt>
      <trkpt lat="50.50952" lon="5.72824">
        <ele>224</ele>
        <time>2016-06-19T02:16:53Z</time>
      </trkpt>
      <trkpt lat="50.50966" lon="5.72826">
        <ele>225</ele>
        <time>2016-06-19T02:18:53Z</time>
      </trkpt>
      <trkpt lat="50.51009" lon="5.72829">
        <ele>227</ele>
        <time>2016-06-19T02:20:53Z</time>
      </trkpt>
      <trkpt lat="50.51041" lon="5.72832">
        <ele>228</ele>
        <time>2016-06-19T02:22:53Z</time>
      </trkpt>
      <trkpt lat="50.51055" lon="5.72834">
        <ele>229</ele>
        <time>2016-06-19T02:24:53Z</time>
      </trkpt>
      <trkpt lat="50.51072" lon="5.72835">
        <ele>229</ele>
        <time>2016-06-19T02:26:53Z</time>
      </trkpt>
      <trkpt lat="50.51086" lon="5.72836">
        <ele>230</ele>
        <time>2016-06-19T02:28:53Z</time>
      </trkpt>
      <trkpt lat="50.51114" lon="5.72838">
        <ele>231</ele>
        <time>2016-06-19T02:30:53Z</time>
      </trkpt>
      <trkpt lat="50.51163" lon="5.72842">
        <ele>233</ele>
        <time>2016-06-19T02:32:53Z</time>
      </trkpt>
      <trkpt lat="50.51185" lon="5.72845">
        <ele>234</ele>
        <time>2016-06-19T02:34:53Z</time>
      </trkpt>
      <trkpt lat="50.51234" lon="5.72849">
        <ele>237</ele>
        <time>2016-06-19T02:36:53Z</time>
      </trkpt>
      <trkpt lat="50.51253" lon="5.72852">
        <ele>238</ele>
        <time>2016-06-19T02:38:53Z</time>
      </trkpt>
      <trkpt lat="50.51262" lon="5.72852">
        <ele>238</ele>
        <time>2016-06-19T02:40:53Z</time>
      </trkpt>
      <trkpt lat="50.51324" lon="5.72858">
        <ele>241</ele>
        <time>2016-06-19T02:42:53Z</time>
      </trkpt>
      <trkpt lat="50.51346" lon="5.7286">
        <ele>242</ele>
        <time>2016-06-19T02:44:53Z</time>
      </trkpt>
      <trkpt lat="50.51371" lon="5.72862">
        <ele>243</ele>
        <time>2016-06-19T02:46:53Z</time>
      </trkpt>
      <trkpt lat="50.51383" lon="5.72864">
        <ele>243</ele>
        <time>2016-06-19T02:48:53Z</time>
      </trkpt>
      <trkpt lat="50.51406" lon="5.72867">
        <ele>244</ele>
        <time>2016-06-19T02:50:53Z</time>
      </trkpt>
      <trkpt lat="50.51422" lon="5.7287">
        <ele>245</ele>
        <time>2016-06-19T02:52:53Z</time>
      </trkpt>
      <trkpt lat="50.51444" lon="5.72873">
        <ele>246</ele>
        <time>2016-06-19T02:54:53Z</time>
      </trkpt>
      <trkpt lat="50.51454" lon="5.72873">
        <ele>247</ele>
        <time>2016-06-19T02:56:53Z</time>
      </trkpt>
      <trkpt lat="50.5148" lon="5.72876">
        <ele>248</ele>
        <time>2016-06-19T02:58:53Z</time>
      </trkpt>
      <trkpt lat="50.51574" lon="5.72884">
        <ele>251</ele>
        <time>2016-06-19T03:00:53Z</time>
      </trkpt>
      <trkpt lat="50.51646" lon="5.72892">
        <ele>253</ele>
        <time>2016-06-19T03:02:53Z</time>
      </trkpt>
      <trkpt lat="50.51671" lon="5.72894">
        <ele>254</ele>
        <time>2016-06-19T03:04:53Z</time>
      </trkpt>
      <trkpt lat="50.51689" lon="5.72894">
        <ele>254</ele>
        <time>2016-06-19T03:06:53Z</time>
      </trkpt>
      <trkpt lat="50.51725" lon="5.72893">
        <ele>255</ele>
        <time>2016-06-19T03:08:53Z</time>
      </trkpt>
      <trkpt lat="50.51743" lon="5.72891">
        <ele>255</ele>
        <time>2016-06-19T03:10:53Z</time>
      </trkpt>
      <trkpt lat="50.5179" lon="5.7288">
        <ele>256</ele>
        <time>2016-06-19T03:12:53Z</time>
      </trkpt>
      <trkpt lat="50.51843" lon="5.72857">
        <ele>256</ele>
        <time>2016-06-19T03:14:53Z</time>
      </trkpt>
      <trkpt lat="50.51888" lon="5.7283">
        <ele>254</ele>
        <time>2016-06-19T03:16:53Z</time>
      </trkpt>
      <trkpt lat="50.51927" lon="5.72799">
        <ele>254</ele>
        <time>2016-06-19T03:18:53Z</time>
      </trkpt>
      <trkpt lat="50.51965" lon="5.72768">
        <ele>254</ele>
        <time>2016-06-19T03:20:53Z</time>
      </trkpt>
      <trkpt lat="50.52011" lon="5.72727">
        <ele>256</ele>
        <time>2016-06-19T03:22:53Z</time>
      </trkpt>
      <trkpt lat="50.52043" lon="5.72701">
        <ele>256</ele>
        <time>2016-06-19T03:24:53Z</time>
      </trkpt>
      <trkpt lat="50.52141" lon="5.72617">
        <ele>262</ele>
        <time>2016-06-19T03:26:53Z</time>
      </trkpt>
      <trkpt lat="50.52184" lon="5.72582">
        <ele>264</ele>
        <time>2016-06-19T03:28:53Z</time>
      </trkpt>
      <trkpt lat="50.52222" lon="5.7255">
        <ele>266</ele>
        <time>2016-06-19T03:30:53Z</time>
      </trkpt>
      <trkpt lat="50.52252" lon="5.72525">
        <ele>267</ele>
        <time>2016-06-19T03:32:53Z</time>
      </trkpt>
      <trkpt lat="50.52266" lon="5.72514">
        <ele>267</ele>
        <time>2016-06-19T03:34:53Z</time>
      </trkpt>
      <trkpt lat="50.52275" lon="5.72506">
        <ele>267</ele>
        <time>2016-06-19T03:36:53Z</time>
      </trkpt>
      <trkpt lat="50.52279" lon="5.72501">
        <ele>267</ele>
        <time>2016-06-19T03:38:53Z</time>
      </trkpt>
      <trkpt lat="50.52347" lon="5.72444">
        <ele>265</ele>
        <time>2016-06-19T03:40:53Z</time>
      </trkpt>
      <trkpt lat="50.52371" lon="5.72426">
        <ele>265</ele>
        <time>2016-06-19T03:42:53Z</time>
      </trkpt>
      <trkpt lat="50.52388" lon="5.72411">
        <ele>264</ele>
        <time>2016-06-19T03:44:53Z</time>
      </trkpt>
      <trkpt lat="50.52411" lon="5.72392">
        <ele>264</ele>
        <time>2016-06-19T03:46:53Z</time>
      </trkpt>
      <trkpt lat="50.52441" lon="5.72368">
        <ele>264</ele>
        <time>2016-06-19T03:48:53Z</time>
      </trkpt>
      <trkpt lat="50.5247" lon="5.72341">
        <ele>265</ele>
        <time>2016-06-19T03:50:53Z</time>
      </trkpt>
      <trkpt lat="50.52513" lon="5.72305">
        <ele>266</ele>
        <time>2016-06-19T03:52:53Z</time>
      </trkpt>
      <trkpt lat="50.52652" lon="5.72187">
        <ele>266</ele>
        <time>2016-06-19T03:54:53Z</time>
      </trkpt>
      <trkpt lat="50.52792" lon="5.72067">
        <ele>265</ele>
        <time>2016-06-19T03:56:53Z</time>
      </trkpt>
      <trkpt lat="50.52803" lon="5.72058">
        <ele>265</ele>
        <time>2016-06-19T03:58:53Z</time>
      </trkpt>
      <trkpt lat="50.52849" lon="5.72019">
        <ele>265</ele>
        <time>2016-06-19T04:00:53Z</time>
      </trkpt>
      <trkpt lat="50.52901" lon="5.71979">
        <ele>265</ele>
        <time>2016-06-19T04:02:53Z</time>
      </trkpt>
      <trkpt lat="50.52923" lon="5.71968">
        <ele>265</ele>
        <time>2016-06-19T04:04:53Z</time>
      </trkpt>
      <trkpt lat="50.52929" lon="5.7197">
        <ele>265</ele>
        <time>2016-06-19T04:06:53Z</time>
      </trkpt>
      <trkpt lat="50.5295" lon="5.71979">
        <ele>265</ele>
        <time>2016-06-19T04:08:53Z</time>
      </trkpt>
      <trkpt lat="50.52959" lon="5.71958">
        <ele>265</ele>
        <time>2016-06-19T04:10:53Z</time>
      </trkpt>
      <trkpt lat="50.52958" lon="5.71928">
        <ele>264</ele>
        <time>2016-06-19T04:12:53Z</time>
      </trkpt>
      <trkpt lat="50.52961" lon="5.71906">
        <ele>263</ele>
        <time>2016-06-19T04:14:53Z</time>
      </trkpt>
      <trkpt lat="50.52968" lon="5.71874">
        <ele>262</ele>
        <time>2016-06-19T04:16:53Z</time>
      </trkpt>
      <trkpt lat="50.52974" lon="5.71851">
        <ele>262</ele>
        <time>2016-06-19T04:18:53Z</time>
      </trkpt>
      <trkpt lat="50.52983" lon="5.71816">
        <ele>261</ele>
        <time>2016-06-19T04:20:53Z</time>
      </trkpt>
      <trkpt lat="50.52986" lon="5.71804">
        <ele>261</ele>
        <time>2016-06-19T04:22:53Z</time>
      </trkpt>
      <trkpt lat="50.53" lon="5.71755">
        <ele>259</ele>
        <time>2016-06-19T04:24:53Z</time>
      </trkpt>
      <trkpt lat="50.53005" lon="5.71731">
        <ele>258</ele>
        <time>2016-06-19T04:26:53Z</time>
      </trkpt>
      <trkpt lat="50.53009" lon="5.71689">
        <ele>257</ele>
        <time>2016-06-19T04:28:53Z</time>
      </trkpt>
      <trkpt lat="50.53013" lon="5.71658">
        <ele>256</ele>
        <time>2016-06-19T04:30:53Z</time>
      </trkpt>
      <trkpt lat="50.53014" lon="5.71656">
        <ele>256</ele>
        <time>2016-06-19T04:32:53Z</time>
      </trkpt>
      <trkpt lat="50.53017" lon="5.71651">
        <ele>255</ele>
        <time>2016-06-19T04:34:53Z</time>
      </trkpt>
      <trkpt lat="50.5302" lon="5.71643">
        <ele>255</ele>
        <time>2016-06-19T04:36:53Z</time>
      </trkpt>
      <trkpt lat="50.53021" lon="5.71637">
        <ele>255</ele>
        <time>2016-06-19T04:38:53Z</time>
      </trkpt>
      <trkpt lat="50.53024" lon="5.7163">
        <ele>255</ele>
        <time>2016-06-19T04:40:53Z</time>
        <extensions>
          <visugpx:TrkExtension xmlns:visugpx="https://www.visugpx.com/editgpx/">
            <visugpx:etape>1</visugpx:etape>
            </visugpx:TrkExtension>
        </extensions>
      </trkpt>
      <trkpt lat="50.53024" lon="5.71625">
        <ele>255</ele>
        <time>2016-06-19T04:42:53Z</time>
      </trkpt>
      <trkpt lat="50.53024" lon="5.71611">
        <ele>254</ele>
        <time>2016-06-19T04:44:53Z</time>
      </trkpt>
      <trkpt lat="50.53025" lon="5.71601">
        <ele>254</ele>
        <time>2016-06-19T04:46:53Z</time>
      </trkpt>
      <trkpt lat="50.53026" lon="5.71588">
        <ele>253</ele>
        <time>2016-06-19T04:48:53Z</time>
      </trkpt>
      <trkpt lat="50.53029" lon="5.71561">
        <ele>253</ele>
        <time>2016-06-19T04:50:53Z</time>
      </trkpt>
      <trkpt lat="50.53035" lon="5.71522">
        <ele>252</ele>
        <time>2016-06-19T04:52:53Z</time>
      </trkpt>
      <trkpt lat="50.5304" lon="5.71474">
        <ele>251</ele>
        <time>2016-06-19T04:54:53Z</time>
      </trkpt>
      <trkpt lat="50.53046" lon="5.71424">
        <ele>249</ele>
        <time>2016-06-19T04:56:53Z</time>
      </trkpt>
      <trkpt lat="50.53046" lon="5.71416">
        <ele>249</ele>
        <time>2016-06-19T04:58:53Z</time>
      </trkpt>
      <trkpt lat="50.53045" lon="5.71407">
        <ele>249</ele>
        <time>2016-06-19T05:00:53Z</time>
      </trkpt>
      <trkpt lat="50.5304" lon="5.7135">
        <ele>247</ele>
        <time>2016-06-19T05:02:53Z</time>
      </trkpt>
      <trkpt lat="50.53036" lon="5.71287">
        <ele>245</ele>
        <time>2016-06-19T05:04:53Z</time>
      </trkpt>
      <trkpt lat="50.53037" lon="5.71254">
        <ele>244</ele>
        <time>2016-06-19T05:06:53Z</time>
      </trkpt>
      <trkpt lat="50.53039" lon="5.71209">
        <ele>244</ele>
        <time>2016-06-19T05:08:53Z</time>
      </trkpt>
      <trkpt lat="50.53041" lon="5.71152">
        <ele>243</ele>
        <time>2016-06-19T05:10:53Z</time>
      </trkpt>
      <trkpt lat="50.53046" lon="5.71109">
        <ele>242</ele>
        <time>2016-06-19T05:12:53Z</time>
      </trkpt>
      <trkpt lat="50.53053" lon="5.71088">
        <ele>242</ele>
        <time>2016-06-19T05:14:53Z</time>
      </trkpt>
      <trkpt lat="50.53062" lon="5.71072">
        <ele>242</ele>
        <time>2016-06-19T05:16:53Z</time>
      </trkpt>
      <trkpt lat="50.53086" lon="5.71052">
        <ele>243</ele>
        <time>2016-06-19T05:18:53Z</time>
      </trkpt>
      <trkpt lat="50.53105" lon="5.71041">
        <ele>242</ele>
        <time>2016-06-19T05:20:53Z</time>
      </trkpt>
      <trkpt lat="50.53124" lon="5.71028">
        <ele>242</ele>
        <time>2016-06-19T05:22:53Z</time>
      </trkpt>
      <trkpt lat="50.53164" lon="5.70993">
        <ele>241</ele>
        <time>2016-06-19T05:24:53Z</time>
      </trkpt>
      <trkpt lat="50.53191" lon="5.70959">
        <ele>238</ele>
        <time>2016-06-19T05:26:53Z</time>
      </trkpt>
      <trkpt lat="50.53197" lon="5.70948">
        <ele>237</ele>
        <time>2016-06-19T05:28:53Z</time>
      </trkpt>
      <trkpt lat="50.53206" lon="5.70922">
        <ele>236</ele>
        <time>2016-06-19T05:30:53Z</time>
      </trkpt>
      <trkpt lat="50.53209" lon="5.70907">
        <ele>235</ele>
        <time>2016-06-19T05:32:53Z</time>
      </trkpt>
      <trkpt lat="50.53211" lon="5.70892">
        <ele>235</ele>
        <time>2016-06-19T05:34:53Z</time>
      </trkpt>
      <trkpt lat="50.53211" lon="5.70861">
        <ele>234</ele>
        <time>2016-06-19T05:36:53Z</time>
      </trkpt>
      <trkpt lat="50.53207" lon="5.7083">
        <ele>234</ele>
        <time>2016-06-19T05:38:53Z</time>
      </trkpt>
      <trkpt lat="50.53205" lon="5.70814">
        <ele>234</ele>
        <time>2016-06-19T05:40:53Z</time>
      </trkpt>
      <trkpt lat="50.5319" lon="5.70733">
        <ele>231</ele>
        <time>2016-06-19T05:42:53Z</time>
      </trkpt>
      <trkpt lat="50.53188" lon="5.70717">
        <ele>230</ele>
        <time>2016-06-19T05:44:53Z</time>
      </trkpt>
      <trkpt lat="50.53187" lon="5.70703">
        <ele>230</ele>
        <time>2016-06-19T05:46:53Z</time>
      </trkpt>
      <trkpt lat="50.53191" lon="5.70675">
        <ele>228</ele>
        <time>2016-06-19T05:48:53Z</time>
      </trkpt>
      <trkpt lat="50.53202" lon="5.70652">
        <ele>228</ele>
        <time>2016-06-19T05:50:53Z</time>
      </trkpt>
      <trkpt lat="50.53209" lon="5.70644">
        <ele>228</ele>
        <time>2016-06-19T05:52:53Z</time>
      </trkpt>
      <trkpt lat="50.53225" lon="5.70634">
        <ele>228</ele>
        <time>2016-06-19T05:54:53Z</time>
      </trkpt>
      <trkpt lat="50.53234" lon="5.70634">
        <ele>228</ele>
        <time>2016-06-19T05:56:53Z</time>
      </trkpt>
      <trkpt lat="50.53257" lon="5.70646">
        <ele>228</ele>
        <time>2016-06-19T05:58:53Z</time>
      </trkpt>
      <trkpt lat="50.53278" lon="5.70666">
        <ele>227</ele>
        <time>2016-06-19T06:00:53Z</time>
      </trkpt>
      <trkpt lat="50.53298" lon="5.70688">
        <ele>227</ele>
        <time>2016-06-19T06:02:53Z</time>
      </trkpt>
      <trkpt lat="50.53345" lon="5.70736">
        <ele>225</ele>
        <time>2016-06-19T06:04:53Z</time>
      </trkpt>
      <trkpt lat="50.53413" lon="5.70806">
        <ele>221</ele>
        <time>2016-06-19T06:06:53Z</time>
      </trkpt>
      <trkpt lat="50.53475" lon="5.70871">
        <ele>218</ele>
        <time>2016-06-19T06:08:53Z</time>
      </trkpt>
      <trkpt lat="50.53497" lon="5.70894">
        <ele>217</ele>
        <time>2016-06-19T06:10:53Z</time>
      </trkpt>
      <trkpt lat="50.5352" lon="5.70914">
        <ele>216</ele>
        <time>2016-06-19T06:12:53Z</time>
      </trkpt>
      <trkpt lat="50.53528" lon="5.70918">
        <ele>215</ele>
        <time>2016-06-19T06:14:53Z</time>
      </trkpt>
      <trkpt lat="50.53544" lon="5.70916">
        <ele>214</ele>
        <time>2016-06-19T06:16:53Z</time>
      </trkpt>
      <trkpt lat="50.53551" lon="5.7091">
        <ele>214</ele>
        <time>2016-06-19T06:18:53Z</time>
      </trkpt>
      <trkpt lat="50.53556" lon="5.709">
        <ele>214</ele>
        <time>2016-06-19T06:20:53Z</time>
      </trkpt>
      <trkpt lat="50.5356" lon="5.70888">
        <ele>213</ele>
        <time>2016-06-19T06:22:53Z</time>
      </trkpt>
      <trkpt lat="50.53561" lon="5.70875">
        <ele>213</ele>
        <time>2016-06-19T06:24:53Z</time>
      </trkpt>
      <trkpt lat="50.5356" lon="5.7086">
        <ele>213</ele>
        <time>2016-06-19T06:26:53Z</time>
      </trkpt>
      <trkpt lat="50.53555" lon="5.70832">
        <ele>213</ele>
        <time>2016-06-19T06:28:53Z</time>
      </trkpt>
      <trkpt lat="50.53549" lon="5.70802">
        <ele>213</ele>
        <time>2016-06-19T06:30:53Z</time>
      </trkpt>
      <trkpt lat="50.53545" lon="5.70771">
        <ele>213</ele>
        <time>2016-06-19T06:32:53Z</time>
      </trkpt>
      <trkpt lat="50.53544" lon="5.70754">
        <ele>213</ele>
        <time>2016-06-19T06:34:53Z</time>
      </trkpt>
      <trkpt lat="50.53545" lon="5.70737">
        <ele>213</ele>
        <time>2016-06-19T06:36:53Z</time>
      </trkpt>
      <trkpt lat="50.53548" lon="5.70685">
        <ele>212</ele>
        <time>2016-06-19T06:38:53Z</time>
      </trkpt>
      <trkpt lat="50.53554" lon="5.70601">
        <ele>210</ele>
        <time>2016-06-19T06:40:53Z</time>
      </trkpt>
      <trkpt lat="50.53557" lon="5.70556">
        <ele>210</ele>
        <time>2016-06-19T06:42:53Z</time>
      </trkpt>
      <trkpt lat="50.53565" lon="5.70477">
        <ele>209</ele>
        <time>2016-06-19T06:44:53Z</time>
      </trkpt>
      <trkpt lat="50.53569" lon="5.70426">
        <ele>209</ele>
        <time>2016-06-19T06:46:53Z</time>
      </trkpt>
      <trkpt lat="50.53576" lon="5.70341">
        <ele>208</ele>
        <time>2016-06-19T06:48:53Z</time>
      </trkpt>
      <trkpt lat="50.53582" lon="5.70261">
        <ele>208</ele>
        <time>2016-06-19T06:50:53Z</time>
      </trkpt>
      <trkpt lat="50.53585" lon="5.70216">
        <ele>208</ele>
        <time>2016-06-19T06:52:53Z</time>
      </trkpt>
      <trkpt lat="50.53591" lon="5.70144">
        <ele>210</ele>
        <time>2016-06-19T06:54:53Z</time>
      </trkpt>
      <trkpt lat="50.53599" lon="5.70047">
        <ele>210</ele>
        <time>2016-06-19T06:56:53Z</time>
      </trkpt>
      <trkpt lat="50.536" lon="5.70034">
        <ele>210</ele>
        <time>2016-06-19T06:58:53Z</time>
      </trkpt>
      <trkpt lat="50.53604" lon="5.69984">
        <ele>210</ele>
        <time>2016-06-19T07:00:53Z</time>
      </trkpt>
      <trkpt lat="50.53605" lon="5.6996">
        <ele>210</ele>
        <time>2016-06-19T07:02:53Z</time>
      </trkpt>
      <trkpt lat="50.53613" lon="5.6986">
        <ele>210</ele>
        <time>2016-06-19T07:04:53Z</time>
      </trkpt>
      <trkpt lat="50.53617" lon="5.69769">
        <ele>211</ele>
        <time>2016-06-19T07:06:53Z</time>
      </trkpt>
      <trkpt lat="50.53615" lon="5.69683">
        <ele>211</ele>
        <time>2016-06-19T07:08:53Z</time>
      </trkpt>
      <trkpt lat="50.53618" lon="5.69603">
        <ele>209</ele>
        <time>2016-06-19T07:10:53Z</time>
      </trkpt>
      <trkpt lat="50.53637" lon="5.69453">
        <ele>206</ele>
        <time>2016-06-19T07:12:53Z</time>
      </trkpt>
      <trkpt lat="50.53645" lon="5.69407">
        <ele>206</ele>
        <time>2016-06-19T07:14:53Z</time>
      </trkpt>
      <trkpt lat="50.53656" lon="5.69363">
        <ele>205</ele>
        <time>2016-06-19T07:16:53Z</time>
      </trkpt>
      <trkpt lat="50.53676" lon="5.69323">
        <ele>206</ele>
        <time>2016-06-19T07:18:53Z</time>
      </trkpt>
      <trkpt lat="50.5368" lon="5.69313">
        <ele>207</ele>
        <time>2016-06-19T07:20:53Z</time>
      </trkpt>
      <trkpt lat="50.53714" lon="5.69256">
        <ele>210</ele>
        <time>2016-06-19T07:22:53Z</time>
      </trkpt>
      <trkpt lat="50.53736" lon="5.69223">
        <ele>208</ele>
        <time>2016-06-19T07:24:53Z</time>
      </trkpt>
      <trkpt lat="50.53754" lon="5.69202">
        <ele>205</ele>
        <time>2016-06-19T07:26:53Z</time>
      </trkpt>
      <trkpt lat="50.53795" lon="5.69171">
        <ele>200</ele>
        <time>2016-06-19T07:28:53Z</time>
      </trkpt>
      <trkpt lat="50.53809" lon="5.69165">
        <ele>199</ele>
        <time>2016-06-19T07:30:53Z</time>
      </trkpt>
      <trkpt lat="50.53832" lon="5.69162">
        <ele>198</ele>
        <time>2016-06-19T07:32:53Z</time>
      </trkpt>
      <trkpt lat="50.53871" lon="5.69171">
        <ele>196</ele>
        <time>2016-06-19T07:34:53Z</time>
      </trkpt>
      <trkpt lat="50.53912" lon="5.69195">
        <ele>200</ele>
        <time>2016-06-19T07:36:53Z</time>
      </trkpt>
      <trkpt lat="50.53927" lon="5.69206">
        <ele>202</ele>
        <time>2016-06-19T07:38:53Z</time>
      </trkpt>
      <trkpt lat="50.53955" lon="5.69224">
        <ele>206</ele>
        <time>2016-06-19T07:40:53Z</time>
      </trkpt>
      <trkpt lat="50.53962" lon="5.69228">
        <ele>207</ele>
        <time>2016-06-19T07:42:53Z</time>
      </trkpt>
      <trkpt lat="50.5401" lon="5.69253">
        <ele>209</ele>
        <time>2016-06-19T07:44:53Z</time>
      </trkpt>
      <trkpt lat="50.5403" lon="5.69261">
        <ele>208</ele>
        <time>2016-06-19T07:46:53Z</time>
      </trkpt>
      <trkpt lat="50.54088" lon="5.69276">
        <ele>202</ele>
        <time>2016-06-19T07:48:53Z</time>
      </trkpt>
      <trkpt lat="50.54144" lon="5.69292">
        <ele>197</ele>
        <time>2016-06-19T07:50:53Z</time>
      </trkpt>
      <trkpt lat="50.54183" lon="5.69299">
        <ele>193</ele>
        <time>2016-06-19T07:52:53Z</time>
      </trkpt>
      <trkpt lat="50.54191" lon="5.69299">
        <ele>193</ele>
        <time>2016-06-19T07:54:53Z</time>
      </trkpt>
      <trkpt lat="50.54225" lon="5.6929">
        <ele>191</ele>
        <time>2016-06-19T07:56:53Z</time>
      </trkpt>
      <trkpt lat="50.54312" lon="5.69243">
        <ele>184</ele>
        <time>2016-06-19T07:58:53Z</time>
      </trkpt>
      <trkpt lat="50.5434" lon="5.69226">
        <ele>182</ele>
        <time>2016-06-19T08:00:53Z</time>
      </trkpt>
      <trkpt lat="50.54367" lon="5.69197">
        <ele>179</ele>
        <time>2016-06-19T08:02:53Z</time>
      </trkpt>
      <trkpt lat="50.5438" lon="5.69175">
        <ele>177</ele>
        <time>2016-06-19T08:04:53Z</time>
      </trkpt>
      <trkpt lat="50.54391" lon="5.69151">
        <ele>177</ele>
        <time>2016-06-19T08:06:53Z</time>
      </trkpt>
      <trkpt lat="50.54399" lon="5.69126">
        <ele>178</ele>
        <time>2016-06-19T08:08:53Z</time>
      </trkpt>
      <trkpt lat="50.54405" lon="5.691">
        <ele>179</ele>
        <time>2016-06-19T08:10:53Z</time>
      </trkpt>
      <trkpt lat="50.54408" lon="5.69083">
        <ele>180</ele>
        <time>2016-06-19T08:12:53Z</time>
      </trkpt>
      <trkpt lat="50.5441" lon="5.69049">
        <ele>181</ele>
        <time>2016-06-19T08:14:53Z</time>
      </trkpt>
      <trkpt lat="50.5441" lon="5.69015">
        <ele>182</ele>
        <time>2016-06-19T08:16:53Z</time>
      </trkpt>
      <trkpt lat="50.54408" lon="5.68973">
        <ele>185</ele>
        <time>2016-06-19T08:18:53Z</time>
      </trkpt>
      <trkpt lat="50.54406" lon="5.68955">
        <ele>187</ele>
        <time>2016-06-19T08:20:53Z</time>
      </trkpt>
      <trkpt lat="50.544" lon="5.68912">
        <ele>190</ele>
        <time>2016-06-19T08:22:53Z</time>
      </trkpt>
      <trkpt lat="50.54399" lon="5.689">
        <ele>191</ele>
        <time>2016-06-19T08:24:53Z</time>
      </trkpt>
      <trkpt lat="50.54394" lon="5.6887">
        <ele>193</ele>
        <time>2016-06-19T08:26:53Z</time>
      </trkpt>
      <trkpt lat="50.54391" lon="5.68846">
        <ele>195</ele>
        <time>2016-06-19T08:28:53Z</time>
      </trkpt>
      <trkpt lat="50.54391" lon="5.68843">
        <ele>195</ele>
        <time>2016-06-19T08:30:53Z</time>
      </trkpt>
      <trkpt lat="50.54389" lon="5.68824">
        <ele>196</ele>
        <time>2016-06-19T08:32:53Z</time>
      </trkpt>
      <trkpt lat="50.54387" lon="5.68809">
        <ele>196</ele>
        <time>2016-06-19T08:34:53Z</time>
      </trkpt>
      <trkpt lat="50.54385" lon="5.68799">
        <ele>197</ele>
        <time>2016-06-19T08:36:53Z</time>
      </trkpt>
      <trkpt lat="50.54384" lon="5.68785">
        <ele>197</ele>
        <time>2016-06-19T08:38:53Z</time>
      </trkpt>
      <trkpt lat="50.54383" lon="5.68774">
        <ele>198</ele>
        <time>2016-06-19T08:40:53Z</time>
      </trkpt>
      <trkpt lat="50.54382" lon="5.6876">
        <ele>198</ele>
        <time>2016-06-19T08:42:53Z</time>
      </trkpt>
      <trkpt lat="50.54382" lon="5.68754">
        <ele>199</ele>
        <time>2016-06-19T08:44:53Z</time>
      </trkpt>
      <trkpt lat="50.5438" lon="5.6874">
        <ele>199</ele>
        <time>2016-06-19T08:46:53Z</time>
      </trkpt>
      <trkpt lat="50.54379" lon="5.68718">
        <ele>199</ele>
        <time>2016-06-19T08:48:53Z</time>
      </trkpt>
      <trkpt lat="50.54381" lon="5.68696">
        <ele>200</ele>
        <time>2016-06-19T08:50:53Z</time>
      </trkpt>
      <trkpt lat="50.54381" lon="5.68654">
        <ele>202</ele>
        <time>2016-06-19T08:52:53Z</time>
      </trkpt>
      <trkpt lat="50.54378" lon="5.68636">
        <ele>203</ele>
        <time>2016-06-19T08:54:53Z</time>
      </trkpt>
      <trkpt lat="50.54376" lon="5.68617">
        <ele>204</ele>
        <time>2016-06-19T08:56:53Z</time>
      </trkpt>
      <trkpt lat="50.54373" lon="5.68601">
        <ele>205</ele>
        <time>2016-06-19T08:58:53Z</time>
      </trkpt>
      <trkpt lat="50.54368" lon="5.68571">
        <ele>206</ele>
        <time>2016-06-19T09:00:53Z</time>
      </trkpt>
      <trkpt lat="50.54358" lon="5.68519">
        <ele>208</ele>
        <time>2016-06-19T09:02:53Z</time>
      </trkpt>
      <trkpt lat="50.54354" lon="5.68499">
        <ele>208</ele>
        <time>2016-06-19T09:04:53Z</time>
      </trkpt>
      <trkpt lat="50.54353" lon="5.68491">
        <ele>209</ele>
        <time>2016-06-19T09:06:53Z</time>
      </trkpt>
      <trkpt lat="50.5435" lon="5.68464">
        <ele>210</ele>
        <time>2016-06-19T09:08:53Z</time>
      </trkpt>
      <trkpt lat="50.54355" lon="5.68447">
        <ele>212</ele>
        <time>2016-06-19T09:10:53Z</time>
      </trkpt>
      <trkpt lat="50.54373" lon="5.68409">
        <ele>216</ele>
        <time>2016-06-19T09:12:53Z</time>
      </trkpt>
      <trkpt lat="50.54376" lon="5.68403">
        <ele>216</ele>
        <time>2016-06-19T09:14:53Z</time>
      </trkpt>
      <trkpt lat="50.54393" lon="5.6837">
        <ele>220</ele>
        <time>2016-06-19T09:16:53Z</time>
      </trkpt>
      <trkpt lat="50.54396" lon="5.6836">
        <ele>220</ele>
        <time>2016-06-19T09:18:53Z</time>
      </trkpt>
      <trkpt lat="50.54402" lon="5.68345">
        <ele>222</ele>
        <time>2016-06-19T09:20:53Z</time>
      </trkpt>
      <trkpt lat="50.54412" lon="5.68315">
        <ele>225</ele>
        <time>2016-06-19T09:22:53Z</time>
      </trkpt>
      <trkpt lat="50.54413" lon="5.68312">
        <ele>225</ele>
        <time>2016-06-19T09:24:53Z</time>
      </trkpt>
      <trkpt lat="50.54416" lon="5.68301">
        <ele>226</ele>
        <time>2016-06-19T09:26:53Z</time>
      </trkpt>
      <trkpt lat="50.5442" lon="5.68285">
        <ele>228</ele>
        <time>2016-06-19T09:28:53Z</time>
      </trkpt>
      <trkpt lat="50.54422" lon="5.68275">
        <ele>229</ele>
        <time>2016-06-19T09:30:53Z</time>
      </trkpt>
      <trkpt lat="50.54427" lon="5.68246">
        <ele>232</ele>
        <time>2016-06-19T09:32:53Z</time>
      </trkpt>
      <trkpt lat="50.54429" lon="5.68236">
        <ele>233</ele>
        <time>2016-06-19T09:34:53Z</time>
      </trkpt>
      <trkpt lat="50.54431" lon="5.68219">
        <ele>235</ele>
        <time>2016-06-19T09:36:53Z</time>
      </trkpt>
      <trkpt lat="50.54431" lon="5.68215">
        <ele>235</ele>
        <time>2016-06-19T09:38:53Z</time>
      </trkpt>
      <trkpt lat="50.54432" lon="5.68198">
        <ele>237</ele>
        <time>2016-06-19T09:40:53Z</time>
      </trkpt>
      <trkpt lat="50.54432" lon="5.68191">
        <ele>237</ele>
        <time>2016-06-19T09:42:53Z</time>
      </trkpt>
      <trkpt lat="50.54431" lon="5.68177">
        <ele>238</ele>
        <time>2016-06-19T09:44:53Z</time>
      </trkpt>
      <trkpt lat="50.54431" lon="5.68166">
        <ele>239</ele>
        <time>2016-06-19T09:46:53Z</time>
      </trkpt>
      <trkpt lat="50.54431" lon="5.68155">
        <ele>240</ele>
        <time>2016-06-19T09:48:53Z</time>
      </trkpt>
      <trkpt lat="50.54431" lon="5.6814">
        <ele>241</ele>
        <time>2016-06-19T09:50:53Z</time>
      </trkpt>
      <trkpt lat="50.5443" lon="5.68123">
        <ele>242</ele>
        <time>2016-06-19T09:52:53Z</time>
      </trkpt>
      <trkpt lat="50.5443" lon="5.68108">
        <ele>243</ele>
        <time>2016-06-19T09:54:53Z</time>
      </trkpt>
      <trkpt lat="50.5443" lon="5.68086">
        <ele>245</ele>
        <time>2016-06-19T09:56:53Z</time>
      </trkpt>
      <trkpt lat="50.54429" lon="5.68036">
        <ele>248</ele>
        <time>2016-06-19T09:58:53Z</time>
      </trkpt>
      <trkpt lat="50.54429" lon="5.68028">
        <ele>248</ele>
        <time>2016-06-19T10:00:53Z</time>
      </trkpt>
      <trkpt lat="50.5443" lon="5.67992">
        <ele>251</ele>
        <time>2016-06-19T10:02:53Z</time>
      </trkpt>
      <trkpt lat="50.54431" lon="5.67931">
        <ele>254</ele>
        <time>2016-06-19T10:04:53Z</time>
      </trkpt>
      <trkpt lat="50.54432" lon="5.67917">
        <ele>254</ele>
        <time>2016-06-19T10:06:53Z</time>
      </trkpt>
      <trkpt lat="50.54433" lon="5.67898">
        <ele>255</ele>
        <time>2016-06-19T10:08:53Z</time>
      </trkpt>
      <trkpt lat="50.54433" lon="5.67886">
        <ele>256</ele>
        <time>2016-06-19T10:10:53Z</time>
      </trkpt>
      <trkpt lat="50.54433" lon="5.67874">
        <ele>256</ele>
        <time>2016-06-19T10:12:53Z</time>
      </trkpt>
      <trkpt lat="50.54433" lon="5.67863">
        <ele>257</ele>
        <time>2016-06-19T10:14:53Z</time>
      </trkpt>
      <trkpt lat="50.54433" lon="5.67847">
        <ele>257</ele>
        <time>2016-06-19T10:16:53Z</time>
      </trkpt>
      <trkpt lat="50.54432" lon="5.67828">
        <ele>258</ele>
        <time>2016-06-19T10:18:53Z</time>
      </trkpt>
      <trkpt lat="50.54432" lon="5.67817">
        <ele>258</ele>
        <time>2016-06-19T10:20:53Z</time>
      </trkpt>
      <trkpt lat="50.54432" lon="5.67814">
        <ele>258</ele>
        <time>2016-06-19T10:22:53Z</time>
      </trkpt>
      <trkpt lat="50.54432" lon="5.67797">
        <ele>259</ele>
        <time>2016-06-19T10:24:53Z</time>
      </trkpt>
      <trkpt lat="50.54432" lon="5.67785">
        <ele>259</ele>
        <time>2016-06-19T10:26:53Z</time>
      </trkpt>
      <trkpt lat="50.54432" lon="5.67767">
        <ele>259</ele>
        <time>2016-06-19T10:28:53Z</time>
      </trkpt>
      <trkpt lat="50.54431" lon="5.67752">
        <ele>260</ele>
        <time>2016-06-19T10:30:53Z</time>
      </trkpt>
      <trkpt lat="50.5443" lon="5.67737">
        <ele>260</ele>
        <time>2016-06-19T10:32:53Z</time>
      </trkpt>
      <trkpt lat="50.54431" lon="5.67719">
        <ele>260</ele>
        <time>2016-06-19T10:34:53Z</time>
      </trkpt>
      <trkpt lat="50.54431" lon="5.67712">
        <ele>261</ele>
        <time>2016-06-19T10:36:53Z</time>
      </trkpt>
      <trkpt lat="50.54432" lon="5.67704">
        <ele>261</ele>
        <time>2016-06-19T10:38:53Z</time>
      </trkpt>
      <trkpt lat="50.54437" lon="5.67685">
        <ele>262</ele>
        <time>2016-06-19T10:40:53Z</time>
      </trkpt>
      <trkpt lat="50.54443" lon="5.6767">
        <ele>263</ele>
        <time>2016-06-19T10:42:53Z</time>
      </trkpt>
      <trkpt lat="50.54448" lon="5.6766">
        <ele>264</ele>
        <time>2016-06-19T10:44:53Z</time>
      </trkpt>
      <trkpt lat="50.54449" lon="5.67656">
        <ele>264</ele>
        <time>2016-06-19T10:46:53Z</time>
      </trkpt>
      <trkpt lat="50.54456" lon="5.67648">
        <ele>264</ele>
        <time>2016-06-19T10:48:53Z</time>
      </trkpt>
      <trkpt lat="50.54491" lon="5.676">
        <ele>269</ele>
        <time>2016-06-19T10:50:53Z</time>
      </trkpt>
      <trkpt lat="50.54521" lon="5.67559">
        <ele>271</ele>
        <time>2016-06-19T10:52:53Z</time>
      </trkpt>
      <trkpt lat="50.54544" lon="5.67527">
        <ele>272</ele>
        <time>2016-06-19T10:54:53Z</time>
      </trkpt>
      <trkpt lat="50.54564" lon="5.67496">
        <ele>273</ele>
        <time>2016-06-19T10:56:53Z</time>
      </trkpt>
      <trkpt lat="50.54577" lon="5.6747">
        <ele>273</ele>
        <time>2016-06-19T10:58:53Z</time>
      </trkpt>
      <trkpt lat="50.546" lon="5.67419">
        <ele>274</ele>
        <time>2016-06-19T11:00:53Z</time>
      </trkpt>
      <trkpt lat="50.54632" lon="5.67343">
        <ele>277</ele>
        <time>2016-06-19T11:02:53Z</time>
      </trkpt>
      <trkpt lat="50.54634" lon="5.67336">
        <ele>277</ele>
        <time>2016-06-19T11:04:53Z</time>
      </trkpt>
      <trkpt lat="50.54645" lon="5.67312">
        <ele>278</ele>
        <time>2016-06-19T11:06:53Z</time>
      </trkpt>
      <trkpt lat="50.54655" lon="5.67288">
        <ele>278</ele>
        <time>2016-06-19T11:08:53Z</time>
      </trkpt>
      <trkpt lat="50.54671" lon="5.67245">
        <ele>279</ele>
        <time>2016-06-19T11:10:53Z</time>
      </trkpt>
      <trkpt lat="50.54687" lon="5.67197">
        <ele>280</ele>
        <time>2016-06-19T11:12:53Z</time>
      </trkpt>
      <trkpt lat="50.54694" lon="5.67179">
        <ele>281</ele>
        <time>2016-06-19T11:14:53Z</time>
      </trkpt>
      <trkpt lat="50.54696" lon="5.67173">
        <ele>281</ele>
        <time>2016-06-19T11:16:53Z</time>
      </trkpt>
      <trkpt lat="50.54705" lon="5.6715">
        <ele>282</ele>
        <time>2016-06-19T11:18:53Z</time>
      </trkpt>
      <trkpt lat="50.54719" lon="5.67116">
        <ele>284</ele>
        <time>2016-06-19T11:20:53Z</time>
      </trkpt>
      <trkpt lat="50.54722" lon="5.67105">
        <ele>285</ele>
        <time>2016-06-19T11:22:53Z</time>
      </trkpt>
      <trkpt lat="50.54727" lon="5.67094">
        <ele>286</ele>
        <time>2016-06-19T11:24:53Z</time>
      </trkpt>
      <trkpt lat="50.54731" lon="5.67085">
        <ele>286</ele>
        <time>2016-06-19T11:26:53Z</time>
      </trkpt>
      <trkpt lat="50.54734" lon="5.67068">
        <ele>287</ele>
        <time>2016-06-19T11:28:53Z</time>
      </trkpt>
      <trkpt lat="50.54729" lon="5.67053">
        <ele>287</ele>
        <time>2016-06-19T11:30:53Z</time>
      </trkpt>
      <trkpt lat="50.54717" lon="5.67039">
        <ele>286</ele>
        <time>2016-06-19T11:32:53Z</time>
      </trkpt>
      <trkpt lat="50.54715" lon="5.67036">
        <ele>286</ele>
        <time>2016-06-19T11:34:53Z</time>
      </trkpt>
      <trkpt lat="50.54714" lon="5.67035">
        <ele>286</ele>
        <time>2016-06-19T11:36:53Z</time>
      </trkpt>
      <trkpt lat="50.5471" lon="5.67032">
        <ele>286</ele>
        <time>2016-06-19T11:38:53Z</time>
      </trkpt>
      <trkpt lat="50.54693" lon="5.67017">
        <ele>285</ele>
        <time>2016-06-19T11:40:53Z</time>
      </trkpt>
      <trkpt lat="50.54677" lon="5.67">
        <ele>285</ele>
        <time>2016-06-19T11:42:53Z</time>
      </trkpt>
      <trkpt lat="50.54661" lon="5.66985">
        <ele>284</ele>
        <time>2016-06-19T11:44:53Z</time>
      </trkpt>
      <trkpt lat="50.54619" lon="5.66951">
        <ele>279</ele>
        <time>2016-06-19T11:46:53Z</time>
      </trkpt>
      <trkpt lat="50.54604" lon="5.66936">
        <ele>277</ele>
        <time>2016-06-19T11:48:53Z</time>
      </trkpt>
      <trkpt lat="50.54597" lon="5.66929">
        <ele>277</ele>
        <time>2016-06-19T11:50:53Z</time>
      </trkpt>
      <trkpt lat="50.54582" lon="5.66913">
        <ele>275</ele>
        <time>2016-06-19T11:52:53Z</time>
      </trkpt>
      <trkpt lat="50.54568" lon="5.66897">
        <ele>274</ele>
        <time>2016-06-19T11:54:53Z</time>
      </trkpt>
      <trkpt lat="50.54539" lon="5.66863">
        <ele>271</ele>
        <time>2016-06-19T11:56:53Z</time>
      </trkpt>
      <trkpt lat="50.54517" lon="5.66835">
        <ele>269</ele>
        <time>2016-06-19T11:58:53Z</time>
      </trkpt>
      <trkpt lat="50.54501" lon="5.66815">
        <ele>267</ele>
        <time>2016-06-19T12:00:53Z</time>
      </trkpt>
      <trkpt lat="50.54487" lon="5.66795">
        <ele>267</ele>
        <time>2016-06-19T12:02:53Z</time>
      </trkpt>
      <trkpt lat="50.54458" lon="5.66752">
        <ele>266</ele>
        <time>2016-06-19T12:04:53Z</time>
      </trkpt>
      <trkpt lat="50.54444" lon="5.66729">
        <ele>265</ele>
        <time>2016-06-19T12:06:53Z</time>
      </trkpt>
      <trkpt lat="50.54414" lon="5.66679">
        <ele>264</ele>
        <time>2016-06-19T12:08:53Z</time>
      </trkpt>
      <trkpt lat="50.5437" lon="5.66607">
        <ele>260</ele>
        <time>2016-06-19T12:10:53Z</time>
      </trkpt>
      <trkpt lat="50.54342" lon="5.66562">
        <ele>257</ele>
        <time>2016-06-19T12:12:53Z</time>
      </trkpt>
      <trkpt lat="50.54327" lon="5.6654">
        <ele>257</ele>
        <time>2016-06-19T12:14:53Z</time>
      </trkpt>
      <trkpt lat="50.54312" lon="5.66519">
        <ele>256</ele>
        <time>2016-06-19T12:16:53Z</time>
      </trkpt>
      <trkpt lat="50.54298" lon="5.66494">
        <ele>256</ele>
        <time>2016-06-19T12:18:53Z</time>
      </trkpt>
      <trkpt lat="50.54268" lon="5.66445">
        <ele>253</ele>
        <time>2016-06-19T12:20:53Z</time>
      </trkpt>
      <trkpt lat="50.54253" lon="5.6642">
        <ele>251</ele>
        <time>2016-06-19T12:22:53Z</time>
      </trkpt>
      <trkpt lat="50.5422" lon="5.66367">
        <ele>248</ele>
        <time>2016-06-19T12:24:53Z</time>
      </trkpt>
      <trkpt lat="50.54204" lon="5.6634">
        <ele>245</ele>
        <time>2016-06-19T12:26:53Z</time>
      </trkpt>
      <trkpt lat="50.54181" lon="5.663">
        <ele>244</ele>
        <time>2016-06-19T12:28:53Z</time>
      </trkpt>
      <trkpt lat="50.54167" lon="5.66272">
        <ele>243</ele>
        <time>2016-06-19T12:30:53Z</time>
      </trkpt>
      <trkpt lat="50.54154" lon="5.66246">
        <ele>242</ele>
        <time>2016-06-19T12:32:53Z</time>
      </trkpt>
      <trkpt lat="50.54138" lon="5.66207">
        <ele>241</ele>
        <time>2016-06-19T12:34:53Z</time>
      </trkpt>
      <trkpt lat="50.54116" lon="5.66149">
        <ele>240</ele>
        <time>2016-06-19T12:36:53Z</time>
      </trkpt>
      <trkpt lat="50.54112" lon="5.66138">
        <ele>240</ele>
        <time>2016-06-19T12:38:53Z</time>
      </trkpt>
      <trkpt lat="50.54097" lon="5.66074">
        <ele>240</ele>
        <time>2016-06-19T12:40:53Z</time>
      </trkpt>
      <trkpt lat="50.54096" lon="5.66064">
        <ele>240</ele>
        <time>2016-06-19T12:42:53Z</time>
      </trkpt>
      <trkpt lat="50.54087" lon="5.66007">
        <ele>241</ele>
        <time>2016-06-19T12:44:53Z</time>
      </trkpt>
      <trkpt lat="50.54076" lon="5.65936">
        <ele>243</ele>
        <time>2016-06-19T12:46:53Z</time>
      </trkpt>
      <trkpt lat="50.54067" lon="5.65875">
        <ele>244</ele>
        <time>2016-06-19T12:48:53Z</time>
      </trkpt>
      <trkpt lat="50.54062" lon="5.6584">
        <ele>245</ele>
        <time>2016-06-19T12:50:53Z</time>
      </trkpt>
      <trkpt lat="50.54051" lon="5.65779">
        <ele>247</ele>
        <time>2016-06-19T12:52:53Z</time>
      </trkpt>
      <trkpt lat="50.54041" lon="5.65729">
        <ele>248</ele>
        <time>2016-06-19T12:54:53Z</time>
      </trkpt>
      <trkpt lat="50.54034" lon="5.65694">
        <ele>249</ele>
        <time>2016-06-19T12:56:53Z</time>
      </trkpt>
      <trkpt lat="50.54031" lon="5.65674">
        <ele>250</ele>
        <time>2016-06-19T12:58:53Z</time>
      </trkpt>
      <trkpt lat="50.54017" lon="5.65608">
        <ele>253</ele>
        <time>2016-06-19T13:00:53Z</time>
      </trkpt>
      <trkpt lat="50.54004" lon="5.65549">
        <ele>256</ele>
        <time>2016-06-19T13:02:53Z</time>
      </trkpt>
      <trkpt lat="50.54001" lon="5.65536">
        <ele>256</ele>
        <time>2016-06-19T13:04:53Z</time>
      </trkpt>
      <trkpt lat="50.53994" lon="5.65498">
        <ele>258</ele>
        <time>2016-06-19T13:06:53Z</time>
      </trkpt>
      <trkpt lat="50.53988" lon="5.65472">
        <ele>258</ele>
        <time>2016-06-19T13:08:53Z</time>
      </trkpt>
      <trkpt lat="50.53984" lon="5.65451">
        <ele>258</ele>
        <time>2016-06-19T13:10:53Z</time>
      </trkpt>
      <trkpt lat="50.53979" lon="5.65431">
        <ele>259</ele>
        <time>2016-06-19T13:12:53Z</time>
      </trkpt>
      <trkpt lat="50.53971" lon="5.65398">
        <ele>259</ele>
        <time>2016-06-19T13:14:53Z</time>
      </trkpt>
      <trkpt lat="50.53967" lon="5.65377">
        <ele>259</ele>
        <time>2016-06-19T13:16:53Z</time>
      </trkpt>
      <trkpt lat="50.53952" lon="5.65297">
        <ele>258</ele>
        <time>2016-06-19T13:18:53Z</time>
      </trkpt>
      <trkpt lat="50.53947" lon="5.65258">
        <ele>258</ele>
        <time>2016-06-19T13:20:53Z</time>
      </trkpt>
      <trkpt lat="50.53944" lon="5.65224">
        <ele>257</ele>
        <time>2016-06-19T13:22:53Z</time>
      </trkpt>
      <trkpt lat="50.53944" lon="5.65167">
        <ele>257</ele>
        <time>2016-06-19T13:24:53Z</time>
      </trkpt>
      <trkpt lat="50.53943" lon="5.65147">
        <ele>257</ele>
        <time>2016-06-19T13:26:53Z</time>
      </trkpt>
      <trkpt lat="50.53942" lon="5.65105">
        <ele>256</ele>
        <time>2016-06-19T13:28:53Z</time>
      </trkpt>
      <trkpt lat="50.53941" lon="5.64988">
        <ele>254</ele>
        <time>2016-06-19T13:30:53Z</time>
      </trkpt>
      <trkpt lat="50.5394" lon="5.64966">
        <ele>254</ele>
        <time>2016-06-19T13:32:53Z</time>
      </trkpt>
      <trkpt lat="50.53939" lon="5.64862">
        <ele>252</ele>
        <time>2016-06-19T13:34:53Z</time>
      </trkpt>
      <trkpt lat="50.53937" lon="5.64815">
        <ele>252</ele>
        <time>2016-06-19T13:36:53Z</time>
      </trkpt>
      <trkpt lat="50.53936" lon="5.64754">
        <ele>252</ele>
        <time>2016-06-19T13:38:53Z</time>
      </trkpt>
      <trkpt lat="50.53935" lon="5.64703">
        <ele>252</ele>
        <time>2016-06-19T13:40:53Z</time>
      </trkpt>
      <trkpt lat="50.53934" lon="5.64627">
        <ele>251</ele>
        <time>2016-06-19T13:42:53Z</time>
      </trkpt>
      <trkpt lat="50.53934" lon="5.64613">
        <ele>251</ele>
        <time>2016-06-19T13:44:53Z</time>
      </trkpt>
      <trkpt lat="50.53934" lon="5.64548">
        <ele>249</ele>
        <time>2016-06-19T13:46:53Z</time>
      </trkpt>
      <trkpt lat="50.53933" lon="5.64535">
        <ele>249</ele>
        <time>2016-06-19T13:48:53Z</time>
      </trkpt>
      <trkpt lat="50.53928" lon="5.64452">
        <ele>249</ele>
        <time>2016-06-19T13:50:53Z</time>
      </trkpt>
      <trkpt lat="50.53911" lon="5.64308">
        <ele>248</ele>
        <time>2016-06-19T13:52:53Z</time>
      </trkpt>
      <trkpt lat="50.53906" lon="5.64263">
        <ele>248</ele>
        <time>2016-06-19T13:54:53Z</time>
      </trkpt>
      <trkpt lat="50.539" lon="5.64208">
        <ele>249</ele>
        <time>2016-06-19T13:56:53Z</time>
      </trkpt>
      <trkpt lat="50.53888" lon="5.64121">
        <ele>249</ele>
        <time>2016-06-19T13:58:53Z</time>
      </trkpt>
      <trkpt lat="50.53876" lon="5.64036">
        <ele>250</ele>
        <time>2016-06-19T14:00:53Z</time>
      </trkpt>
      <trkpt lat="50.53862" lon="5.63969">
        <ele>251</ele>
        <time>2016-06-19T14:02:53Z</time>
      </trkpt>
      <trkpt lat="50.53838" lon="5.63885">
        <ele>251</ele>
        <time>2016-06-19T14:04:53Z</time>
      </trkpt>
      <trkpt lat="50.53806" lon="5.63818">
        <ele>250</ele>
        <time>2016-06-19T14:06:53Z</time>
      </trkpt>
      <trkpt lat="50.5377" lon="5.63754">
        <ele>249</ele>
        <time>2016-06-19T14:08:53Z</time>
      </trkpt>
      <trkpt lat="50.53766" lon="5.63745">
        <ele>249</ele>
        <time>2016-06-19T14:10:53Z</time>
      </trkpt>
      <trkpt lat="50.53737" lon="5.63675">
        <ele>249</ele>
        <time>2016-06-19T14:12:53Z</time>
      </trkpt>
      <trkpt lat="50.53712" lon="5.63601">
        <ele>249</ele>
        <time>2016-06-19T14:14:53Z</time>
      </trkpt>
      <trkpt lat="50.53695" lon="5.63556">
        <ele>249</ele>
        <time>2016-06-19T14:16:53Z</time>
      </trkpt>
      <trkpt lat="50.53684" lon="5.63528">
        <ele>249</ele>
        <time>2016-06-19T14:18:53Z</time>
      </trkpt>
      <trkpt lat="50.53652" lon="5.63455">
        <ele>249</ele>
        <time>2016-06-19T14:20:53Z</time>
      </trkpt>
      <trkpt lat="50.53635" lon="5.634">
        <ele>250</ele>
        <time>2016-06-19T14:22:53Z</time>
      </trkpt>
      <trkpt lat="50.53616" lon="5.63332">
        <ele>250</ele>
        <time>2016-06-19T14:24:53Z</time>
      </trkpt>
      <trkpt lat="50.53608" lon="5.63298">
        <ele>251</ele>
        <time>2016-06-19T14:26:53Z</time>
      </trkpt>
      <trkpt lat="50.5361" lon="5.63291">
        <ele>251</ele>
        <time>2016-06-19T14:28:53Z</time>
      </trkpt>
      <trkpt lat="50.53624" lon="5.63277">
        <ele>251</ele>
        <time>2016-06-19T14:30:53Z</time>
      </trkpt>
      <trkpt lat="50.53633" lon="5.63263">
        <ele>251</ele>
        <time>2016-06-19T14:32:53Z</time>
      </trkpt>
      <trkpt lat="50.53637" lon="5.63256">
        <ele>251</ele>
        <time>2016-06-19T14:34:53Z</time>
      </trkpt>
      <trkpt lat="50.53676" lon="5.63191">
        <ele>250</ele>
        <time>2016-06-19T14:36:53Z</time>
      </trkpt>
      <trkpt lat="50.53703" lon="5.63134">
        <ele>248</ele>
        <time>2016-06-19T14:38:53Z</time>
      </trkpt>
      <trkpt lat="50.5371" lon="5.63113">
        <ele>248</ele>
        <time>2016-06-19T14:40:53Z</time>
      </trkpt>
      <trkpt lat="50.53712" lon="5.63087">
        <ele>247</ele>
        <time>2016-06-19T14:42:53Z</time>
      </trkpt>
      <trkpt lat="50.53711" lon="5.63064">
        <ele>247</ele>
        <time>2016-06-19T14:44:53Z</time>
      </trkpt>
      <trkpt lat="50.5371" lon="5.63028">
        <ele>247</ele>
        <time>2016-06-19T14:46:53Z</time>
      </trkpt>
      <trkpt lat="50.53712" lon="5.63003">
        <ele>247</ele>
        <time>2016-06-19T14:48:53Z</time>
      </trkpt>
      <trkpt lat="50.53738" lon="5.62927">
        <ele>242</ele>
        <time>2016-06-19T14:50:53Z</time>
      </trkpt>
      <trkpt lat="50.53745" lon="5.629">
        <ele>240</ele>
        <time>2016-06-19T14:52:53Z</time>
      </trkpt>
      <trkpt lat="50.53749" lon="5.62871">
        <ele>239</ele>
        <time>2016-06-19T14:54:53Z</time>
      </trkpt>
      <trkpt lat="50.53748" lon="5.62841">
        <ele>238</ele>
        <time>2016-06-19T14:56:53Z</time>
      </trkpt>
      <trkpt lat="50.53747" lon="5.62811">
        <ele>238</ele>
        <time>2016-06-19T14:58:53Z</time>
      </trkpt>
      <trkpt lat="50.53744" lon="5.62781">
        <ele>237</ele>
        <time>2016-06-19T15:00:53Z</time>
      </trkpt>
      <trkpt lat="50.53741" lon="5.62767">
        <ele>237</ele>
        <time>2016-06-19T15:02:53Z</time>
      </trkpt>
      <trkpt lat="50.53738" lon="5.62754">
        <ele>237</ele>
        <time>2016-06-19T15:04:53Z</time>
      </trkpt>
      <trkpt lat="50.53733" lon="5.62727">
        <ele>237</ele>
        <time>2016-06-19T15:06:53Z</time>
      </trkpt>
      <trkpt lat="50.53733" lon="5.62713">
        <ele>236</ele>
        <time>2016-06-19T15:08:53Z</time>
      </trkpt>
      <trkpt lat="50.53736" lon="5.62683">
        <ele>235</ele>
        <time>2016-06-19T15:10:53Z</time>
      </trkpt>
      <trkpt lat="50.53741" lon="5.62652">
        <ele>234</ele>
        <time>2016-06-19T15:12:53Z</time>
      </trkpt>
      <trkpt lat="50.53743" lon="5.62636">
        <ele>232</ele>
        <time>2016-06-19T15:14:53Z</time>
      </trkpt>
      <trkpt lat="50.53748" lon="5.62603">
        <ele>230</ele>
        <time>2016-06-19T15:16:53Z</time>
      </trkpt>
      <trkpt lat="50.5375" lon="5.62569">
        <ele>228</ele>
        <time>2016-06-19T15:18:53Z</time>
      </trkpt>
      <trkpt lat="50.5375" lon="5.62536">
        <ele>227</ele>
        <time>2016-06-19T15:20:53Z</time>
      </trkpt>
      <trkpt lat="50.5375" lon="5.62485">
        <ele>225</ele>
        <time>2016-06-19T15:22:53Z</time>
      </trkpt>
      <trkpt lat="50.5375" lon="5.62467">
        <ele>225</ele>
        <time>2016-06-19T15:24:53Z</time>
      </trkpt>
      <trkpt lat="50.53747" lon="5.62432">
        <ele>224</ele>
        <time>2016-06-19T15:26:53Z</time>
      </trkpt>
      <trkpt lat="50.53735" lon="5.62288">
        <ele>219</ele>
        <time>2016-06-19T15:28:53Z</time>
      </trkpt>
      <trkpt lat="50.53729" lon="5.62215">
        <ele>215</ele>
        <time>2016-06-19T15:30:53Z</time>
      </trkpt>
      <trkpt lat="50.53718" lon="5.62085">
        <ele>209</ele>
        <time>2016-06-19T15:32:53Z</time>
      </trkpt>
      <trkpt lat="50.53707" lon="5.61958">
        <ele>205</ele>
        <time>2016-06-19T15:34:53Z</time>
      </trkpt>
      <trkpt lat="50.53704" lon="5.61924">
        <ele>204</ele>
        <time>2016-06-19T15:36:53Z</time>
      </trkpt>
      <trkpt lat="50.537" lon="5.61895">
        <ele>203</ele>
        <time>2016-06-19T15:38:53Z</time>
      </trkpt>
      <trkpt lat="50.53684" lon="5.61859">
        <ele>202</ele>
        <time>2016-06-19T15:40:53Z</time>
      </trkpt>
      <trkpt lat="50.53667" lon="5.61842">
        <ele>201</ele>
        <time>2016-06-19T15:42:53Z</time>
      </trkpt>
      <trkpt lat="50.53648" lon="5.61826">
        <ele>202</ele>
        <time>2016-06-19T15:44:53Z</time>
      </trkpt>
      <trkpt lat="50.53639" lon="5.61816">
        <ele>203</ele>
        <time>2016-06-19T15:46:53Z</time>
      </trkpt>
      <trkpt lat="50.53633" lon="5.61805">
        <ele>203</ele>
        <time>2016-06-19T15:48:53Z</time>
      </trkpt>
      <trkpt lat="50.53626" lon="5.61793">
        <ele>204</ele>
        <time>2016-06-19T15:50:53Z</time>
      </trkpt>
      <trkpt lat="50.53624" lon="5.61778">
        <ele>204</ele>
        <time>2016-06-19T15:52:53Z</time>
      </trkpt>
      <trkpt lat="50.53625" lon="5.61763">
        <ele>204</ele>
        <time>2016-06-19T15:54:53Z</time>
      </trkpt>
      <trkpt lat="50.53628" lon="5.61749">
        <ele>204</ele>
        <time>2016-06-19T15:56:53Z</time>
      </trkpt>
      <trkpt lat="50.5364" lon="5.61727">
        <ele>203</ele>
        <time>2016-06-19T15:58:53Z</time>
      </trkpt>
      <trkpt lat="50.53658" lon="5.61713">
        <ele>200</ele>
        <time>2016-06-19T16:00:53Z</time>
      </trkpt>
      <trkpt lat="50.53676" lon="5.61701">
        <ele>198</ele>
        <time>2016-06-19T16:02:53Z</time>
      </trkpt>
      <trkpt lat="50.53695" lon="5.61686">
        <ele>196</ele>
        <time>2016-06-19T16:04:53Z</time>
      </trkpt>
      <trkpt lat="50.53722" lon="5.61658">
        <ele>194</ele>
        <time>2016-06-19T16:06:53Z</time>
      </trkpt>
      <trkpt lat="50.53751" lon="5.61629">
        <ele>192</ele>
        <time>2016-06-19T16:08:53Z</time>
      </trkpt>
      <trkpt lat="50.5377" lon="5.61608">
        <ele>192</ele>
        <time>2016-06-19T16:10:53Z</time>
      </trkpt>
      <trkpt lat="50.53778" lon="5.61596">
        <ele>192</ele>
        <time>2016-06-19T16:12:53Z</time>
      </trkpt>
      <trkpt lat="50.53787" lon="5.61583">
        <ele>192</ele>
        <time>2016-06-19T16:14:53Z</time>
      </trkpt>
      <trkpt lat="50.53803" lon="5.61555">
        <ele>191</ele>
        <time>2016-06-19T16:16:53Z</time>
      </trkpt>
      <trkpt lat="50.53819" lon="5.61528">
        <ele>190</ele>
        <time>2016-06-19T16:18:53Z</time>
      </trkpt>
      <trkpt lat="50.53837" lon="5.61502">
        <ele>188</ele>
        <time>2016-06-19T16:20:53Z</time>
      </trkpt>
      <trkpt lat="50.53872" lon="5.61452">
        <ele>187</ele>
        <time>2016-06-19T16:22:53Z</time>
      </trkpt>
      <trkpt lat="50.53888" lon="5.6143">
        <ele>187</ele>
        <time>2016-06-19T16:24:53Z</time>
      </trkpt>
      <trkpt lat="50.53904" lon="5.6141">
        <ele>186</ele>
        <time>2016-06-19T16:26:53Z</time>
      </trkpt>
      <trkpt lat="50.5392" lon="5.61393">
        <ele>185</ele>
        <time>2016-06-19T16:28:53Z</time>
      </trkpt>
      <trkpt lat="50.53929" lon="5.61386">
        <ele>186</ele>
        <time>2016-06-19T16:30:53Z</time>
      </trkpt>
      <trkpt lat="50.53949" lon="5.61375">
        <ele>187</ele>
        <time>2016-06-19T16:32:53Z</time>
      </trkpt>
      <trkpt lat="50.53958" lon="5.6137">
        <ele>187</ele>
        <time>2016-06-19T16:34:53Z</time>
      </trkpt>
      <trkpt lat="50.53976" lon="5.61353">
        <ele>187</ele>
        <time>2016-06-19T16:36:53Z</time>
      </trkpt>
      <trkpt lat="50.53983" lon="5.61341">
        <ele>186</ele>
        <time>2016-06-19T16:38:53Z</time>
      </trkpt>
      <trkpt lat="50.53989" lon="5.61311">
        <ele>184</ele>
        <time>2016-06-19T16:40:53Z</time>
      </trkpt>
      <trkpt lat="50.54" lon="5.61211">
        <ele>178</ele>
        <time>2016-06-19T16:42:53Z</time>
      </trkpt>
      <trkpt lat="50.54012" lon="5.61143">
        <ele>176</ele>
        <time>2016-06-19T16:44:53Z</time>
      </trkpt>
      <trkpt lat="50.54023" lon="5.61109">
        <ele>176</ele>
        <time>2016-06-19T16:46:53Z</time>
      </trkpt>
      <trkpt lat="50.54036" lon="5.61077">
        <ele>177</ele>
        <time>2016-06-19T16:48:53Z</time>
      </trkpt>
      <trkpt lat="50.54057" lon="5.61029">
        <ele>177</ele>
        <time>2016-06-19T16:50:53Z</time>
      </trkpt>
      <trkpt lat="50.54064" lon="5.61012">
        <ele>177</ele>
        <time>2016-06-19T16:52:53Z</time>
      </trkpt>
      <trkpt lat="50.54081" lon="5.60965">
        <ele>176</ele>
        <time>2016-06-19T16:54:53Z</time>
      </trkpt>
      <trkpt lat="50.54087" lon="5.60951">
        <ele>176</ele>
        <time>2016-06-19T16:56:53Z</time>
      </trkpt>
      <trkpt lat="50.54102" lon="5.60929">
        <ele>175</ele>
        <time>2016-06-19T16:58:53Z</time>
      </trkpt>
      <trkpt lat="50.5413" lon="5.60916">
        <ele>174</ele>
        <time>2016-06-19T17:00:53Z</time>
      </trkpt>
      <trkpt lat="50.5415" lon="5.60914">
        <ele>174</ele>
        <time>2016-06-19T17:02:53Z</time>
      </trkpt>
      <trkpt lat="50.54192" lon="5.60918">
        <ele>173</ele>
        <time>2016-06-19T17:04:53Z</time>
      </trkpt>
      <trkpt lat="50.54213" lon="5.60919">
        <ele>172</ele>
        <time>2016-06-19T17:06:53Z</time>
      </trkpt>
      <trkpt lat="50.54224" lon="5.60918">
        <ele>171</ele>
        <time>2016-06-19T17:08:53Z</time>
      </trkpt>
      <trkpt lat="50.54234" lon="5.60914">
        <ele>171</ele>
        <time>2016-06-19T17:10:53Z</time>
      </trkpt>
      <trkpt lat="50.54253" lon="5.60899">
        <ele>169</ele>
        <time>2016-06-19T17:12:53Z</time>
      </trkpt>
      <trkpt lat="50.54261" lon="5.60889">
        <ele>168</ele>
        <time>2016-06-19T17:14:53Z</time>
      </trkpt>
      <trkpt lat="50.54268" lon="5.60876">
        <ele>167</ele>
        <time>2016-06-19T17:16:53Z</time>
      </trkpt>
      <trkpt lat="50.54273" lon="5.6086">
        <ele>166</ele>
        <time>2016-06-19T17:18:53Z</time>
      </trkpt>
      <trkpt lat="50.54278" lon="5.60827">
        <ele>164</ele>
        <time>2016-06-19T17:20:53Z</time>
      </trkpt>
      <trkpt lat="50.5428" lon="5.6081">
        <ele>164</ele>
        <time>2016-06-19T17:22:53Z</time>
      </trkpt>
      <trkpt lat="50.54285" lon="5.60723">
        <ele>164</ele>
        <time>2016-06-19T17:24:53Z</time>
      </trkpt>
      <trkpt lat="50.54285" lon="5.60705">
        <ele>164</ele>
        <time>2016-06-19T17:26:53Z</time>
      </trkpt>
      <trkpt lat="50.54288" lon="5.60669">
        <ele>163</ele>
        <time>2016-06-19T17:28:53Z</time>
      </trkpt>
      <trkpt lat="50.5429" lon="5.6065">
        <ele>163</ele>
        <time>2016-06-19T17:30:53Z</time>
      </trkpt>
      <trkpt lat="50.54295" lon="5.60612">
        <ele>163</ele>
        <time>2016-06-19T17:32:53Z</time>
      </trkpt>
      <trkpt lat="50.54304" lon="5.60575">
        <ele>162</ele>
        <time>2016-06-19T17:34:53Z</time>
      </trkpt>
      <trkpt lat="50.5433" lon="5.60487">
        <ele>159</ele>
        <time>2016-06-19T17:36:53Z</time>
      </trkpt>
      <trkpt lat="50.54333" lon="5.6047">
        <ele>158</ele>
        <time>2016-06-19T17:38:53Z</time>
      </trkpt>
      <trkpt lat="50.54335" lon="5.60432">
        <ele>158</ele>
        <time>2016-06-19T17:40:53Z</time>
      </trkpt>
      <trkpt lat="50.54333" lon="5.60394">
        <ele>158</ele>
        <time>2016-06-19T17:42:53Z</time>
      </trkpt>
      <trkpt lat="50.54332" lon="5.60376">
        <ele>158</ele>
        <time>2016-06-19T17:44:53Z</time>
      </trkpt>
      <trkpt lat="50.54332" lon="5.60358">
        <ele>158</ele>
        <time>2016-06-19T17:46:53Z</time>
      </trkpt>
      <trkpt lat="50.54335" lon="5.60322">
        <ele>158</ele>
        <time>2016-06-19T17:48:53Z</time>
      </trkpt>
      <trkpt lat="50.54342" lon="5.60285">
        <ele>159</ele>
        <time>2016-06-19T17:50:53Z</time>
      </trkpt>
      <trkpt lat="50.54361" lon="5.60215">
        <ele>157</ele>
        <time>2016-06-19T17:52:53Z</time>
      </trkpt>
      <trkpt lat="50.5438" lon="5.60167">
        <ele>155</ele>
        <time>2016-06-19T17:54:53Z</time>
      </trkpt>
      <trkpt lat="50.54387" lon="5.60154">
        <ele>155</ele>
        <time>2016-06-19T17:56:53Z</time>
      </trkpt>
      <trkpt lat="50.54412" lon="5.6012">
        <ele>156</ele>
        <time>2016-06-19T17:58:53Z</time>
      </trkpt>
      <trkpt lat="50.5442" lon="5.60112">
        <ele>156</ele>
        <time>2016-06-19T18:00:53Z</time>
      </trkpt>
      <trkpt lat="50.54446" lon="5.60111">
        <ele>155</ele>
        <time>2016-06-19T18:02:53Z</time>
      </trkpt>
      <trkpt lat="50.54488" lon="5.60133">
        <ele>150</ele>
        <time>2016-06-19T18:04:53Z</time>
      </trkpt>
      <trkpt lat="50.54512" lon="5.60142">
        <ele>146</ele>
        <time>2016-06-19T18:06:53Z</time>
      </trkpt>
      <trkpt lat="50.54524" lon="5.60146">
        <ele>143</ele>
        <time>2016-06-19T18:08:53Z</time>
      </trkpt>
      <trkpt lat="50.5457" lon="5.60155">
        <ele>132</ele>
        <time>2016-06-19T18:10:53Z</time>
      </trkpt>
      <trkpt lat="50.54589" lon="5.60143">
        <ele>130</ele>
        <time>2016-06-19T18:12:53Z</time>
      </trkpt>
      <trkpt lat="50.54606" lon="5.6012">
        <ele>132</ele>
        <time>2016-06-19T18:14:53Z</time>
      </trkpt>
      <trkpt lat="50.54612" lon="5.60103">
        <ele>132</ele>
        <time>2016-06-19T18:16:53Z</time>
      </trkpt>
      <trkpt lat="50.54621" lon="5.60067">
        <ele>133</ele>
        <time>2016-06-19T18:18:53Z</time>
      </trkpt>
      <trkpt lat="50.54633" lon="5.60011">
        <ele>132</ele>
        <time>2016-06-19T18:20:53Z</time>
      </trkpt>
      <trkpt lat="50.54664" lon="5.59884">
        <ele>118</ele>
        <time>2016-06-19T18:22:53Z</time>
      </trkpt>
      <trkpt lat="50.54668" lon="5.59866">
        <ele>116</ele>
        <time>2016-06-19T18:24:53Z</time>
      </trkpt>
      <trkpt lat="50.54679" lon="5.59816">
        <ele>117</ele>
        <time>2016-06-19T18:26:53Z</time>
      </trkpt>
      <trkpt lat="50.54681" lon="5.598">
        <ele>117</ele>
        <time>2016-06-19T18:28:53Z</time>
      </trkpt>
      <trkpt lat="50.54675" lon="5.59767">
        <ele>114</ele>
        <time>2016-06-19T18:30:53Z</time>
      </trkpt>
      <trkpt lat="50.54669" lon="5.59751">
        <ele>112</ele>
        <time>2016-06-19T18:32:53Z</time>
      </trkpt>
      <trkpt lat="50.54653" lon="5.59705">
        <ele>114</ele>
        <time>2016-06-19T18:34:53Z</time>
      </trkpt>
      <trkpt lat="50.54649" lon="5.59688">
        <ele>114</ele>
        <time>2016-06-19T18:36:53Z</time>
      </trkpt>
      <trkpt lat="50.54646" lon="5.5967">
        <ele>114</ele>
        <time>2016-06-19T18:38:53Z</time>
      </trkpt>
      <trkpt lat="50.54641" lon="5.59615">
        <ele>116</ele>
        <time>2016-06-19T18:40:53Z</time>
      </trkpt>
      <trkpt lat="50.54639" lon="5.59576">
        <ele>117</ele>
        <time>2016-06-19T18:42:53Z</time>
      </trkpt>
      <trkpt lat="50.5464" lon="5.59556">
        <ele>117</ele>
        <time>2016-06-19T18:44:53Z</time>
      </trkpt>
      <trkpt lat="50.54643" lon="5.59535">
        <ele>116</ele>
        <time>2016-06-19T18:46:53Z</time>
      </trkpt>
      <trkpt lat="50.54657" lon="5.5948">
        <ele>112</ele>
        <time>2016-06-19T18:48:53Z</time>
      </trkpt>
      <trkpt lat="50.54675" lon="5.59425">
        <ele>109</ele>
        <time>2016-06-19T18:50:53Z</time>
      </trkpt>
      <trkpt lat="50.5469" lon="5.59371">
        <ele>110</ele>
        <time>2016-06-19T18:52:53Z</time>
      </trkpt>
      <trkpt lat="50.54698" lon="5.59338">
        <ele>109</ele>
        <time>2016-06-19T18:54:53Z</time>
      </trkpt>
      <trkpt lat="50.54701" lon="5.59321">
        <ele>107</ele>
        <time>2016-06-19T18:56:53Z</time>
      </trkpt>
      <trkpt lat="50.54702" lon="5.59304">
        <ele>105</ele>
        <time>2016-06-19T18:58:53Z</time>
      </trkpt>
      <trkpt lat="50.54702" lon="5.59226">
        <ele>94</ele>
        <time>2016-06-19T19:00:53Z</time>
      </trkpt>
      <trkpt lat="50.547" lon="5.59157">
        <ele>86</ele>
        <time>2016-06-19T19:02:53Z</time>
      </trkpt>
      <trkpt lat="50.54698" lon="5.59142">
        <ele>85</ele>
        <time>2016-06-19T19:04:53Z</time>
      </trkpt>
      <trkpt lat="50.54693" lon="5.59117">
        <ele>84</ele>
        <time>2016-06-19T19:06:53Z</time>
      </trkpt>
      <trkpt lat="50.5469" lon="5.59108">
        <ele>83</ele>
        <time>2016-06-19T19:08:53Z</time>
      </trkpt>
      <trkpt lat="50.54686" lon="5.59091">
        <ele>83</ele>
        <time>2016-06-19T19:10:53Z</time>
      </trkpt>
      <trkpt lat="50.54687" lon="5.59081">
        <ele>82</ele>
        <time>2016-06-19T19:12:53Z</time>
      </trkpt>
      <trkpt lat="50.54689" lon="5.59077">
        <ele>82</ele>
        <time>2016-06-19T19:14:53Z</time>
      </trkpt>
      <trkpt lat="50.54692" lon="5.59074">
        <ele>82</ele>
        <time>2016-06-19T19:16:53Z</time>
      </trkpt>
      <trkpt lat="50.54695" lon="5.59075">
        <ele>82</ele>
        <time>2016-06-19T19:18:53Z</time>
      </trkpt>
      <trkpt lat="50.54698" lon="5.59073">
        <ele>82</ele>
        <time>2016-06-19T19:20:53Z</time>
      </trkpt>
      <trkpt lat="50.54703" lon="5.59071">
        <ele>82</ele>
        <time>2016-06-19T19:22:53Z</time>
      </trkpt>
      <trkpt lat="50.54706" lon="5.59071">
        <ele>82</ele>
        <time>2016-06-19T19:24:53Z</time>
      </trkpt>
      <trkpt lat="50.54712" lon="5.59069">
        <ele>82</ele>
        <time>2016-06-19T19:26:53Z</time>
      </trkpt>
      <trkpt lat="50.5472" lon="5.59065">
        <ele>82</ele>
        <time>2016-06-19T19:28:53Z</time>
      </trkpt>
      <trkpt lat="50.54727" lon="5.59063">
        <ele>82</ele>
        <time>2016-06-19T19:30:53Z</time>
      </trkpt>
      <trkpt lat="50.54734" lon="5.5906">
        <ele>82</ele>
        <time>2016-06-19T19:32:53Z</time>
      </trkpt>
      <trkpt lat="50.54742" lon="5.59057">
        <ele>82</ele>
        <time>2016-06-19T19:34:53Z</time>
      </trkpt>
      <trkpt lat="50.54756" lon="5.59054">
        <ele>82</ele>
        <time>2016-06-19T19:36:53Z</time>
      </trkpt>
      <trkpt lat="50.54783" lon="5.59045">
        <ele>84</ele>
        <time>2016-06-19T19:38:53Z</time>
      </trkpt>
      <trkpt lat="50.54822" lon="5.59026">
        <ele>85</ele>
        <time>2016-06-19T19:40:53Z</time>
      </trkpt>
      <trkpt lat="50.54848" lon="5.59012">
        <ele>85</ele>
        <time>2016-06-19T19:42:53Z</time>
      </trkpt>
      <trkpt lat="50.54885" lon="5.58991">
        <ele>86</ele>
        <time>2016-06-19T19:44:53Z</time>
      </trkpt>
      <trkpt lat="50.5494" lon="5.58958">
        <ele>88</ele>
        <time>2016-06-19T19:46:53Z</time>
      </trkpt>
      <trkpt lat="50.54988" lon="5.58929">
        <ele>89</ele>
        <time>2016-06-19T19:48:53Z</time>
      </trkpt>
      <trkpt lat="50.55057" lon="5.58888">
        <ele>92</ele>
        <time>2016-06-19T19:50:53Z</time>
      </trkpt>
      <trkpt lat="50.55095" lon="5.58866">
        <ele>94</ele>
        <time>2016-06-19T19:52:53Z</time>
      </trkpt>
      <trkpt lat="50.55131" lon="5.58841">
        <ele>95</ele>
        <time>2016-06-19T19:54:53Z</time>
      </trkpt>
      <trkpt lat="50.55164" lon="5.58811">
        <ele>96</ele>
        <time>2016-06-19T19:56:53Z</time>
      </trkpt>
      <trkpt lat="50.55207" lon="5.58765">
        <ele>100</ele>
        <time>2016-06-19T19:58:53Z</time>
      </trkpt>
      <trkpt lat="50.55236" lon="5.58727">
        <ele>98</ele>
        <time>2016-06-19T20:00:53Z</time>
      </trkpt>
      <trkpt lat="50.55246" lon="5.58714">
        <ele>97</ele>
        <time>2016-06-19T20:02:53Z</time>
      </trkpt>
      <trkpt lat="50.55284" lon="5.58659">
        <ele>94</ele>
        <time>2016-06-19T20:04:53Z</time>
      </trkpt>
      <trkpt lat="50.55306" lon="5.58623">
        <ele>94</ele>
        <time>2016-06-19T20:06:53Z</time>
      </trkpt>
      <trkpt lat="50.55316" lon="5.58609">
        <ele>94</ele>
        <time>2016-06-19T20:08:53Z</time>
      </trkpt>
      <trkpt lat="50.55351" lon="5.58543">
        <ele>89</ele>
        <time>2016-06-19T20:10:53Z</time>
      </trkpt>
      <trkpt lat="50.55395" lon="5.58457">
        <ele>84</ele>
        <time>2016-06-19T20:12:53Z</time>
      </trkpt>
      <trkpt lat="50.55403" lon="5.58439">
        <ele>84</ele>
        <time>2016-06-19T20:14:53Z</time>
      </trkpt>
      <trkpt lat="50.55421" lon="5.58403">
        <ele>84</ele>
        <time>2016-06-19T20:16:53Z</time>
      </trkpt>
      <trkpt lat="50.55454" lon="5.58341">
        <ele>87</ele>
        <time>2016-06-19T20:18:53Z</time>
      </trkpt>
      <trkpt lat="50.55469" lon="5.58316">
        <ele>88</ele>
        <time>2016-06-19T20:20:53Z</time>
      </trkpt>
      <trkpt lat="50.55496" lon="5.58275">
        <ele>88</ele>
        <time>2016-06-19T20:22:53Z</time>
      </trkpt>
      <trkpt lat="50.55511" lon="5.58251">
        <ele>89</ele>
        <time>2016-06-19T20:24:53Z</time>
      </trkpt>
      <trkpt lat="50.55533" lon="5.58219">
        <ele>92</ele>
        <time>2016-06-19T20:26:53Z</time>
      </trkpt>
      <trkpt lat="50.55538" lon="5.5821">
        <ele>93</ele>
        <time>2016-06-19T20:28:53Z</time>
      </trkpt>
      <trkpt lat="50.55571" lon="5.58143">
        <ele>94</ele>
        <time>2016-06-19T20:30:53Z</time>
      </trkpt>
      <trkpt lat="50.55596" lon="5.58067">
        <ele>95</ele>
        <time>2016-06-19T20:32:53Z</time>
      </trkpt>
      <trkpt lat="50.55618" lon="5.57975">
        <ele>94</ele>
        <time>2016-06-19T20:34:53Z</time>
      </trkpt>
      <trkpt lat="50.55644" lon="5.57874">
        <ele>93</ele>
        <time>2016-06-19T20:36:53Z</time>
      </trkpt>
      <trkpt lat="50.55666" lon="5.57795">
        <ele>89</ele>
        <time>2016-06-19T20:38:53Z</time>
      </trkpt>
      <trkpt lat="50.55673" lon="5.57773">
        <ele>89</ele>
        <time>2016-06-19T20:40:53Z</time>
      </trkpt>
      <trkpt lat="50.55676" lon="5.57762">
        <ele>88</ele>
        <time>2016-06-19T20:42:53Z</time>
      </trkpt>
      <trkpt lat="50.55695" lon="5.57698">
        <ele>84</ele>
        <time>2016-06-19T20:44:53Z</time>
      </trkpt>
      <trkpt lat="50.55704" lon="5.5768">
        <ele>82</ele>
        <time>2016-06-19T20:46:53Z</time>
      </trkpt>
      <trkpt lat="50.55726" lon="5.57636">
        <ele>82</ele>
        <time>2016-06-19T20:48:53Z</time>
      </trkpt>
      <trkpt lat="50.55754" lon="5.57601">
        <ele>82</ele>
        <time>2016-06-19T20:50:53Z</time>
      </trkpt>
      <trkpt lat="50.55793" lon="5.57569">
        <ele>82</ele>
        <time>2016-06-19T20:52:53Z</time>
      </trkpt>
      <trkpt lat="50.55846" lon="5.57534">
        <ele>80</ele>
        <time>2016-06-19T20:54:53Z</time>
      </trkpt>
      <trkpt lat="50.55893" lon="5.57507">
        <ele>78</ele>
        <time>2016-06-19T20:56:53Z</time>
      </trkpt>
      <trkpt lat="50.55947" lon="5.57487">
        <ele>79</ele>
        <time>2016-06-19T20:58:53Z</time>
      </trkpt>
      <trkpt lat="50.55995" lon="5.57476">
        <ele>80</ele>
        <time>2016-06-19T21:00:53Z</time>
      </trkpt>
      <trkpt lat="50.5605" lon="5.5747">
        <ele>80</ele>
        <time>2016-06-19T21:02:53Z</time>
      </trkpt>
      <trkpt lat="50.56092" lon="5.57468">
        <ele>80</ele>
        <time>2016-06-19T21:04:53Z</time>
      </trkpt>
      <trkpt lat="50.56142" lon="5.57473">
        <ele>80</ele>
        <time>2016-06-19T21:06:53Z</time>
      </trkpt>
      <trkpt lat="50.56199" lon="5.57487">
        <ele>79</ele>
        <time>2016-06-19T21:08:53Z</time>
      </trkpt>
      <trkpt lat="50.56227" lon="5.57498">
        <ele>79</ele>
        <time>2016-06-19T21:10:53Z</time>
      </trkpt>
      <trkpt lat="50.56247" lon="5.57506">
        <ele>78</ele>
        <time>2016-06-19T21:12:53Z</time>
      </trkpt>
      <trkpt lat="50.56295" lon="5.5753">
        <ele>78</ele>
        <time>2016-06-19T21:14:53Z</time>
      </trkpt>
      <trkpt lat="50.56309" lon="5.57537">
        <ele>78</ele>
        <time>2016-06-19T21:16:53Z</time>
      </trkpt>
      <trkpt lat="50.56336" lon="5.57555">
        <ele>78</ele>
        <time>2016-06-19T21:18:53Z</time>
      </trkpt>
      <trkpt lat="50.56367" lon="5.57582">
        <ele>79</ele>
        <time>2016-06-19T21:20:53Z</time>
      </trkpt>
      <trkpt lat="50.56373" lon="5.57586">
        <ele>79</ele>
        <time>2016-06-19T21:22:53Z</time>
      </trkpt>
      <trkpt lat="50.56408" lon="5.57616">
        <ele>79</ele>
        <time>2016-06-19T21:24:53Z</time>
      </trkpt>
      <trkpt lat="50.56445" lon="5.57653">
        <ele>79</ele>
        <time>2016-06-19T21:26:53Z</time>
      </trkpt>
      <trkpt lat="50.56493" lon="5.57707">
        <ele>77</ele>
        <time>2016-06-19T21:28:53Z</time>
      </trkpt>
      <trkpt lat="50.56507" lon="5.57727">
        <ele>77</ele>
        <time>2016-06-19T21:30:53Z</time>
      </trkpt>
      <trkpt lat="50.56527" lon="5.57755">
        <ele>77</ele>
        <time>2016-06-19T21:32:53Z</time>
      </trkpt>
      <trkpt lat="50.566" lon="5.57867">
        <ele>77</ele>
        <time>2016-06-19T21:34:53Z</time>
      </trkpt>
      <trkpt lat="50.56632" lon="5.5792">
        <ele>77</ele>
        <time>2016-06-19T21:36:53Z</time>
      </trkpt>
      <trkpt lat="50.5671" lon="5.58073">
        <ele>78</ele>
        <time>2016-06-19T21:38:53Z</time>
      </trkpt>
      <trkpt lat="50.56744" lon="5.58136">
        <ele>78</ele>
        <time>2016-06-19T21:40:53Z</time>
      </trkpt>
      <trkpt lat="50.56752" lon="5.58152">
        <ele>78</ele>
        <time>2016-06-19T21:42:53Z</time>
      </trkpt>
      <trkpt lat="50.56773" lon="5.58192">
        <ele>78</ele>
        <time>2016-06-19T21:44:53Z</time>
      </trkpt>
      <trkpt lat="50.56786" lon="5.58212">
        <ele>78</ele>
        <time>2016-06-19T21:46:53Z</time>
      </trkpt>
      <trkpt lat="50.56803" lon="5.58239">
        <ele>77</ele>
        <time>2016-06-19T21:48:53Z</time>
      </trkpt>
      <trkpt lat="50.56836" lon="5.5829">
        <ele>76</ele>
        <time>2016-06-19T21:50:53Z</time>
      </trkpt>
      <trkpt lat="50.56854" lon="5.58321">
        <ele>76</ele>
        <time>2016-06-19T21:52:53Z</time>
      </trkpt>
      <trkpt lat="50.56861" lon="5.58339">
        <ele>76</ele>
        <time>2016-06-19T21:54:53Z</time>
      </trkpt>
      <trkpt lat="50.56873" lon="5.58388">
        <ele>77</ele>
        <time>2016-06-19T21:56:53Z</time>
      </trkpt>
      <trkpt lat="50.56878" lon="5.58446">
        <ele>78</ele>
        <time>2016-06-19T21:58:53Z</time>
      </trkpt>
      <trkpt lat="50.56881" lon="5.58501">
        <ele>79</ele>
        <time>2016-06-19T22:00:53Z</time>
      </trkpt>
      <trkpt lat="50.56882" lon="5.5851">
        <ele>79</ele>
        <time>2016-06-19T22:02:53Z</time>
      </trkpt>
      <trkpt lat="50.56884" lon="5.58519">
        <ele>79</ele>
        <time>2016-06-19T22:04:53Z</time>
      </trkpt>
      <trkpt lat="50.56886" lon="5.58527">
        <ele>79</ele>
        <time>2016-06-19T22:06:53Z</time>
      </trkpt>
      <trkpt lat="50.56896" lon="5.58548">
        <ele>79</ele>
        <time>2016-06-19T22:08:53Z</time>
      </trkpt>
      <trkpt lat="50.56899" lon="5.58554">
        <ele>78</ele>
        <time>2016-06-19T22:10:53Z</time>
      </trkpt>
      <trkpt lat="50.56902" lon="5.58558">
        <ele>78</ele>
        <time>2016-06-19T22:12:53Z</time>
      </trkpt>
      <trkpt lat="50.56909" lon="5.58569">
        <ele>78</ele>
        <time>2016-06-19T22:14:53Z</time>
      </trkpt>
      <trkpt lat="50.56911" lon="5.58577">
        <ele>78</ele>
        <time>2016-06-19T22:16:53Z</time>
      </trkpt>
      <trkpt lat="50.56916" lon="5.5859">
        <ele>77</ele>
        <time>2016-06-19T22:18:53Z</time>
      </trkpt>
      <trkpt lat="50.56925" lon="5.58595">
        <ele>77</ele>
        <time>2016-06-19T22:20:53Z</time>
      </trkpt>
      <trkpt lat="50.56938" lon="5.58582">
        <ele>77</ele>
        <time>2016-06-19T22:22:53Z</time>
      </trkpt>
      <trkpt lat="50.56939" lon="5.58574">
        <ele>77</ele>
        <time>2016-06-19T22:24:53Z</time>
      </trkpt>
      <trkpt lat="50.56941" lon="5.58566">
        <ele>77</ele>
        <time>2016-06-19T22:26:53Z</time>
      </trkpt>
      <trkpt lat="50.56942" lon="5.58558">
        <ele>77</ele>
        <time>2016-06-19T22:28:53Z</time>
      </trkpt>
      <trkpt lat="50.56944" lon="5.58551">
        <ele>77</ele>
        <time>2016-06-19T22:30:53Z</time>
      </trkpt>
      <trkpt lat="50.56949" lon="5.58526">
        <ele>77</ele>
        <time>2016-06-19T22:32:53Z</time>
      </trkpt>
      <trkpt lat="50.5695" lon="5.58517">
        <ele>77</ele>
        <time>2016-06-19T22:34:53Z</time>
      </trkpt>
      <trkpt lat="50.56952" lon="5.58509">
        <ele>77</ele>
        <time>2016-06-19T22:36:53Z</time>
      </trkpt>
      <trkpt lat="50.56956" lon="5.58502">
        <ele>77</ele>
        <time>2016-06-19T22:38:53Z</time>
      </trkpt>
      <trkpt lat="50.56961" lon="5.58498">
        <ele>76</ele>
        <time>2016-06-19T22:40:53Z</time>
      </trkpt>
      <trkpt lat="50.56976" lon="5.58495">
        <ele>76</ele>
        <time>2016-06-19T22:42:53Z</time>
      </trkpt>
      <trkpt lat="50.56981" lon="5.58494">
        <ele>76</ele>
        <time>2016-06-19T22:44:53Z</time>
      </trkpt>
      <trkpt lat="50.57003" lon="5.58486">
        <ele>77</ele>
        <time>2016-06-19T22:46:53Z</time>
      </trkpt>
      <trkpt lat="50.5702" lon="5.58475">
        <ele>78</ele>
        <time>2016-06-19T22:48:53Z</time>
      </trkpt>
      <trkpt lat="50.57036" lon="5.58466">
        <ele>80</ele>
        <time>2016-06-19T22:50:53Z</time>
      </trkpt>
      <trkpt lat="50.57056" lon="5.58455">
        <ele>82</ele>
        <time>2016-06-19T22:52:53Z</time>
      </trkpt>
      <trkpt lat="50.57073" lon="5.58454">
        <ele>84</ele>
        <time>2016-06-19T22:54:53Z</time>
      </trkpt>
      <trkpt lat="50.57084" lon="5.58463">
        <ele>84</ele>
        <time>2016-06-19T22:56:53Z</time>
      </trkpt>
      <trkpt lat="50.57089" lon="5.58472">
        <ele>84</ele>
        <time>2016-06-19T22:58:53Z</time>
      </trkpt>
      <trkpt lat="50.57092" lon="5.5848">
        <ele>83</ele>
        <time>2016-06-19T23:00:53Z</time>
      </trkpt>
      <trkpt lat="50.57098" lon="5.58493">
        <ele>83</ele>
        <time>2016-06-19T23:02:53Z</time>
      </trkpt>
      <trkpt lat="50.57105" lon="5.58498">
        <ele>84</ele>
        <time>2016-06-19T23:04:53Z</time>
      </trkpt>
      <trkpt lat="50.57109" lon="5.58499">
        <ele>85</ele>
        <time>2016-06-19T23:06:53Z</time>
      </trkpt>
      <trkpt lat="50.57122" lon="5.58492">
        <ele>88</ele>
        <time>2016-06-19T23:08:53Z</time>
      </trkpt>
      <trkpt lat="50.57139" lon="5.58482">
        <ele>92</ele>
        <time>2016-06-19T23:10:53Z</time>
      </trkpt>
      <trkpt lat="50.57168" lon="5.58464">
        <ele>98</ele>
        <time>2016-06-19T23:12:53Z</time>
      </trkpt>
      <trkpt lat="50.57183" lon="5.58454">
        <ele>103</ele>
        <time>2016-06-19T23:14:53Z</time>
      </trkpt>
      <trkpt lat="50.57186" lon="5.58451">
        <ele>104</ele>
        <time>2016-06-19T23:16:53Z</time>
      </trkpt>
      <trkpt lat="50.57193" lon="5.58434">
        <ele>106</ele>
        <time>2016-06-19T23:18:53Z</time>
      </trkpt>
      <trkpt lat="50.57197" lon="5.58422">
        <ele>108</ele>
        <time>2016-06-19T23:20:53Z</time>
      </trkpt>
      <trkpt lat="50.57199" lon="5.58403">
        <ele>108</ele>
        <time>2016-06-19T23:22:53Z</time>
      </trkpt>
      <trkpt lat="50.57203" lon="5.58371">
        <ele>110</ele>
        <time>2016-06-19T23:24:53Z</time>
      </trkpt>
      <trkpt lat="50.57204" lon="5.58358">
        <ele>110</ele>
        <time>2016-06-19T23:26:53Z</time>
      </trkpt>
      <trkpt lat="50.57204" lon="5.58336">
        <ele>110</ele>
        <time>2016-06-19T23:28:53Z</time>
      </trkpt>
      <trkpt lat="50.57199" lon="5.58278">
        <ele>112</ele>
        <time>2016-06-19T23:30:53Z</time>
      </trkpt>
      <trkpt lat="50.57199" lon="5.58261">
        <ele>113</ele>
        <time>2016-06-19T23:32:53Z</time>
      </trkpt>
      <trkpt lat="50.572" lon="5.58243">
        <ele>115</ele>
        <time>2016-06-19T23:34:53Z</time>
      </trkpt>
      <trkpt lat="50.572" lon="5.58235">
        <ele>115</ele>
        <time>2016-06-19T23:36:53Z</time>
      </trkpt>
      <trkpt lat="50.57201" lon="5.58205">
        <ele>117</ele>
        <time>2016-06-19T23:38:53Z</time>
      </trkpt>
      <trkpt lat="50.57202" lon="5.58162">
        <ele>119</ele>
        <time>2016-06-19T23:40:53Z</time>
      </trkpt>
      <trkpt lat="50.572" lon="5.58149">
        <ele>120</ele>
        <time>2016-06-19T23:42:53Z</time>
      </trkpt>
      <trkpt lat="50.57196" lon="5.58122">
        <ele>121</ele>
        <time>2016-06-19T23:44:53Z</time>
      </trkpt>
      <trkpt lat="50.57187" lon="5.58072">
        <ele>124</ele>
        <time>2016-06-19T23:46:53Z</time>
      </trkpt>
      <trkpt lat="50.5718" lon="5.58033">
        <ele>126</ele>
        <time>2016-06-19T23:48:53Z</time>
      </trkpt>
      <trkpt lat="50.57173" lon="5.58019">
        <ele>125</ele>
        <time>2016-06-19T23:50:53Z</time>
      </trkpt>
      <trkpt lat="50.57162" lon="5.57999">
        <ele>125</ele>
        <time>2016-06-19T23:52:53Z</time>
      </trkpt>
      <trkpt lat="50.57153" lon="5.57972">
        <ele>128</ele>
        <time>2016-06-19T23:54:53Z</time>
      </trkpt>
      <trkpt lat="50.57145" lon="5.57941">
        <ele>129</ele>
        <time>2016-06-19T23:56:53Z</time>
      </trkpt>
      <trkpt lat="50.5714" lon="5.57914">
        <ele>130</ele>
        <time>2016-06-19T23:58:53Z</time>
      </trkpt>
      <trkpt lat="50.5714" lon="5.57886">
        <ele>132</ele>
        <time>2016-06-20T00:00:53Z</time>
      </trkpt>
      <trkpt lat="50.57138" lon="5.57868">
        <ele>132</ele>
        <time>2016-06-20T00:02:53Z</time>
      </trkpt>
      <trkpt lat="50.57128" lon="5.57853">
        <ele>131</ele>
        <time>2016-06-20T00:04:53Z</time>
      </trkpt>
      <trkpt lat="50.57113" lon="5.57835">
        <ele>129</ele>
        <time>2016-06-20T00:06:53Z</time>
      </trkpt>
      <trkpt lat="50.57099" lon="5.57808">
        <ele>130</ele>
        <time>2016-06-20T00:08:53Z</time>
      </trkpt>
      <trkpt lat="50.57092" lon="5.57777">
        <ele>132</ele>
        <time>2016-06-20T00:10:53Z</time>
      </trkpt>
      <trkpt lat="50.57076" lon="5.57734">
        <ele>136</ele>
        <time>2016-06-20T00:12:53Z</time>
      </trkpt>
      <trkpt lat="50.57065" lon="5.5771">
        <ele>138</ele>
        <time>2016-06-20T00:14:53Z</time>
      </trkpt>
      <trkpt lat="50.57052" lon="5.57685">
        <ele>140</ele>
        <time>2016-06-20T00:16:53Z</time>
      </trkpt>
      <trkpt lat="50.57045" lon="5.57666">
        <ele>141</ele>
        <time>2016-06-20T00:18:53Z</time>
      </trkpt>
      <trkpt lat="50.57031" lon="5.57623">
        <ele>144</ele>
        <time>2016-06-20T00:20:53Z</time>
      </trkpt>
      <trkpt lat="50.57027" lon="5.57609">
        <ele>145</ele>
        <time>2016-06-20T00:22:53Z</time>
      </trkpt>
      <trkpt lat="50.57022" lon="5.57591">
        <ele>146</ele>
        <time>2016-06-20T00:24:53Z</time>
      </trkpt>
      <trkpt lat="50.57005" lon="5.57557">
        <ele>146</ele>
        <time>2016-06-20T00:26:53Z</time>
      </trkpt>
      <trkpt lat="50.56988" lon="5.5752">
        <ele>147</ele>
        <time>2016-06-20T00:28:53Z</time>
      </trkpt>
      <trkpt lat="50.56971" lon="5.57489">
        <ele>148</ele>
        <time>2016-06-20T00:30:53Z</time>
      </trkpt>
      <trkpt lat="50.56959" lon="5.57474">
        <ele>149</ele>
        <time>2016-06-20T00:32:53Z</time>
      </trkpt>
      <trkpt lat="50.56953" lon="5.57465">
        <ele>150</ele>
        <time>2016-06-20T00:34:53Z</time>
      </trkpt>
      <trkpt lat="50.56934" lon="5.57442">
        <ele>151</ele>
        <time>2016-06-20T00:36:53Z</time>
      </trkpt>
      <trkpt lat="50.56925" lon="5.57431">
        <ele>152</ele>
        <time>2016-06-20T00:38:53Z</time>
      </trkpt>
      <trkpt lat="50.56916" lon="5.57423">
        <ele>152</ele>
        <time>2016-06-20T00:40:53Z</time>
      </trkpt>
      <trkpt lat="50.5691" lon="5.57418">
        <ele>153</ele>
        <time>2016-06-20T00:42:53Z</time>
      </trkpt>
      <trkpt lat="50.56895" lon="5.57409">
        <ele>155</ele>
        <time>2016-06-20T00:44:53Z</time>
      </trkpt>
      <trkpt lat="50.56891" lon="5.57406">
        <ele>155</ele>
        <time>2016-06-20T00:46:53Z</time>
      </trkpt>
      <trkpt lat="50.56871" lon="5.57393">
        <ele>156</ele>
        <time>2016-06-20T00:48:53Z</time>
      </trkpt>
      <trkpt lat="50.56864" lon="5.57386">
        <ele>157</ele>
        <time>2016-06-20T00:50:53Z</time>
      </trkpt>
      <trkpt lat="50.56857" lon="5.57376">
        <ele>157</ele>
        <time>2016-06-20T00:52:53Z</time>
      </trkpt>
      <trkpt lat="50.56847" lon="5.5736">
        <ele>158</ele>
        <time>2016-06-20T00:54:53Z</time>
      </trkpt>
      <trkpt lat="50.56841" lon="5.57352">
        <ele>157</ele>
        <time>2016-06-20T00:56:53Z</time>
      </trkpt>
      <trkpt lat="50.56835" lon="5.57339">
        <ele>157</ele>
        <time>2016-06-20T00:58:53Z</time>
      </trkpt>
      <trkpt lat="50.56824" lon="5.5731">
        <ele>159</ele>
        <time>2016-06-20T01:00:53Z</time>
      </trkpt>
      <trkpt lat="50.56816" lon="5.5729">
        <ele>161</ele>
        <time>2016-06-20T01:02:53Z</time>
      </trkpt>
      <trkpt lat="50.56809" lon="5.57271">
        <ele>162</ele>
        <time>2016-06-20T01:04:53Z</time>
      </trkpt>
      <trkpt lat="50.56802" lon="5.57252">
        <ele>163</ele>
        <time>2016-06-20T01:06:53Z</time>
      </trkpt>
      <trkpt lat="50.56797" lon="5.57236">
        <ele>164</ele>
        <time>2016-06-20T01:08:53Z</time>
      </trkpt>
      <trkpt lat="50.56796" lon="5.57232">
        <ele>164</ele>
        <time>2016-06-20T01:10:53Z</time>
      </trkpt>
      <trkpt lat="50.56788" lon="5.57205">
        <ele>165</ele>
        <time>2016-06-20T01:12:53Z</time>
      </trkpt>
      <trkpt lat="50.56778" lon="5.57176">
        <ele>165</ele>
        <time>2016-06-20T01:14:53Z</time>
      </trkpt>
      <trkpt lat="50.56775" lon="5.57165">
        <ele>165</ele>
        <time>2016-06-20T01:16:53Z</time>
      </trkpt>
      <trkpt lat="50.56763" lon="5.57136">
        <ele>167</ele>
        <time>2016-06-20T01:18:53Z</time>
      </trkpt>
      <trkpt lat="50.56756" lon="5.57123">
        <ele>168</ele>
        <time>2016-06-20T01:20:53Z</time>
      </trkpt>
      <trkpt lat="50.56742" lon="5.57099">
        <ele>170</ele>
        <time>2016-06-20T01:22:53Z</time>
      </trkpt>
      <trkpt lat="50.56729" lon="5.57078">
        <ele>171</ele>
        <time>2016-06-20T01:24:53Z</time>
      </trkpt>
      <trkpt lat="50.56722" lon="5.57062">
        <ele>172</ele>
        <time>2016-06-20T01:26:53Z</time>
      </trkpt>
      <trkpt lat="50.56709" lon="5.57038">
        <ele>173</ele>
        <time>2016-06-20T01:28:53Z</time>
      </trkpt>
      <trkpt lat="50.56704" lon="5.57028">
        <ele>173</ele>
        <time>2016-06-20T01:30:53Z</time>
      </trkpt>
      <trkpt lat="50.56696" lon="5.57015">
        <ele>173</ele>
        <time>2016-06-20T01:32:53Z</time>
      </trkpt>
      <trkpt lat="50.5668" lon="5.56991">
        <ele>172</ele>
        <time>2016-06-20T01:34:53Z</time>
      </trkpt>
      <trkpt lat="50.56675" lon="5.56986">
        <ele>172</ele>
        <time>2016-06-20T01:36:53Z</time>
      </trkpt>
      <trkpt lat="50.56667" lon="5.56977">
        <ele>172</ele>
        <time>2016-06-20T01:38:53Z</time>
      </trkpt>
      <trkpt lat="50.5665" lon="5.56953">
        <ele>174</ele>
        <time>2016-06-20T01:40:53Z</time>
      </trkpt>
      <trkpt lat="50.56637" lon="5.5693">
        <ele>176</ele>
        <time>2016-06-20T01:42:53Z</time>
      </trkpt>
      <trkpt lat="50.5663" lon="5.56915">
        <ele>177</ele>
        <time>2016-06-20T01:44:53Z</time>
      </trkpt>
      <trkpt lat="50.56625" lon="5.569">
        <ele>178</ele>
        <time>2016-06-20T01:46:53Z</time>
      </trkpt>
      <trkpt lat="50.56628" lon="5.56876">
        <ele>179</ele>
        <time>2016-06-20T01:48:53Z</time>
      </trkpt>
      <trkpt lat="50.56637" lon="5.56865">
        <ele>179</ele>
        <time>2016-06-20T01:50:53Z</time>
      </trkpt>
      <trkpt lat="50.56646" lon="5.56864">
        <ele>178</ele>
        <time>2016-06-20T01:52:53Z</time>
      </trkpt>
      <trkpt lat="50.56651" lon="5.56867">
        <ele>178</ele>
        <time>2016-06-20T01:54:53Z</time>
      </trkpt>
      <trkpt lat="50.56659" lon="5.56877">
        <ele>177</ele>
        <time>2016-06-20T01:56:53Z</time>
      </trkpt>
      <trkpt lat="50.56671" lon="5.569">
        <ele>176</ele>
        <time>2016-06-20T01:58:53Z</time>
      </trkpt>
      <trkpt lat="50.56679" lon="5.56913">
        <ele>177</ele>
        <time>2016-06-20T02:00:53Z</time>
      </trkpt>
      <trkpt lat="50.56685" lon="5.56921">
        <ele>177</ele>
        <time>2016-06-20T02:02:53Z</time>
      </trkpt>
      <trkpt lat="50.56689" lon="5.56927">
        <ele>178</ele>
        <time>2016-06-20T02:04:53Z</time>
      </trkpt>
      <trkpt lat="50.56704" lon="5.56942">
        <ele>178</ele>
        <time>2016-06-20T02:06:53Z</time>
      </trkpt>
      <trkpt lat="50.56721" lon="5.56956">
        <ele>179</ele>
        <time>2016-06-20T02:08:53Z</time>
      </trkpt>
      <trkpt lat="50.56734" lon="5.56963">
        <ele>180</ele>
        <time>2016-06-20T02:10:53Z</time>
      </trkpt>
      <trkpt lat="50.56737" lon="5.56965">
        <ele>180</ele>
        <time>2016-06-20T02:12:53Z</time>
      </trkpt>
      <trkpt lat="50.56748" lon="5.56969">
        <ele>181</ele>
        <time>2016-06-20T02:14:53Z</time>
      </trkpt>
      <trkpt lat="50.56751" lon="5.56969">
        <ele>181</ele>
        <time>2016-06-20T02:16:53Z</time>
      </trkpt>
      <trkpt lat="50.56772" lon="5.56976">
        <ele>182</ele>
        <time>2016-06-20T02:18:53Z</time>
      </trkpt>
      <trkpt lat="50.56784" lon="5.56978">
        <ele>183</ele>
        <time>2016-06-20T02:20:53Z</time>
      </trkpt>
      <trkpt lat="50.568" lon="5.56978">
        <ele>185</ele>
        <time>2016-06-20T02:22:53Z</time>
      </trkpt>
      <trkpt lat="50.56807" lon="5.56978">
        <ele>186</ele>
        <time>2016-06-20T02:24:53Z</time>
      </trkpt>
      <trkpt lat="50.56821" lon="5.56973">
        <ele>188</ele>
        <time>2016-06-20T02:26:53Z</time>
      </trkpt>
      <trkpt lat="50.56852" lon="5.56965">
        <ele>191</ele>
        <time>2016-06-20T02:28:53Z</time>
      </trkpt>
      <trkpt lat="50.56859" lon="5.56961">
        <ele>192</ele>
        <time>2016-06-20T02:30:53Z</time>
      </trkpt>
      <trkpt lat="50.56874" lon="5.56958">
        <ele>193</ele>
        <time>2016-06-20T02:32:53Z</time>
      </trkpt>
      <trkpt lat="50.56894" lon="5.5695">
        <ele>196</ele>
        <time>2016-06-20T02:34:53Z</time>
      </trkpt>
      <trkpt lat="50.56911" lon="5.56946">
        <ele>197</ele>
        <time>2016-06-20T02:36:53Z</time>
      </trkpt>
      <trkpt lat="50.56921" lon="5.56944">
        <ele>198</ele>
        <time>2016-06-20T02:38:53Z</time>
      </trkpt>
      <trkpt lat="50.56932" lon="5.56947">
        <ele>199</ele>
        <time>2016-06-20T02:40:53Z</time>
      </trkpt>
      <trkpt lat="50.56943" lon="5.5695">
        <ele>200</ele>
        <time>2016-06-20T02:42:53Z</time>
      </trkpt>
      <trkpt lat="50.56952" lon="5.56955">
        <ele>201</ele>
        <time>2016-06-20T02:44:53Z</time>
      </trkpt>
      <trkpt lat="50.56956" lon="5.56957">
        <ele>201</ele>
        <time>2016-06-20T02:46:53Z</time>
      </trkpt>
      <trkpt lat="50.56966" lon="5.56967">
        <ele>202</ele>
        <time>2016-06-20T02:48:53Z</time>
      </trkpt>
      <trkpt lat="50.5697" lon="5.56973">
        <ele>202</ele>
        <time>2016-06-20T02:50:53Z</time>
      </trkpt>
      <trkpt lat="50.56985" lon="5.56988">
        <ele>203</ele>
        <time>2016-06-20T02:52:53Z</time>
      </trkpt>
      <trkpt lat="50.56995" lon="5.56997">
        <ele>204</ele>
        <time>2016-06-20T02:54:53Z</time>
      </trkpt>
      <trkpt lat="50.57019" lon="5.57024">
        <ele>204</ele>
        <time>2016-06-20T02:56:53Z</time>
      </trkpt>
      <trkpt lat="50.57033" lon="5.57037">
        <ele>204</ele>
        <time>2016-06-20T02:58:53Z</time>
      </trkpt>
      <trkpt lat="50.57037" lon="5.57039">
        <ele>204</ele>
        <time>2016-06-20T03:00:53Z</time>
      </trkpt>
      <trkpt lat="50.57055" lon="5.57037">
        <ele>206</ele>
        <time>2016-06-20T03:02:53Z</time>
      </trkpt>
      <trkpt lat="50.57057" lon="5.57034">
        <ele>207</ele>
        <time>2016-06-20T03:04:53Z</time>
      </trkpt>
      <trkpt lat="50.57063" lon="5.57023">
        <ele>208</ele>
        <time>2016-06-20T03:06:53Z</time>
      </trkpt>
      <trkpt lat="50.57064" lon="5.57008">
        <ele>209</ele>
        <time>2016-06-20T03:08:53Z</time>
      </trkpt>
      <trkpt lat="50.5706" lon="5.56987">
        <ele>211</ele>
        <time>2016-06-20T03:10:53Z</time>
      </trkpt>
      <trkpt lat="50.57058" lon="5.56971">
        <ele>212</ele>
        <time>2016-06-20T03:12:53Z</time>
      </trkpt>
      <trkpt lat="50.57057" lon="5.56964">
        <ele>212</ele>
        <time>2016-06-20T03:14:53Z</time>
      </trkpt>
      <trkpt lat="50.57043" lon="5.56925">
        <ele>213</ele>
        <time>2016-06-20T03:16:53Z</time>
      </trkpt>
      <trkpt lat="50.57036" lon="5.56903">
        <ele>214</ele>
        <time>2016-06-20T03:18:53Z</time>
      </trkpt>
      <trkpt lat="50.57035" lon="5.56899">
        <ele>214</ele>
        <time>2016-06-20T03:20:53Z</time>
      </trkpt>
      <trkpt lat="50.57025" lon="5.56855">
        <ele>215</ele>
        <time>2016-06-20T03:22:53Z</time>
      </trkpt>
      <trkpt lat="50.5702" lon="5.56837">
        <ele>215</ele>
        <time>2016-06-20T03:24:53Z</time>
      </trkpt>
      <trkpt lat="50.57007" lon="5.56816">
        <ele>215</ele>
        <time>2016-06-20T03:26:53Z</time>
      </trkpt>
      <trkpt lat="50.57002" lon="5.5681">
        <ele>215</ele>
        <time>2016-06-20T03:28:53Z</time>
      </trkpt>
      <trkpt lat="50.56991" lon="5.56799">
        <ele>215</ele>
        <time>2016-06-20T03:30:53Z</time>
      </trkpt>
      <trkpt lat="50.56955" lon="5.56761">
        <ele>217</ele>
        <time>2016-06-20T03:32:53Z</time>
      </trkpt>
      <trkpt lat="50.56942" lon="5.5675">
        <ele>217</ele>
        <time>2016-06-20T03:34:53Z</time>
      </trkpt>
      <trkpt lat="50.56918" lon="5.56734">
        <ele>218</ele>
        <time>2016-06-20T03:36:53Z</time>
      </trkpt>
      <trkpt lat="50.5689" lon="5.56716">
        <ele>219</ele>
        <time>2016-06-20T03:38:53Z</time>
      </trkpt>
      <trkpt lat="50.56867" lon="5.56705">
        <ele>219</ele>
        <time>2016-06-20T03:40:53Z</time>
      </trkpt>
      <trkpt lat="50.56853" lon="5.56696">
        <ele>220</ele>
        <time>2016-06-20T03:42:53Z</time>
      </trkpt>
      <trkpt lat="50.56843" lon="5.56686">
        <ele>220</ele>
        <time>2016-06-20T03:44:53Z</time>
      </trkpt>
      <trkpt lat="50.56829" lon="5.56671">
        <ele>221</ele>
        <time>2016-06-20T03:46:53Z</time>
      </trkpt>
      <trkpt lat="50.56825" lon="5.56667">
        <ele>221</ele>
        <time>2016-06-20T03:48:53Z</time>
      </trkpt>
      <trkpt lat="50.56811" lon="5.56643">
        <ele>222</ele>
        <time>2016-06-20T03:50:53Z</time>
      </trkpt>
      <trkpt lat="50.56801" lon="5.56613">
        <ele>223</ele>
        <time>2016-06-20T03:52:53Z</time>
      </trkpt>
      <trkpt lat="50.56785" lon="5.56532">
        <ele>226</ele>
        <time>2016-06-20T03:54:53Z</time>
      </trkpt>
      <trkpt lat="50.56778" lon="5.56502">
        <ele>227</ele>
        <time>2016-06-20T03:56:53Z</time>
      </trkpt>
      <trkpt lat="50.56776" lon="5.56479">
        <ele>229</ele>
        <time>2016-06-20T03:58:53Z</time>
      </trkpt>
      <trkpt lat="50.56776" lon="5.56476">
        <ele>229</ele>
        <time>2016-06-20T04:00:53Z</time>
      </trkpt>
      <trkpt lat="50.56774" lon="5.56459">
        <ele>230</ele>
        <time>2016-06-20T04:02:53Z</time>
      </trkpt>
      <trkpt lat="50.56766" lon="5.56425">
        <ele>231</ele>
        <time>2016-06-20T04:04:53Z</time>
      </trkpt>
      <trkpt lat="50.56763" lon="5.56414">
        <ele>232</ele>
        <time>2016-06-20T04:06:53Z</time>
      </trkpt>
      <trkpt lat="50.56757" lon="5.56392">
        <ele>233</ele>
        <time>2016-06-20T04:08:53Z</time>
      </trkpt>
      <trkpt lat="50.56753" lon="5.56362">
        <ele>234</ele>
        <time>2016-06-20T04:10:53Z</time>
      </trkpt>
      <trkpt lat="50.56751" lon="5.56352">
        <ele>235</ele>
        <time>2016-06-20T04:12:53Z</time>
      </trkpt>
      <trkpt lat="50.56742" lon="5.5632">
        <ele>236</ele>
        <time>2016-06-20T04:14:53Z</time>
      </trkpt>
      <trkpt lat="50.5674" lon="5.56308">
        <ele>236</ele>
        <time>2016-06-20T04:16:53Z</time>
      </trkpt>
      <trkpt lat="50.56734" lon="5.56285">
        <ele>237</ele>
        <time>2016-06-20T04:18:53Z</time>
      </trkpt>
      <trkpt lat="50.56728" lon="5.56258">
        <ele>237</ele>
        <time>2016-06-20T04:20:53Z</time>
      </trkpt>
      <trkpt lat="50.56726" lon="5.56248">
        <ele>237</ele>
        <time>2016-06-20T04:22:53Z</time>
      </trkpt>
      <trkpt lat="50.56722" lon="5.56234">
        <ele>237</ele>
        <time>2016-06-20T04:24:53Z</time>
      </trkpt>
      <trkpt lat="50.5672" lon="5.56224">
        <ele>237</ele>
        <time>2016-06-20T04:26:53Z</time>
      </trkpt>
      <trkpt lat="50.56717" lon="5.56213">
        <ele>237</ele>
        <time>2016-06-20T04:28:53Z</time>
      </trkpt>
      <trkpt lat="50.56714" lon="5.56202">
        <ele>237</ele>
        <time>2016-06-20T04:30:53Z</time>
      </trkpt>
      <trkpt lat="50.56712" lon="5.56192">
        <ele>237</ele>
        <time>2016-06-20T04:32:53Z</time>
      </trkpt>
      <trkpt lat="50.56712" lon="5.56179">
        <ele>238</ele>
        <time>2016-06-20T04:34:53Z</time>
      </trkpt>
      <trkpt lat="50.56712" lon="5.56165">
        <ele>238</ele>
        <time>2016-06-20T04:36:53Z</time>
      </trkpt>
      <trkpt lat="50.56711" lon="5.56136">
        <ele>239</ele>
        <time>2016-06-20T04:38:53Z</time>
      </trkpt>
      <trkpt lat="50.56711" lon="5.56125">
        <ele>239</ele>
        <time>2016-06-20T04:40:53Z</time>
      </trkpt>
      <trkpt lat="50.56713" lon="5.56099">
        <ele>240</ele>
        <time>2016-06-20T04:42:53Z</time>
      </trkpt>
      <trkpt lat="50.56714" lon="5.56085">
        <ele>241</ele>
        <time>2016-06-20T04:44:53Z</time>
      </trkpt>
      <trkpt lat="50.56715" lon="5.56066">
        <ele>242</ele>
        <time>2016-06-20T04:46:53Z</time>
      </trkpt>
      <trkpt lat="50.56715" lon="5.56061">
        <ele>242</ele>
        <time>2016-06-20T04:48:53Z</time>
      </trkpt>
      <trkpt lat="50.56716" lon="5.5605">
        <ele>242</ele>
        <time>2016-06-20T04:50:53Z</time>
      </trkpt>
      <trkpt lat="50.56716" lon="5.56036">
        <ele>243</ele>
        <time>2016-06-20T04:52:53Z</time>
      </trkpt>
      <trkpt lat="50.56718" lon="5.56021">
        <ele>243</ele>
        <time>2016-06-20T04:54:53Z</time>
      </trkpt>
      <trkpt lat="50.56718" lon="5.56006">
        <ele>244</ele>
        <time>2016-06-20T04:56:53Z</time>
      </trkpt>
      <trkpt lat="50.5672" lon="5.55992">
        <ele>244</ele>
        <time>2016-06-20T04:58:53Z</time>
      </trkpt>
      <trkpt lat="50.56722" lon="5.55972">
        <ele>245</ele>
        <time>2016-06-20T05:00:53Z</time>
      </trkpt>
      <trkpt lat="50.56722" lon="5.55958">
        <ele>246</ele>
        <time>2016-06-20T05:02:53Z</time>
      </trkpt>
      <trkpt lat="50.56727" lon="5.55932">
        <ele>247</ele>
        <time>2016-06-20T05:04:53Z</time>
      </trkpt>
      <trkpt lat="50.56726" lon="5.55918">
        <ele>248</ele>
        <time>2016-06-20T05:06:53Z</time>
      </trkpt>
      <trkpt lat="50.56725" lon="5.55904">
        <ele>248</ele>
        <time>2016-06-20T05:08:53Z</time>
      </trkpt>
      <trkpt lat="50.56725" lon="5.55894">
        <ele>249</ele>
        <time>2016-06-20T05:10:53Z</time>
      </trkpt>
      <trkpt lat="50.56725" lon="5.55877">
        <ele>249</ele>
        <time>2016-06-20T05:12:53Z</time>
      </trkpt>
      <trkpt lat="50.56725" lon="5.55872">
        <ele>249</ele>
        <time>2016-06-20T05:14:53Z</time>
      </trkpt>
      <trkpt lat="50.56726" lon="5.55863">
        <ele>250</ele>
        <time>2016-06-20T05:16:53Z</time>
      </trkpt>
      <trkpt lat="50.56725" lon="5.55833">
        <ele>251</ele>
        <time>2016-06-20T05:18:53Z</time>
      </trkpt>
      <trkpt lat="50.56724" lon="5.55801">
        <ele>252</ele>
        <time>2016-06-20T05:20:53Z</time>
      </trkpt>
      <trkpt lat="50.56722" lon="5.55771">
        <ele>253</ele>
        <time>2016-06-20T05:22:53Z</time>
      </trkpt>
      <trkpt lat="50.56722" lon="5.55767">
        <ele>253</ele>
        <time>2016-06-20T05:24:53Z</time>
      </trkpt>
      <trkpt lat="50.56719" lon="5.55692">
        <ele>256</ele>
        <time>2016-06-20T05:26:53Z</time>
      </trkpt>
      <trkpt lat="50.56716" lon="5.55652">
        <ele>257</ele>
        <time>2016-06-20T05:28:53Z</time>
      </trkpt>
      <trkpt lat="50.56715" lon="5.55625">
        <ele>258</ele>
        <time>2016-06-20T05:30:53Z</time>
      </trkpt>
      <trkpt lat="50.56709" lon="5.55559">
        <ele>260</ele>
        <time>2016-06-20T05:32:53Z</time>
      </trkpt>
      <trkpt lat="50.56705" lon="5.5553">
        <ele>261</ele>
        <time>2016-06-20T05:34:53Z</time>
      </trkpt>
      <trkpt lat="50.56702" lon="5.55503">
        <ele>261</ele>
        <time>2016-06-20T05:36:53Z</time>
      </trkpt>
      <trkpt lat="50.567" lon="5.55482">
        <ele>262</ele>
        <time>2016-06-20T05:38:53Z</time>
      </trkpt>
      <trkpt lat="50.56699" lon="5.55436">
        <ele>263</ele>
        <time>2016-06-20T05:40:53Z</time>
      </trkpt>
      <trkpt lat="50.56695" lon="5.55405">
        <ele>264</ele>
        <time>2016-06-20T05:42:53Z</time>
      </trkpt>
      <trkpt lat="50.5669" lon="5.55377">
        <ele>265</ele>
        <time>2016-06-20T05:44:53Z</time>
      </trkpt>
      <trkpt lat="50.56693" lon="5.55353">
        <ele>266</ele>
        <time>2016-06-20T05:46:53Z</time>
      </trkpt>
      <trkpt lat="50.56691" lon="5.55332">
        <ele>266</ele>
        <time>2016-06-20T05:48:53Z</time>
      </trkpt>
      <trkpt lat="50.56688" lon="5.55287">
        <ele>267</ele>
        <time>2016-06-20T05:50:53Z</time>
      </trkpt>
      <trkpt lat="50.56685" lon="5.55256">
        <ele>268</ele>
        <time>2016-06-20T05:52:53Z</time>
      </trkpt>
      <trkpt lat="50.56683" lon="5.55241">
        <ele>268</ele>
        <time>2016-06-20T05:54:53Z</time>
      </trkpt>
      <trkpt lat="50.5668" lon="5.55176">
        <ele>270</ele>
        <time>2016-06-20T05:56:53Z</time>
      </trkpt>
      <trkpt lat="50.56677" lon="5.55155">
        <ele>270</ele>
        <time>2016-06-20T05:58:53Z</time>
      </trkpt>
      <trkpt lat="50.56674" lon="5.55133">
        <ele>270</ele>
        <time>2016-06-20T06:00:53Z</time>
      </trkpt>
      <trkpt lat="50.56671" lon="5.55093">
        <ele>270</ele>
        <time>2016-06-20T06:02:53Z</time>
      </trkpt>
      <trkpt lat="50.56667" lon="5.55043">
        <ele>270</ele>
        <time>2016-06-20T06:04:53Z</time>
      </trkpt>
      <trkpt lat="50.56667" lon="5.55022">
        <ele>270</ele>
        <time>2016-06-20T06:06:53Z</time>
      </trkpt>
      <trkpt lat="50.56666" lon="5.55008">
        <ele>270</ele>
        <time>2016-06-20T06:08:53Z</time>
      </trkpt>
      <trkpt lat="50.56662" lon="5.54953">
        <ele>269</ele>
        <time>2016-06-20T06:10:53Z</time>
      </trkpt>
      <trkpt lat="50.56656" lon="5.54897">
        <ele>269</ele>
        <time>2016-06-20T06:12:53Z</time>
      </trkpt>
      <trkpt lat="50.56653" lon="5.54872">
        <ele>268</ele>
        <time>2016-06-20T06:14:53Z</time>
      </trkpt>
      <trkpt lat="50.56652" lon="5.5486">
        <ele>268</ele>
        <time>2016-06-20T06:16:53Z</time>
      </trkpt>
      <trkpt lat="50.56649" lon="5.54805">
        <ele>267</ele>
        <time>2016-06-20T06:18:53Z</time>
      </trkpt>
      <trkpt lat="50.56647" lon="5.54793">
        <ele>267</ele>
        <time>2016-06-20T06:20:53Z</time>
      </trkpt>
      <trkpt lat="50.56645" lon="5.54763">
        <ele>266</ele>
        <time>2016-06-20T06:22:53Z</time>
      </trkpt>
      <trkpt lat="50.56643" lon="5.54744">
        <ele>266</ele>
        <time>2016-06-20T06:24:53Z</time>
      </trkpt>
      <trkpt lat="50.5664" lon="5.54699">
        <ele>265</ele>
        <time>2016-06-20T06:26:53Z</time>
      </trkpt>
      <trkpt lat="50.56641" lon="5.54688">
        <ele>265</ele>
        <time>2016-06-20T06:28:53Z</time>
      </trkpt>
      <trkpt lat="50.56643" lon="5.54673">
        <ele>264</ele>
        <time>2016-06-20T06:30:53Z</time>
      </trkpt>
      <trkpt lat="50.56643" lon="5.54667">
        <ele>264</ele>
        <time>2016-06-20T06:32:53Z</time>
      </trkpt>
      <trkpt lat="50.5664" lon="5.54662">
        <ele>264</ele>
        <time>2016-06-20T06:34:53Z</time>
      </trkpt>
      <trkpt lat="50.56634" lon="5.54644">
        <ele>263</ele>
        <time>2016-06-20T06:36:53Z</time>
      </trkpt>
      <trkpt lat="50.56632" lon="5.54636">
        <ele>263</ele>
        <time>2016-06-20T06:38:53Z</time>
      </trkpt>
      <trkpt lat="50.56627" lon="5.5462">
        <ele>263</ele>
        <time>2016-06-20T06:40:53Z</time>
      </trkpt>
      <trkpt lat="50.56624" lon="5.54611">
        <ele>263</ele>
        <time>2016-06-20T06:42:53Z</time>
      </trkpt>
      <trkpt lat="50.56605" lon="5.54553">
        <ele>261</ele>
        <time>2016-06-20T06:44:53Z</time>
      </trkpt>
      <trkpt lat="50.56595" lon="5.5452">
        <ele>260</ele>
        <time>2016-06-20T06:46:53Z</time>
      </trkpt>
      <trkpt lat="50.56592" lon="5.54509">
        <ele>260</ele>
        <time>2016-06-20T06:48:53Z</time>
      </trkpt>
      <trkpt lat="50.56589" lon="5.54498">
        <ele>260</ele>
        <time>2016-06-20T06:50:53Z</time>
      </trkpt>
      <trkpt lat="50.56578" lon="5.54465">
        <ele>259</ele>
        <time>2016-06-20T06:52:53Z</time>
      </trkpt>
      <trkpt lat="50.56556" lon="5.54389">
        <ele>258</ele>
        <time>2016-06-20T06:54:53Z</time>
      </trkpt>
      <trkpt lat="50.56553" lon="5.54368">
        <ele>258</ele>
        <time>2016-06-20T06:56:53Z</time>
      </trkpt>
      <trkpt lat="50.56551" lon="5.54339">
        <ele>257</ele>
        <time>2016-06-20T06:58:53Z</time>
      </trkpt>
      <trkpt lat="50.5655" lon="5.54322">
        <ele>257</ele>
        <time>2016-06-20T07:00:53Z</time>
      </trkpt>
      <trkpt lat="50.56544" lon="5.54301">
        <ele>257</ele>
        <time>2016-06-20T07:02:53Z</time>
      </trkpt>
      <trkpt lat="50.56529" lon="5.54246">
        <ele>257</ele>
        <time>2016-06-20T07:04:53Z</time>
      </trkpt>
      <trkpt lat="50.56515" lon="5.54173">
        <ele>257</ele>
        <time>2016-06-20T07:06:53Z</time>
      </trkpt>
      <trkpt lat="50.56508" lon="5.54132">
        <ele>257</ele>
        <time>2016-06-20T07:08:53Z</time>
      </trkpt>
      <trkpt lat="50.56508" lon="5.54125">
        <ele>257</ele>
        <time>2016-06-20T07:10:53Z</time>
      </trkpt>
      <trkpt lat="50.56512" lon="5.54115">
        <ele>257</ele>
        <time>2016-06-20T07:12:53Z</time>
      </trkpt>
      <trkpt lat="50.56528" lon="5.54101">
        <ele>257</ele>
        <time>2016-06-20T07:14:53Z</time>
      </trkpt>
      <trkpt lat="50.5656" lon="5.54079">
        <ele>256</ele>
        <time>2016-06-20T07:16:53Z</time>
      </trkpt>
      <trkpt lat="50.56606" lon="5.54045">
        <ele>255</ele>
        <time>2016-06-20T07:18:53Z</time>
      </trkpt>
      <trkpt lat="50.5666" lon="5.54007">
        <ele>253</ele>
        <time>2016-06-20T07:20:53Z</time>
      </trkpt>
      <trkpt lat="50.5669" lon="5.53984">
        <ele>252</ele>
        <time>2016-06-20T07:22:53Z</time>
      </trkpt>
      <trkpt lat="50.56737" lon="5.53944">
        <ele>251</ele>
        <time>2016-06-20T07:24:53Z</time>
      </trkpt>
      <trkpt lat="50.56755" lon="5.53928">
        <ele>251</ele>
        <time>2016-06-20T07:26:53Z</time>
      </trkpt>
      <trkpt lat="50.56798" lon="5.5389">
        <ele>250</ele>
        <time>2016-06-20T07:28:53Z</time>
      </trkpt>
      <trkpt lat="50.56805" lon="5.53884">
        <ele>250</ele>
        <time>2016-06-20T07:30:53Z</time>
      </trkpt>
      <trkpt lat="50.56894" lon="5.53807">
        <ele>248</ele>
        <time>2016-06-20T07:32:53Z</time>
      </trkpt>
      <trkpt lat="50.56909" lon="5.53794">
        <ele>247</ele>
        <time>2016-06-20T07:34:53Z</time>
      </trkpt>
      <trkpt lat="50.56916" lon="5.53788">
        <ele>247</ele>
        <time>2016-06-20T07:36:53Z</time>
      </trkpt>
      <trkpt lat="50.56946" lon="5.53763">
        <ele>246</ele>
        <time>2016-06-20T07:38:53Z</time>
      </trkpt>
      <trkpt lat="50.56967" lon="5.53744">
        <ele>245</ele>
        <time>2016-06-20T07:40:53Z</time>
      </trkpt>
      <trkpt lat="50.56973" lon="5.53738">
        <ele>245</ele>
        <time>2016-06-20T07:42:53Z</time>
      </trkpt>
      <trkpt lat="50.57054" lon="5.5367">
        <ele>242</ele>
        <time>2016-06-20T07:44:53Z</time>
      </trkpt>
      <trkpt lat="50.57061" lon="5.53665">
        <ele>242</ele>
        <time>2016-06-20T07:46:53Z</time>
      </trkpt>
      <trkpt lat="50.57087" lon="5.53643">
        <ele>241</ele>
        <time>2016-06-20T07:48:53Z</time>
      </trkpt>
      <trkpt lat="50.57159" lon="5.53589">
        <ele>239</ele>
        <time>2016-06-20T07:50:53Z</time>
      </trkpt>
      <trkpt lat="50.57201" lon="5.53565">
        <ele>238</ele>
        <time>2016-06-20T07:52:53Z</time>
      </trkpt>
      <trkpt lat="50.57208" lon="5.53562">
        <ele>237</ele>
        <time>2016-06-20T07:54:53Z</time>
      </trkpt>
      <trkpt lat="50.57225" lon="5.53554">
        <ele>237</ele>
        <time>2016-06-20T07:56:53Z</time>
      </trkpt>
      <trkpt lat="50.57229" lon="5.53548">
        <ele>236</ele>
        <time>2016-06-20T07:58:53Z</time>
      </trkpt>
      <trkpt lat="50.5723" lon="5.53532">
        <ele>236</ele>
        <time>2016-06-20T08:00:53Z</time>
      </trkpt>
      <trkpt lat="50.57227" lon="5.53488">
        <ele>236</ele>
        <time>2016-06-20T08:02:53Z</time>
      </trkpt>
      <trkpt lat="50.57222" lon="5.53422">
        <ele>235</ele>
        <time>2016-06-20T08:04:53Z</time>
      </trkpt>
      <trkpt lat="50.5722" lon="5.53361">
        <ele>234</ele>
        <time>2016-06-20T08:06:53Z</time>
      </trkpt>
      <trkpt lat="50.57215" lon="5.53305">
        <ele>233</ele>
        <time>2016-06-20T08:08:53Z</time>
      </trkpt>
      <trkpt lat="50.57211" lon="5.53283">
        <ele>233</ele>
        <time>2016-06-20T08:10:53Z</time>
      </trkpt>
      <trkpt lat="50.57195" lon="5.5322">
        <ele>233</ele>
        <time>2016-06-20T08:12:53Z</time>
      </trkpt>
      <trkpt lat="50.57176" lon="5.53157">
        <ele>232</ele>
        <time>2016-06-20T08:14:53Z</time>
      </trkpt>
      <trkpt lat="50.5717" lon="5.53136">
        <ele>231</ele>
        <time>2016-06-20T08:16:53Z</time>
      </trkpt>
      <trkpt lat="50.57143" lon="5.53067">
        <ele>230</ele>
        <time>2016-06-20T08:18:53Z</time>
      </trkpt>
      <trkpt lat="50.57116" lon="5.52997">
        <ele>230</ele>
        <time>2016-06-20T08:20:53Z</time>
      </trkpt>
      <trkpt lat="50.57088" lon="5.52928">
        <ele>229</ele>
        <time>2016-06-20T08:22:53Z</time>
      </trkpt>
      <trkpt lat="50.57048" lon="5.52825">
        <ele>227</ele>
        <time>2016-06-20T08:24:53Z</time>
      </trkpt>
      <trkpt lat="50.57035" lon="5.52794">
        <ele>226</ele>
        <time>2016-06-20T08:26:53Z</time>
      </trkpt>
      <trkpt lat="50.57015" lon="5.5274">
        <ele>225</ele>
        <time>2016-06-20T08:28:53Z</time>
      </trkpt>
      <trkpt lat="50.56976" lon="5.52644">
        <ele>225</ele>
        <time>2016-06-20T08:30:53Z</time>
      </trkpt>
      <trkpt lat="50.56947" lon="5.5257">
        <ele>226</ele>
        <time>2016-06-20T08:32:53Z</time>
      </trkpt>
      <trkpt lat="50.56932" lon="5.52532">
        <ele>226</ele>
        <time>2016-06-20T08:34:53Z</time>
      </trkpt>
      <trkpt lat="50.56923" lon="5.52501">
        <ele>226</ele>
        <time>2016-06-20T08:36:53Z</time>
      </trkpt>
      <trkpt lat="50.56919" lon="5.52487">
        <ele>227</ele>
        <time>2016-06-20T08:38:53Z</time>
      </trkpt>
      <trkpt lat="50.56917" lon="5.52473">
        <ele>229</ele>
        <time>2016-06-20T08:40:53Z</time>
      </trkpt>
      <trkpt lat="50.56916" lon="5.52469">
        <ele>229</ele>
        <time>2016-06-20T08:42:53Z</time>
      </trkpt>
      <trkpt lat="50.56918" lon="5.52458">
        <ele>230</ele>
        <time>2016-06-20T08:44:53Z</time>
      </trkpt>
      <trkpt lat="50.56919" lon="5.52453">
        <ele>230</ele>
        <time>2016-06-20T08:46:53Z</time>
      </trkpt>
      <trkpt lat="50.56926" lon="5.5242">
        <ele>233</ele>
        <time>2016-06-20T08:48:53Z</time>
      </trkpt>
      <trkpt lat="50.56933" lon="5.52387">
        <ele>236</ele>
        <time>2016-06-20T08:50:53Z</time>
      </trkpt>
      <trkpt lat="50.56943" lon="5.52345">
        <ele>239</ele>
        <time>2016-06-20T08:52:53Z</time>
      </trkpt>
      <trkpt lat="50.56951" lon="5.52301">
        <ele>241</ele>
        <time>2016-06-20T08:54:53Z</time>
      </trkpt>
      <trkpt lat="50.5696" lon="5.5225">
        <ele>242</ele>
        <time>2016-06-20T08:56:53Z</time>
      </trkpt>
      <trkpt lat="50.56968" lon="5.52206">
        <ele>243</ele>
        <time>2016-06-20T08:58:53Z</time>
      </trkpt>
      <trkpt lat="50.56976" lon="5.52158">
        <ele>244</ele>
        <time>2016-06-20T09:00:53Z</time>
      </trkpt>
      <trkpt lat="50.56997" lon="5.52042">
        <ele>248</ele>
        <time>2016-06-20T09:02:53Z</time>
      </trkpt>
      <trkpt lat="50.57006" lon="5.52">
        <ele>250</ele>
        <time>2016-06-20T09:04:53Z</time>
      </trkpt>
      <trkpt lat="50.57009" lon="5.51981">
        <ele>251</ele>
        <time>2016-06-20T09:06:53Z</time>
      </trkpt>
      <trkpt lat="50.57026" lon="5.51892">
        <ele>253</ele>
        <time>2016-06-20T09:08:53Z</time>
      </trkpt>
      <trkpt lat="50.5704" lon="5.51815">
        <ele>254</ele>
        <time>2016-06-20T09:10:53Z</time>
      </trkpt>
      <trkpt lat="50.57052" lon="5.51751">
        <ele>254</ele>
        <time>2016-06-20T09:12:53Z</time>
      </trkpt>
      <trkpt lat="50.57067" lon="5.51675">
        <ele>253</ele>
        <time>2016-06-20T09:14:53Z</time>
      </trkpt>
      <trkpt lat="50.57076" lon="5.51623">
        <ele>252</ele>
        <time>2016-06-20T09:16:53Z</time>
      </trkpt>
      <trkpt lat="50.57085" lon="5.51579">
        <ele>252</ele>
        <time>2016-06-20T09:18:53Z</time>
      </trkpt>
      <trkpt lat="50.57092" lon="5.51543">
        <ele>252</ele>
        <time>2016-06-20T09:20:53Z</time>
      </trkpt>
      <trkpt lat="50.57106" lon="5.51472">
        <ele>252</ele>
        <time>2016-06-20T09:22:53Z</time>
      </trkpt>
      <trkpt lat="50.57113" lon="5.51434">
        <ele>253</ele>
        <time>2016-06-20T09:24:53Z</time>
      </trkpt>
      <trkpt lat="50.57118" lon="5.51406">
        <ele>253</ele>
        <time>2016-06-20T09:26:53Z</time>
      </trkpt>
      <trkpt lat="50.57134" lon="5.5132">
        <ele>253</ele>
        <time>2016-06-20T09:28:53Z</time>
      </trkpt>
      <trkpt lat="50.57145" lon="5.51266">
        <ele>253</ele>
        <time>2016-06-20T09:30:53Z</time>
      </trkpt>
      <trkpt lat="50.57147" lon="5.51257">
        <ele>254</ele>
        <time>2016-06-20T09:32:53Z</time>
      </trkpt>
      <trkpt lat="50.57154" lon="5.51217">
        <ele>253</ele>
        <time>2016-06-20T09:34:53Z</time>
      </trkpt>
      <trkpt lat="50.57163" lon="5.51185">
        <ele>253</ele>
        <time>2016-06-20T09:36:53Z</time>
      </trkpt>
      <trkpt lat="50.57165" lon="5.51176">
        <ele>253</ele>
        <time>2016-06-20T09:38:53Z</time>
      </trkpt>
      <trkpt lat="50.57167" lon="5.51157">
        <ele>253</ele>
        <time>2016-06-20T09:40:53Z</time>
      </trkpt>
      <trkpt lat="50.57169" lon="5.51138">
        <ele>252</ele>
        <time>2016-06-20T09:42:53Z</time>
      </trkpt>
      <trkpt lat="50.57172" lon="5.51129">
        <ele>251</ele>
        <time>2016-06-20T09:44:53Z</time>
      </trkpt>
      <trkpt lat="50.57179" lon="5.511">
        <ele>250</ele>
        <time>2016-06-20T09:46:53Z</time>
      </trkpt>
      <trkpt lat="50.57187" lon="5.51069">
        <ele>249</ele>
        <time>2016-06-20T09:48:53Z</time>
      </trkpt>
      <trkpt lat="50.57221" lon="5.50927">
        <ele>251</ele>
        <time>2016-06-20T09:50:53Z</time>
      </trkpt>
      <trkpt lat="50.57233" lon="5.50891">
        <ele>252</ele>
        <time>2016-06-20T09:52:53Z</time>
      </trkpt>
      <trkpt lat="50.57236" lon="5.50886">
        <ele>252</ele>
        <time>2016-06-20T09:54:53Z</time>
      </trkpt>
      <trkpt lat="50.57246" lon="5.50868">
        <ele>252</ele>
        <time>2016-06-20T09:56:53Z</time>
      </trkpt>
      <trkpt lat="50.57247" lon="5.5084">
        <ele>253</ele>
        <time>2016-06-20T09:58:53Z</time>
      </trkpt>
      <trkpt lat="50.57247" lon="5.5083">
        <ele>253</ele>
        <time>2016-06-20T10:00:53Z</time>
      </trkpt>
      <trkpt lat="50.57249" lon="5.50811">
        <ele>253</ele>
        <time>2016-06-20T10:02:53Z</time>
      </trkpt>
      <trkpt lat="50.57262" lon="5.50749">
        <ele>254</ele>
        <time>2016-06-20T10:04:53Z</time>
      </trkpt>
      <trkpt lat="50.57279" lon="5.50679">
        <ele>253</ele>
        <time>2016-06-20T10:06:53Z</time>
      </trkpt>
      <trkpt lat="50.57301" lon="5.50623">
        <ele>252</ele>
        <time>2016-06-20T10:08:53Z</time>
      </trkpt>
      <trkpt lat="50.57305" lon="5.50617">
        <ele>252</ele>
        <time>2016-06-20T10:10:53Z</time>
      </trkpt>
      <trkpt lat="50.5732" lon="5.50589">
        <ele>251</ele>
        <time>2016-06-20T10:12:53Z</time>
      </trkpt>
      <trkpt lat="50.57324" lon="5.50583">
        <ele>251</ele>
        <time>2016-06-20T10:14:53Z</time>
      </trkpt>
      <trkpt lat="50.57338" lon="5.50573">
        <ele>251</ele>
        <time>2016-06-20T10:16:53Z</time>
      </trkpt>
      <trkpt lat="50.57344" lon="5.5057">
        <ele>251</ele>
        <time>2016-06-20T10:18:53Z</time>
      </trkpt>
      <trkpt lat="50.57353" lon="5.50559">
        <ele>250</ele>
        <time>2016-06-20T10:20:53Z</time>
      </trkpt>
      <trkpt lat="50.57355" lon="5.5055">
        <ele>250</ele>
        <time>2016-06-20T10:22:53Z</time>
      </trkpt>
      <trkpt lat="50.57352" lon="5.50534">
        <ele>250</ele>
        <time>2016-06-20T10:24:53Z</time>
      </trkpt>
      <trkpt lat="50.57342" lon="5.50528">
        <ele>250</ele>
        <time>2016-06-20T10:26:53Z</time>
      </trkpt>
      <trkpt lat="50.57326" lon="5.50527">
        <ele>251</ele>
        <time>2016-06-20T10:28:53Z</time>
      </trkpt>
      <trkpt lat="50.57321" lon="5.50526">
        <ele>251</ele>
        <time>2016-06-20T10:30:53Z</time>
      </trkpt>
      <trkpt lat="50.57292" lon="5.50516">
        <ele>252</ele>
        <time>2016-06-20T10:32:53Z</time>
      </trkpt>
      <trkpt lat="50.57255" lon="5.50504">
        <ele>253</ele>
        <time>2016-06-20T10:34:53Z</time>
      </trkpt>
      <trkpt lat="50.57251" lon="5.50501">
        <ele>253</ele>
        <time>2016-06-20T10:36:53Z</time>
      </trkpt>
      <trkpt lat="50.57234" lon="5.50495">
        <ele>254</ele>
        <time>2016-06-20T10:38:53Z</time>
      </trkpt>
      <trkpt lat="50.57202" lon="5.50485">
        <ele>255</ele>
        <time>2016-06-20T10:40:53Z</time>
      </trkpt>
      <trkpt lat="50.57175" lon="5.50475">
        <ele>255</ele>
        <time>2016-06-20T10:42:53Z</time>
      </trkpt>
      <trkpt lat="50.57147" lon="5.50465">
        <ele>256</ele>
        <time>2016-06-20T10:44:53Z</time>
      </trkpt>
      <trkpt lat="50.57106" lon="5.50449">
        <ele>256</ele>
        <time>2016-06-20T10:46:53Z</time>
      </trkpt>
      <trkpt lat="50.57093" lon="5.50443">
        <ele>256</ele>
        <time>2016-06-20T10:48:53Z</time>
      </trkpt>
      <trkpt lat="50.57077" lon="5.50435">
        <ele>255</ele>
        <time>2016-06-20T10:50:53Z</time>
      </trkpt>
      <trkpt lat="50.57069" lon="5.50431">
        <ele>255</ele>
        <time>2016-06-20T10:52:53Z</time>
      </trkpt>
      <trkpt lat="50.57063" lon="5.5043">
        <ele>255</ele>
        <time>2016-06-20T10:54:53Z</time>
      </trkpt>
      <trkpt lat="50.57051" lon="5.50426">
        <ele>255</ele>
        <time>2016-06-20T10:56:53Z</time>
      </trkpt>
      <trkpt lat="50.57036" lon="5.50422">
        <ele>255</ele>
        <time>2016-06-20T10:58:53Z</time>
      </trkpt>
      <trkpt lat="50.57032" lon="5.50421">
        <ele>255</ele>
        <time>2016-06-20T11:00:53Z</time>
      </trkpt>
      <trkpt lat="50.57025" lon="5.50419">
        <ele>255</ele>
        <time>2016-06-20T11:02:53Z</time>
      </trkpt>
      <trkpt lat="50.57019" lon="5.50418">
        <ele>255</ele>
        <time>2016-06-20T11:04:53Z</time>
      </trkpt>
      <trkpt lat="50.57007" lon="5.50414">
        <ele>255</ele>
        <time>2016-06-20T11:06:53Z</time>
      </trkpt>
      <trkpt lat="50.57" lon="5.50412">
        <ele>255</ele>
        <time>2016-06-20T11:08:53Z</time>
      </trkpt>
      <trkpt lat="50.56996" lon="5.50411">
        <ele>255</ele>
        <time>2016-06-20T11:10:53Z</time>
      </trkpt>
      <trkpt lat="50.56986" lon="5.50405">
        <ele>255</ele>
        <time>2016-06-20T11:12:53Z</time>
      </trkpt>
      <trkpt lat="50.56967" lon="5.50398">
        <ele>254</ele>
        <time>2016-06-20T11:14:53Z</time>
      </trkpt>
      <trkpt lat="50.56958" lon="5.50394">
        <ele>254</ele>
        <time>2016-06-20T11:16:53Z</time>
      </trkpt>
      <trkpt lat="50.56938" lon="5.50387">
        <ele>254</ele>
        <time>2016-06-20T11:18:53Z</time>
      </trkpt>
      <trkpt lat="50.56926" lon="5.50383">
        <ele>254</ele>
        <time>2016-06-20T11:20:53Z</time>
      </trkpt>
      <trkpt lat="50.56888" lon="5.50369">
        <ele>253</ele>
        <time>2016-06-20T11:22:53Z</time>
      </trkpt>
      <trkpt lat="50.56875" lon="5.50363">
        <ele>253</ele>
        <time>2016-06-20T11:24:53Z</time>
      </trkpt>
      <trkpt lat="50.56836" lon="5.5035">
        <ele>253</ele>
        <time>2016-06-20T11:26:53Z</time>
      </trkpt>
      <trkpt lat="50.56803" lon="5.50341">
        <ele>251</ele>
        <time>2016-06-20T11:28:53Z</time>
      </trkpt>
      <trkpt lat="50.56753" lon="5.50321">
        <ele>249</ele>
        <time>2016-06-20T11:30:53Z</time>
      </trkpt>
      <trkpt lat="50.567" lon="5.50302">
        <ele>246</ele>
        <time>2016-06-20T11:32:53Z</time>
      </trkpt>
      <trkpt lat="50.56692" lon="5.50298">
        <ele>246</ele>
        <time>2016-06-20T11:34:53Z</time>
      </trkpt>
      <trkpt lat="50.56668" lon="5.50289">
        <ele>245</ele>
        <time>2016-06-20T11:36:53Z</time>
      </trkpt>
      <trkpt lat="50.56643" lon="5.50279">
        <ele>245</ele>
        <time>2016-06-20T11:38:53Z</time>
      </trkpt>
      <trkpt lat="50.56635" lon="5.50276">
        <ele>245</ele>
        <time>2016-06-20T11:40:53Z</time>
      </trkpt>
      <trkpt lat="50.56505" lon="5.50227">
        <ele>244</ele>
        <time>2016-06-20T11:42:53Z</time>
      </trkpt>
      <trkpt lat="50.56473" lon="5.50217">
        <ele>244</ele>
        <time>2016-06-20T11:44:53Z</time>
      </trkpt>
      <trkpt lat="50.56417" lon="5.50196">
        <ele>242</ele>
        <time>2016-06-20T11:46:53Z</time>
      </trkpt>
      <trkpt lat="50.56362" lon="5.50174">
        <ele>239</ele>
        <time>2016-06-20T11:48:53Z</time>
      </trkpt>
      <trkpt lat="50.56306" lon="5.50153">
        <ele>239</ele>
        <time>2016-06-20T11:50:53Z</time>
      </trkpt>
      <trkpt lat="50.56263" lon="5.50135">
        <ele>240</ele>
        <time>2016-06-20T11:52:53Z</time>
      </trkpt>
      <trkpt lat="50.56202" lon="5.50112">
        <ele>240</ele>
        <time>2016-06-20T11:54:53Z</time>
      </trkpt>
      <trkpt lat="50.56152" lon="5.50091">
        <ele>240</ele>
        <time>2016-06-20T11:56:53Z</time>
      </trkpt>
      <trkpt lat="50.56121" lon="5.50081">
        <ele>240</ele>
        <time>2016-06-20T11:58:53Z</time>
      </trkpt>
      <trkpt lat="50.56102" lon="5.50073">
        <ele>239</ele>
        <time>2016-06-20T12:00:53Z</time>
      </trkpt>
      <trkpt lat="50.56082" lon="5.50064">
        <ele>239</ele>
        <time>2016-06-20T12:02:53Z</time>
      </trkpt>
      <trkpt lat="50.56063" lon="5.50054">
        <ele>239</ele>
        <time>2016-06-20T12:04:53Z</time>
      </trkpt>
      <trkpt lat="50.56044" lon="5.50038">
        <ele>238</ele>
        <time>2016-06-20T12:06:53Z</time>
      </trkpt>
      <trkpt lat="50.56031" lon="5.50025">
        <ele>238</ele>
        <time>2016-06-20T12:08:53Z</time>
      </trkpt>
      <trkpt lat="50.56008" lon="5.49998">
        <ele>237</ele>
        <time>2016-06-20T12:10:53Z</time>
      </trkpt>
      <trkpt lat="50.56002" lon="5.49991">
        <ele>237</ele>
        <time>2016-06-20T12:12:53Z</time>
      </trkpt>
      <trkpt lat="50.5596" lon="5.49943">
        <ele>238</ele>
        <time>2016-06-20T12:14:53Z</time>
      </trkpt>
      <trkpt lat="50.55954" lon="5.49934">
        <ele>238</ele>
        <time>2016-06-20T12:16:53Z</time>
      </trkpt>
      <trkpt lat="50.55911" lon="5.49886">
        <ele>240</ele>
        <time>2016-06-20T12:18:53Z</time>
      </trkpt>
      <trkpt lat="50.5588" lon="5.49849">
        <ele>241</ele>
        <time>2016-06-20T12:20:53Z</time>
      </trkpt>
      <trkpt lat="50.55851" lon="5.49821">
        <ele>242</ele>
        <time>2016-06-20T12:22:53Z</time>
      </trkpt>
      <trkpt lat="50.55819" lon="5.49796">
        <ele>245</ele>
        <time>2016-06-20T12:24:53Z</time>
      </trkpt>
      <trkpt lat="50.55792" lon="5.49778">
        <ele>247</ele>
        <time>2016-06-20T12:26:53Z</time>
      </trkpt>
      <trkpt lat="50.55774" lon="5.49762">
        <ele>248</ele>
        <time>2016-06-20T12:28:53Z</time>
      </trkpt>
      <trkpt lat="50.5577" lon="5.4976">
        <ele>248</ele>
        <time>2016-06-20T12:30:53Z</time>
      </trkpt>
      <trkpt lat="50.55743" lon="5.49743">
        <ele>249</ele>
        <time>2016-06-20T12:32:53Z</time>
      </trkpt>
      <trkpt lat="50.55705" lon="5.49724">
        <ele>250</ele>
        <time>2016-06-20T12:34:53Z</time>
      </trkpt>
      <trkpt lat="50.55675" lon="5.49718">
        <ele>251</ele>
        <time>2016-06-20T12:36:53Z</time>
      </trkpt>
      <trkpt lat="50.55633" lon="5.4971">
        <ele>252</ele>
        <time>2016-06-20T12:38:53Z</time>
      </trkpt>
      <trkpt lat="50.55618" lon="5.49705">
        <ele>253</ele>
        <time>2016-06-20T12:40:53Z</time>
      </trkpt>
      <trkpt lat="50.55593" lon="5.49701">
        <ele>253</ele>
        <time>2016-06-20T12:42:53Z</time>
      </trkpt>
      <trkpt lat="50.55588" lon="5.497">
        <ele>253</ele>
        <time>2016-06-20T12:44:53Z</time>
      </trkpt>
      <trkpt lat="50.55583" lon="5.49698">
        <ele>253</ele>
        <time>2016-06-20T12:46:53Z</time>
      </trkpt>
      <trkpt lat="50.55569" lon="5.49693">
        <ele>254</ele>
        <time>2016-06-20T12:48:53Z</time>
      </trkpt>
      <trkpt lat="50.55555" lon="5.4969">
        <ele>254</ele>
        <time>2016-06-20T12:50:53Z</time>
      </trkpt>
      <trkpt lat="50.55524" lon="5.49689">
        <ele>255</ele>
        <time>2016-06-20T12:52:53Z</time>
      </trkpt>
      <trkpt lat="50.55489" lon="5.49683">
        <ele>256</ele>
        <time>2016-06-20T12:54:53Z</time>
      </trkpt>
      <trkpt lat="50.55433" lon="5.49666">
        <ele>256</ele>
        <time>2016-06-20T12:56:53Z</time>
      </trkpt>
      <trkpt lat="50.55429" lon="5.49665">
        <ele>256</ele>
        <time>2016-06-20T12:58:53Z</time>
      </trkpt>
      <trkpt lat="50.55403" lon="5.49662">
        <ele>256</ele>
        <time>2016-06-20T13:00:53Z</time>
      </trkpt>
      <trkpt lat="50.55398" lon="5.49661">
        <ele>257</ele>
        <time>2016-06-20T13:02:53Z</time>
      </trkpt>
      <trkpt lat="50.55388" lon="5.49658">
        <ele>257</ele>
        <time>2016-06-20T13:04:53Z</time>
      </trkpt>
      <trkpt lat="50.55383" lon="5.49656">
        <ele>257</ele>
        <time>2016-06-20T13:06:53Z</time>
      </trkpt>
      <trkpt lat="50.55373" lon="5.49653">
        <ele>257</ele>
        <time>2016-06-20T13:08:53Z</time>
      </trkpt>
      <trkpt lat="50.55354" lon="5.49649">
        <ele>258</ele>
        <time>2016-06-20T13:10:53Z</time>
      </trkpt>
      <trkpt lat="50.55345" lon="5.49647">
        <ele>258</ele>
        <time>2016-06-20T13:12:53Z</time>
      </trkpt>
      <trkpt lat="50.55337" lon="5.49645">
        <ele>258</ele>
        <time>2016-06-20T13:14:53Z</time>
      </trkpt>
      <trkpt lat="50.55315" lon="5.49641">
        <ele>259</ele>
        <time>2016-06-20T13:16:53Z</time>
      </trkpt>
      <trkpt lat="50.55309" lon="5.49639">
        <ele>259</ele>
        <time>2016-06-20T13:18:53Z</time>
      </trkpt>
      <trkpt lat="50.55293" lon="5.49635">
        <ele>260</ele>
        <time>2016-06-20T13:20:53Z</time>
      </trkpt>
      <trkpt lat="50.55287" lon="5.49634">
        <ele>260</ele>
        <time>2016-06-20T13:22:53Z</time>
      </trkpt>
      <trkpt lat="50.55276" lon="5.49633">
        <ele>260</ele>
        <time>2016-06-20T13:24:53Z</time>
      </trkpt>
      <trkpt lat="50.55258" lon="5.49634">
        <ele>261</ele>
        <time>2016-06-20T13:26:53Z</time>
      </trkpt>
      <trkpt lat="50.55232" lon="5.49639">
        <ele>261</ele>
        <time>2016-06-20T13:28:53Z</time>
      </trkpt>
      <trkpt lat="50.5521" lon="5.49646">
        <ele>262</ele>
        <time>2016-06-20T13:30:53Z</time>
      </trkpt>
      <trkpt lat="50.55187" lon="5.49655">
        <ele>262</ele>
        <time>2016-06-20T13:32:53Z</time>
      </trkpt>
      <trkpt lat="50.5516" lon="5.49669">
        <ele>262</ele>
        <time>2016-06-20T13:34:53Z</time>
      </trkpt>
      <trkpt lat="50.55152" lon="5.49676">
        <ele>263</ele>
        <time>2016-06-20T13:36:53Z</time>
      </trkpt>
      <trkpt lat="50.55139" lon="5.49682">
        <ele>263</ele>
        <time>2016-06-20T13:38:53Z</time>
      </trkpt>
      <trkpt lat="50.55131" lon="5.49687">
        <ele>263</ele>
        <time>2016-06-20T13:40:53Z</time>
      </trkpt>
      <trkpt lat="50.55118" lon="5.49694">
        <ele>264</ele>
        <time>2016-06-20T13:42:53Z</time>
      </trkpt>
      <trkpt lat="50.55102" lon="5.49702">
        <ele>264</ele>
        <time>2016-06-20T13:44:53Z</time>
      </trkpt>
      <trkpt lat="50.55091" lon="5.49706">
        <ele>264</ele>
        <time>2016-06-20T13:46:53Z</time>
      </trkpt>
      <trkpt lat="50.55069" lon="5.49718">
        <ele>265</ele>
        <time>2016-06-20T13:48:53Z</time>
      </trkpt>
      <trkpt lat="50.5505" lon="5.49723">
        <ele>266</ele>
        <time>2016-06-20T13:50:53Z</time>
      </trkpt>
      <trkpt lat="50.55045" lon="5.49724">
        <ele>266</ele>
        <time>2016-06-20T13:52:53Z</time>
      </trkpt>
      <trkpt lat="50.55028" lon="5.49726">
        <ele>266</ele>
        <time>2016-06-20T13:54:53Z</time>
      </trkpt>
      <trkpt lat="50.55017" lon="5.49725">
        <ele>267</ele>
        <time>2016-06-20T13:56:53Z</time>
      </trkpt>
      <trkpt lat="50.54988" lon="5.49723">
        <ele>267</ele>
        <time>2016-06-20T13:58:53Z</time>
      </trkpt>
      <trkpt lat="50.54949" lon="5.49714">
        <ele>267</ele>
        <time>2016-06-20T14:00:53Z</time>
      </trkpt>
      <trkpt lat="50.54929" lon="5.49708">
        <ele>267</ele>
        <time>2016-06-20T14:02:53Z</time>
      </trkpt>
      <trkpt lat="50.54919" lon="5.49706">
        <ele>267</ele>
        <time>2016-06-20T14:04:53Z</time>
      </trkpt>
      <trkpt lat="50.54909" lon="5.49705">
        <ele>268</ele>
        <time>2016-06-20T14:06:53Z</time>
      </trkpt>
      <trkpt lat="50.54874" lon="5.49699">
        <ele>268</ele>
        <time>2016-06-20T14:08:53Z</time>
      </trkpt>
      <trkpt lat="50.5486" lon="5.49695">
        <ele>268</ele>
        <time>2016-06-20T14:10:53Z</time>
      </trkpt>
      <trkpt lat="50.54833" lon="5.49689">
        <ele>269</ele>
        <time>2016-06-20T14:12:53Z</time>
      </trkpt>
      <trkpt lat="50.54813" lon="5.49679">
        <ele>269</ele>
        <time>2016-06-20T14:14:53Z</time>
      </trkpt>
      <trkpt lat="50.54782" lon="5.49661">
        <ele>269</ele>
        <time>2016-06-20T14:16:53Z</time>
      </trkpt>
      <trkpt lat="50.54778" lon="5.49658">
        <ele>269</ele>
        <time>2016-06-20T14:18:53Z</time>
      </trkpt>
      <trkpt lat="50.54758" lon="5.49634">
        <ele>268</ele>
        <time>2016-06-20T14:20:53Z</time>
      </trkpt>
      <trkpt lat="50.54752" lon="5.49621">
        <ele>268</ele>
        <time>2016-06-20T14:22:53Z</time>
      </trkpt>
      <trkpt lat="50.54734" lon="5.49589">
        <ele>267</ele>
        <time>2016-06-20T14:24:53Z</time>
      </trkpt>
      <trkpt lat="50.54698" lon="5.49539">
        <ele>268</ele>
        <time>2016-06-20T14:26:53Z</time>
      </trkpt>
      <trkpt lat="50.54686" lon="5.49521">
        <ele>268</ele>
        <time>2016-06-20T14:28:53Z</time>
      </trkpt>
      <trkpt lat="50.54676" lon="5.49502">
        <ele>269</ele>
        <time>2016-06-20T14:30:53Z</time>
      </trkpt>
      <trkpt lat="50.54669" lon="5.49489">
        <ele>269</ele>
        <time>2016-06-20T14:32:53Z</time>
      </trkpt>
      <trkpt lat="50.54663" lon="5.49475">
        <ele>270</ele>
        <time>2016-06-20T14:34:53Z</time>
      </trkpt>
      <trkpt lat="50.54644" lon="5.49434">
        <ele>271</ele>
        <time>2016-06-20T14:36:53Z</time>
      </trkpt>
      <trkpt lat="50.54631" lon="5.49407">
        <ele>271</ele>
        <time>2016-06-20T14:38:53Z</time>
      </trkpt>
      <trkpt lat="50.54613" lon="5.49373">
        <ele>271</ele>
        <time>2016-06-20T14:40:53Z</time>
      </trkpt>
      <trkpt lat="50.54595" lon="5.49339">
        <ele>271</ele>
        <time>2016-06-20T14:42:53Z</time>
      </trkpt>
      <trkpt lat="50.54555" lon="5.49267">
        <ele>269</ele>
        <time>2016-06-20T14:44:53Z</time>
      </trkpt>
      <trkpt lat="50.54543" lon="5.49244">
        <ele>269</ele>
        <time>2016-06-20T14:46:53Z</time>
      </trkpt>
      <trkpt lat="50.54519" lon="5.49204">
        <ele>269</ele>
        <time>2016-06-20T14:48:53Z</time>
      </trkpt>
      <trkpt lat="50.54511" lon="5.49189">
        <ele>270</ele>
        <time>2016-06-20T14:50:53Z</time>
      </trkpt>
      <trkpt lat="50.54493" lon="5.49151">
        <ele>270</ele>
        <time>2016-06-20T14:52:53Z</time>
      </trkpt>
      <trkpt lat="50.54477" lon="5.4912">
        <ele>270</ele>
        <time>2016-06-20T14:54:53Z</time>
      </trkpt>
      <trkpt lat="50.54466" lon="5.49096">
        <ele>269</ele>
        <time>2016-06-20T14:56:53Z</time>
      </trkpt>
      <trkpt lat="50.54455" lon="5.49073">
        <ele>269</ele>
        <time>2016-06-20T14:58:53Z</time>
      </trkpt>
      <trkpt lat="50.54431" lon="5.49023">
        <ele>270</ele>
        <time>2016-06-20T15:00:53Z</time>
      </trkpt>
      <trkpt lat="50.54422" lon="5.49007">
        <ele>270</ele>
        <time>2016-06-20T15:02:53Z</time>
      </trkpt>
      <trkpt lat="50.54404" lon="5.48968">
        <ele>270</ele>
        <time>2016-06-20T15:04:53Z</time>
      </trkpt>
      <trkpt lat="50.54379" lon="5.48913">
        <ele>270</ele>
        <time>2016-06-20T15:06:53Z</time>
      </trkpt>
      <trkpt lat="50.54373" lon="5.48896">
        <ele>270</ele>
        <time>2016-06-20T15:08:53Z</time>
      </trkpt>
      <trkpt lat="50.54371" lon="5.48887">
        <ele>270</ele>
        <time>2016-06-20T15:10:53Z</time>
      </trkpt>
      <trkpt lat="50.54368" lon="5.48868">
        <ele>270</ele>
        <time>2016-06-20T15:12:53Z</time>
      </trkpt>
      <trkpt lat="50.54362" lon="5.4882">
        <ele>269</ele>
        <time>2016-06-20T15:14:53Z</time>
      </trkpt>
      <trkpt lat="50.54361" lon="5.48793">
        <ele>269</ele>
        <time>2016-06-20T15:16:53Z</time>
      </trkpt>
      <trkpt lat="50.54361" lon="5.48784">
        <ele>270</ele>
        <time>2016-06-20T15:18:53Z</time>
      </trkpt>
      <trkpt lat="50.54364" lon="5.48743">
        <ele>270</ele>
        <time>2016-06-20T15:20:53Z</time>
      </trkpt>
      <trkpt lat="50.54369" lon="5.48701">
        <ele>270</ele>
        <time>2016-06-20T15:22:53Z</time>
      </trkpt>
      <trkpt lat="50.54371" lon="5.48693">
        <ele>270</ele>
        <time>2016-06-20T15:24:53Z</time>
      </trkpt>
      <trkpt lat="50.54382" lon="5.48676">
        <ele>269</ele>
        <time>2016-06-20T15:26:53Z</time>
      </trkpt>
      <trkpt lat="50.54397" lon="5.48677">
        <ele>269</ele>
        <time>2016-06-20T15:28:53Z</time>
      </trkpt>
      <trkpt lat="50.54412" lon="5.4868">
        <ele>269</ele>
        <time>2016-06-20T15:30:53Z</time>
      </trkpt>
      <trkpt lat="50.54428" lon="5.48664">
        <ele>269</ele>
        <time>2016-06-20T15:32:53Z</time>
      </trkpt>
      <trkpt lat="50.54439" lon="5.48657">
        <ele>268</ele>
        <time>2016-06-20T15:34:53Z</time>
      </trkpt>
      <trkpt lat="50.54445" lon="5.48655">
        <ele>268</ele>
        <time>2016-06-20T15:36:53Z</time>
      </trkpt>
      <trkpt lat="50.5447" lon="5.48648">
        <ele>268</ele>
        <time>2016-06-20T15:38:53Z</time>
      </trkpt>
      <trkpt lat="50.545" lon="5.48641">
        <ele>267</ele>
        <time>2016-06-20T15:40:53Z</time>
      </trkpt>
      <trkpt lat="50.54518" lon="5.48636">
        <ele>266</ele>
        <time>2016-06-20T15:42:53Z</time>
      </trkpt>
      <trkpt lat="50.54549" lon="5.48626">
        <ele>264</ele>
        <time>2016-06-20T15:44:53Z</time>
      </trkpt>
      <trkpt lat="50.54594" lon="5.48616">
        <ele>263</ele>
        <time>2016-06-20T15:46:53Z</time>
      </trkpt>
      <trkpt lat="50.5464" lon="5.48606">
        <ele>262</ele>
        <time>2016-06-20T15:48:53Z</time>
      </trkpt>
      <trkpt lat="50.54696" lon="5.48592">
        <ele>261</ele>
        <time>2016-06-20T15:50:53Z</time>
      </trkpt>
      <trkpt lat="50.54702" lon="5.48591">
        <ele>261</ele>
        <time>2016-06-20T15:52:53Z</time>
      </trkpt>
      <trkpt lat="50.5475" lon="5.48577">
        <ele>260</ele>
        <time>2016-06-20T15:54:53Z</time>
      </trkpt>
      <trkpt lat="50.54784" lon="5.48571">
        <ele>259</ele>
        <time>2016-06-20T15:56:53Z</time>
      </trkpt>
      <trkpt lat="50.54794" lon="5.48567">
        <ele>259</ele>
        <time>2016-06-20T15:58:53Z</time>
      </trkpt>
      <trkpt lat="50.54802" lon="5.48558">
        <ele>259</ele>
        <time>2016-06-20T16:00:53Z</time>
      </trkpt>
      <trkpt lat="50.54812" lon="5.48529">
        <ele>259</ele>
        <time>2016-06-20T16:02:53Z</time>
      </trkpt>
      <trkpt lat="50.54827" lon="5.48467">
        <ele>258</ele>
        <time>2016-06-20T16:04:53Z</time>
      </trkpt>
      <trkpt lat="50.54842" lon="5.48399">
        <ele>258</ele>
        <time>2016-06-20T16:06:53Z</time>
      </trkpt>
      <trkpt lat="50.54847" lon="5.48379">
        <ele>258</ele>
        <time>2016-06-20T16:08:53Z</time>
      </trkpt>
      <trkpt lat="50.54851" lon="5.48369">
        <ele>258</ele>
        <time>2016-06-20T16:10:53Z</time>
      </trkpt>
      <trkpt lat="50.54855" lon="5.4836">
        <ele>258</ele>
        <time>2016-06-20T16:12:53Z</time>
      </trkpt>
      <trkpt lat="50.54858" lon="5.48351">
        <ele>259</ele>
        <time>2016-06-20T16:14:53Z</time>
      </trkpt>
      <trkpt lat="50.54861" lon="5.48342">
        <ele>259</ele>
        <time>2016-06-20T16:16:53Z</time>
      </trkpt>
      <trkpt lat="50.54864" lon="5.48323">
        <ele>259</ele>
        <time>2016-06-20T16:18:53Z</time>
      </trkpt>
      <trkpt lat="50.54864" lon="5.48313">
        <ele>259</ele>
        <time>2016-06-20T16:20:53Z</time>
      </trkpt>
      <trkpt lat="50.54847" lon="5.4821">
        <ele>258</ele>
        <time>2016-06-20T16:22:53Z</time>
      </trkpt>
      <trkpt lat="50.54836" lon="5.48145">
        <ele>258</ele>
        <time>2016-06-20T16:24:53Z</time>
      </trkpt>
      <trkpt lat="50.54834" lon="5.48137">
        <ele>258</ele>
        <time>2016-06-20T16:26:53Z</time>
      </trkpt>
      <trkpt lat="50.54834" lon="5.48129">
        <ele>258</ele>
        <time>2016-06-20T16:28:53Z</time>
      </trkpt>
      <trkpt lat="50.54839" lon="5.48117">
        <ele>258</ele>
        <time>2016-06-20T16:30:53Z</time>
      </trkpt>
      <trkpt lat="50.54848" lon="5.48112">
        <ele>258</ele>
        <time>2016-06-20T16:32:53Z</time>
      </trkpt>
      <trkpt lat="50.5486" lon="5.48108">
        <ele>258</ele>
        <time>2016-06-20T16:34:53Z</time>
      </trkpt>
      <trkpt lat="50.54896" lon="5.48092">
        <ele>259</ele>
        <time>2016-06-20T16:36:53Z</time>
      </trkpt>
      <trkpt lat="50.54901" lon="5.48087">
        <ele>259</ele>
        <time>2016-06-20T16:38:53Z</time>
      </trkpt>
      <trkpt lat="50.54906" lon="5.48071">
        <ele>259</ele>
        <time>2016-06-20T16:40:53Z</time>
      </trkpt>
      <trkpt lat="50.54904" lon="5.48054">
        <ele>259</ele>
        <time>2016-06-20T16:42:53Z</time>
      </trkpt>
      <trkpt lat="50.54901" lon="5.48036">
        <ele>258</ele>
        <time>2016-06-20T16:44:53Z</time>
      </trkpt>
      <trkpt lat="50.54891" lon="5.47978">
        <ele>258</ele>
        <time>2016-06-20T16:46:53Z</time>
      </trkpt>
      <trkpt lat="50.54879" lon="5.47909">
        <ele>258</ele>
        <time>2016-06-20T16:48:53Z</time>
      </trkpt>
      <trkpt lat="50.54872" lon="5.47864">
        <ele>257</ele>
        <time>2016-06-20T16:50:53Z</time>
      </trkpt>
      <trkpt lat="50.54872" lon="5.47857">
        <ele>257</ele>
        <time>2016-06-20T16:52:53Z</time>
      </trkpt>
      <trkpt lat="50.54877" lon="5.47845">
        <ele>258</ele>
        <time>2016-06-20T16:54:53Z</time>
      </trkpt>
      <trkpt lat="50.54885" lon="5.47833">
        <ele>258</ele>
        <time>2016-06-20T16:56:53Z</time>
      </trkpt>
      <trkpt lat="50.54889" lon="5.47825">
        <ele>257</ele>
        <time>2016-06-20T16:58:53Z</time>
      </trkpt>
      <trkpt lat="50.54892" lon="5.47817">
        <ele>257</ele>
        <time>2016-06-20T17:00:53Z</time>
      </trkpt>
      <trkpt lat="50.54901" lon="5.47779">
        <ele>256</ele>
        <time>2016-06-20T17:02:53Z</time>
      </trkpt>
      <trkpt lat="50.54918" lon="5.47686">
        <ele>253</ele>
        <time>2016-06-20T17:04:53Z</time>
      </trkpt>
      <trkpt lat="50.54926" lon="5.47651">
        <ele>252</ele>
        <time>2016-06-20T17:06:53Z</time>
      </trkpt>
      <trkpt lat="50.5493" lon="5.4764">
        <ele>252</ele>
        <time>2016-06-20T17:08:53Z</time>
      </trkpt>
      <trkpt lat="50.54948" lon="5.47614">
        <ele>251</ele>
        <time>2016-06-20T17:10:53Z</time>
      </trkpt>
      <trkpt lat="50.54956" lon="5.47608">
        <ele>251</ele>
        <time>2016-06-20T17:12:53Z</time>
      </trkpt>
      <trkpt lat="50.54996" lon="5.4758">
        <ele>249</ele>
        <time>2016-06-20T17:14:53Z</time>
      </trkpt>
      <trkpt lat="50.55062" lon="5.47536">
        <ele>245</ele>
        <time>2016-06-20T17:16:53Z</time>
      </trkpt>
      <trkpt lat="50.55112" lon="5.47504">
        <ele>243</ele>
        <time>2016-06-20T17:18:53Z</time>
      </trkpt>
      <trkpt lat="50.5516" lon="5.4747">
        <ele>242</ele>
        <time>2016-06-20T17:20:53Z</time>
      </trkpt>
      <trkpt lat="50.55195" lon="5.47446">
        <ele>241</ele>
        <time>2016-06-20T17:22:53Z</time>
      </trkpt>
      <trkpt lat="50.5523" lon="5.47424">
        <ele>239</ele>
        <time>2016-06-20T17:24:53Z</time>
      </trkpt>
      <trkpt lat="50.55274" lon="5.47396">
        <ele>237</ele>
        <time>2016-06-20T17:26:53Z</time>
      </trkpt>
      <trkpt lat="50.5529" lon="5.47385">
        <ele>236</ele>
        <time>2016-06-20T17:28:53Z</time>
      </trkpt>
      <trkpt lat="50.55312" lon="5.47371">
        <ele>235</ele>
        <time>2016-06-20T17:30:53Z</time>
      </trkpt>
      <trkpt lat="50.55363" lon="5.47337">
        <ele>235</ele>
        <time>2016-06-20T17:32:53Z</time>
      </trkpt>
      <trkpt lat="50.55384" lon="5.47321">
        <ele>236</ele>
        <time>2016-06-20T17:34:53Z</time>
      </trkpt>
      <trkpt lat="50.5539" lon="5.47314">
        <ele>237</ele>
        <time>2016-06-20T17:36:53Z</time>
      </trkpt>
      <trkpt lat="50.55406" lon="5.47289">
        <ele>237</ele>
        <time>2016-06-20T17:38:53Z</time>
      </trkpt>
      <trkpt lat="50.55412" lon="5.47269">
        <ele>237</ele>
        <time>2016-06-20T17:40:53Z</time>
      </trkpt>
      <trkpt lat="50.55413" lon="5.47258">
        <ele>237</ele>
        <time>2016-06-20T17:42:53Z</time>
      </trkpt>
      <trkpt lat="50.55414" lon="5.47239">
        <ele>237</ele>
        <time>2016-06-20T17:44:53Z</time>
      </trkpt>
      <trkpt lat="50.55415" lon="5.47123">
        <ele>236</ele>
        <time>2016-06-20T17:46:53Z</time>
      </trkpt>
      <trkpt lat="50.55416" lon="5.47027">
        <ele>236</ele>
        <time>2016-06-20T17:48:53Z</time>
      </trkpt>
      <trkpt lat="50.55415" lon="5.46967">
        <ele>235</ele>
        <time>2016-06-20T17:50:53Z</time>
      </trkpt>
      <trkpt lat="50.55416" lon="5.4691">
        <ele>234</ele>
        <time>2016-06-20T17:52:53Z</time>
      </trkpt>
      <trkpt lat="50.55417" lon="5.46891">
        <ele>234</ele>
        <time>2016-06-20T17:54:53Z</time>
      </trkpt>
      <trkpt lat="50.55427" lon="5.4687">
        <ele>234</ele>
        <time>2016-06-20T17:56:53Z</time>
      </trkpt>
      <trkpt lat="50.55452" lon="5.46817">
        <ele>235</ele>
        <time>2016-06-20T17:58:53Z</time>
      </trkpt>
      <trkpt lat="50.55475" lon="5.46762">
        <ele>235</ele>
        <time>2016-06-20T18:00:53Z</time>
      </trkpt>
      <trkpt lat="50.55481" lon="5.4675">
        <ele>235</ele>
        <time>2016-06-20T18:02:53Z</time>
      </trkpt>
      <trkpt lat="50.55482" lon="5.46746">
        <ele>235</ele>
        <time>2016-06-20T18:04:53Z</time>
      </trkpt>
      <trkpt lat="50.55479" lon="5.46728">
        <ele>235</ele>
        <time>2016-06-20T18:06:53Z</time>
      </trkpt>
      <trkpt lat="50.55467" lon="5.46688">
        <ele>234</ele>
        <time>2016-06-20T18:08:53Z</time>
      </trkpt>
      <trkpt lat="50.55448" lon="5.46622">
        <ele>234</ele>
        <time>2016-06-20T18:10:53Z</time>
      </trkpt>
      <trkpt lat="50.55423" lon="5.46544">
        <ele>233</ele>
        <time>2016-06-20T18:12:53Z</time>
      </trkpt>
      <trkpt lat="50.55375" lon="5.46385">
        <ele>231</ele>
        <time>2016-06-20T18:14:53Z</time>
      </trkpt>
      <trkpt lat="50.55358" lon="5.46331">
        <ele>230</ele>
        <time>2016-06-20T18:16:53Z</time>
      </trkpt>
      <trkpt lat="50.55321" lon="5.46209">
        <ele>225</ele>
        <time>2016-06-20T18:18:53Z</time>
      </trkpt>
      <trkpt lat="50.55313" lon="5.46184">
        <ele>224</ele>
        <time>2016-06-20T18:20:53Z</time>
      </trkpt>
      <trkpt lat="50.55291" lon="5.46117">
        <ele>222</ele>
        <time>2016-06-20T18:22:53Z</time>
      </trkpt>
      <trkpt lat="50.55256" lon="5.46004">
        <ele>218</ele>
        <time>2016-06-20T18:24:53Z</time>
      </trkpt>
      <trkpt lat="50.55251" lon="5.45989">
        <ele>218</ele>
        <time>2016-06-20T18:26:53Z</time>
      </trkpt>
      <trkpt lat="50.55215" lon="5.45873">
        <ele>212</ele>
        <time>2016-06-20T18:28:53Z</time>
      </trkpt>
      <trkpt lat="50.55166" lon="5.4571">
        <ele>212</ele>
        <time>2016-06-20T18:30:53Z</time>
      </trkpt>
      <trkpt lat="50.55163" lon="5.45699">
        <ele>212</ele>
        <time>2016-06-20T18:32:53Z</time>
      </trkpt>
      <trkpt lat="50.55162" lon="5.45675">
        <ele>212</ele>
        <time>2016-06-20T18:34:53Z</time>
      </trkpt>
      <trkpt lat="50.55165" lon="5.45652">
        <ele>212</ele>
        <time>2016-06-20T18:36:53Z</time>
      </trkpt>
      <trkpt lat="50.55175" lon="5.45587">
        <ele>213</ele>
        <time>2016-06-20T18:38:53Z</time>
      </trkpt>
      <trkpt lat="50.5518" lon="5.4556">
        <ele>214</ele>
        <time>2016-06-20T18:40:53Z</time>
      </trkpt>
      <trkpt lat="50.55185" lon="5.45515">
        <ele>214</ele>
        <time>2016-06-20T18:42:53Z</time>
      </trkpt>
      <trkpt lat="50.55186" lon="5.45507">
        <ele>214</ele>
        <time>2016-06-20T18:44:53Z</time>
      </trkpt>
      <trkpt lat="50.5519" lon="5.45479">
        <ele>215</ele>
        <time>2016-06-20T18:46:53Z</time>
      </trkpt>
      <trkpt lat="50.5519" lon="5.45472">
        <ele>216</ele>
        <time>2016-06-20T18:48:53Z</time>
      </trkpt>
      <trkpt lat="50.55195" lon="5.45445">
        <ele>217</ele>
        <time>2016-06-20T18:50:53Z</time>
      </trkpt>
      <trkpt lat="50.55203" lon="5.45401">
        <ele>219</ele>
        <time>2016-06-20T18:52:53Z</time>
      </trkpt>
      <trkpt lat="50.55205" lon="5.45394">
        <ele>220</ele>
        <time>2016-06-20T18:54:53Z</time>
      </trkpt>
      <trkpt lat="50.55208" lon="5.45372">
        <ele>221</ele>
        <time>2016-06-20T18:56:53Z</time>
      </trkpt>
      <trkpt lat="50.55212" lon="5.45351">
        <ele>222</ele>
        <time>2016-06-20T18:58:53Z</time>
      </trkpt>
      <trkpt lat="50.55227" lon="5.45275">
        <ele>224</ele>
        <time>2016-06-20T19:00:53Z</time>
      </trkpt>
      <trkpt lat="50.55229" lon="5.45263">
        <ele>225</ele>
        <time>2016-06-20T19:02:53Z</time>
      </trkpt>
      <trkpt lat="50.55237" lon="5.45216">
        <ele>226</ele>
        <time>2016-06-20T19:04:53Z</time>
      </trkpt>
      <trkpt lat="50.55242" lon="5.45179">
        <ele>227</ele>
        <time>2016-06-20T19:06:53Z</time>
      </trkpt>
      <trkpt lat="50.55247" lon="5.45157">
        <ele>227</ele>
        <time>2016-06-20T19:08:53Z</time>
      </trkpt>
      <trkpt lat="50.55251" lon="5.45149">
        <ele>227</ele>
        <time>2016-06-20T19:10:53Z</time>
      </trkpt>
      <trkpt lat="50.55254" lon="5.45141">
        <ele>228</ele>
        <time>2016-06-20T19:12:53Z</time>
      </trkpt>
      <trkpt lat="50.55257" lon="5.45139">
        <ele>228</ele>
        <time>2016-06-20T19:14:53Z</time>
      </trkpt>
      <trkpt lat="50.55265" lon="5.45131">
        <ele>229</ele>
        <time>2016-06-20T19:16:53Z</time>
      </trkpt>
      <trkpt lat="50.55271" lon="5.45127">
        <ele>229</ele>
        <time>2016-06-20T19:18:53Z</time>
      </trkpt>
      <trkpt lat="50.55281" lon="5.45117">
        <ele>230</ele>
        <time>2016-06-20T19:20:53Z</time>
      </trkpt>
      <trkpt lat="50.55285" lon="5.45106">
        <ele>230</ele>
        <time>2016-06-20T19:22:53Z</time>
      </trkpt>
      <trkpt lat="50.55289" lon="5.45094">
        <ele>231</ele>
        <time>2016-06-20T19:24:53Z</time>
      </trkpt>
      <trkpt lat="50.55291" lon="5.45089">
        <ele>231</ele>
        <time>2016-06-20T19:26:53Z</time>
      </trkpt>
      <trkpt lat="50.55319" lon="5.45037">
        <ele>232</ele>
        <time>2016-06-20T19:28:53Z</time>
      </trkpt>
      <trkpt lat="50.55327" lon="5.45023">
        <ele>233</ele>
        <time>2016-06-20T19:30:53Z</time>
      </trkpt>
      <trkpt lat="50.55335" lon="5.45007">
        <ele>233</ele>
        <time>2016-06-20T19:32:53Z</time>
      </trkpt>
      <trkpt lat="50.55348" lon="5.44981">
        <ele>233</ele>
        <time>2016-06-20T19:34:53Z</time>
      </trkpt>
      <trkpt lat="50.55358" lon="5.44961">
        <ele>234</ele>
        <time>2016-06-20T19:36:53Z</time>
      </trkpt>
      <trkpt lat="50.55366" lon="5.44945">
        <ele>234</ele>
        <time>2016-06-20T19:38:53Z</time>
      </trkpt>
      <trkpt lat="50.5539" lon="5.44899">
        <ele>234</ele>
        <time>2016-06-20T19:40:53Z</time>
      </trkpt>
      <trkpt lat="50.55407" lon="5.4487">
        <ele>235</ele>
        <time>2016-06-20T19:42:53Z</time>
      </trkpt>
      <trkpt lat="50.55419" lon="5.44854">
        <ele>235</ele>
        <time>2016-06-20T19:44:53Z</time>
      </trkpt>
      <trkpt lat="50.55532" lon="5.44715">
        <ele>235</ele>
        <time>2016-06-20T19:46:53Z</time>
      </trkpt>
      <trkpt lat="50.55586" lon="5.44647">
        <ele>233</ele>
        <time>2016-06-20T19:48:53Z</time>
      </trkpt>
      <trkpt lat="50.55631" lon="5.44592">
        <ele>233</ele>
        <time>2016-06-20T19:50:53Z</time>
      </trkpt>
      <trkpt lat="50.55688" lon="5.44523">
        <ele>233</ele>
        <time>2016-06-20T19:52:53Z</time>
      </trkpt>
      <trkpt lat="50.55731" lon="5.44471">
        <ele>232</ele>
        <time>2016-06-20T19:54:53Z</time>
      </trkpt>
      <trkpt lat="50.55839" lon="5.44337">
        <ele>229</ele>
        <time>2016-06-20T19:56:53Z</time>
      </trkpt>
      <trkpt lat="50.55852" lon="5.44321">
        <ele>228</ele>
        <time>2016-06-20T19:58:53Z</time>
      </trkpt>
      <trkpt lat="50.55915" lon="5.44245">
        <ele>226</ele>
        <time>2016-06-20T20:00:53Z</time>
      </trkpt>
      <trkpt lat="50.55986" lon="5.44157">
        <ele>222</ele>
        <time>2016-06-20T20:02:53Z</time>
      </trkpt>
      <trkpt lat="50.56015" lon="5.44123">
        <ele>221</ele>
        <time>2016-06-20T20:04:53Z</time>
      </trkpt>
      <trkpt lat="50.56134" lon="5.43977">
        <ele>218</ele>
        <time>2016-06-20T20:06:53Z</time>
      </trkpt>
      <trkpt lat="50.56149" lon="5.43958">
        <ele>218</ele>
        <time>2016-06-20T20:08:53Z</time>
      </trkpt>
      <trkpt lat="50.56184" lon="5.4391">
        <ele>217</ele>
        <time>2016-06-20T20:10:53Z</time>
      </trkpt>
      <trkpt lat="50.56212" lon="5.43869">
        <ele>216</ele>
        <time>2016-06-20T20:12:53Z</time>
      </trkpt>
      <trkpt lat="50.56253" lon="5.43808">
        <ele>215</ele>
        <time>2016-06-20T20:14:53Z</time>
      </trkpt>
      <trkpt lat="50.56259" lon="5.43797">
        <ele>215</ele>
        <time>2016-06-20T20:16:53Z</time>
      </trkpt>
      <trkpt lat="50.56277" lon="5.43762">
        <ele>214</ele>
        <time>2016-06-20T20:18:53Z</time>
      </trkpt>
      <trkpt lat="50.56294" lon="5.43724">
        <ele>214</ele>
        <time>2016-06-20T20:20:53Z</time>
      </trkpt>
      <trkpt lat="50.5635" lon="5.436">
        <ele>213</ele>
        <time>2016-06-20T20:22:53Z</time>
      </trkpt>
      <trkpt lat="50.56363" lon="5.43573">
        <ele>213</ele>
        <time>2016-06-20T20:24:53Z</time>
      </trkpt>
      <trkpt lat="50.56377" lon="5.43549">
        <ele>212</ele>
        <time>2016-06-20T20:26:53Z</time>
      </trkpt>
      <trkpt lat="50.56391" lon="5.43525">
        <ele>212</ele>
        <time>2016-06-20T20:28:53Z</time>
      </trkpt>
      <trkpt lat="50.56413" lon="5.43487">
        <ele>211</ele>
        <time>2016-06-20T20:30:53Z</time>
      </trkpt>
      <trkpt lat="50.5642" lon="5.43475">
        <ele>210</ele>
        <time>2016-06-20T20:32:53Z</time>
      </trkpt>
      <trkpt lat="50.56445" lon="5.43431">
        <ele>210</ele>
        <time>2016-06-20T20:34:53Z</time>
      </trkpt>
      <trkpt lat="50.56455" lon="5.43407">
        <ele>209</ele>
        <time>2016-06-20T20:36:53Z</time>
      </trkpt>
      <trkpt lat="50.56458" lon="5.43394">
        <ele>209</ele>
        <time>2016-06-20T20:38:53Z</time>
      </trkpt>
      <trkpt lat="50.56458" lon="5.4338">
        <ele>209</ele>
        <time>2016-06-20T20:40:53Z</time>
      </trkpt>
      <trkpt lat="50.56457" lon="5.43352">
        <ele>209</ele>
        <time>2016-06-20T20:42:53Z</time>
      </trkpt>
      <trkpt lat="50.56458" lon="5.43338">
        <ele>209</ele>
        <time>2016-06-20T20:44:53Z</time>
      </trkpt>
      <trkpt lat="50.56462" lon="5.43325">
        <ele>208</ele>
        <time>2016-06-20T20:46:53Z</time>
      </trkpt>
      <trkpt lat="50.56466" lon="5.43311">
        <ele>207</ele>
        <time>2016-06-20T20:48:53Z</time>
      </trkpt>
      <trkpt lat="50.56476" lon="5.43284">
        <ele>206</ele>
        <time>2016-06-20T20:50:53Z</time>
      </trkpt>
      <trkpt lat="50.56488" lon="5.43256">
        <ele>204</ele>
        <time>2016-06-20T20:52:53Z</time>
      </trkpt>
      <trkpt lat="50.56493" lon="5.43241">
        <ele>204</ele>
        <time>2016-06-20T20:54:53Z</time>
      </trkpt>
      <trkpt lat="50.56505" lon="5.43211">
        <ele>202</ele>
        <time>2016-06-20T20:56:53Z</time>
      </trkpt>
      <trkpt lat="50.5651" lon="5.43195">
        <ele>201</ele>
        <time>2016-06-20T20:58:53Z</time>
      </trkpt>
      <trkpt lat="50.56512" lon="5.43177">
        <ele>200</ele>
        <time>2016-06-20T21:00:53Z</time>
      </trkpt>
      <trkpt lat="50.56511" lon="5.4314">
        <ele>199</ele>
        <time>2016-06-20T21:02:53Z</time>
      </trkpt>
      <trkpt lat="50.56509" lon="5.43121">
        <ele>199</ele>
        <time>2016-06-20T21:04:53Z</time>
      </trkpt>
      <trkpt lat="50.56502" lon="5.43085">
        <ele>197</ele>
        <time>2016-06-20T21:06:53Z</time>
      </trkpt>
      <trkpt lat="50.565" lon="5.43067">
        <ele>197</ele>
        <time>2016-06-20T21:08:53Z</time>
      </trkpt>
      <trkpt lat="50.565" lon="5.43049">
        <ele>196</ele>
        <time>2016-06-20T21:10:53Z</time>
      </trkpt>
      <trkpt lat="50.565" lon="5.43012">
        <ele>195</ele>
        <time>2016-06-20T21:12:53Z</time>
      </trkpt>
      <trkpt lat="50.56498" lon="5.42995">
        <ele>195</ele>
        <time>2016-06-20T21:14:53Z</time>
      </trkpt>
      <trkpt lat="50.56489" lon="5.42963">
        <ele>196</ele>
        <time>2016-06-20T21:16:53Z</time>
      </trkpt>
      <trkpt lat="50.56483" lon="5.42949">
        <ele>196</ele>
        <time>2016-06-20T21:18:53Z</time>
      </trkpt>
      <trkpt lat="50.56475" lon="5.42937">
        <ele>196</ele>
        <time>2016-06-20T21:20:53Z</time>
      </trkpt>
      <trkpt lat="50.56467" lon="5.42927">
        <ele>196</ele>
        <time>2016-06-20T21:22:53Z</time>
      </trkpt>
      <trkpt lat="50.5646" lon="5.42917">
        <ele>196</ele>
        <time>2016-06-20T21:24:53Z</time>
      </trkpt>
      <trkpt lat="50.56449" lon="5.42892">
        <ele>195</ele>
        <time>2016-06-20T21:26:53Z</time>
      </trkpt>
      <trkpt lat="50.56446" lon="5.42877">
        <ele>195</ele>
        <time>2016-06-20T21:28:53Z</time>
      </trkpt>
      <trkpt lat="50.56445" lon="5.42846">
        <ele>194</ele>
        <time>2016-06-20T21:30:53Z</time>
      </trkpt>
      <trkpt lat="50.56446" lon="5.4283">
        <ele>193</ele>
        <time>2016-06-20T21:32:53Z</time>
      </trkpt>
      <trkpt lat="50.56446" lon="5.42813">
        <ele>193</ele>
        <time>2016-06-20T21:34:53Z</time>
      </trkpt>
      <trkpt lat="50.56443" lon="5.42795">
        <ele>191</ele>
        <time>2016-06-20T21:36:53Z</time>
      </trkpt>
      <trkpt lat="50.56439" lon="5.42778">
        <ele>190</ele>
        <time>2016-06-20T21:38:53Z</time>
      </trkpt>
      <trkpt lat="50.56426" lon="5.42746">
        <ele>187</ele>
        <time>2016-06-20T21:40:53Z</time>
      </trkpt>
      <trkpt lat="50.56419" lon="5.42729">
        <ele>185</ele>
        <time>2016-06-20T21:42:53Z</time>
      </trkpt>
      <trkpt lat="50.56414" lon="5.42711">
        <ele>184</ele>
        <time>2016-06-20T21:44:53Z</time>
      </trkpt>
      <trkpt lat="50.56414" lon="5.42693">
        <ele>183</ele>
        <time>2016-06-20T21:46:53Z</time>
      </trkpt>
      <trkpt lat="50.56416" lon="5.42674">
        <ele>182</ele>
        <time>2016-06-20T21:48:53Z</time>
      </trkpt>
      <trkpt lat="50.56417" lon="5.42636">
        <ele>180</ele>
        <time>2016-06-20T21:50:53Z</time>
      </trkpt>
      <trkpt lat="50.56421" lon="5.42616">
        <ele>179</ele>
        <time>2016-06-20T21:52:53Z</time>
      </trkpt>
      <trkpt lat="50.56424" lon="5.42596">
        <ele>179</ele>
        <time>2016-06-20T21:54:53Z</time>
      </trkpt>
      <trkpt lat="50.56434" lon="5.42558">
        <ele>177</ele>
        <time>2016-06-20T21:56:53Z</time>
      </trkpt>
      <trkpt lat="50.56439" lon="5.42541">
        <ele>176</ele>
        <time>2016-06-20T21:58:53Z</time>
      </trkpt>
      <trkpt lat="50.56446" lon="5.42524">
        <ele>176</ele>
        <time>2016-06-20T22:00:53Z</time>
      </trkpt>
      <trkpt lat="50.56455" lon="5.4251">
        <ele>175</ele>
        <time>2016-06-20T22:02:53Z</time>
      </trkpt>
      <trkpt lat="50.56466" lon="5.42497">
        <ele>175</ele>
        <time>2016-06-20T22:04:53Z</time>
      </trkpt>
      <trkpt lat="50.56478" lon="5.42485">
        <ele>175</ele>
        <time>2016-06-20T22:06:53Z</time>
      </trkpt>
      <trkpt lat="50.56489" lon="5.42472">
        <ele>175</ele>
        <time>2016-06-20T22:08:53Z</time>
      </trkpt>
      <trkpt lat="50.56496" lon="5.42457">
        <ele>175</ele>
        <time>2016-06-20T22:10:53Z</time>
      </trkpt>
      <trkpt lat="50.56503" lon="5.42442">
        <ele>174</ele>
        <time>2016-06-20T22:12:53Z</time>
      </trkpt>
      <trkpt lat="50.56517" lon="5.42414">
        <ele>174</ele>
        <time>2016-06-20T22:14:53Z</time>
      </trkpt>
      <trkpt lat="50.56526" lon="5.42403">
        <ele>173</ele>
        <time>2016-06-20T22:16:53Z</time>
      </trkpt>
      <trkpt lat="50.56536" lon="5.42395">
        <ele>173</ele>
        <time>2016-06-20T22:18:53Z</time>
      </trkpt>
      <trkpt lat="50.56554" lon="5.42375">
        <ele>171</ele>
        <time>2016-06-20T22:20:53Z</time>
      </trkpt>
      <trkpt lat="50.56565" lon="5.42364">
        <ele>170</ele>
        <time>2016-06-20T22:22:53Z</time>
      </trkpt>
      <trkpt lat="50.56585" lon="5.42338">
        <ele>166</ele>
        <time>2016-06-20T22:24:53Z</time>
      </trkpt>
      <trkpt lat="50.56594" lon="5.42325">
        <ele>167</ele>
        <time>2016-06-20T22:26:53Z</time>
      </trkpt>
      <trkpt lat="50.56612" lon="5.42297">
        <ele>169</ele>
        <time>2016-06-20T22:28:53Z</time>
      </trkpt>
      <trkpt lat="50.56646" lon="5.42243">
        <ele>167</ele>
        <time>2016-06-20T22:30:53Z</time>
      </trkpt>
      <trkpt lat="50.56652" lon="5.42228">
        <ele>166</ele>
        <time>2016-06-20T22:32:53Z</time>
      </trkpt>
      <trkpt lat="50.56663" lon="5.42198">
        <ele>163</ele>
        <time>2016-06-20T22:34:53Z</time>
      </trkpt>
      <trkpt lat="50.56666" lon="5.42182">
        <ele>161</ele>
        <time>2016-06-20T22:36:53Z</time>
      </trkpt>
      <trkpt lat="50.56686" lon="5.42141">
        <ele>163</ele>
        <time>2016-06-20T22:38:53Z</time>
      </trkpt>
      <trkpt lat="50.56705" lon="5.42127">
        <ele>165</ele>
        <time>2016-06-20T22:40:53Z</time>
      </trkpt>
      <trkpt lat="50.56726" lon="5.42123">
        <ele>165</ele>
        <time>2016-06-20T22:42:53Z</time>
      </trkpt>
      <trkpt lat="50.56737" lon="5.42124">
        <ele>165</ele>
        <time>2016-06-20T22:44:53Z</time>
      </trkpt>
      <trkpt lat="50.56747" lon="5.42127">
        <ele>165</ele>
        <time>2016-06-20T22:46:53Z</time>
      </trkpt>
      <trkpt lat="50.5677" lon="5.42134">
        <ele>164</ele>
        <time>2016-06-20T22:48:53Z</time>
      </trkpt>
      <trkpt lat="50.56803" lon="5.42138">
        <ele>162</ele>
        <time>2016-06-20T22:50:53Z</time>
      </trkpt>
      <trkpt lat="50.56814" lon="5.42138">
        <ele>161</ele>
        <time>2016-06-20T22:52:53Z</time>
      </trkpt>
      <trkpt lat="50.56838" lon="5.42135">
        <ele>160</ele>
        <time>2016-06-20T22:54:53Z</time>
      </trkpt>
      <trkpt lat="50.56862" lon="5.42129">
        <ele>160</ele>
        <time>2016-06-20T22:56:53Z</time>
      </trkpt>
      <trkpt lat="50.56915" lon="5.42108">
        <ele>158</ele>
        <time>2016-06-20T22:58:53Z</time>
      </trkpt>
      <trkpt lat="50.56968" lon="5.42097">
        <ele>157</ele>
        <time>2016-06-20T23:00:53Z</time>
      </trkpt>
      <trkpt lat="50.56993" lon="5.42087">
        <ele>156</ele>
        <time>2016-06-20T23:02:53Z</time>
      </trkpt>
      <trkpt lat="50.57005" lon="5.42079">
        <ele>155</ele>
        <time>2016-06-20T23:04:53Z</time>
      </trkpt>
      <trkpt lat="50.57035" lon="5.42042">
        <ele>153</ele>
        <time>2016-06-20T23:06:53Z</time>
      </trkpt>
      <trkpt lat="50.57051" lon="5.42009">
        <ele>150</ele>
        <time>2016-06-20T23:08:53Z</time>
      </trkpt>
      <trkpt lat="50.57059" lon="5.41993">
        <ele>149</ele>
        <time>2016-06-20T23:10:53Z</time>
      </trkpt>
      <trkpt lat="50.57065" lon="5.41975">
        <ele>149</ele>
        <time>2016-06-20T23:12:53Z</time>
      </trkpt>
      <trkpt lat="50.57077" lon="5.41939">
        <ele>148</ele>
        <time>2016-06-20T23:14:53Z</time>
      </trkpt>
      <trkpt lat="50.57092" lon="5.41907">
        <ele>145</ele>
        <time>2016-06-20T23:16:53Z</time>
      </trkpt>
      <trkpt lat="50.57111" lon="5.41879">
        <ele>142</ele>
        <time>2016-06-20T23:18:53Z</time>
      </trkpt>
      <trkpt lat="50.57134" lon="5.41861">
        <ele>138</ele>
        <time>2016-06-20T23:20:53Z</time>
      </trkpt>
      <trkpt lat="50.57148" lon="5.41857">
        <ele>135</ele>
        <time>2016-06-20T23:22:53Z</time>
      </trkpt>
      <trkpt lat="50.57191" lon="5.4185">
        <ele>132</ele>
        <time>2016-06-20T23:24:53Z</time>
      </trkpt>
      <trkpt lat="50.57217" lon="5.41842">
        <ele>131</ele>
        <time>2016-06-20T23:26:53Z</time>
      </trkpt>
      <trkpt lat="50.57229" lon="5.41835">
        <ele>130</ele>
        <time>2016-06-20T23:28:53Z</time>
      </trkpt>
      <trkpt lat="50.57248" lon="5.41815">
        <ele>130</ele>
        <time>2016-06-20T23:30:53Z</time>
      </trkpt>
      <trkpt lat="50.57279" lon="5.41783">
        <ele>135</ele>
        <time>2016-06-20T23:32:53Z</time>
      </trkpt>
      <trkpt lat="50.57288" lon="5.41768">
        <ele>136</ele>
        <time>2016-06-20T23:34:53Z</time>
      </trkpt>
      <trkpt lat="50.57297" lon="5.41731">
        <ele>135</ele>
        <time>2016-06-20T23:36:53Z</time>
      </trkpt>
      <trkpt lat="50.57301" lon="5.41691">
        <ele>132</ele>
        <time>2016-06-20T23:38:53Z</time>
      </trkpt>
      <trkpt lat="50.57304" lon="5.41655">
        <ele>130</ele>
        <time>2016-06-20T23:40:53Z</time>
      </trkpt>
      <trkpt lat="50.57313" lon="5.41604">
        <ele>134</ele>
        <time>2016-06-20T23:42:53Z</time>
      </trkpt>
      <trkpt lat="50.57316" lon="5.4159">
        <ele>134</ele>
        <time>2016-06-20T23:44:53Z</time>
      </trkpt>
      <trkpt lat="50.57335" lon="5.41526">
        <ele>133</ele>
        <time>2016-06-20T23:46:53Z</time>
      </trkpt>
      <trkpt lat="50.57348" lon="5.41505">
        <ele>131</ele>
        <time>2016-06-20T23:48:53Z</time>
      </trkpt>
      <trkpt lat="50.57357" lon="5.41495">
        <ele>130</ele>
        <time>2016-06-20T23:50:53Z</time>
      </trkpt>
      <trkpt lat="50.57366" lon="5.41484">
        <ele>130</ele>
        <time>2016-06-20T23:52:53Z</time>
      </trkpt>
      <trkpt lat="50.57389" lon="5.41466">
        <ele>129</ele>
        <time>2016-06-20T23:54:53Z</time>
      </trkpt>
      <trkpt lat="50.574" lon="5.41457">
        <ele>128</ele>
        <time>2016-06-20T23:56:53Z</time>
      </trkpt>
      <trkpt lat="50.57413" lon="5.41448">
        <ele>127</ele>
        <time>2016-06-20T23:58:53Z</time>
      </trkpt>
      <trkpt lat="50.57437" lon="5.41428">
        <ele>124</ele>
        <time>2016-06-21T00:00:53Z</time>
      </trkpt>
      <trkpt lat="50.57456" lon="5.41419">
        <ele>120</ele>
        <time>2016-06-21T00:02:53Z</time>
      </trkpt>
      <trkpt lat="50.5747" lon="5.4141">
        <ele>118</ele>
        <time>2016-06-21T00:04:53Z</time>
      </trkpt>
      <trkpt lat="50.57483" lon="5.41399">
        <ele>115</ele>
        <time>2016-06-21T00:06:53Z</time>
      </trkpt>
      <trkpt lat="50.57502" lon="5.41374">
        <ele>111</ele>
        <time>2016-06-21T00:08:53Z</time>
      </trkpt>
      <trkpt lat="50.57518" lon="5.41347">
        <ele>108</ele>
        <time>2016-06-21T00:10:53Z</time>
      </trkpt>
      <trkpt lat="50.57525" lon="5.41333">
        <ele>107</ele>
        <time>2016-06-21T00:12:53Z</time>
      </trkpt>
      <trkpt lat="50.57531" lon="5.41318">
        <ele>108</ele>
        <time>2016-06-21T00:14:53Z</time>
      </trkpt>
      <trkpt lat="50.57556" lon="5.4126">
        <ele>107</ele>
        <time>2016-06-21T00:16:53Z</time>
      </trkpt>
      <trkpt lat="50.5756" lon="5.41244">
        <ele>107</ele>
        <time>2016-06-21T00:18:53Z</time>
      </trkpt>
      <trkpt lat="50.57585" lon="5.41165">
        <ele>101</ele>
        <time>2016-06-21T00:20:53Z</time>
      </trkpt>
      <trkpt lat="50.57596" lon="5.41134">
        <ele>102</ele>
        <time>2016-06-21T00:22:53Z</time>
      </trkpt>
      <trkpt lat="50.57625" lon="5.41061">
        <ele>102</ele>
        <time>2016-06-21T00:24:53Z</time>
      </trkpt>
      <trkpt lat="50.57632" lon="5.41048">
        <ele>102</ele>
        <time>2016-06-21T00:26:53Z</time>
      </trkpt>
      <trkpt lat="50.57639" lon="5.41038">
        <ele>101</ele>
        <time>2016-06-21T00:28:53Z</time>
      </trkpt>
      <trkpt lat="50.57648" lon="5.41031">
        <ele>100</ele>
        <time>2016-06-21T00:30:53Z</time>
      </trkpt>
      <trkpt lat="50.57656" lon="5.41026">
        <ele>99</ele>
        <time>2016-06-21T00:32:53Z</time>
      </trkpt>
      <trkpt lat="50.57677" lon="5.41028">
        <ele>96</ele>
        <time>2016-06-21T00:34:53Z</time>
      </trkpt>
      <trkpt lat="50.5772" lon="5.41036">
        <ele>93</ele>
        <time>2016-06-21T00:36:53Z</time>
      </trkpt>
      <trkpt lat="50.57732" lon="5.41036">
        <ele>93</ele>
        <time>2016-06-21T00:38:53Z</time>
      </trkpt>
      <trkpt lat="50.57752" lon="5.41025">
        <ele>91</ele>
        <time>2016-06-21T00:40:53Z</time>
      </trkpt>
      <trkpt lat="50.57763" lon="5.41014">
        <ele>88</ele>
        <time>2016-06-21T00:42:53Z</time>
      </trkpt>
      <trkpt lat="50.57773" lon="5.41002">
        <ele>86</ele>
        <time>2016-06-21T00:44:53Z</time>
      </trkpt>
      <trkpt lat="50.57799" lon="5.40965">
        <ele>79</ele>
        <time>2016-06-21T00:46:53Z</time>
      </trkpt>
      <trkpt lat="50.57823" lon="5.40932">
        <ele>73</ele>
        <time>2016-06-21T00:48:53Z</time>
      </trkpt>
      <trkpt lat="50.57827" lon="5.40927">
        <ele>72</ele>
        <time>2016-06-21T00:50:53Z</time>
      </trkpt>
      <trkpt lat="50.57831" lon="5.40924">
        <ele>72</ele>
        <time>2016-06-21T00:52:53Z</time>
      </trkpt>
      <trkpt lat="50.57834" lon="5.40922">
        <ele>71</ele>
        <time>2016-06-21T00:54:53Z</time>
      </trkpt>
      <trkpt lat="50.57838" lon="5.4092">
        <ele>71</ele>
        <time>2016-06-21T00:56:53Z</time>
      </trkpt>
      <trkpt lat="50.57847" lon="5.40917">
        <ele>71</ele>
        <time>2016-06-21T00:58:53Z</time>
      </trkpt>
      <trkpt lat="50.5785" lon="5.40915">
        <ele>71</ele>
        <time>2016-06-21T01:00:53Z</time>
      </trkpt>
      <trkpt lat="50.57853" lon="5.40913">
        <ele>71</ele>
        <time>2016-06-21T01:02:53Z</time>
      </trkpt>
      <trkpt lat="50.57856" lon="5.40908">
        <ele>71</ele>
        <time>2016-06-21T01:04:53Z</time>
      </trkpt>
      <trkpt lat="50.57856" lon="5.40904">
        <ele>71</ele>
        <time>2016-06-21T01:06:53Z</time>
      </trkpt>
      <trkpt lat="50.57857" lon="5.40892">
        <ele>71</ele>
        <time>2016-06-21T01:08:53Z</time>
      </trkpt>
      <trkpt lat="50.57858" lon="5.40886">
        <ele>71</ele>
        <time>2016-06-21T01:10:53Z</time>
      </trkpt>
      <trkpt lat="50.57863" lon="5.40874">
        <ele>71</ele>
        <time>2016-06-21T01:12:53Z</time>
      </trkpt>
      <trkpt lat="50.57874" lon="5.40856">
        <ele>71</ele>
        <time>2016-06-21T01:14:53Z</time>
      </trkpt>
      <trkpt lat="50.57901" lon="5.4081">
        <ele>71</ele>
        <time>2016-06-21T01:16:53Z</time>
      </trkpt>
      <trkpt lat="50.57933" lon="5.40748">
        <ele>72</ele>
        <time>2016-06-21T01:18:53Z</time>
      </trkpt>
      <trkpt lat="50.57947" lon="5.40726">
        <ele>72</ele>
        <time>2016-06-21T01:20:53Z</time>
      </trkpt>
      <trkpt lat="50.57971" lon="5.40685">
        <ele>72</ele>
        <time>2016-06-21T01:22:53Z</time>
      </trkpt>
      <trkpt lat="50.57983" lon="5.40664">
        <ele>72</ele>
        <time>2016-06-21T01:24:53Z</time>
      </trkpt>
      <trkpt lat="50.5799" lon="5.40653">
        <ele>71</ele>
        <time>2016-06-21T01:26:53Z</time>
      </trkpt>
      <trkpt lat="50.5801" lon="5.40625">
        <ele>69</ele>
        <time>2016-06-21T01:28:53Z</time>
      </trkpt>
      <trkpt lat="50.58033" lon="5.40596">
        <ele>67</ele>
        <time>2016-06-21T01:30:53Z</time>
      </trkpt>
      <trkpt lat="50.5808" lon="5.4054">
        <ele>66</ele>
        <time>2016-06-21T01:32:53Z</time>
      </trkpt>
      <trkpt lat="50.58112" lon="5.40501">
        <ele>66</ele>
        <time>2016-06-21T01:34:53Z</time>
      </trkpt>
      <trkpt lat="50.58134" lon="5.40475">
        <ele>67</ele>
        <time>2016-06-21T01:36:53Z</time>
      </trkpt>
      <trkpt lat="50.58153" lon="5.40455">
        <ele>67</ele>
        <time>2016-06-21T01:38:53Z</time>
      </trkpt>
      <trkpt lat="50.58175" lon="5.40435">
        <ele>68</ele>
        <time>2016-06-21T01:40:53Z</time>
      </trkpt>
      <trkpt lat="50.58181" lon="5.40433">
        <ele>68</ele>
        <time>2016-06-21T01:42:53Z</time>
      </trkpt>
      <trkpt lat="50.58193" lon="5.40439">
        <ele>69</ele>
        <time>2016-06-21T01:44:53Z</time>
      </trkpt>
      <trkpt lat="50.58197" lon="5.40446">
        <ele>68</ele>
        <time>2016-06-21T01:46:53Z</time>
      </trkpt>
      <trkpt lat="50.58204" lon="5.40463">
        <ele>68</ele>
        <time>2016-06-21T01:48:53Z</time>
      </trkpt>
      <trkpt lat="50.58206" lon="5.40471">
        <ele>68</ele>
        <time>2016-06-21T01:50:53Z</time>
      </trkpt>
      <trkpt lat="50.58208" lon="5.40481">
        <ele>68</ele>
        <time>2016-06-21T01:52:53Z</time>
      </trkpt>
      <trkpt lat="50.58209" lon="5.405">
        <ele>68</ele>
        <time>2016-06-21T01:54:53Z</time>
      </trkpt>
      <trkpt lat="50.58208" lon="5.40509">
        <ele>67</ele>
        <time>2016-06-21T01:56:53Z</time>
      </trkpt>
      <trkpt lat="50.58205" lon="5.40526">
        <ele>67</ele>
        <time>2016-06-21T01:58:53Z</time>
      </trkpt>
      <trkpt lat="50.58198" lon="5.4055">
        <ele>67</ele>
        <time>2016-06-21T02:00:53Z</time>
      </trkpt>
      <trkpt lat="50.58196" lon="5.40557">
        <ele>67</ele>
        <time>2016-06-21T02:02:53Z</time>
      </trkpt>
      <trkpt lat="50.58185" lon="5.40569">
        <ele>67</ele>
        <time>2016-06-21T02:04:53Z</time>
      </trkpt>
      <trkpt lat="50.58181" lon="5.40571">
        <ele>67</ele>
        <time>2016-06-21T02:06:53Z</time>
      </trkpt>
      <trkpt lat="50.58178" lon="5.40573">
        <ele>67</ele>
        <time>2016-06-21T02:08:53Z</time>
      </trkpt>
      <trkpt lat="50.58176" lon="5.40576">
        <ele>67</ele>
        <time>2016-06-21T02:10:53Z</time>
      </trkpt>
      <trkpt lat="50.58175" lon="5.40579">
        <ele>67</ele>
        <time>2016-06-21T02:12:53Z</time>
      </trkpt>
      <trkpt lat="50.58176" lon="5.40597">
        <ele>67</ele>
        <time>2016-06-21T02:14:53Z</time>
      </trkpt>
      <trkpt lat="50.5818" lon="5.40609">
        <ele>67</ele>
        <time>2016-06-21T02:16:53Z</time>
      </trkpt>
      <trkpt lat="50.58187" lon="5.4063">
        <ele>67</ele>
        <time>2016-06-21T02:18:53Z</time>
      </trkpt>
      <trkpt lat="50.5821" lon="5.40687">
        <ele>67</ele>
        <time>2016-06-21T02:20:53Z</time>
      </trkpt>
      <trkpt lat="50.58244" lon="5.40779">
        <ele>67</ele>
        <time>2016-06-21T02:22:53Z</time>
      </trkpt>
      <trkpt lat="50.58271" lon="5.40856">
        <ele>67</ele>
        <time>2016-06-21T02:24:53Z</time>
      </trkpt>
      <trkpt lat="50.58277" lon="5.40874">
        <ele>68</ele>
        <time>2016-06-21T02:26:53Z</time>
      </trkpt>
      <trkpt lat="50.58305" lon="5.40944">
        <ele>68</ele>
        <time>2016-06-21T02:28:53Z</time>
      </trkpt>
      <trkpt lat="50.5833" lon="5.41004">
        <ele>68</ele>
        <time>2016-06-21T02:30:53Z</time>
      </trkpt>
      <trkpt lat="50.58348" lon="5.41043">
        <ele>69</ele>
        <time>2016-06-21T02:32:53Z</time>
      </trkpt>
      <trkpt lat="50.58356" lon="5.41059">
        <ele>69</ele>
        <time>2016-06-21T02:34:53Z</time>
      </trkpt>
      <trkpt lat="50.58388" lon="5.41125">
        <ele>70</ele>
        <time>2016-06-21T02:36:53Z</time>
      </trkpt>
      <trkpt lat="50.58425" lon="5.412">
        <ele>70</ele>
        <time>2016-06-21T02:38:53Z</time>
      </trkpt>
      <trkpt lat="50.58462" lon="5.41265">
        <ele>69</ele>
        <time>2016-06-21T02:40:53Z</time>
      </trkpt>
      <trkpt lat="50.58498" lon="5.41329">
        <ele>67</ele>
        <time>2016-06-21T02:42:53Z</time>
      </trkpt>
      <trkpt lat="50.58521" lon="5.41368">
        <ele>68</ele>
        <time>2016-06-21T02:44:53Z</time>
      </trkpt>
      <trkpt lat="50.5854" lon="5.41398">
        <ele>68</ele>
        <time>2016-06-21T02:46:53Z</time>
      </trkpt>
      <trkpt lat="50.58578" lon="5.41457">
        <ele>68</ele>
        <time>2016-06-21T02:48:53Z</time>
      </trkpt>
      <trkpt lat="50.58595" lon="5.41489">
        <ele>68</ele>
        <time>2016-06-21T02:50:53Z</time>
      </trkpt>
      <trkpt lat="50.58604" lon="5.41516">
        <ele>68</ele>
        <time>2016-06-21T02:52:53Z</time>
      </trkpt>
      <trkpt lat="50.5861" lon="5.41552">
        <ele>67</ele>
        <time>2016-06-21T02:54:53Z</time>
      </trkpt>
      <trkpt lat="50.58611" lon="5.4156">
        <ele>67</ele>
        <time>2016-06-21T02:56:53Z</time>
      </trkpt>
      <trkpt lat="50.58612" lon="5.41568">
        <ele>67</ele>
        <time>2016-06-21T02:58:53Z</time>
      </trkpt>
      <trkpt lat="50.58617" lon="5.41576">
        <ele>67</ele>
        <time>2016-06-21T03:00:53Z</time>
      </trkpt>
      <trkpt lat="50.58632" lon="5.4157">
        <ele>68</ele>
        <time>2016-06-21T03:02:53Z</time>
      </trkpt>
      <trkpt lat="50.58638" lon="5.41567">
        <ele>68</ele>
        <time>2016-06-21T03:04:53Z</time>
      </trkpt>
      <trkpt lat="50.58644" lon="5.41561">
        <ele>68</ele>
        <time>2016-06-21T03:06:53Z</time>
      </trkpt>
      <trkpt lat="50.58659" lon="5.41553">
        <ele>68</ele>
        <time>2016-06-21T03:08:53Z</time>
      </trkpt>
      <trkpt lat="50.58673" lon="5.41549">
        <ele>68</ele>
        <time>2016-06-21T03:10:53Z</time>
      </trkpt>
      <trkpt lat="50.58701" lon="5.41539">
        <ele>70</ele>
        <time>2016-06-21T03:12:53Z</time>
      </trkpt>
      <trkpt lat="50.58713" lon="5.41532">
        <ele>71</ele>
        <time>2016-06-21T03:14:53Z</time>
      </trkpt>
      <trkpt lat="50.58718" lon="5.41527">
        <ele>71</ele>
        <time>2016-06-21T03:16:53Z</time>
      </trkpt>
      <trkpt lat="50.58729" lon="5.41515">
        <ele>71</ele>
        <time>2016-06-21T03:18:53Z</time>
      </trkpt>
      <trkpt lat="50.5877" lon="5.41462">
        <ele>73</ele>
        <time>2016-06-21T03:20:53Z</time>
      </trkpt>
      <trkpt lat="50.58789" lon="5.41435">
        <ele>74</ele>
        <time>2016-06-21T03:22:53Z</time>
      </trkpt>
      <trkpt lat="50.58816" lon="5.41403">
        <ele>73</ele>
        <time>2016-06-21T03:24:53Z</time>
      </trkpt>
      <trkpt lat="50.58855" lon="5.41366">
        <ele>73</ele>
        <time>2016-06-21T03:26:53Z</time>
      </trkpt>
      <trkpt lat="50.58882" lon="5.4134">
        <ele>72</ele>
        <time>2016-06-21T03:28:53Z</time>
      </trkpt>
      <trkpt lat="50.5889" lon="5.41326">
        <ele>72</ele>
        <time>2016-06-21T03:30:53Z</time>
      </trkpt>
      <trkpt lat="50.58904" lon="5.41293">
        <ele>73</ele>
        <time>2016-06-21T03:32:53Z</time>
      </trkpt>
      <trkpt lat="50.58906" lon="5.41285">
        <ele>73</ele>
        <time>2016-06-21T03:34:53Z</time>
      </trkpt>
      <trkpt lat="50.58933" lon="5.41213">
        <ele>76</ele>
        <time>2016-06-21T03:36:53Z</time>
      </trkpt>
      <trkpt lat="50.58955" lon="5.41153">
        <ele>78</ele>
        <time>2016-06-21T03:38:53Z</time>
      </trkpt>
      <trkpt lat="50.58958" lon="5.41145">
        <ele>78</ele>
        <time>2016-06-21T03:40:53Z</time>
      </trkpt>
      <trkpt lat="50.58971" lon="5.41117">
        <ele>80</ele>
        <time>2016-06-21T03:42:53Z</time>
      </trkpt>
      <trkpt lat="50.5898" lon="5.41106">
        <ele>80</ele>
        <time>2016-06-21T03:44:53Z</time>
      </trkpt>
      <trkpt lat="50.58984" lon="5.41101">
        <ele>80</ele>
        <time>2016-06-21T03:46:53Z</time>
      </trkpt>
      <trkpt lat="50.59" lon="5.41091">
        <ele>81</ele>
        <time>2016-06-21T03:48:53Z</time>
      </trkpt>
      <trkpt lat="50.59011" lon="5.41087">
        <ele>82</ele>
        <time>2016-06-21T03:50:53Z</time>
      </trkpt>
      <trkpt lat="50.59027" lon="5.41086">
        <ele>83</ele>
        <time>2016-06-21T03:52:53Z</time>
      </trkpt>
      <trkpt lat="50.59032" lon="5.41087">
        <ele>83</ele>
        <time>2016-06-21T03:54:53Z</time>
      </trkpt>
      <trkpt lat="50.59083" lon="5.41108">
        <ele>87</ele>
        <time>2016-06-21T03:56:53Z</time>
      </trkpt>
      <trkpt lat="50.59088" lon="5.4111">
        <ele>87</ele>
        <time>2016-06-21T03:58:53Z</time>
      </trkpt>
      <trkpt lat="50.59135" lon="5.41129">
        <ele>88</ele>
        <time>2016-06-21T04:00:53Z</time>
      </trkpt>
      <trkpt lat="50.59182" lon="5.41146">
        <ele>87</ele>
        <time>2016-06-21T04:02:53Z</time>
      </trkpt>
      <trkpt lat="50.59215" lon="5.4115">
        <ele>89</ele>
        <time>2016-06-21T04:04:53Z</time>
      </trkpt>
      <trkpt lat="50.59221" lon="5.4115">
        <ele>90</ele>
        <time>2016-06-21T04:06:53Z</time>
      </trkpt>
      <trkpt lat="50.59234" lon="5.41146">
        <ele>91</ele>
        <time>2016-06-21T04:08:53Z</time>
      </trkpt>
      <trkpt lat="50.59259" lon="5.41137">
        <ele>93</ele>
        <time>2016-06-21T04:10:53Z</time>
      </trkpt>
      <trkpt lat="50.59318" lon="5.41117">
        <ele>92</ele>
        <time>2016-06-21T04:12:53Z</time>
      </trkpt>
      <trkpt lat="50.59375" lon="5.41106">
        <ele>91</ele>
        <time>2016-06-21T04:14:53Z</time>
      </trkpt>
      <trkpt lat="50.59393" lon="5.41103">
        <ele>90</ele>
        <time>2016-06-21T04:16:53Z</time>
      </trkpt>
      <trkpt lat="50.59447" lon="5.41092">
        <ele>89</ele>
        <time>2016-06-21T04:18:53Z</time>
      </trkpt>
      <trkpt lat="50.59479" lon="5.41087">
        <ele>88</ele>
        <time>2016-06-21T04:20:53Z</time>
      </trkpt>
      <trkpt lat="50.59527" lon="5.41086">
        <ele>88</ele>
        <time>2016-06-21T04:22:53Z</time>
      </trkpt>
      <trkpt lat="50.59546" lon="5.41091">
        <ele>88</ele>
        <time>2016-06-21T04:24:53Z</time>
      </trkpt>
      <trkpt lat="50.59558" lon="5.41093">
        <ele>88</ele>
        <time>2016-06-21T04:26:53Z</time>
      </trkpt>
      <trkpt lat="50.59576" lon="5.41097">
        <ele>88</ele>
        <time>2016-06-21T04:28:53Z</time>
      </trkpt>
      <trkpt lat="50.59607" lon="5.41104">
        <ele>87</ele>
        <time>2016-06-21T04:30:53Z</time>
      </trkpt>
      <trkpt lat="50.59644" lon="5.41113">
        <ele>87</ele>
        <time>2016-06-21T04:32:53Z</time>
      </trkpt>
      <trkpt lat="50.5965" lon="5.41114">
        <ele>87</ele>
        <time>2016-06-21T04:34:53Z</time>
      </trkpt>
      <trkpt lat="50.59686" lon="5.41116">
        <ele>88</ele>
        <time>2016-06-21T04:36:53Z</time>
      </trkpt>
      <trkpt lat="50.59762" lon="5.41112">
        <ele>90</ele>
        <time>2016-06-21T04:38:53Z</time>
      </trkpt>
      <trkpt lat="50.59777" lon="5.41111">
        <ele>89</ele>
        <time>2016-06-21T04:40:53Z</time>
      </trkpt>
      <trkpt lat="50.59782" lon="5.41109">
        <ele>89</ele>
        <time>2016-06-21T04:42:53Z</time>
      </trkpt>
      <trkpt lat="50.59786" lon="5.41106">
        <ele>89</ele>
        <time>2016-06-21T04:44:53Z</time>
      </trkpt>
      <trkpt lat="50.59812" lon="5.41083">
        <ele>90</ele>
        <time>2016-06-21T04:46:53Z</time>
      </trkpt>
      <trkpt lat="50.59837" lon="5.41055">
        <ele>90</ele>
        <time>2016-06-21T04:48:53Z</time>
      </trkpt>
      <trkpt lat="50.59853" lon="5.41034">
        <ele>90</ele>
        <time>2016-06-21T04:50:53Z</time>
      </trkpt>
      <trkpt lat="50.59858" lon="5.41027">
        <ele>90</ele>
        <time>2016-06-21T04:52:53Z</time>
      </trkpt>
      <trkpt lat="50.59869" lon="5.41003">
        <ele>89</ele>
        <time>2016-06-21T04:54:53Z</time>
      </trkpt>
      <trkpt lat="50.59872" lon="5.40994">
        <ele>89</ele>
        <time>2016-06-21T04:56:53Z</time>
      </trkpt>
      <trkpt lat="50.59889" lon="5.40931">
        <ele>89</ele>
        <time>2016-06-21T04:58:53Z</time>
      </trkpt>
      <trkpt lat="50.59894" lon="5.40916">
        <ele>89</ele>
        <time>2016-06-21T05:00:53Z</time>
      </trkpt>
      <trkpt lat="50.59896" lon="5.40907">
        <ele>89</ele>
        <time>2016-06-21T05:02:53Z</time>
      </trkpt>
      <trkpt lat="50.59901" lon="5.40891">
        <ele>89</ele>
        <time>2016-06-21T05:04:53Z</time>
      </trkpt>
      <trkpt lat="50.59949" lon="5.40734">
        <ele>89</ele>
        <time>2016-06-21T05:06:53Z</time>
      </trkpt>
      <trkpt lat="50.59966" lon="5.40683">
        <ele>89</ele>
        <time>2016-06-21T05:08:53Z</time>
      </trkpt>
      <trkpt lat="50.59986" lon="5.40617">
        <ele>90</ele>
        <time>2016-06-21T05:10:53Z</time>
      </trkpt>
      <trkpt lat="50.6001" lon="5.4055">
        <ele>90</ele>
        <time>2016-06-21T05:12:53Z</time>
      </trkpt>
      <trkpt lat="50.6003" lon="5.40528">
        <ele>91</ele>
        <time>2016-06-21T05:14:53Z</time>
      </trkpt>
      <trkpt lat="50.60042" lon="5.40521">
        <ele>91</ele>
        <time>2016-06-21T05:16:53Z</time>
      </trkpt>
      <trkpt lat="50.60064" lon="5.40506">
        <ele>91</ele>
        <time>2016-06-21T05:18:53Z</time>
      </trkpt>
      <trkpt lat="50.60106" lon="5.40484">
        <ele>93</ele>
        <time>2016-06-21T05:20:53Z</time>
      </trkpt>
      <trkpt lat="50.60112" lon="5.40481">
        <ele>93</ele>
        <time>2016-06-21T05:22:53Z</time>
      </trkpt>
      <trkpt lat="50.60147" lon="5.40461">
        <ele>95</ele>
        <time>2016-06-21T05:24:53Z</time>
      </trkpt>
      <trkpt lat="50.60181" lon="5.40439">
        <ele>96</ele>
        <time>2016-06-21T05:26:53Z</time>
      </trkpt>
      <trkpt lat="50.60187" lon="5.40436">
        <ele>96</ele>
        <time>2016-06-21T05:28:53Z</time>
      </trkpt>
      <trkpt lat="50.60239" lon="5.40409">
        <ele>99</ele>
        <time>2016-06-21T05:30:53Z</time>
      </trkpt>
      <trkpt lat="50.60308" lon="5.40376">
        <ele>99</ele>
        <time>2016-06-21T05:32:53Z</time>
      </trkpt>
      <trkpt lat="50.60372" lon="5.40338">
        <ele>98</ele>
        <time>2016-06-21T05:34:53Z</time>
      </trkpt>
      <trkpt lat="50.60395" lon="5.40325">
        <ele>97</ele>
        <time>2016-06-21T05:36:53Z</time>
      </trkpt>
      <trkpt lat="50.60442" lon="5.40298">
        <ele>97</ele>
        <time>2016-06-21T05:38:53Z</time>
      </trkpt>
      <trkpt lat="50.60482" lon="5.40269">
        <ele>97</ele>
        <time>2016-06-21T05:40:53Z</time>
      </trkpt>
      <trkpt lat="50.60503" lon="5.40247">
        <ele>98</ele>
        <time>2016-06-21T05:42:53Z</time>
      </trkpt>
      <trkpt lat="50.60512" lon="5.40236">
        <ele>98</ele>
        <time>2016-06-21T05:44:53Z</time>
      </trkpt>
      <trkpt lat="50.60553" lon="5.40186">
        <ele>99</ele>
        <time>2016-06-21T05:46:53Z</time>
      </trkpt>
      <trkpt lat="50.60563" lon="5.40173">
        <ele>99</ele>
        <time>2016-06-21T05:48:53Z</time>
      </trkpt>
      <trkpt lat="50.60621" lon="5.40104">
        <ele>100</ele>
        <time>2016-06-21T05:50:53Z</time>
      </trkpt>
      <trkpt lat="50.6063" lon="5.4009">
        <ele>100</ele>
        <time>2016-06-21T05:52:53Z</time>
      </trkpt>
      <trkpt lat="50.60653" lon="5.40041">
        <ele>100</ele>
        <time>2016-06-21T05:54:53Z</time>
      </trkpt>
      <trkpt lat="50.60678" lon="5.39967">
        <ele>101</ele>
        <time>2016-06-21T05:56:53Z</time>
      </trkpt>
      <trkpt lat="50.60739" lon="5.39794">
        <ele>106</ele>
        <time>2016-06-21T05:58:53Z</time>
      </trkpt>
      <trkpt lat="50.60762" lon="5.39724">
        <ele>109</ele>
        <time>2016-06-21T06:00:53Z</time>
      </trkpt>
      <trkpt lat="50.60779" lon="5.39669">
        <ele>109</ele>
        <time>2016-06-21T06:02:53Z</time>
      </trkpt>
      <trkpt lat="50.60787" lon="5.39633">
        <ele>110</ele>
        <time>2016-06-21T06:04:53Z</time>
      </trkpt>
      <trkpt lat="50.60808" lon="5.3956">
        <ele>111</ele>
        <time>2016-06-21T06:06:53Z</time>
      </trkpt>
      <trkpt lat="50.60819" lon="5.39526">
        <ele>111</ele>
        <time>2016-06-21T06:08:53Z</time>
      </trkpt>
      <trkpt lat="50.60827" lon="5.39501">
        <ele>111</ele>
        <time>2016-06-21T06:10:53Z</time>
      </trkpt>
      <trkpt lat="50.6083" lon="5.39493">
        <ele>111</ele>
        <time>2016-06-21T06:12:53Z</time>
      </trkpt>
      <trkpt lat="50.60835" lon="5.39477">
        <ele>112</ele>
        <time>2016-06-21T06:14:53Z</time>
      </trkpt>
      <trkpt lat="50.60842" lon="5.39451">
        <ele>113</ele>
        <time>2016-06-21T06:16:53Z</time>
      </trkpt>
      <trkpt lat="50.6085" lon="5.39426">
        <ele>115</ele>
        <time>2016-06-21T06:18:53Z</time>
      </trkpt>
      <trkpt lat="50.60862" lon="5.39393">
        <ele>115</ele>
        <time>2016-06-21T06:20:53Z</time>
      </trkpt>
      <trkpt lat="50.60867" lon="5.39385">
        <ele>115</ele>
        <time>2016-06-21T06:22:53Z</time>
      </trkpt>
      <trkpt lat="50.60882" lon="5.39363">
        <ele>114</ele>
        <time>2016-06-21T06:24:53Z</time>
      </trkpt>
      <trkpt lat="50.6092" lon="5.39317">
        <ele>109</ele>
        <time>2016-06-21T06:26:53Z</time>
      </trkpt>
      <trkpt lat="50.60949" lon="5.39279">
        <ele>113</ele>
        <time>2016-06-21T06:28:53Z</time>
      </trkpt>
      <trkpt lat="50.60986" lon="5.39241">
        <ele>114</ele>
        <time>2016-06-21T06:30:53Z</time>
      </trkpt>
      <trkpt lat="50.61004" lon="5.3923">
        <ele>113</ele>
        <time>2016-06-21T06:32:53Z</time>
      </trkpt>
      <trkpt lat="50.61022" lon="5.39222">
        <ele>113</ele>
        <time>2016-06-21T06:34:53Z</time>
      </trkpt>
      <trkpt lat="50.61046" lon="5.39216">
        <ele>114</ele>
        <time>2016-06-21T06:36:53Z</time>
      </trkpt>
      <trkpt lat="50.61107" lon="5.39208">
        <ele>114</ele>
        <time>2016-06-21T06:38:53Z</time>
      </trkpt>
      <trkpt lat="50.61161" lon="5.39202">
        <ele>114</ele>
        <time>2016-06-21T06:40:53Z</time>
      </trkpt>
      <trkpt lat="50.61194" lon="5.39192">
        <ele>112</ele>
        <time>2016-06-21T06:42:53Z</time>
      </trkpt>
      <trkpt lat="50.6122" lon="5.39175">
        <ele>111</ele>
        <time>2016-06-21T06:44:53Z</time>
      </trkpt>
      <trkpt lat="50.61242" lon="5.39153">
        <ele>111</ele>
        <time>2016-06-21T06:46:53Z</time>
      </trkpt>
      <trkpt lat="50.61272" lon="5.39122">
        <ele>111</ele>
        <time>2016-06-21T06:48:53Z</time>
      </trkpt>
      <trkpt lat="50.61288" lon="5.39102">
        <ele>111</ele>
        <time>2016-06-21T06:50:53Z</time>
      </trkpt>
      <trkpt lat="50.61316" lon="5.39066">
        <ele>111</ele>
        <time>2016-06-21T06:52:53Z</time>
      </trkpt>
      <trkpt lat="50.61331" lon="5.39045">
        <ele>111</ele>
        <time>2016-06-21T06:54:53Z</time>
      </trkpt>
      <trkpt lat="50.61347" lon="5.39025">
        <ele>113</ele>
        <time>2016-06-21T06:56:53Z</time>
      </trkpt>
      <trkpt lat="50.61352" lon="5.39021">
        <ele>114</ele>
        <time>2016-06-21T06:58:53Z</time>
      </trkpt>
      <trkpt lat="50.61378" lon="5.38991">
        <ele>117</ele>
        <time>2016-06-21T07:00:53Z</time>
      </trkpt>
      <trkpt lat="50.614" lon="5.38968">
        <ele>119</ele>
        <time>2016-06-21T07:02:53Z</time>
      </trkpt>
      <trkpt lat="50.61438" lon="5.38939">
        <ele>121</ele>
        <time>2016-06-21T07:04:53Z</time>
      </trkpt>
      <trkpt lat="50.61452" lon="5.38932">
        <ele>122</ele>
        <time>2016-06-21T07:06:53Z</time>
      </trkpt>
      <trkpt lat="50.61466" lon="5.38929">
        <ele>123</ele>
        <time>2016-06-21T07:08:53Z</time>
      </trkpt>
      <trkpt lat="50.61487" lon="5.3893">
        <ele>125</ele>
        <time>2016-06-21T07:10:53Z</time>
      </trkpt>
      <trkpt lat="50.61491" lon="5.38929">
        <ele>125</ele>
        <time>2016-06-21T07:12:53Z</time>
      </trkpt>
      <trkpt lat="50.61507" lon="5.3893">
        <ele>126</ele>
        <time>2016-06-21T07:14:53Z</time>
      </trkpt>
      <trkpt lat="50.61511" lon="5.38934">
        <ele>126</ele>
        <time>2016-06-21T07:16:53Z</time>
      </trkpt>
      <trkpt lat="50.61523" lon="5.38947">
        <ele>126</ele>
        <time>2016-06-21T07:18:53Z</time>
      </trkpt>
      <trkpt lat="50.61528" lon="5.38954">
        <ele>126</ele>
        <time>2016-06-21T07:20:53Z</time>
      </trkpt>
      <trkpt lat="50.61544" lon="5.38971">
        <ele>126</ele>
        <time>2016-06-21T07:22:53Z</time>
      </trkpt>
      <trkpt lat="50.61567" lon="5.38996">
        <ele>125</ele>
        <time>2016-06-21T07:24:53Z</time>
      </trkpt>
      <trkpt lat="50.61603" lon="5.39019">
        <ele>125</ele>
        <time>2016-06-21T07:26:53Z</time>
      </trkpt>
      <trkpt lat="50.61642" lon="5.39047">
        <ele>127</ele>
        <time>2016-06-21T07:28:53Z</time>
      </trkpt>
      <trkpt lat="50.61665" lon="5.39066">
        <ele>130</ele>
        <time>2016-06-21T07:30:53Z</time>
      </trkpt>
      <trkpt lat="50.61683" lon="5.39081">
        <ele>131</ele>
        <time>2016-06-21T07:32:53Z</time>
      </trkpt>
      <trkpt lat="50.61714" lon="5.39114">
        <ele>132</ele>
        <time>2016-06-21T07:34:53Z</time>
      </trkpt>
      <trkpt lat="50.61748" lon="5.39164">
        <ele>131</ele>
        <time>2016-06-21T07:36:53Z</time>
      </trkpt>
      <trkpt lat="50.61788" lon="5.39219">
        <ele>134</ele>
        <time>2016-06-21T07:38:53Z</time>
      </trkpt>
      <trkpt lat="50.61819" lon="5.39265">
        <ele>136</ele>
        <time>2016-06-21T07:40:53Z</time>
      </trkpt>
      <trkpt lat="50.61848" lon="5.39309">
        <ele>137</ele>
        <time>2016-06-21T07:42:53Z</time>
      </trkpt>
      <trkpt lat="50.6188" lon="5.39357">
        <ele>137</ele>
        <time>2016-06-21T07:44:53Z</time>
      </trkpt>
      <trkpt lat="50.61889" lon="5.39369">
        <ele>137</ele>
        <time>2016-06-21T07:46:53Z</time>
      </trkpt>
      <trkpt lat="50.61907" lon="5.39393">
        <ele>137</ele>
        <time>2016-06-21T07:48:53Z</time>
      </trkpt>
      <trkpt lat="50.61912" lon="5.39398">
        <ele>137</ele>
        <time>2016-06-21T07:50:53Z</time>
      </trkpt>
      <trkpt lat="50.61951" lon="5.39433">
        <ele>139</ele>
        <time>2016-06-21T07:52:53Z</time>
      </trkpt>
      <trkpt lat="50.61969" lon="5.3945">
        <ele>139</ele>
        <time>2016-06-21T07:54:53Z</time>
      </trkpt>
      <trkpt lat="50.61982" lon="5.39463">
        <ele>138</ele>
        <time>2016-06-21T07:56:53Z</time>
      </trkpt>
      <trkpt lat="50.61986" lon="5.39466">
        <ele>138</ele>
        <time>2016-06-21T07:58:53Z</time>
      </trkpt>
      <trkpt lat="50.62021" lon="5.39501">
        <ele>138</ele>
        <time>2016-06-21T08:00:53Z</time>
      </trkpt>
      <trkpt lat="50.62051" lon="5.3953">
        <ele>138</ele>
        <time>2016-06-21T08:02:53Z</time>
      </trkpt>
      <trkpt lat="50.62078" lon="5.39557">
        <ele>138</ele>
        <time>2016-06-21T08:04:53Z</time>
      </trkpt>
      <trkpt lat="50.62111" lon="5.39584">
        <ele>139</ele>
        <time>2016-06-21T08:06:53Z</time>
      </trkpt>
      <trkpt lat="50.62121" lon="5.39591">
        <ele>140</ele>
        <time>2016-06-21T08:08:53Z</time>
      </trkpt>
      <trkpt lat="50.62131" lon="5.39598">
        <ele>140</ele>
        <time>2016-06-21T08:10:53Z</time>
      </trkpt>
      <trkpt lat="50.62144" lon="5.3961">
        <ele>140</ele>
        <time>2016-06-21T08:12:53Z</time>
      </trkpt>
      <trkpt lat="50.62149" lon="5.39613">
        <ele>139</ele>
        <time>2016-06-21T08:14:53Z</time>
      </trkpt>
      <trkpt lat="50.6216" lon="5.39618">
        <ele>139</ele>
        <time>2016-06-21T08:16:53Z</time>
      </trkpt>
      <trkpt lat="50.62177" lon="5.3962">
        <ele>138</ele>
        <time>2016-06-21T08:18:53Z</time>
      </trkpt>
      <trkpt lat="50.62183" lon="5.3962">
        <ele>138</ele>
        <time>2016-06-21T08:20:53Z</time>
      </trkpt>
      <trkpt lat="50.62206" lon="5.39618">
        <ele>137</ele>
        <time>2016-06-21T08:22:53Z</time>
      </trkpt>
      <trkpt lat="50.62242" lon="5.39618">
        <ele>136</ele>
        <time>2016-06-21T08:24:53Z</time>
      </trkpt>
      <trkpt lat="50.62272" lon="5.39616">
        <ele>136</ele>
        <time>2016-06-21T08:26:53Z</time>
      </trkpt>
      <trkpt lat="50.62314" lon="5.39613">
        <ele>136</ele>
        <time>2016-06-21T08:28:53Z</time>
      </trkpt>
      <trkpt lat="50.62336" lon="5.39613">
        <ele>136</ele>
        <time>2016-06-21T08:30:53Z</time>
      </trkpt>
      <trkpt lat="50.62356" lon="5.39613">
        <ele>138</ele>
        <time>2016-06-21T08:32:53Z</time>
      </trkpt>
      <trkpt lat="50.62384" lon="5.39612">
        <ele>140</ele>
        <time>2016-06-21T08:34:53Z</time>
      </trkpt>
      <trkpt lat="50.62395" lon="5.39612">
        <ele>141</ele>
        <time>2016-06-21T08:36:53Z</time>
      </trkpt>
      <trkpt lat="50.62483" lon="5.39606">
        <ele>143.3</ele>
        <time>2016-06-21T08:38:53Z</time>
      </trkpt>
      <trkpt lat="50.62494" lon="5.3962">
        <ele>143.8</ele>
      </trkpt>
      <trkpt lat="50.62503" lon="5.39648">
        <ele>144.3</ele>
      </trkpt>
      <trkpt lat="50.62517" lon="5.39724">
        <ele>147.2</ele>
      </trkpt>
      <trkpt lat="50.62515" lon="5.39762">
        <ele>148.8</ele>
      </trkpt>
      <trkpt lat="50.62512" lon="5.3979">
        <ele>150.5</ele>
      </trkpt>
      <trkpt lat="50.62492" lon="5.39845">
        <ele>155</ele>
      </trkpt>
      <trkpt lat="50.62505" lon="5.40017">
        <ele>159.2</ele>
      </trkpt>
      <trkpt lat="50.62554" lon="5.4033">
        <ele>161.7</ele>
      </trkpt>
      <trkpt lat="50.62588" lon="5.40469">
        <ele>161.9</ele>
      </trkpt>
      <trkpt lat="50.62502" lon="5.40933">
        <ele>170.5</ele>
      </trkpt>
      <trkpt lat="50.62303" lon="5.4119">
        <ele>177.1</ele>
      </trkpt>
      <trkpt lat="50.62242" lon="5.41102">
        <ele>178</ele>
      </trkpt>
      <trkpt lat="50.62194" lon="5.4109">
        <ele>179</ele>
      </trkpt>
      <trkpt lat="50.62085" lon="5.41128">
        <ele>181</ele>
      </trkpt>
      <trkpt lat="50.61925" lon="5.41218">
        <ele>182.9</ele>
      </trkpt>
      <trkpt lat="50.61915" lon="5.41251">
        <ele>183</ele>
      </trkpt>
      <trkpt lat="50.62021" lon="5.41551">
        <ele>186</ele>
      </trkpt>
      <trkpt lat="50.61961" lon="5.41647">
        <ele>182.2</ele>
      </trkpt>
      <trkpt lat="50.61921" lon="5.41688">
        <ele>187</ele>
      </trkpt>
      <trkpt lat="50.61922" lon="5.41686">
        <ele>187</ele>
      </trkpt>
      <trkpt lat="50.61921" lon="5.41688">
        <ele>187</ele>
      </trkpt>
      <trkpt lat="50.61914" lon="5.41705">
        <ele>187</ele>
      </trkpt>
      <trkpt lat="50.61907" lon="5.41726">
        <ele>187.1</ele>
      </trkpt>
      <trkpt lat="50.61901" lon="5.41766">
        <ele>188</ele>
      </trkpt>
      <trkpt lat="50.61898" lon="5.41811">
        <ele>188</ele>
      </trkpt>
      <trkpt lat="50.6189" lon="5.41902">
        <ele>188</ele>
      </trkpt>
      <trkpt lat="50.61886" lon="5.41965">
        <ele>187.3</ele>
      </trkpt>
      <trkpt lat="50.61893" lon="5.4203">
        <ele>187.1</ele>
      </trkpt>
      <trkpt lat="50.61901" lon="5.42134">
        <ele>187.4</ele>
      </trkpt>
      <trkpt lat="50.61904" lon="5.42249">
        <ele>189.5</ele>
      </trkpt>
      <trkpt lat="50.619" lon="5.42279">
        <ele>190</ele>
      </trkpt>
      <trkpt lat="50.61883" lon="5.42318">
        <ele>190.6</ele>
      </trkpt>
      <trkpt lat="50.61827" lon="5.4245">
        <ele>193.2</ele>
      </trkpt>
      <trkpt lat="50.61814" lon="5.42487">
        <ele>192.9</ele>
      </trkpt>
      <trkpt lat="50.61811" lon="5.42506">
        <ele>192.4</ele>
      </trkpt>
      <trkpt lat="50.61807" lon="5.42542">
        <ele>191.6</ele>
      </trkpt>
      <trkpt lat="50.61807" lon="5.42567">
        <ele>190.8</ele>
      </trkpt>
      <trkpt lat="50.61812" lon="5.42596">
        <ele>190.3</ele>
      </trkpt>
      <trkpt lat="50.61818" lon="5.4263">
        <ele>188.8</ele>
      </trkpt>
      <trkpt lat="50.61817" lon="5.42669">
        <ele>187.1</ele>
      </trkpt>
      <trkpt lat="50.6181" lon="5.42716">
        <ele>185.8</ele>
      </trkpt>
      <trkpt lat="50.61801" lon="5.42753">
        <ele>185.5</ele>
      </trkpt>
      <trkpt lat="50.61793" lon="5.4278">
        <ele>185.4</ele>
      </trkpt>
      <trkpt lat="50.61772" lon="5.42834">
        <ele>188.8</ele>
      </trkpt>
      <trkpt lat="50.61767" lon="5.42855">
        <ele>189.6</ele>
      </trkpt>
      <trkpt lat="50.61766" lon="5.42873">
        <ele>189.7</ele>
      </trkpt>
      <trkpt lat="50.61769" lon="5.4288">
        <ele>190.1</ele>
      </trkpt>
      <trkpt lat="50.61772" lon="5.4289">
        <ele>190.3</ele>
      </trkpt>
      <trkpt lat="50.61789" lon="5.42912">
        <ele>191.4</ele>
      </trkpt>
      <trkpt lat="50.61813" lon="5.42936">
        <ele>192.2</ele>
      </trkpt>
      <trkpt lat="50.61834" lon="5.42957">
        <ele>192.6</ele>
      </trkpt>
      <trkpt lat="50.61956" lon="5.43128">
        <ele>192.6</ele>
      </trkpt>
      <trkpt lat="50.61988" lon="5.43156">
        <ele>193.2</ele>
      </trkpt>
      <trkpt lat="50.6203" lon="5.4318">
        <ele>192.5</ele>
      </trkpt>
      <trkpt lat="50.62061" lon="5.43207">
        <ele>192.2</ele>
      </trkpt>
      <trkpt lat="50.62064" lon="5.4321">
        <ele>192.3</ele>
      </trkpt>
      <trkpt lat="50.62146" lon="5.43301">
        <ele>194.4</ele>
      </trkpt>
      <trkpt lat="50.6215" lon="5.43306">
        <ele>194.4</ele>
      </trkpt>
      <trkpt lat="50.62156" lon="5.43323">
        <ele>193.6</ele>
      </trkpt>
      <trkpt lat="50.62181" lon="5.43389">
        <ele>192</ele>
      </trkpt>
      <trkpt lat="50.62193" lon="5.43423">
        <ele>190.9</ele>
      </trkpt>
      <trkpt lat="50.62199" lon="5.4344">
        <ele>191.2</ele>
      </trkpt>
      <trkpt lat="50.62209" lon="5.43466">
        <ele>191.5</ele>
      </trkpt>
      <trkpt lat="50.62211" lon="5.43472">
        <ele>191.6</ele>
      </trkpt>
      <trkpt lat="50.62208" lon="5.43476">
        <ele>191.3</ele>
      </trkpt>
      <trkpt lat="50.62205" lon="5.43487">
        <ele>190.5</ele>
      </trkpt>
      <trkpt lat="50.62204" lon="5.43493">
        <ele>190.1</ele>
      </trkpt>
      <trkpt lat="50.62205" lon="5.43498">
        <ele>189.9</ele>
      </trkpt>
      <trkpt lat="50.62211" lon="5.4351">
        <ele>190</ele>
      </trkpt>
      <trkpt lat="50.62214" lon="5.43513">
        <ele>190.1</ele>
      </trkpt>
      <trkpt lat="50.62219" lon="5.43514">
        <ele>190.3</ele>
      </trkpt>
      <trkpt lat="50.62223" lon="5.43513">
        <ele>190.5</ele>
      </trkpt>
      <trkpt lat="50.62227" lon="5.4351">
        <ele>190.7</ele>
      </trkpt>
      <trkpt lat="50.62237" lon="5.43539">
        <ele>190.3</ele>
      </trkpt>
      <trkpt lat="50.6225" lon="5.4357">
        <ele>189</ele>
      </trkpt>
      <trkpt lat="50.6226" lon="5.43594">
        <ele>188.2</ele>
      </trkpt>
      <trkpt lat="50.62272" lon="5.43624">
        <ele>186.9</ele>
      </trkpt>
      <trkpt lat="50.62329" lon="5.43781">
        <ele>182.8</ele>
      </trkpt>
      <trkpt lat="50.62371" lon="5.4398">
        <ele>186.1</ele>
      </trkpt>
      <trkpt lat="50.62372" lon="5.43982">
        <ele>186.1</ele>
      </trkpt>
      <trkpt lat="50.62369" lon="5.44004">
        <ele>186.3</ele>
      </trkpt>
      <trkpt lat="50.62368" lon="5.44012">
        <ele>186.2</ele>
      </trkpt>
      <trkpt lat="50.62334" lon="5.44074">
        <ele>186</ele>
      </trkpt>
      <trkpt lat="50.62311" lon="5.44117">
        <ele>186.4</ele>
      </trkpt>
      <trkpt lat="50.62305" lon="5.44139">
        <ele>187</ele>
      </trkpt>
      <trkpt lat="50.62303" lon="5.44149">
        <ele>186.9</ele>
      </trkpt>
      <trkpt lat="50.62306" lon="5.4419">
        <ele>187</ele>
      </trkpt>
      <trkpt lat="50.62307" lon="5.44204">
        <ele>187.4</ele>
      </trkpt>
      <trkpt lat="50.62324" lon="5.44275">
        <ele>189.2</ele>
      </trkpt>
      <trkpt lat="50.62335" lon="5.44334">
        <ele>189.1</ele>
      </trkpt>
      <trkpt lat="50.62347" lon="5.44415">
        <ele>190.4</ele>
      </trkpt>
      <trkpt lat="50.62349" lon="5.44438">
        <ele>190.6</ele>
      </trkpt>
      <trkpt lat="50.62349" lon="5.4445">
        <ele>190.8</ele>
      </trkpt>
      <trkpt lat="50.62353" lon="5.44523">
        <ele>191.7</ele>
      </trkpt>
      <trkpt lat="50.62351" lon="5.44607">
        <ele>192.4</ele>
      </trkpt>
      <trkpt lat="50.62341" lon="5.4469">
        <ele>192</ele>
      </trkpt>
      <trkpt lat="50.62334" lon="5.44762">
        <ele>191</ele>
      </trkpt>
    </trkseg>
  </trk>
</gpx>